<?xml version="1.0" encoding="UTF-8" standalone="no" ?>
<gpx xmlns="http://www.topografix.com/GPX/1/1" xmlns:xsi="http://www.w3.org/2001/XMLSchema-instance" xsi:schemaLocation="http://www.topografix.com/GPX/1/1 http://www.topografix.com/GPX/1/1/gpx.xsd" version="1.1" creator="VisuGPX - https://www.visugpx.com">
  <metadata>
    <name>Pic de Chateau Renard</name>
    <desc><![CDATA[Un peut avant la chapelle Ste Élisabeth prendre à gauche une piste bien marquée montant jusqu\'à l\'observatoire. Monter jusqu\'au Pic de Château Renard puis descente pour rejoindre un sentier \" le gd Canal\" pour revenir au point de départ.]]></desc>
  </metadata>
  <trk>
    <name><![CDATA[2011-06-04T07:42:30Z]]></name>
    <trkseg>
      <trkpt lat="44.67881" lon="6.89717">
        <ele>2236.3</ele>
        <time>2011-06-04T07:42:30Z</time>
      </trkpt>
      <trkpt lat="44.67882" lon="6.8972">
        <ele>2242.6</ele>
        <time>2011-06-04T07:42:33Z</time>
      </trkpt>
      <trkpt lat="44.67883" lon="6.89722">
        <ele>2242.6</ele>
        <time>2011-06-04T07:42:35Z</time>
      </trkpt>
      <trkpt lat="44.67883" lon="6.89724">
        <ele>2242.6</ele>
        <time>2011-06-04T07:42:36Z</time>
      </trkpt>
      <trkpt lat="44.67884" lon="6.89726">
        <ele>2242.8</ele>
        <time>2011-06-04T07:42:38Z</time>
      </trkpt>
      <trkpt lat="44.67884" lon="6.8973">
        <ele>2242.8</ele>
        <time>2011-06-04T07:42:43Z</time>
      </trkpt>
      <trkpt lat="44.67884" lon="6.8974">
        <ele>2242.8</ele>
        <time>2011-06-04T07:42:50Z</time>
      </trkpt>
      <trkpt lat="44.67884" lon="6.89742">
        <ele>2242.8</ele>
        <time>2011-06-04T07:42:52Z</time>
      </trkpt>
      <trkpt lat="44.67884" lon="6.89745">
        <ele>2242.8</ele>
        <time>2011-06-04T07:42:54Z</time>
      </trkpt>
      <trkpt lat="44.67884" lon="6.89747">
        <ele>2242.8</ele>
        <time>2011-06-04T07:42:56Z</time>
      </trkpt>
      <trkpt lat="44.67884" lon="6.89751">
        <ele>2242.8</ele>
        <time>2011-06-04T07:43:01Z</time>
      </trkpt>
      <trkpt lat="44.67884" lon="6.89756">
        <ele>2243</ele>
        <time>2011-06-04T07:43:08Z</time>
      </trkpt>
      <trkpt lat="44.67883" lon="6.89765">
        <ele>2243</ele>
        <time>2011-06-04T07:43:15Z</time>
      </trkpt>
      <trkpt lat="44.67883" lon="6.89767">
        <ele>2243.2</ele>
        <time>2011-06-04T07:43:16Z</time>
      </trkpt>
      <trkpt lat="44.67882" lon="6.89773">
        <ele>2243.2</ele>
        <time>2011-06-04T07:43:21Z</time>
      </trkpt>
      <trkpt lat="44.67881" lon="6.89783">
        <ele>2244</ele>
        <time>2011-06-04T07:43:29Z</time>
      </trkpt>
      <trkpt lat="44.67881" lon="6.89789">
        <ele>2244.4</ele>
        <time>2011-06-04T07:43:34Z</time>
      </trkpt>
      <trkpt lat="44.67881" lon="6.89793">
        <ele>2244.6</ele>
        <time>2011-06-04T07:43:37Z</time>
      </trkpt>
      <trkpt lat="44.67881" lon="6.89797">
        <ele>2244.8</ele>
        <time>2011-06-04T07:43:40Z</time>
      </trkpt>
      <trkpt lat="44.6788" lon="6.89805">
        <ele>2245.4</ele>
        <time>2011-06-04T07:43:47Z</time>
      </trkpt>
      <trkpt lat="44.6788" lon="6.89817">
        <ele>2246.4</ele>
        <time>2011-06-04T07:43:56Z</time>
      </trkpt>
      <trkpt lat="44.6788" lon="6.89818">
        <ele>2246.4</ele>
        <time>2011-06-04T07:43:57Z</time>
      </trkpt>
      <trkpt lat="44.6788" lon="6.89826">
        <ele>2247</ele>
        <time>2011-06-04T07:44:03Z</time>
      </trkpt>
      <trkpt lat="44.67878" lon="6.89834">
        <ele>2247.6</ele>
        <time>2011-06-04T07:44:10Z</time>
      </trkpt>
      <trkpt lat="44.67876" lon="6.89838">
        <ele>2248</ele>
        <time>2011-06-04T07:44:14Z</time>
      </trkpt>
      <trkpt lat="44.67874" lon="6.89841">
        <ele>2248.2</ele>
        <time>2011-06-04T07:44:17Z</time>
      </trkpt>
      <trkpt lat="44.67874" lon="6.89842">
        <ele>2248.4</ele>
        <time>2011-06-04T07:44:18Z</time>
      </trkpt>
      <trkpt lat="44.67873" lon="6.89843">
        <ele>2248.4</ele>
        <time>2011-06-04T07:44:20Z</time>
      </trkpt>
      <trkpt lat="44.67872" lon="6.89842">
        <ele>2248.6</ele>
        <time>2011-06-04T07:44:22Z</time>
      </trkpt>
      <trkpt lat="44.67869" lon="6.89846">
        <ele>2249</ele>
        <time>2011-06-04T07:44:27Z</time>
      </trkpt>
      <trkpt lat="44.67865" lon="6.8985">
        <ele>2249.6</ele>
        <time>2011-06-04T07:44:33Z</time>
      </trkpt>
      <trkpt lat="44.67861" lon="6.89854">
        <ele>2250.2</ele>
        <time>2011-06-04T07:44:38Z</time>
      </trkpt>
      <trkpt lat="44.67859" lon="6.89856">
        <ele>2250.4</ele>
        <time>2011-06-04T07:44:40Z</time>
      </trkpt>
      <trkpt lat="44.67853" lon="6.89861">
        <ele>2251.6</ele>
        <time>2011-06-04T07:44:48Z</time>
      </trkpt>
      <trkpt lat="44.67849" lon="6.89863">
        <ele>2252.2</ele>
        <time>2011-06-04T07:44:52Z</time>
      </trkpt>
      <trkpt lat="44.67846" lon="6.89867">
        <ele>2252.8</ele>
        <time>2011-06-04T07:44:56Z</time>
      </trkpt>
      <trkpt lat="44.67844" lon="6.89872">
        <ele>2253.2</ele>
        <time>2011-06-04T07:44:59Z</time>
      </trkpt>
      <trkpt lat="44.67843" lon="6.89877">
        <ele>2253.4</ele>
        <time>2011-06-04T07:45:02Z</time>
      </trkpt>
      <trkpt lat="44.67842" lon="6.89878">
        <ele>2253.6</ele>
        <time>2011-06-04T07:45:04Z</time>
      </trkpt>
      <trkpt lat="44.67842" lon="6.8988">
        <ele>2253.8</ele>
        <time>2011-06-04T07:45:07Z</time>
      </trkpt>
      <trkpt lat="44.67843" lon="6.89885">
        <ele>2254</ele>
        <time>2011-06-04T07:45:10Z</time>
      </trkpt>
      <trkpt lat="44.67844" lon="6.89884">
        <ele>2254</ele>
        <time>2011-06-04T07:45:11Z</time>
      </trkpt>
      <trkpt lat="44.6785" lon="6.89879">
        <ele>2254.4</ele>
        <time>2011-06-04T07:45:16Z</time>
      </trkpt>
      <trkpt lat="44.67854" lon="6.89873">
        <ele>2254.8</ele>
        <time>2011-06-04T07:45:21Z</time>
      </trkpt>
      <trkpt lat="44.67855" lon="6.89873">
        <ele>2254.8</ele>
        <time>2011-06-04T07:45:22Z</time>
      </trkpt>
      <trkpt lat="44.67855" lon="6.89876">
        <ele>2256.4</ele>
        <time>2011-06-04T07:45:35Z</time>
      </trkpt>
      <trkpt lat="44.67854" lon="6.89877">
        <ele>2258.2</ele>
        <time>2011-06-04T07:45:47Z</time>
      </trkpt>
      <trkpt lat="44.67853" lon="6.89883">
        <ele>2258.8</ele>
        <time>2011-06-04T07:45:53Z</time>
      </trkpt>
      <trkpt lat="44.67853" lon="6.89887">
        <ele>2259.2</ele>
        <time>2011-06-04T07:45:56Z</time>
      </trkpt>
      <trkpt lat="44.67852" lon="6.89894">
        <ele>2259.8</ele>
        <time>2011-06-04T07:46:01Z</time>
      </trkpt>
      <trkpt lat="44.67853" lon="6.89898">
        <ele>2260.2</ele>
        <time>2011-06-04T07:46:04Z</time>
      </trkpt>
      <trkpt lat="44.67856" lon="6.89902">
        <ele>2260.8</ele>
        <time>2011-06-04T07:46:08Z</time>
      </trkpt>
      <trkpt lat="44.67857" lon="6.89905">
        <ele>2261</ele>
        <time>2011-06-04T07:46:10Z</time>
      </trkpt>
      <trkpt lat="44.67859" lon="6.8991">
        <ele>2261.4</ele>
        <time>2011-06-04T07:46:13Z</time>
      </trkpt>
      <trkpt lat="44.6786" lon="6.89911">
        <ele>2261.4</ele>
        <time>2011-06-04T07:46:14Z</time>
      </trkpt>
      <trkpt lat="44.67864" lon="6.89917">
        <ele>2262</ele>
        <time>2011-06-04T07:46:19Z</time>
      </trkpt>
      <trkpt lat="44.67871" lon="6.89922">
        <ele>2262.6</ele>
        <time>2011-06-04T07:46:25Z</time>
      </trkpt>
      <trkpt lat="44.67874" lon="6.89924">
        <ele>2262.8</ele>
        <time>2011-06-04T07:46:27Z</time>
      </trkpt>
      <trkpt lat="44.67875" lon="6.89927">
        <ele>2263</ele>
        <time>2011-06-04T07:46:29Z</time>
      </trkpt>
      <trkpt lat="44.67878" lon="6.89934">
        <ele>2263.6</ele>
        <time>2011-06-04T07:46:34Z</time>
      </trkpt>
      <trkpt lat="44.67879" lon="6.89936">
        <ele>2263.8</ele>
        <time>2011-06-04T07:46:35Z</time>
      </trkpt>
      <trkpt lat="44.6788" lon="6.89941">
        <ele>2264.4</ele>
        <time>2011-06-04T07:46:39Z</time>
      </trkpt>
      <trkpt lat="44.67881" lon="6.89942">
        <ele>2264.6</ele>
        <time>2011-06-04T07:46:40Z</time>
      </trkpt>
      <trkpt lat="44.67883" lon="6.89946">
        <ele>2265</ele>
        <time>2011-06-04T07:46:43Z</time>
      </trkpt>
      <trkpt lat="44.67884" lon="6.89949">
        <ele>2265.4</ele>
        <time>2011-06-04T07:46:45Z</time>
      </trkpt>
      <trkpt lat="44.67885" lon="6.89951">
        <ele>2265.4</ele>
        <time>2011-06-04T07:46:46Z</time>
      </trkpt>
      <trkpt lat="44.67891" lon="6.8996">
        <ele>2266.4</ele>
        <time>2011-06-04T07:46:52Z</time>
      </trkpt>
      <trkpt lat="44.67895" lon="6.89965">
        <ele>2267</ele>
        <time>2011-06-04T07:46:56Z</time>
      </trkpt>
      <trkpt lat="44.67898" lon="6.8997">
        <ele>2268</ele>
        <time>2011-06-04T07:47:01Z</time>
      </trkpt>
      <trkpt lat="44.67901" lon="6.89976">
        <ele>2268.6</ele>
        <time>2011-06-04T07:47:05Z</time>
      </trkpt>
      <trkpt lat="44.67906" lon="6.89982">
        <ele>2269.4</ele>
        <time>2011-06-04T07:47:10Z</time>
      </trkpt>
      <trkpt lat="44.67907" lon="6.89984">
        <ele>2269.6</ele>
        <time>2011-06-04T07:47:11Z</time>
      </trkpt>
      <trkpt lat="44.67909" lon="6.89987">
        <ele>2270.2</ele>
        <time>2011-06-04T07:47:14Z</time>
      </trkpt>
      <trkpt lat="44.6791" lon="6.89989">
        <ele>2270.6</ele>
        <time>2011-06-04T07:47:16Z</time>
      </trkpt>
      <trkpt lat="44.67911" lon="6.8999">
        <ele>2271</ele>
        <time>2011-06-04T07:47:18Z</time>
      </trkpt>
      <trkpt lat="44.67912" lon="6.89992">
        <ele>2271.4</ele>
        <time>2011-06-04T07:47:20Z</time>
      </trkpt>
      <trkpt lat="44.67913" lon="6.89992">
        <ele>2272</ele>
        <time>2011-06-04T07:47:23Z</time>
      </trkpt>
      <trkpt lat="44.67915" lon="6.89993">
        <ele>2272.6</ele>
        <time>2011-06-04T07:47:26Z</time>
      </trkpt>
      <trkpt lat="44.67917" lon="6.89995">
        <ele>2273</ele>
        <time>2011-06-04T07:47:28Z</time>
      </trkpt>
      <trkpt lat="44.67919" lon="6.89998">
        <ele>2273.8</ele>
        <time>2011-06-04T07:47:32Z</time>
      </trkpt>
      <trkpt lat="44.6792" lon="6.9">
        <ele>2274.2</ele>
        <time>2011-06-04T07:47:34Z</time>
      </trkpt>
      <trkpt lat="44.67921" lon="6.90001">
        <ele>2274.4</ele>
        <time>2011-06-04T07:47:35Z</time>
      </trkpt>
      <trkpt lat="44.67922" lon="6.90003">
        <ele>2274.8</ele>
        <time>2011-06-04T07:47:37Z</time>
      </trkpt>
      <trkpt lat="44.67922" lon="6.90004">
        <ele>2275</ele>
        <time>2011-06-04T07:47:38Z</time>
      </trkpt>
      <trkpt lat="44.67925" lon="6.90006">
        <ele>2275.8</ele>
        <time>2011-06-04T07:47:41Z</time>
      </trkpt>
      <trkpt lat="44.67927" lon="6.90007">
        <ele>2276.4</ele>
        <time>2011-06-04T07:47:44Z</time>
      </trkpt>
      <trkpt lat="44.67928" lon="6.90008">
        <ele>2276.6</ele>
        <time>2011-06-04T07:47:45Z</time>
      </trkpt>
      <trkpt lat="44.67928" lon="6.90009">
        <ele>2276.8</ele>
        <time>2011-06-04T07:47:46Z</time>
      </trkpt>
      <trkpt lat="44.6793" lon="6.90012">
        <ele>2277.6</ele>
        <time>2011-06-04T07:47:50Z</time>
      </trkpt>
      <trkpt lat="44.67934" lon="6.90015">
        <ele>2278.8</ele>
        <time>2011-06-04T07:47:55Z</time>
      </trkpt>
      <trkpt lat="44.67935" lon="6.90016">
        <ele>2279</ele>
        <time>2011-06-04T07:47:56Z</time>
      </trkpt>
      <trkpt lat="44.67938" lon="6.90019">
        <ele>2280</ele>
        <time>2011-06-04T07:48:00Z</time>
      </trkpt>
      <trkpt lat="44.67941" lon="6.90024">
        <ele>2280.8</ele>
        <time>2011-06-04T07:48:05Z</time>
      </trkpt>
      <trkpt lat="44.67944" lon="6.9003">
        <ele>2282</ele>
        <time>2011-06-04T07:48:10Z</time>
      </trkpt>
      <trkpt lat="44.67946" lon="6.90034">
        <ele>2282.6</ele>
        <time>2011-06-04T07:48:13Z</time>
      </trkpt>
      <trkpt lat="44.67947" lon="6.90035">
        <ele>2282.8</ele>
        <time>2011-06-04T07:48:14Z</time>
      </trkpt>
      <trkpt lat="44.67948" lon="6.90035">
        <ele>2283</ele>
        <time>2011-06-04T07:48:15Z</time>
      </trkpt>
      <trkpt lat="44.67953" lon="6.90043">
        <ele>2284</ele>
        <time>2011-06-04T07:48:21Z</time>
      </trkpt>
      <trkpt lat="44.6796" lon="6.90049">
        <ele>2285.4</ele>
        <time>2011-06-04T07:48:28Z</time>
      </trkpt>
      <trkpt lat="44.67961" lon="6.90051">
        <ele>2285.4</ele>
        <time>2011-06-04T07:48:29Z</time>
      </trkpt>
      <trkpt lat="44.67965" lon="6.90055">
        <ele>2286.4</ele>
        <time>2011-06-04T07:48:34Z</time>
      </trkpt>
      <trkpt lat="44.67967" lon="6.90057">
        <ele>2286.8</ele>
        <time>2011-06-04T07:48:36Z</time>
      </trkpt>
      <trkpt lat="44.67971" lon="6.90063">
        <ele>2287.6</ele>
        <time>2011-06-04T07:48:41Z</time>
      </trkpt>
      <trkpt lat="44.67974" lon="6.90067">
        <ele>2288.4</ele>
        <time>2011-06-04T07:48:45Z</time>
      </trkpt>
      <trkpt lat="44.67974" lon="6.90068">
        <ele>2288.6</ele>
        <time>2011-06-04T07:48:46Z</time>
      </trkpt>
      <trkpt lat="44.67976" lon="6.9007">
        <ele>2289.2</ele>
        <time>2011-06-04T07:48:49Z</time>
      </trkpt>
      <trkpt lat="44.67977" lon="6.90071">
        <ele>2289.2</ele>
        <time>2011-06-04T07:48:50Z</time>
      </trkpt>
      <trkpt lat="44.67977" lon="6.90072">
        <ele>2289.4</ele>
        <time>2011-06-04T07:48:51Z</time>
      </trkpt>
      <trkpt lat="44.6798" lon="6.90077">
        <ele>2290.2</ele>
        <time>2011-06-04T07:48:55Z</time>
      </trkpt>
      <trkpt lat="44.6798" lon="6.90078">
        <ele>2290.4</ele>
        <time>2011-06-04T07:48:56Z</time>
      </trkpt>
      <trkpt lat="44.67982" lon="6.9008">
        <ele>2290.8</ele>
        <time>2011-06-04T07:48:58Z</time>
      </trkpt>
      <trkpt lat="44.67986" lon="6.90083">
        <ele>2291.6</ele>
        <time>2011-06-04T07:49:02Z</time>
      </trkpt>
      <trkpt lat="44.67987" lon="6.90084">
        <ele>2291.8</ele>
        <time>2011-06-04T07:49:03Z</time>
      </trkpt>
      <trkpt lat="44.6799" lon="6.90086">
        <ele>2292.8</ele>
        <time>2011-06-04T07:49:07Z</time>
      </trkpt>
      <trkpt lat="44.67993" lon="6.90089">
        <ele>2294</ele>
        <time>2011-06-04T07:49:12Z</time>
      </trkpt>
      <trkpt lat="44.67996" lon="6.90091">
        <ele>2295.4</ele>
        <time>2011-06-04T07:49:17Z</time>
      </trkpt>
      <trkpt lat="44.67998" lon="6.90091">
        <ele>2296.4</ele>
        <time>2011-06-04T07:49:21Z</time>
      </trkpt>
      <trkpt lat="44.68001" lon="6.90093">
        <ele>2297.4</ele>
        <time>2011-06-04T07:49:25Z</time>
      </trkpt>
      <trkpt lat="44.68004" lon="6.90092">
        <ele>2298.8</ele>
        <time>2011-06-04T07:49:30Z</time>
      </trkpt>
      <trkpt lat="44.68008" lon="6.9009">
        <ele>2300.2</ele>
        <time>2011-06-04T07:49:35Z</time>
      </trkpt>
      <trkpt lat="44.6801" lon="6.9009">
        <ele>2300.8</ele>
        <time>2011-06-04T07:49:37Z</time>
      </trkpt>
      <trkpt lat="44.68012" lon="6.90091">
        <ele>2301.2</ele>
        <time>2011-06-04T07:49:39Z</time>
      </trkpt>
      <trkpt lat="44.68015" lon="6.90091">
        <ele>2302.2</ele>
        <time>2011-06-04T07:49:43Z</time>
      </trkpt>
      <trkpt lat="44.68016" lon="6.90092">
        <ele>2302.6</ele>
        <time>2011-06-04T07:49:44Z</time>
      </trkpt>
      <trkpt lat="44.68017" lon="6.90094">
        <ele>2303.6</ele>
        <time>2011-06-04T07:49:48Z</time>
      </trkpt>
      <trkpt lat="44.68021" lon="6.90092">
        <ele>2304.6</ele>
        <time>2011-06-04T07:49:52Z</time>
      </trkpt>
      <trkpt lat="44.68022" lon="6.90091">
        <ele>2304.8</ele>
        <time>2011-06-04T07:49:53Z</time>
      </trkpt>
      <trkpt lat="44.68025" lon="6.90087">
        <ele>2305.8</ele>
        <time>2011-06-04T07:49:57Z</time>
      </trkpt>
      <trkpt lat="44.68026" lon="6.90086">
        <ele>2306</ele>
        <time>2011-06-04T07:49:58Z</time>
      </trkpt>
      <trkpt lat="44.68026" lon="6.90085">
        <ele>2306.2</ele>
        <time>2011-06-04T07:49:59Z</time>
      </trkpt>
      <trkpt lat="44.68028" lon="6.90085">
        <ele>2306.8</ele>
        <time>2011-06-04T07:50:01Z</time>
      </trkpt>
      <trkpt lat="44.68029" lon="6.90086">
        <ele>2307.2</ele>
        <time>2011-06-04T07:50:03Z</time>
      </trkpt>
      <trkpt lat="44.6803" lon="6.90087">
        <ele>2307.8</ele>
        <time>2011-06-04T07:50:05Z</time>
      </trkpt>
      <trkpt lat="44.68033" lon="6.9009">
        <ele>2309</ele>
        <time>2011-06-04T07:50:10Z</time>
      </trkpt>
      <trkpt lat="44.68035" lon="6.90091">
        <ele>2310</ele>
        <time>2011-06-04T07:50:14Z</time>
      </trkpt>
      <trkpt lat="44.68036" lon="6.90091">
        <ele>2310.2</ele>
        <time>2011-06-04T07:50:15Z</time>
      </trkpt>
      <trkpt lat="44.68037" lon="6.90092">
        <ele>2311</ele>
        <time>2011-06-04T07:50:18Z</time>
      </trkpt>
      <trkpt lat="44.6804" lon="6.90091">
        <ele>2312.4</ele>
        <time>2011-06-04T07:50:23Z</time>
      </trkpt>
      <trkpt lat="44.68042" lon="6.90091">
        <ele>2313.6</ele>
        <time>2011-06-04T07:50:28Z</time>
      </trkpt>
      <trkpt lat="44.68045" lon="6.90093">
        <ele>2314.8</ele>
        <time>2011-06-04T07:50:33Z</time>
      </trkpt>
      <trkpt lat="44.68049" lon="6.90099">
        <ele>2316</ele>
        <time>2011-06-04T07:50:38Z</time>
      </trkpt>
      <trkpt lat="44.6805" lon="6.901">
        <ele>2316.2</ele>
        <time>2011-06-04T07:50:39Z</time>
      </trkpt>
      <trkpt lat="44.68051" lon="6.90101">
        <ele>2316.4</ele>
        <time>2011-06-04T07:50:40Z</time>
      </trkpt>
      <trkpt lat="44.68052" lon="6.90104">
        <ele>2316.8</ele>
        <time>2011-06-04T07:50:42Z</time>
      </trkpt>
      <trkpt lat="44.68054" lon="6.9011">
        <ele>2317.4</ele>
        <time>2011-06-04T07:50:46Z</time>
      </trkpt>
      <trkpt lat="44.68056" lon="6.90117">
        <ele>2318.2</ele>
        <time>2011-06-04T07:50:51Z</time>
      </trkpt>
      <trkpt lat="44.68058" lon="6.90124">
        <ele>2319</ele>
        <time>2011-06-04T07:50:56Z</time>
      </trkpt>
      <trkpt lat="44.68059" lon="6.90136">
        <ele>2320</ele>
        <time>2011-06-04T07:51:03Z</time>
      </trkpt>
      <trkpt lat="44.68058" lon="6.90146">
        <ele>2321.4</ele>
        <time>2011-06-04T07:51:10Z</time>
      </trkpt>
      <trkpt lat="44.68059" lon="6.90146">
        <ele>2321.6</ele>
        <time>2011-06-04T07:51:11Z</time>
      </trkpt>
      <trkpt lat="44.6806" lon="6.90148">
        <ele>2322.2</ele>
        <time>2011-06-04T07:51:13Z</time>
      </trkpt>
      <trkpt lat="44.68062" lon="6.90151">
        <ele>2322.8</ele>
        <time>2011-06-04T07:51:16Z</time>
      </trkpt>
      <trkpt lat="44.68064" lon="6.90154">
        <ele>2323.8</ele>
        <time>2011-06-04T07:51:21Z</time>
      </trkpt>
      <trkpt lat="44.68067" lon="6.90158">
        <ele>2325</ele>
        <time>2011-06-04T07:51:25Z</time>
      </trkpt>
      <trkpt lat="44.68069" lon="6.90161">
        <ele>2325.8</ele>
        <time>2011-06-04T07:51:28Z</time>
      </trkpt>
      <trkpt lat="44.6807" lon="6.90163">
        <ele>2325.8</ele>
        <time>2011-06-04T07:51:29Z</time>
      </trkpt>
      <trkpt lat="44.68072" lon="6.90167">
        <ele>2326.4</ele>
        <time>2011-06-04T07:51:31Z</time>
      </trkpt>
      <trkpt lat="44.68073" lon="6.90172">
        <ele>2327</ele>
        <time>2011-06-04T07:51:34Z</time>
      </trkpt>
      <trkpt lat="44.68074" lon="6.90174">
        <ele>2327.2</ele>
        <time>2011-06-04T07:51:35Z</time>
      </trkpt>
      <trkpt lat="44.68077" lon="6.90178">
        <ele>2327.8</ele>
        <time>2011-06-04T07:51:39Z</time>
      </trkpt>
      <trkpt lat="44.6808" lon="6.90178">
        <ele>2329.2</ele>
        <time>2011-06-04T07:51:48Z</time>
      </trkpt>
      <trkpt lat="44.68085" lon="6.90179">
        <ele>2330</ele>
        <time>2011-06-04T07:51:53Z</time>
      </trkpt>
      <trkpt lat="44.68087" lon="6.90179">
        <ele>2330.2</ele>
        <time>2011-06-04T07:51:54Z</time>
      </trkpt>
      <trkpt lat="44.68095" lon="6.90178">
        <ele>2331.6</ele>
        <time>2011-06-04T07:52:01Z</time>
      </trkpt>
      <trkpt lat="44.68104" lon="6.90178">
        <ele>2333.2</ele>
        <time>2011-06-04T07:52:09Z</time>
      </trkpt>
      <trkpt lat="44.68105" lon="6.90178">
        <ele>2333.6</ele>
        <time>2011-06-04T07:52:10Z</time>
      </trkpt>
      <trkpt lat="44.68113" lon="6.90179">
        <ele>2335.2</ele>
        <time>2011-06-04T07:52:17Z</time>
      </trkpt>
      <trkpt lat="44.68124" lon="6.90182">
        <ele>2337</ele>
        <time>2011-06-04T07:52:25Z</time>
      </trkpt>
      <trkpt lat="44.68125" lon="6.90183">
        <ele>2337.2</ele>
        <time>2011-06-04T07:52:26Z</time>
      </trkpt>
      <trkpt lat="44.68137" lon="6.90193">
        <ele>2339.4</ele>
        <time>2011-06-04T07:52:36Z</time>
      </trkpt>
      <trkpt lat="44.6814" lon="6.90195">
        <ele>2339.8</ele>
        <time>2011-06-04T07:52:38Z</time>
      </trkpt>
      <trkpt lat="44.68146" lon="6.90201">
        <ele>2340.8</ele>
        <time>2011-06-04T07:52:44Z</time>
      </trkpt>
      <trkpt lat="44.68155" lon="6.90209">
        <ele>2342.4</ele>
        <time>2011-06-04T07:52:52Z</time>
      </trkpt>
      <trkpt lat="44.68156" lon="6.9021">
        <ele>2342.4</ele>
        <time>2011-06-04T07:52:53Z</time>
      </trkpt>
      <trkpt lat="44.68168" lon="6.90219">
        <ele>2344</ele>
        <time>2011-06-04T07:53:02Z</time>
      </trkpt>
      <trkpt lat="44.68171" lon="6.9022">
        <ele>2344.4</ele>
        <time>2011-06-04T07:53:05Z</time>
      </trkpt>
      <trkpt lat="44.68179" lon="6.90226">
        <ele>2345.2</ele>
        <time>2011-06-04T07:53:11Z</time>
      </trkpt>
      <trkpt lat="44.68187" lon="6.90235">
        <ele>2345.8</ele>
        <time>2011-06-04T07:53:18Z</time>
      </trkpt>
      <trkpt lat="44.6819" lon="6.90239">
        <ele>2346.2</ele>
        <time>2011-06-04T07:53:21Z</time>
      </trkpt>
      <trkpt lat="44.68199" lon="6.90251">
        <ele>2347.4</ele>
        <time>2011-06-04T07:53:30Z</time>
      </trkpt>
      <trkpt lat="44.682" lon="6.90253">
        <ele>2347.6</ele>
        <time>2011-06-04T07:53:31Z</time>
      </trkpt>
      <trkpt lat="44.68208" lon="6.90262">
        <ele>2348.8</ele>
        <time>2011-06-04T07:53:38Z</time>
      </trkpt>
      <trkpt lat="44.68214" lon="6.90271">
        <ele>2349.6</ele>
        <time>2011-06-04T07:53:44Z</time>
      </trkpt>
      <trkpt lat="44.68217" lon="6.90278">
        <ele>2350.4</ele>
        <time>2011-06-04T07:53:48Z</time>
      </trkpt>
      <trkpt lat="44.68223" lon="6.90293">
        <ele>2351.2</ele>
        <time>2011-06-04T07:53:56Z</time>
      </trkpt>
      <trkpt lat="44.68227" lon="6.90309">
        <ele>2352.2</ele>
        <time>2011-06-04T07:54:04Z</time>
      </trkpt>
      <trkpt lat="44.6823" lon="6.90314">
        <ele>2353</ele>
        <time>2011-06-04T07:54:09Z</time>
      </trkpt>
      <trkpt lat="44.6823" lon="6.90317">
        <ele>2353.6</ele>
        <time>2011-06-04T07:54:12Z</time>
      </trkpt>
      <trkpt lat="44.68231" lon="6.90318">
        <ele>2354</ele>
        <time>2011-06-04T07:54:14Z</time>
      </trkpt>
      <trkpt lat="44.68232" lon="6.90322">
        <ele>2355</ele>
        <time>2011-06-04T07:54:19Z</time>
      </trkpt>
      <trkpt lat="44.68233" lon="6.90325">
        <ele>2355.6</ele>
        <time>2011-06-04T07:54:22Z</time>
      </trkpt>
      <trkpt lat="44.68233" lon="6.90332">
        <ele>2356.8</ele>
        <time>2011-06-04T07:54:27Z</time>
      </trkpt>
      <trkpt lat="44.68234" lon="6.9034">
        <ele>2358.2</ele>
        <time>2011-06-04T07:54:33Z</time>
      </trkpt>
      <trkpt lat="44.68234" lon="6.90342">
        <ele>2358.4</ele>
        <time>2011-06-04T07:54:34Z</time>
      </trkpt>
      <trkpt lat="44.68235" lon="6.90348">
        <ele>2359</ele>
        <time>2011-06-04T07:54:37Z</time>
      </trkpt>
      <trkpt lat="44.68235" lon="6.90349">
        <ele>2359.2</ele>
        <time>2011-06-04T07:54:38Z</time>
      </trkpt>
      <trkpt lat="44.68236" lon="6.90354">
        <ele>2359.8</ele>
        <time>2011-06-04T07:54:41Z</time>
      </trkpt>
      <trkpt lat="44.68237" lon="6.90356">
        <ele>2360.2</ele>
        <time>2011-06-04T07:54:43Z</time>
      </trkpt>
      <trkpt lat="44.68238" lon="6.90362">
        <ele>2361.2</ele>
        <time>2011-06-04T07:54:47Z</time>
      </trkpt>
      <trkpt lat="44.68239" lon="6.90367">
        <ele>2362.2</ele>
        <time>2011-06-04T07:54:51Z</time>
      </trkpt>
      <trkpt lat="44.68239" lon="6.90368">
        <ele>2362.4</ele>
        <time>2011-06-04T07:54:52Z</time>
      </trkpt>
      <trkpt lat="44.68241" lon="6.90373">
        <ele>2363.4</ele>
        <time>2011-06-04T07:54:56Z</time>
      </trkpt>
      <trkpt lat="44.68242" lon="6.90375">
        <ele>2364</ele>
        <time>2011-06-04T07:54:58Z</time>
      </trkpt>
      <trkpt lat="44.68243" lon="6.90378">
        <ele>2364.8</ele>
        <time>2011-06-04T07:55:01Z</time>
      </trkpt>
      <trkpt lat="44.68245" lon="6.90386">
        <ele>2366</ele>
        <time>2011-06-04T07:55:06Z</time>
      </trkpt>
      <trkpt lat="44.68246" lon="6.90391">
        <ele>2367.2</ele>
        <time>2011-06-04T07:55:10Z</time>
      </trkpt>
      <trkpt lat="44.68248" lon="6.90397">
        <ele>2368.4</ele>
        <time>2011-06-04T07:55:14Z</time>
      </trkpt>
      <trkpt lat="44.68249" lon="6.90402">
        <ele>2369.4</ele>
        <time>2011-06-04T07:55:18Z</time>
      </trkpt>
      <trkpt lat="44.68249" lon="6.90404">
        <ele>2369.6</ele>
        <time>2011-06-04T07:55:19Z</time>
      </trkpt>
      <trkpt lat="44.6825" lon="6.90408">
        <ele>2370.6</ele>
        <time>2011-06-04T07:55:22Z</time>
      </trkpt>
      <trkpt lat="44.68251" lon="6.90416">
        <ele>2372.2</ele>
        <time>2011-06-04T07:55:28Z</time>
      </trkpt>
      <trkpt lat="44.68252" lon="6.90418">
        <ele>2372.8</ele>
        <time>2011-06-04T07:55:30Z</time>
      </trkpt>
      <trkpt lat="44.68253" lon="6.90421">
        <ele>2373.2</ele>
        <time>2011-06-04T07:55:32Z</time>
      </trkpt>
      <trkpt lat="44.68255" lon="6.90425">
        <ele>2374.2</ele>
        <time>2011-06-04T07:55:35Z</time>
      </trkpt>
      <trkpt lat="44.68256" lon="6.90433">
        <ele>2375.4</ele>
        <time>2011-06-04T07:55:40Z</time>
      </trkpt>
      <trkpt lat="44.68256" lon="6.90439">
        <ele>2376.4</ele>
        <time>2011-06-04T07:55:44Z</time>
      </trkpt>
      <trkpt lat="44.68256" lon="6.90441">
        <ele>2376.8</ele>
        <time>2011-06-04T07:55:45Z</time>
      </trkpt>
      <trkpt lat="44.68256" lon="6.90443">
        <ele>2377</ele>
        <time>2011-06-04T07:55:46Z</time>
      </trkpt>
      <trkpt lat="44.68256" lon="6.90444">
        <ele>2377.2</ele>
        <time>2011-06-04T07:55:47Z</time>
      </trkpt>
      <trkpt lat="44.68255" lon="6.90445">
        <ele>2377.6</ele>
        <time>2011-06-04T07:55:48Z</time>
      </trkpt>
      <trkpt lat="44.68255" lon="6.90453">
        <ele>2378.8</ele>
        <time>2011-06-04T07:55:53Z</time>
      </trkpt>
      <trkpt lat="44.68255" lon="6.90459">
        <ele>2380.2</ele>
        <time>2011-06-04T07:55:58Z</time>
      </trkpt>
      <trkpt lat="44.68256" lon="6.90462">
        <ele>2381.4</ele>
        <time>2011-06-04T07:56:02Z</time>
      </trkpt>
      <trkpt lat="44.68256" lon="6.90463">
        <ele>2381.6</ele>
        <time>2011-06-04T07:56:03Z</time>
      </trkpt>
      <trkpt lat="44.68257" lon="6.90466">
        <ele>2382.6</ele>
        <time>2011-06-04T07:56:06Z</time>
      </trkpt>
      <trkpt lat="44.68257" lon="6.90467">
        <ele>2382.8</ele>
        <time>2011-06-04T07:56:07Z</time>
      </trkpt>
      <trkpt lat="44.68258" lon="6.90472">
        <ele>2384.2</ele>
        <time>2011-06-04T07:56:12Z</time>
      </trkpt>
      <trkpt lat="44.68259" lon="6.90477">
        <ele>2385.6</ele>
        <time>2011-06-04T07:56:17Z</time>
      </trkpt>
      <trkpt lat="44.6826" lon="6.90481">
        <ele>2386.8</ele>
        <time>2011-06-04T07:56:22Z</time>
      </trkpt>
      <trkpt lat="44.68263" lon="6.90485">
        <ele>2388</ele>
        <time>2011-06-04T07:56:26Z</time>
      </trkpt>
      <trkpt lat="44.68263" lon="6.90485">
        <ele>2388.2</ele>
        <time>2011-06-04T07:56:27Z</time>
      </trkpt>
      <trkpt lat="44.68265" lon="6.90487">
        <ele>2389.4</ele>
        <time>2011-06-04T07:56:31Z</time>
      </trkpt>
      <trkpt lat="44.68266" lon="6.90488">
        <ele>2390</ele>
        <time>2011-06-04T07:56:33Z</time>
      </trkpt>
      <trkpt lat="44.68267" lon="6.9049">
        <ele>2390.6</ele>
        <time>2011-06-04T07:56:35Z</time>
      </trkpt>
      <trkpt lat="44.68268" lon="6.90491">
        <ele>2390.8</ele>
        <time>2011-06-04T07:56:36Z</time>
      </trkpt>
      <trkpt lat="44.68269" lon="6.90494">
        <ele>2391.6</ele>
        <time>2011-06-04T07:56:39Z</time>
      </trkpt>
      <trkpt lat="44.6827" lon="6.90495">
        <ele>2391.8</ele>
        <time>2011-06-04T07:56:40Z</time>
      </trkpt>
      <trkpt lat="44.68272" lon="6.90499">
        <ele>2392.8</ele>
        <time>2011-06-04T07:56:44Z</time>
      </trkpt>
      <trkpt lat="44.68274" lon="6.90504">
        <ele>2394</ele>
        <time>2011-06-04T07:56:49Z</time>
      </trkpt>
      <trkpt lat="44.68275" lon="6.90507">
        <ele>2395.2</ele>
        <time>2011-06-04T07:56:55Z</time>
      </trkpt>
      <trkpt lat="44.68275" lon="6.90509">
        <ele>2397.8</ele>
        <time>2011-06-04T07:57:07Z</time>
      </trkpt>
      <trkpt lat="44.68277" lon="6.90512">
        <ele>2398.4</ele>
        <time>2011-06-04T07:57:11Z</time>
      </trkpt>
      <trkpt lat="44.68281" lon="6.90518">
        <ele>2399.8</ele>
        <time>2011-06-04T07:57:19Z</time>
      </trkpt>
      <trkpt lat="44.68282" lon="6.90521">
        <ele>2400.2</ele>
        <time>2011-06-04T07:57:22Z</time>
      </trkpt>
      <trkpt lat="44.68284" lon="6.90525">
        <ele>2400.8</ele>
        <time>2011-06-04T07:57:26Z</time>
      </trkpt>
      <trkpt lat="44.68286" lon="6.90529">
        <ele>2401.6</ele>
        <time>2011-06-04T07:57:31Z</time>
      </trkpt>
      <trkpt lat="44.68286" lon="6.9053">
        <ele>2401.8</ele>
        <time>2011-06-04T07:57:32Z</time>
      </trkpt>
      <trkpt lat="44.68287" lon="6.90532">
        <ele>2402.2</ele>
        <time>2011-06-04T07:57:34Z</time>
      </trkpt>
      <trkpt lat="44.68288" lon="6.90534">
        <ele>2402.8</ele>
        <time>2011-06-04T07:57:37Z</time>
      </trkpt>
      <trkpt lat="44.6829" lon="6.90536">
        <ele>2404</ele>
        <time>2011-06-04T07:57:42Z</time>
      </trkpt>
      <trkpt lat="44.68292" lon="6.9054">
        <ele>2404.8</ele>
        <time>2011-06-04T07:57:46Z</time>
      </trkpt>
      <trkpt lat="44.68295" lon="6.90543">
        <ele>2405.8</ele>
        <time>2011-06-04T07:57:50Z</time>
      </trkpt>
      <trkpt lat="44.68296" lon="6.90546">
        <ele>2406.6</ele>
        <time>2011-06-04T07:57:53Z</time>
      </trkpt>
      <trkpt lat="44.68298" lon="6.90548">
        <ele>2407.2</ele>
        <time>2011-06-04T07:57:56Z</time>
      </trkpt>
      <trkpt lat="44.683" lon="6.90552">
        <ele>2407.8</ele>
        <time>2011-06-04T07:57:59Z</time>
      </trkpt>
      <trkpt lat="44.683" lon="6.90553">
        <ele>2408.2</ele>
        <time>2011-06-04T07:58:00Z</time>
      </trkpt>
      <trkpt lat="44.68303" lon="6.90557">
        <ele>2409.2</ele>
        <time>2011-06-04T07:58:04Z</time>
      </trkpt>
      <trkpt lat="44.68303" lon="6.90557">
        <ele>2409.2</ele>
        <time>2011-06-04T07:58:04Z</time>
      </trkpt>
      <trkpt lat="44.68304" lon="6.90557">
        <ele>2409.4</ele>
        <time>2011-06-04T07:58:05Z</time>
      </trkpt>
      <trkpt lat="44.68307" lon="6.90562">
        <ele>2410.8</ele>
        <time>2011-06-04T07:58:11Z</time>
      </trkpt>
      <trkpt lat="44.68309" lon="6.90564">
        <ele>2411.2</ele>
        <time>2011-06-04T07:58:13Z</time>
      </trkpt>
      <trkpt lat="44.68309" lon="6.90565">
        <ele>2411.4</ele>
        <time>2011-06-04T07:58:14Z</time>
      </trkpt>
      <trkpt lat="44.6831" lon="6.90567">
        <ele>2412</ele>
        <time>2011-06-04T07:58:16Z</time>
      </trkpt>
      <trkpt lat="44.68312" lon="6.9057">
        <ele>2412.6</ele>
        <time>2011-06-04T07:58:19Z</time>
      </trkpt>
      <trkpt lat="44.68313" lon="6.90572">
        <ele>2413.4</ele>
        <time>2011-06-04T07:58:22Z</time>
      </trkpt>
      <trkpt lat="44.68314" lon="6.90573">
        <ele>2413.8</ele>
        <time>2011-06-04T07:58:24Z</time>
      </trkpt>
      <trkpt lat="44.68316" lon="6.90577">
        <ele>2414.8</ele>
        <time>2011-06-04T07:58:28Z</time>
      </trkpt>
      <trkpt lat="44.68317" lon="6.90582">
        <ele>2415.8</ele>
        <time>2011-06-04T07:58:32Z</time>
      </trkpt>
      <trkpt lat="44.68317" lon="6.90584">
        <ele>2416.2</ele>
        <time>2011-06-04T07:58:34Z</time>
      </trkpt>
      <trkpt lat="44.68318" lon="6.90585">
        <ele>2416.8</ele>
        <time>2011-06-04T07:58:36Z</time>
      </trkpt>
      <trkpt lat="44.6832" lon="6.90587">
        <ele>2417.4</ele>
        <time>2011-06-04T07:58:39Z</time>
      </trkpt>
      <trkpt lat="44.68322" lon="6.90588">
        <ele>2418</ele>
        <time>2011-06-04T07:58:41Z</time>
      </trkpt>
      <trkpt lat="44.68325" lon="6.90593">
        <ele>2419</ele>
        <time>2011-06-04T07:58:45Z</time>
      </trkpt>
      <trkpt lat="44.68331" lon="6.906">
        <ele>2420.8</ele>
        <time>2011-06-04T07:58:53Z</time>
      </trkpt>
      <trkpt lat="44.68334" lon="6.90603">
        <ele>2421.6</ele>
        <time>2011-06-04T07:58:57Z</time>
      </trkpt>
      <trkpt lat="44.68337" lon="6.90605">
        <ele>2422.4</ele>
        <time>2011-06-04T07:59:00Z</time>
      </trkpt>
      <trkpt lat="44.68339" lon="6.90608">
        <ele>2423.2</ele>
        <time>2011-06-04T07:59:03Z</time>
      </trkpt>
      <trkpt lat="44.68341" lon="6.9061">
        <ele>2423.8</ele>
        <time>2011-06-04T07:59:06Z</time>
      </trkpt>
      <trkpt lat="44.68345" lon="6.90614">
        <ele>2425</ele>
        <time>2011-06-04T07:59:11Z</time>
      </trkpt>
      <trkpt lat="44.68348" lon="6.90619">
        <ele>2426.2</ele>
        <time>2011-06-04T07:59:16Z</time>
      </trkpt>
      <trkpt lat="44.68351" lon="6.90623">
        <ele>2427.2</ele>
        <time>2011-06-04T07:59:20Z</time>
      </trkpt>
      <trkpt lat="44.68353" lon="6.90626">
        <ele>2428</ele>
        <time>2011-06-04T07:59:24Z</time>
      </trkpt>
      <trkpt lat="44.68354" lon="6.90628">
        <ele>2428.6</ele>
        <time>2011-06-04T07:59:26Z</time>
      </trkpt>
      <trkpt lat="44.68355" lon="6.90629">
        <ele>2428.8</ele>
        <time>2011-06-04T07:59:27Z</time>
      </trkpt>
      <trkpt lat="44.68356" lon="6.90631">
        <ele>2429.2</ele>
        <time>2011-06-04T07:59:29Z</time>
      </trkpt>
      <trkpt lat="44.68357" lon="6.90635">
        <ele>2429.8</ele>
        <time>2011-06-04T07:59:32Z</time>
      </trkpt>
      <trkpt lat="44.68357" lon="6.90637">
        <ele>2430</ele>
        <time>2011-06-04T07:59:33Z</time>
      </trkpt>
      <trkpt lat="44.68359" lon="6.9064">
        <ele>2430.6</ele>
        <time>2011-06-04T07:59:36Z</time>
      </trkpt>
      <trkpt lat="44.68359" lon="6.90643">
        <ele>2431</ele>
        <time>2011-06-04T07:59:38Z</time>
      </trkpt>
      <trkpt lat="44.68361" lon="6.90649">
        <ele>2432</ele>
        <time>2011-06-04T07:59:43Z</time>
      </trkpt>
      <trkpt lat="44.68361" lon="6.90651">
        <ele>2432</ele>
        <time>2011-06-04T07:59:44Z</time>
      </trkpt>
      <trkpt lat="44.68362" lon="6.90656">
        <ele>2433</ele>
        <time>2011-06-04T07:59:48Z</time>
      </trkpt>
      <trkpt lat="44.68362" lon="6.90657">
        <ele>2433</ele>
        <time>2011-06-04T07:59:49Z</time>
      </trkpt>
      <trkpt lat="44.68363" lon="6.90662">
        <ele>2433.8</ele>
        <time>2011-06-04T07:59:53Z</time>
      </trkpt>
      <trkpt lat="44.68363" lon="6.90665">
        <ele>2434.2</ele>
        <time>2011-06-04T07:59:55Z</time>
      </trkpt>
      <trkpt lat="44.68363" lon="6.90666">
        <ele>2434.8</ele>
        <time>2011-06-04T07:59:57Z</time>
      </trkpt>
      <trkpt lat="44.68363" lon="6.90667">
        <ele>2434.8</ele>
        <time>2011-06-04T07:59:58Z</time>
      </trkpt>
      <trkpt lat="44.68364" lon="6.9067">
        <ele>2435.6</ele>
        <time>2011-06-04T08:00:01Z</time>
      </trkpt>
      <trkpt lat="44.68363" lon="6.90675">
        <ele>2436.4</ele>
        <time>2011-06-04T08:00:05Z</time>
      </trkpt>
      <trkpt lat="44.68363" lon="6.90676">
        <ele>2436.6</ele>
        <time>2011-06-04T08:00:06Z</time>
      </trkpt>
      <trkpt lat="44.68363" lon="6.9068">
        <ele>2437.8</ele>
        <time>2011-06-04T08:00:10Z</time>
      </trkpt>
      <trkpt lat="44.68363" lon="6.90682">
        <ele>2438.4</ele>
        <time>2011-06-04T08:00:13Z</time>
      </trkpt>
      <trkpt lat="44.68363" lon="6.90684">
        <ele>2438.8</ele>
        <time>2011-06-04T08:00:14Z</time>
      </trkpt>
      <trkpt lat="44.68363" lon="6.90688">
        <ele>2439.8</ele>
        <time>2011-06-04T08:00:18Z</time>
      </trkpt>
      <trkpt lat="44.68363" lon="6.90689">
        <ele>2440</ele>
        <time>2011-06-04T08:00:19Z</time>
      </trkpt>
      <trkpt lat="44.68363" lon="6.90692">
        <ele>2440.8</ele>
        <time>2011-06-04T08:00:22Z</time>
      </trkpt>
      <trkpt lat="44.68365" lon="6.90696">
        <ele>2442.2</ele>
        <time>2011-06-04T08:00:27Z</time>
      </trkpt>
      <trkpt lat="44.68367" lon="6.907">
        <ele>2443.8</ele>
        <time>2011-06-04T08:00:32Z</time>
      </trkpt>
      <trkpt lat="44.68368" lon="6.90702">
        <ele>2444.8</ele>
        <time>2011-06-04T08:00:36Z</time>
      </trkpt>
      <trkpt lat="44.6837" lon="6.90706">
        <ele>2446.2</ele>
        <time>2011-06-04T08:00:40Z</time>
      </trkpt>
      <trkpt lat="44.68371" lon="6.9071">
        <ele>2447.4</ele>
        <time>2011-06-04T08:00:44Z</time>
      </trkpt>
      <trkpt lat="44.68371" lon="6.90711">
        <ele>2447.6</ele>
        <time>2011-06-04T08:00:45Z</time>
      </trkpt>
      <trkpt lat="44.68372" lon="6.90715">
        <ele>2449</ele>
        <time>2011-06-04T08:00:49Z</time>
      </trkpt>
      <trkpt lat="44.68373" lon="6.90718">
        <ele>2450</ele>
        <time>2011-06-04T08:00:53Z</time>
      </trkpt>
      <trkpt lat="44.68374" lon="6.90722">
        <ele>2451.6</ele>
        <time>2011-06-04T08:00:58Z</time>
      </trkpt>
      <trkpt lat="44.68377" lon="6.90723">
        <ele>2453.2</ele>
        <time>2011-06-04T08:01:03Z</time>
      </trkpt>
      <trkpt lat="44.68381" lon="6.90725">
        <ele>2454.6</ele>
        <time>2011-06-04T08:01:09Z</time>
      </trkpt>
      <trkpt lat="44.68383" lon="6.90727">
        <ele>2455.6</ele>
        <time>2011-06-04T08:01:11Z</time>
      </trkpt>
      <trkpt lat="44.68383" lon="6.90727">
        <ele>2455.8</ele>
        <time>2011-06-04T08:01:12Z</time>
      </trkpt>
      <trkpt lat="44.68388" lon="6.90733">
        <ele>2457.4</ele>
        <time>2011-06-04T08:01:18Z</time>
      </trkpt>
      <trkpt lat="44.6839" lon="6.90736">
        <ele>2458.2</ele>
        <time>2011-06-04T08:01:21Z</time>
      </trkpt>
      <trkpt lat="44.68392" lon="6.90737">
        <ele>2458.8</ele>
        <time>2011-06-04T08:01:23Z</time>
      </trkpt>
      <trkpt lat="44.68395" lon="6.90741">
        <ele>2460</ele>
        <time>2011-06-04T08:01:28Z</time>
      </trkpt>
      <trkpt lat="44.68396" lon="6.90743">
        <ele>2460.4</ele>
        <time>2011-06-04T08:01:30Z</time>
      </trkpt>
      <trkpt lat="44.68397" lon="6.90744">
        <ele>2460.6</ele>
        <time>2011-06-04T08:01:31Z</time>
      </trkpt>
      <trkpt lat="44.68398" lon="6.90745">
        <ele>2461</ele>
        <time>2011-06-04T08:01:32Z</time>
      </trkpt>
      <trkpt lat="44.68399" lon="6.90745">
        <ele>2461.2</ele>
        <time>2011-06-04T08:01:33Z</time>
      </trkpt>
      <trkpt lat="44.68402" lon="6.90747">
        <ele>2462</ele>
        <time>2011-06-04T08:01:37Z</time>
      </trkpt>
      <trkpt lat="44.6841" lon="6.90752">
        <ele>2463.8</ele>
        <time>2011-06-04T08:01:45Z</time>
      </trkpt>
      <trkpt lat="44.68413" lon="6.90755">
        <ele>2464.4</ele>
        <time>2011-06-04T08:01:48Z</time>
      </trkpt>
      <trkpt lat="44.68418" lon="6.90758">
        <ele>2465.4</ele>
        <time>2011-06-04T08:01:53Z</time>
      </trkpt>
      <trkpt lat="44.68423" lon="6.90759">
        <ele>2466.6</ele>
        <time>2011-06-04T08:01:58Z</time>
      </trkpt>
      <trkpt lat="44.68426" lon="6.90759">
        <ele>2467.6</ele>
        <time>2011-06-04T08:02:02Z</time>
      </trkpt>
      <trkpt lat="44.6843" lon="6.90759">
        <ele>2468.6</ele>
        <time>2011-06-04T08:02:06Z</time>
      </trkpt>
      <trkpt lat="44.68431" lon="6.90758">
        <ele>2468.8</ele>
        <time>2011-06-04T08:02:07Z</time>
      </trkpt>
      <trkpt lat="44.68433" lon="6.90754">
        <ele>2469.4</ele>
        <time>2011-06-04T08:02:10Z</time>
      </trkpt>
      <trkpt lat="44.68436" lon="6.9075">
        <ele>2470.2</ele>
        <time>2011-06-04T08:02:13Z</time>
      </trkpt>
      <trkpt lat="44.6844" lon="6.90744">
        <ele>2471.2</ele>
        <time>2011-06-04T08:02:18Z</time>
      </trkpt>
      <trkpt lat="44.68442" lon="6.90743">
        <ele>2471.4</ele>
        <time>2011-06-04T08:02:19Z</time>
      </trkpt>
      <trkpt lat="44.68445" lon="6.90744">
        <ele>2472.2</ele>
        <time>2011-06-04T08:02:22Z</time>
      </trkpt>
      <trkpt lat="44.68446" lon="6.90745">
        <ele>2472.4</ele>
        <time>2011-06-04T08:02:23Z</time>
      </trkpt>
      <trkpt lat="44.6845" lon="6.90747">
        <ele>2473.4</ele>
        <time>2011-06-04T08:02:28Z</time>
      </trkpt>
      <trkpt lat="44.68454" lon="6.90749">
        <ele>2474.2</ele>
        <time>2011-06-04T08:02:32Z</time>
      </trkpt>
      <trkpt lat="44.68458" lon="6.9075">
        <ele>2475.2</ele>
        <time>2011-06-04T08:02:37Z</time>
      </trkpt>
      <trkpt lat="44.6846" lon="6.90751">
        <ele>2475.6</ele>
        <time>2011-06-04T08:02:39Z</time>
      </trkpt>
      <trkpt lat="44.68461" lon="6.90752">
        <ele>2476</ele>
        <time>2011-06-04T08:02:41Z</time>
      </trkpt>
      <trkpt lat="44.68462" lon="6.90753">
        <ele>2476.4</ele>
        <time>2011-06-04T08:02:42Z</time>
      </trkpt>
      <trkpt lat="44.68464" lon="6.90755">
        <ele>2477</ele>
        <time>2011-06-04T08:02:45Z</time>
      </trkpt>
      <trkpt lat="44.68464" lon="6.90755">
        <ele>2477.4</ele>
        <time>2011-06-04T08:02:47Z</time>
      </trkpt>
      <trkpt lat="44.68466" lon="6.90754">
        <ele>2478</ele>
        <time>2011-06-04T08:02:49Z</time>
      </trkpt>
      <trkpt lat="44.68468" lon="6.90755">
        <ele>2478.4</ele>
        <time>2011-06-04T08:02:51Z</time>
      </trkpt>
      <trkpt lat="44.68468" lon="6.90756">
        <ele>2478.8</ele>
        <time>2011-06-04T08:02:52Z</time>
      </trkpt>
      <trkpt lat="44.68471" lon="6.90756">
        <ele>2479.6</ele>
        <time>2011-06-04T08:02:55Z</time>
      </trkpt>
      <trkpt lat="44.68473" lon="6.90757">
        <ele>2480.2</ele>
        <time>2011-06-04T08:02:58Z</time>
      </trkpt>
      <trkpt lat="44.68476" lon="6.90758">
        <ele>2481</ele>
        <time>2011-06-04T08:03:01Z</time>
      </trkpt>
      <trkpt lat="44.68477" lon="6.90758">
        <ele>2481.2</ele>
        <time>2011-06-04T08:03:02Z</time>
      </trkpt>
      <trkpt lat="44.68479" lon="6.90758">
        <ele>2482</ele>
        <time>2011-06-04T08:03:05Z</time>
      </trkpt>
      <trkpt lat="44.6848" lon="6.90758">
        <ele>2482.2</ele>
        <time>2011-06-04T08:03:06Z</time>
      </trkpt>
      <trkpt lat="44.68481" lon="6.90758">
        <ele>2482.4</ele>
        <time>2011-06-04T08:03:07Z</time>
      </trkpt>
      <trkpt lat="44.68483" lon="6.90759">
        <ele>2483.4</ele>
        <time>2011-06-04T08:03:11Z</time>
      </trkpt>
      <trkpt lat="44.68484" lon="6.90759">
        <ele>2483.8</ele>
        <time>2011-06-04T08:03:12Z</time>
      </trkpt>
      <trkpt lat="44.68486" lon="6.9076">
        <ele>2484.4</ele>
        <time>2011-06-04T08:03:15Z</time>
      </trkpt>
      <trkpt lat="44.68489" lon="6.9076">
        <ele>2485.4</ele>
        <time>2011-06-04T08:03:19Z</time>
      </trkpt>
      <trkpt lat="44.68493" lon="6.90761">
        <ele>2486.4</ele>
        <time>2011-06-04T08:03:23Z</time>
      </trkpt>
      <trkpt lat="44.68493" lon="6.90762">
        <ele>2486.6</ele>
        <time>2011-06-04T08:03:24Z</time>
      </trkpt>
      <trkpt lat="44.68496" lon="6.90764">
        <ele>2487.4</ele>
        <time>2011-06-04T08:03:28Z</time>
      </trkpt>
      <trkpt lat="44.68497" lon="6.90764">
        <ele>2487.8</ele>
        <time>2011-06-04T08:03:29Z</time>
      </trkpt>
      <trkpt lat="44.685" lon="6.90766">
        <ele>2488.6</ele>
        <time>2011-06-04T08:03:33Z</time>
      </trkpt>
      <trkpt lat="44.685" lon="6.90766">
        <ele>2488.8</ele>
        <time>2011-06-04T08:03:34Z</time>
      </trkpt>
      <trkpt lat="44.68501" lon="6.90767">
        <ele>2490.6</ele>
        <time>2011-06-04T08:03:44Z</time>
      </trkpt>
      <trkpt lat="44.68502" lon="6.90768">
        <ele>2494</ele>
        <time>2011-06-04T08:04:31Z</time>
      </trkpt>
      <trkpt lat="44.68504" lon="6.9077">
        <ele>2494.4</ele>
        <time>2011-06-04T08:04:35Z</time>
      </trkpt>
      <trkpt lat="44.68505" lon="6.90771">
        <ele>2494.6</ele>
        <time>2011-06-04T08:04:37Z</time>
      </trkpt>
      <trkpt lat="44.68506" lon="6.90774">
        <ele>2494.8</ele>
        <time>2011-06-04T08:04:40Z</time>
      </trkpt>
      <trkpt lat="44.68507" lon="6.90773">
        <ele>2495</ele>
        <time>2011-06-04T08:04:42Z</time>
      </trkpt>
      <trkpt lat="44.6851" lon="6.90771">
        <ele>2495.8</ele>
        <time>2011-06-04T08:04:47Z</time>
      </trkpt>
      <trkpt lat="44.68511" lon="6.90771">
        <ele>2496</ele>
        <time>2011-06-04T08:04:48Z</time>
      </trkpt>
      <trkpt lat="44.68513" lon="6.90769">
        <ele>2496.6</ele>
        <time>2011-06-04T08:04:52Z</time>
      </trkpt>
      <trkpt lat="44.68516" lon="6.90765">
        <ele>2497.8</ele>
        <time>2011-06-04T08:04:58Z</time>
      </trkpt>
      <trkpt lat="44.68519" lon="6.90763">
        <ele>2499</ele>
        <time>2011-06-04T08:05:03Z</time>
      </trkpt>
      <trkpt lat="44.68521" lon="6.90764">
        <ele>2500</ele>
        <time>2011-06-04T08:05:08Z</time>
      </trkpt>
      <trkpt lat="44.68524" lon="6.90762">
        <ele>2501.2</ele>
        <time>2011-06-04T08:05:14Z</time>
      </trkpt>
      <trkpt lat="44.68526" lon="6.9076">
        <ele>2501.8</ele>
        <time>2011-06-04T08:05:17Z</time>
      </trkpt>
      <trkpt lat="44.68528" lon="6.90759">
        <ele>2502.6</ele>
        <time>2011-06-04T08:05:21Z</time>
      </trkpt>
      <trkpt lat="44.68535" lon="6.90761">
        <ele>2503.4</ele>
        <time>2011-06-04T08:05:27Z</time>
      </trkpt>
      <trkpt lat="44.68544" lon="6.90762">
        <ele>2504.4</ele>
        <time>2011-06-04T08:05:36Z</time>
      </trkpt>
      <trkpt lat="44.68552" lon="6.90765">
        <ele>2505.4</ele>
        <time>2011-06-04T08:05:46Z</time>
      </trkpt>
      <trkpt lat="44.68557" lon="6.90765">
        <ele>2506.6</ele>
        <time>2011-06-04T08:05:54Z</time>
      </trkpt>
      <trkpt lat="44.68563" lon="6.90765">
        <ele>2507.6</ele>
        <time>2011-06-04T08:06:00Z</time>
      </trkpt>
      <trkpt lat="44.68564" lon="6.90765">
        <ele>2507.8</ele>
        <time>2011-06-04T08:06:01Z</time>
      </trkpt>
      <trkpt lat="44.68572" lon="6.90767">
        <ele>2509.6</ele>
        <time>2011-06-04T08:06:10Z</time>
      </trkpt>
      <trkpt lat="44.68578" lon="6.90765">
        <ele>2511</ele>
        <time>2011-06-04T08:06:17Z</time>
      </trkpt>
      <trkpt lat="44.68581" lon="6.90765">
        <ele>2511.8</ele>
        <time>2011-06-04T08:06:21Z</time>
      </trkpt>
      <trkpt lat="44.68582" lon="6.90764">
        <ele>2512.4</ele>
        <time>2011-06-04T08:06:24Z</time>
      </trkpt>
      <trkpt lat="44.68586" lon="6.90765">
        <ele>2513.6</ele>
        <time>2011-06-04T08:06:29Z</time>
      </trkpt>
      <trkpt lat="44.6859" lon="6.90766">
        <ele>2514.6</ele>
        <time>2011-06-04T08:06:34Z</time>
      </trkpt>
      <trkpt lat="44.68591" lon="6.90766">
        <ele>2515.2</ele>
        <time>2011-06-04T08:06:36Z</time>
      </trkpt>
      <trkpt lat="44.68593" lon="6.90769">
        <ele>2515.8</ele>
        <time>2011-06-04T08:06:39Z</time>
      </trkpt>
      <trkpt lat="44.68595" lon="6.9077">
        <ele>2516.6</ele>
        <time>2011-06-04T08:06:43Z</time>
      </trkpt>
      <trkpt lat="44.68597" lon="6.90771">
        <ele>2517.4</ele>
        <time>2011-06-04T08:06:46Z</time>
      </trkpt>
      <trkpt lat="44.68597" lon="6.90771">
        <ele>2517.6</ele>
        <time>2011-06-04T08:06:47Z</time>
      </trkpt>
      <trkpt lat="44.686" lon="6.90774">
        <ele>2518.6</ele>
        <time>2011-06-04T08:06:51Z</time>
      </trkpt>
      <trkpt lat="44.68602" lon="6.9078">
        <ele>2519.6</ele>
        <time>2011-06-04T08:06:56Z</time>
      </trkpt>
      <trkpt lat="44.68603" lon="6.90783">
        <ele>2520.2</ele>
        <time>2011-06-04T08:06:59Z</time>
      </trkpt>
      <trkpt lat="44.68604" lon="6.90785">
        <ele>2520.8</ele>
        <time>2011-06-04T08:07:01Z</time>
      </trkpt>
      <trkpt lat="44.68605" lon="6.9079">
        <ele>2521.8</ele>
        <time>2011-06-04T08:07:06Z</time>
      </trkpt>
      <trkpt lat="44.68606" lon="6.90793">
        <ele>2522.4</ele>
        <time>2011-06-04T08:07:09Z</time>
      </trkpt>
      <trkpt lat="44.68606" lon="6.90795">
        <ele>2523</ele>
        <time>2011-06-04T08:07:11Z</time>
      </trkpt>
      <trkpt lat="44.68607" lon="6.90797">
        <ele>2523.4</ele>
        <time>2011-06-04T08:07:13Z</time>
      </trkpt>
      <trkpt lat="44.68608" lon="6.908">
        <ele>2524</ele>
        <time>2011-06-04T08:07:15Z</time>
      </trkpt>
      <trkpt lat="44.68609" lon="6.90801">
        <ele>2525.2</ele>
        <time>2011-06-04T08:07:21Z</time>
      </trkpt>
      <trkpt lat="44.68613" lon="6.90798">
        <ele>2526.8</ele>
        <time>2011-06-04T08:07:27Z</time>
      </trkpt>
      <trkpt lat="44.68615" lon="6.90797">
        <ele>2527.8</ele>
        <time>2011-06-04T08:07:31Z</time>
      </trkpt>
      <trkpt lat="44.68618" lon="6.90796">
        <ele>2528.8</ele>
        <time>2011-06-04T08:07:35Z</time>
      </trkpt>
      <trkpt lat="44.68619" lon="6.90796">
        <ele>2529.4</ele>
        <time>2011-06-04T08:07:37Z</time>
      </trkpt>
      <trkpt lat="44.68621" lon="6.90796">
        <ele>2530.4</ele>
        <time>2011-06-04T08:07:41Z</time>
      </trkpt>
      <trkpt lat="44.68624" lon="6.90796">
        <ele>2531.8</ele>
        <time>2011-06-04T08:07:45Z</time>
      </trkpt>
      <trkpt lat="44.68627" lon="6.90798">
        <ele>2533</ele>
        <time>2011-06-04T08:07:51Z</time>
      </trkpt>
      <trkpt lat="44.68629" lon="6.90801">
        <ele>2534.2</ele>
        <time>2011-06-04T08:07:55Z</time>
      </trkpt>
      <trkpt lat="44.68631" lon="6.90805">
        <ele>2535.4</ele>
        <time>2011-06-04T08:08:00Z</time>
      </trkpt>
      <trkpt lat="44.68633" lon="6.90807">
        <ele>2536.4</ele>
        <time>2011-06-04T08:08:04Z</time>
      </trkpt>
      <trkpt lat="44.68636" lon="6.90809">
        <ele>2537.6</ele>
        <time>2011-06-04T08:08:09Z</time>
      </trkpt>
      <trkpt lat="44.68639" lon="6.90815">
        <ele>2541</ele>
        <time>2011-06-04T08:08:29Z</time>
      </trkpt>
      <trkpt lat="44.68644" lon="6.90822">
        <ele>2541.6</ele>
        <time>2011-06-04T08:08:36Z</time>
      </trkpt>
      <trkpt lat="44.68645" lon="6.90825">
        <ele>2542</ele>
        <time>2011-06-04T08:08:39Z</time>
      </trkpt>
      <trkpt lat="44.68647" lon="6.90827">
        <ele>2542.4</ele>
        <time>2011-06-04T08:08:41Z</time>
      </trkpt>
      <trkpt lat="44.68653" lon="6.90836">
        <ele>2543.2</ele>
        <time>2011-06-04T08:08:49Z</time>
      </trkpt>
      <trkpt lat="44.68653" lon="6.90837">
        <ele>2543.4</ele>
        <time>2011-06-04T08:08:50Z</time>
      </trkpt>
      <trkpt lat="44.68656" lon="6.90841">
        <ele>2544</ele>
        <time>2011-06-04T08:08:54Z</time>
      </trkpt>
      <trkpt lat="44.68656" lon="6.90842">
        <ele>2544</ele>
        <time>2011-06-04T08:08:55Z</time>
      </trkpt>
      <trkpt lat="44.68657" lon="6.90844">
        <ele>2544.2</ele>
        <time>2011-06-04T08:08:56Z</time>
      </trkpt>
      <trkpt lat="44.68661" lon="6.90853">
        <ele>2545.2</ele>
        <time>2011-06-04T08:09:03Z</time>
      </trkpt>
      <trkpt lat="44.68663" lon="6.90862">
        <ele>2546.4</ele>
        <time>2011-06-04T08:09:10Z</time>
      </trkpt>
      <trkpt lat="44.68665" lon="6.90866">
        <ele>2547.2</ele>
        <time>2011-06-04T08:09:15Z</time>
      </trkpt>
      <trkpt lat="44.68665" lon="6.90871">
        <ele>2548</ele>
        <time>2011-06-04T08:09:19Z</time>
      </trkpt>
      <trkpt lat="44.68665" lon="6.90873">
        <ele>2548.2</ele>
        <time>2011-06-04T08:09:20Z</time>
      </trkpt>
      <trkpt lat="44.68666" lon="6.90877">
        <ele>2549</ele>
        <time>2011-06-04T08:09:24Z</time>
      </trkpt>
      <trkpt lat="44.68666" lon="6.90878">
        <ele>2549.2</ele>
        <time>2011-06-04T08:09:25Z</time>
      </trkpt>
      <trkpt lat="44.68668" lon="6.90879">
        <ele>2549.8</ele>
        <time>2011-06-04T08:09:28Z</time>
      </trkpt>
      <trkpt lat="44.6867" lon="6.9088">
        <ele>2550.4</ele>
        <time>2011-06-04T08:09:32Z</time>
      </trkpt>
      <trkpt lat="44.68675" lon="6.90881">
        <ele>2551.4</ele>
        <time>2011-06-04T08:09:37Z</time>
      </trkpt>
      <trkpt lat="44.68676" lon="6.90882">
        <ele>2551.6</ele>
        <time>2011-06-04T08:09:39Z</time>
      </trkpt>
      <trkpt lat="44.68679" lon="6.90883">
        <ele>2552.2</ele>
        <time>2011-06-04T08:09:42Z</time>
      </trkpt>
      <trkpt lat="44.68683" lon="6.90884">
        <ele>2553</ele>
        <time>2011-06-04T08:09:45Z</time>
      </trkpt>
      <trkpt lat="44.68684" lon="6.90885">
        <ele>2553.2</ele>
        <time>2011-06-04T08:09:47Z</time>
      </trkpt>
      <trkpt lat="44.68687" lon="6.90885">
        <ele>2554</ele>
        <time>2011-06-04T08:09:51Z</time>
      </trkpt>
      <trkpt lat="44.6869" lon="6.90887">
        <ele>2554.8</ele>
        <time>2011-06-04T08:09:54Z</time>
      </trkpt>
      <trkpt lat="44.68692" lon="6.90889">
        <ele>2555.2</ele>
        <time>2011-06-04T08:09:58Z</time>
      </trkpt>
      <trkpt lat="44.68694" lon="6.9089">
        <ele>2555.6</ele>
        <time>2011-06-04T08:10:00Z</time>
      </trkpt>
      <trkpt lat="44.68699" lon="6.90893">
        <ele>2556.6</ele>
        <time>2011-06-04T08:10:05Z</time>
      </trkpt>
      <trkpt lat="44.68703" lon="6.90894">
        <ele>2557.6</ele>
        <time>2011-06-04T08:10:10Z</time>
      </trkpt>
      <trkpt lat="44.68708" lon="6.90891">
        <ele>2558.6</ele>
        <time>2011-06-04T08:10:15Z</time>
      </trkpt>
      <trkpt lat="44.68708" lon="6.90891">
        <ele>2558.8</ele>
        <time>2011-06-04T08:10:16Z</time>
      </trkpt>
      <trkpt lat="44.68711" lon="6.90892">
        <ele>2559.6</ele>
        <time>2011-06-04T08:10:20Z</time>
      </trkpt>
      <trkpt lat="44.68714" lon="6.90893">
        <ele>2560.4</ele>
        <time>2011-06-04T08:10:24Z</time>
      </trkpt>
      <trkpt lat="44.68717" lon="6.90893">
        <ele>2561.2</ele>
        <time>2011-06-04T08:10:28Z</time>
      </trkpt>
      <trkpt lat="44.6872" lon="6.90892">
        <ele>2562</ele>
        <time>2011-06-04T08:10:32Z</time>
      </trkpt>
      <trkpt lat="44.68721" lon="6.90892">
        <ele>2562.2</ele>
        <time>2011-06-04T08:10:33Z</time>
      </trkpt>
      <trkpt lat="44.68724" lon="6.90893">
        <ele>2562.8</ele>
        <time>2011-06-04T08:10:37Z</time>
      </trkpt>
      <trkpt lat="44.68726" lon="6.90894">
        <ele>2563.4</ele>
        <time>2011-06-04T08:10:39Z</time>
      </trkpt>
      <trkpt lat="44.68727" lon="6.90894">
        <ele>2563.8</ele>
        <time>2011-06-04T08:10:41Z</time>
      </trkpt>
      <trkpt lat="44.68732" lon="6.90896">
        <ele>2564.8</ele>
        <time>2011-06-04T08:10:45Z</time>
      </trkpt>
      <trkpt lat="44.68733" lon="6.90897">
        <ele>2565.2</ele>
        <time>2011-06-04T08:10:47Z</time>
      </trkpt>
      <trkpt lat="44.68734" lon="6.90897">
        <ele>2565.6</ele>
        <time>2011-06-04T08:10:50Z</time>
      </trkpt>
      <trkpt lat="44.68736" lon="6.90898">
        <ele>2566.2</ele>
        <time>2011-06-04T08:10:53Z</time>
      </trkpt>
      <trkpt lat="44.68738" lon="6.909">
        <ele>2566.6</ele>
        <time>2011-06-04T08:10:55Z</time>
      </trkpt>
      <trkpt lat="44.68741" lon="6.90901">
        <ele>2567.4</ele>
        <time>2011-06-04T08:10:59Z</time>
      </trkpt>
      <trkpt lat="44.68742" lon="6.90902">
        <ele>2567.6</ele>
        <time>2011-06-04T08:11:00Z</time>
      </trkpt>
      <trkpt lat="44.68743" lon="6.90902">
        <ele>2567.8</ele>
        <time>2011-06-04T08:11:01Z</time>
      </trkpt>
      <trkpt lat="44.68744" lon="6.90903">
        <ele>2568.4</ele>
        <time>2011-06-04T08:11:03Z</time>
      </trkpt>
      <trkpt lat="44.68749" lon="6.90904">
        <ele>2569.6</ele>
        <time>2011-06-04T08:11:08Z</time>
      </trkpt>
      <trkpt lat="44.6875" lon="6.90905">
        <ele>2569.8</ele>
        <time>2011-06-04T08:11:09Z</time>
      </trkpt>
      <trkpt lat="44.68754" lon="6.90909">
        <ele>2570.8</ele>
        <time>2011-06-04T08:11:13Z</time>
      </trkpt>
      <trkpt lat="44.68756" lon="6.90912">
        <ele>2571.6</ele>
        <time>2011-06-04T08:11:17Z</time>
      </trkpt>
      <trkpt lat="44.68757" lon="6.90912">
        <ele>2571.8</ele>
        <time>2011-06-04T08:11:18Z</time>
      </trkpt>
      <trkpt lat="44.68758" lon="6.90914">
        <ele>2572.2</ele>
        <time>2011-06-04T08:11:20Z</time>
      </trkpt>
      <trkpt lat="44.68763" lon="6.90919">
        <ele>2573.2</ele>
        <time>2011-06-04T08:11:25Z</time>
      </trkpt>
      <trkpt lat="44.6877" lon="6.90924">
        <ele>2574.4</ele>
        <time>2011-06-04T08:11:31Z</time>
      </trkpt>
      <trkpt lat="44.68774" lon="6.90928">
        <ele>2575</ele>
        <time>2011-06-04T08:11:36Z</time>
      </trkpt>
      <trkpt lat="44.68778" lon="6.90932">
        <ele>2575.6</ele>
        <time>2011-06-04T08:11:40Z</time>
      </trkpt>
      <trkpt lat="44.68782" lon="6.90935">
        <ele>2576.2</ele>
        <time>2011-06-04T08:11:43Z</time>
      </trkpt>
      <trkpt lat="44.68783" lon="6.90937">
        <ele>2576.4</ele>
        <time>2011-06-04T08:11:46Z</time>
      </trkpt>
      <trkpt lat="44.68787" lon="6.9094">
        <ele>2577</ele>
        <time>2011-06-04T08:11:49Z</time>
      </trkpt>
      <trkpt lat="44.68789" lon="6.90942">
        <ele>2577.4</ele>
        <time>2011-06-04T08:11:52Z</time>
      </trkpt>
      <trkpt lat="44.6879" lon="6.90942">
        <ele>2577.4</ele>
        <time>2011-06-04T08:11:53Z</time>
      </trkpt>
      <trkpt lat="44.68797" lon="6.90945">
        <ele>2578.6</ele>
        <time>2011-06-04T08:12:00Z</time>
      </trkpt>
      <trkpt lat="44.68802" lon="6.9095">
        <ele>2579.4</ele>
        <time>2011-06-04T08:12:05Z</time>
      </trkpt>
      <trkpt lat="44.68804" lon="6.90951">
        <ele>2580</ele>
        <time>2011-06-04T08:12:07Z</time>
      </trkpt>
      <trkpt lat="44.68806" lon="6.90954">
        <ele>2580.6</ele>
        <time>2011-06-04T08:12:11Z</time>
      </trkpt>
      <trkpt lat="44.6881" lon="6.90958">
        <ele>2581.6</ele>
        <time>2011-06-04T08:12:16Z</time>
      </trkpt>
      <trkpt lat="44.68817" lon="6.90964">
        <ele>2583.2</ele>
        <time>2011-06-04T08:12:24Z</time>
      </trkpt>
      <trkpt lat="44.68821" lon="6.90968">
        <ele>2583.8</ele>
        <time>2011-06-04T08:12:28Z</time>
      </trkpt>
      <trkpt lat="44.68825" lon="6.90974">
        <ele>2584.8</ele>
        <time>2011-06-04T08:12:32Z</time>
      </trkpt>
      <trkpt lat="44.68833" lon="6.90984">
        <ele>2586.4</ele>
        <time>2011-06-04T08:12:42Z</time>
      </trkpt>
      <trkpt lat="44.68834" lon="6.90985">
        <ele>2586.4</ele>
        <time>2011-06-04T08:12:43Z</time>
      </trkpt>
      <trkpt lat="44.68841" lon="6.90993">
        <ele>2587.6</ele>
        <time>2011-06-04T08:12:50Z</time>
      </trkpt>
      <trkpt lat="44.68848" lon="6.91003">
        <ele>2589</ele>
        <time>2011-06-04T08:12:59Z</time>
      </trkpt>
      <trkpt lat="44.68852" lon="6.91005">
        <ele>2589.8</ele>
        <time>2011-06-04T08:13:03Z</time>
      </trkpt>
      <trkpt lat="44.68853" lon="6.91005">
        <ele>2590</ele>
        <time>2011-06-04T08:13:04Z</time>
      </trkpt>
      <trkpt lat="44.68855" lon="6.91004">
        <ele>2590.6</ele>
        <time>2011-06-04T08:13:07Z</time>
      </trkpt>
      <trkpt lat="44.68856" lon="6.91004">
        <ele>2590.8</ele>
        <time>2011-06-04T08:13:08Z</time>
      </trkpt>
      <trkpt lat="44.68862" lon="6.91005">
        <ele>2592.2</ele>
        <time>2011-06-04T08:13:14Z</time>
      </trkpt>
      <trkpt lat="44.68862" lon="6.91006">
        <ele>2592.4</ele>
        <time>2011-06-04T08:13:15Z</time>
      </trkpt>
      <trkpt lat="44.68863" lon="6.91009">
        <ele>2593.2</ele>
        <time>2011-06-04T08:13:17Z</time>
      </trkpt>
      <trkpt lat="44.68863" lon="6.91011">
        <ele>2593.4</ele>
        <time>2011-06-04T08:13:19Z</time>
      </trkpt>
      <trkpt lat="44.68864" lon="6.91014">
        <ele>2594.2</ele>
        <time>2011-06-04T08:13:22Z</time>
      </trkpt>
      <trkpt lat="44.68864" lon="6.91015">
        <ele>2594.6</ele>
        <time>2011-06-04T08:13:23Z</time>
      </trkpt>
      <trkpt lat="44.68866" lon="6.91019">
        <ele>2595.6</ele>
        <time>2011-06-04T08:13:28Z</time>
      </trkpt>
      <trkpt lat="44.68867" lon="6.91024">
        <ele>2596.6</ele>
        <time>2011-06-04T08:13:31Z</time>
      </trkpt>
      <trkpt lat="44.68867" lon="6.91025">
        <ele>2597</ele>
        <time>2011-06-04T08:13:33Z</time>
      </trkpt>
      <trkpt lat="44.68868" lon="6.91029">
        <ele>2598</ele>
        <time>2011-06-04T08:13:37Z</time>
      </trkpt>
      <trkpt lat="44.68869" lon="6.91033">
        <ele>2598.8</ele>
        <time>2011-06-04T08:13:40Z</time>
      </trkpt>
      <trkpt lat="44.6887" lon="6.91035">
        <ele>2599.4</ele>
        <time>2011-06-04T08:13:41Z</time>
      </trkpt>
      <trkpt lat="44.68873" lon="6.91037">
        <ele>2600.4</ele>
        <time>2011-06-04T08:13:46Z</time>
      </trkpt>
      <trkpt lat="44.68876" lon="6.91035">
        <ele>2601.6</ele>
        <time>2011-06-04T08:13:49Z</time>
      </trkpt>
      <trkpt lat="44.68879" lon="6.91033">
        <ele>2603</ele>
        <time>2011-06-04T08:13:55Z</time>
      </trkpt>
      <trkpt lat="44.68881" lon="6.9103">
        <ele>2604</ele>
        <time>2011-06-04T08:13:59Z</time>
      </trkpt>
      <trkpt lat="44.68883" lon="6.91027">
        <ele>2605.2</ele>
        <time>2011-06-04T08:14:02Z</time>
      </trkpt>
      <trkpt lat="44.68883" lon="6.91026">
        <ele>2605.6</ele>
        <time>2011-06-04T08:14:04Z</time>
      </trkpt>
      <trkpt lat="44.68886" lon="6.91023">
        <ele>2607</ele>
        <time>2011-06-04T08:14:09Z</time>
      </trkpt>
      <trkpt lat="44.6889" lon="6.9102">
        <ele>2608</ele>
        <time>2011-06-04T08:14:12Z</time>
      </trkpt>
      <trkpt lat="44.68894" lon="6.91015">
        <ele>2609.2</ele>
        <time>2011-06-04T08:14:18Z</time>
      </trkpt>
      <trkpt lat="44.68897" lon="6.91013">
        <ele>2610.4</ele>
        <time>2011-06-04T08:14:22Z</time>
      </trkpt>
      <trkpt lat="44.68898" lon="6.91013">
        <ele>2610.6</ele>
        <time>2011-06-04T08:14:23Z</time>
      </trkpt>
      <trkpt lat="44.68899" lon="6.91013">
        <ele>2611</ele>
        <time>2011-06-04T08:14:24Z</time>
      </trkpt>
      <trkpt lat="44.68901" lon="6.91011">
        <ele>2611.2</ele>
        <time>2011-06-04T08:14:27Z</time>
      </trkpt>
      <trkpt lat="44.68906" lon="6.91009">
        <ele>2612.2</ele>
        <time>2011-06-04T08:14:32Z</time>
      </trkpt>
      <trkpt lat="44.68908" lon="6.91007">
        <ele>2613</ele>
        <time>2011-06-04T08:14:34Z</time>
      </trkpt>
      <trkpt lat="44.6891" lon="6.91005">
        <ele>2613.4</ele>
        <time>2011-06-04T08:14:37Z</time>
      </trkpt>
      <trkpt lat="44.68914" lon="6.91003">
        <ele>2614.2</ele>
        <time>2011-06-04T08:14:41Z</time>
      </trkpt>
      <trkpt lat="44.68915" lon="6.91002">
        <ele>2614.6</ele>
        <time>2011-06-04T08:14:43Z</time>
      </trkpt>
      <trkpt lat="44.68917" lon="6.91001">
        <ele>2615</ele>
        <time>2011-06-04T08:14:45Z</time>
      </trkpt>
      <trkpt lat="44.68919" lon="6.91">
        <ele>2615.4</ele>
        <time>2011-06-04T08:14:47Z</time>
      </trkpt>
      <trkpt lat="44.68921" lon="6.90998">
        <ele>2616</ele>
        <time>2011-06-04T08:14:50Z</time>
      </trkpt>
      <trkpt lat="44.68921" lon="6.90996">
        <ele>2616.6</ele>
        <time>2011-06-04T08:14:52Z</time>
      </trkpt>
      <trkpt lat="44.68922" lon="6.90995">
        <ele>2617</ele>
        <time>2011-06-04T08:14:54Z</time>
      </trkpt>
      <trkpt lat="44.68924" lon="6.90995">
        <ele>2618.2</ele>
        <time>2011-06-04T08:14:59Z</time>
      </trkpt>
      <trkpt lat="44.68927" lon="6.90995">
        <ele>2619.2</ele>
        <time>2011-06-04T08:15:04Z</time>
      </trkpt>
      <trkpt lat="44.68928" lon="6.90994">
        <ele>2620.4</ele>
        <time>2011-06-04T08:15:09Z</time>
      </trkpt>
      <trkpt lat="44.68929" lon="6.90992">
        <ele>2621.4</ele>
        <time>2011-06-04T08:15:13Z</time>
      </trkpt>
      <trkpt lat="44.6893" lon="6.90992">
        <ele>2621.6</ele>
        <time>2011-06-04T08:15:14Z</time>
      </trkpt>
      <trkpt lat="44.68932" lon="6.90992">
        <ele>2622.6</ele>
        <time>2011-06-04T08:15:18Z</time>
      </trkpt>
      <trkpt lat="44.68933" lon="6.90988">
        <ele>2623.8</ele>
        <time>2011-06-04T08:15:23Z</time>
      </trkpt>
      <trkpt lat="44.68933" lon="6.90987">
        <ele>2624</ele>
        <time>2011-06-04T08:15:24Z</time>
      </trkpt>
      <trkpt lat="44.68935" lon="6.90984">
        <ele>2625</ele>
        <time>2011-06-04T08:15:28Z</time>
      </trkpt>
      <trkpt lat="44.68937" lon="6.90983">
        <ele>2625.6</ele>
        <time>2011-06-04T08:15:30Z</time>
      </trkpt>
      <trkpt lat="44.68939" lon="6.90983">
        <ele>2626.2</ele>
        <time>2011-06-04T08:15:33Z</time>
      </trkpt>
      <trkpt lat="44.68943" lon="6.90984">
        <ele>2627</ele>
        <time>2011-06-04T08:15:37Z</time>
      </trkpt>
      <trkpt lat="44.68943" lon="6.90985">
        <ele>2627.4</ele>
        <time>2011-06-04T08:15:38Z</time>
      </trkpt>
      <trkpt lat="44.68944" lon="6.90986">
        <ele>2627.6</ele>
        <time>2011-06-04T08:15:39Z</time>
      </trkpt>
      <trkpt lat="44.68947" lon="6.90987">
        <ele>2628.4</ele>
        <time>2011-06-04T08:15:43Z</time>
      </trkpt>
      <trkpt lat="44.6895" lon="6.90987">
        <ele>2629.8</ele>
        <time>2011-06-04T08:15:49Z</time>
      </trkpt>
      <trkpt lat="44.68953" lon="6.90984">
        <ele>2630.8</ele>
        <time>2011-06-04T08:15:54Z</time>
      </trkpt>
      <trkpt lat="44.68956" lon="6.90983">
        <ele>2632.2</ele>
        <time>2011-06-04T08:16:00Z</time>
      </trkpt>
      <trkpt lat="44.68958" lon="6.90985">
        <ele>2633.2</ele>
        <time>2011-06-04T08:16:05Z</time>
      </trkpt>
      <trkpt lat="44.6896" lon="6.90983">
        <ele>2634.2</ele>
        <time>2011-06-04T08:16:10Z</time>
      </trkpt>
      <trkpt lat="44.68963" lon="6.90982">
        <ele>2635.6</ele>
        <time>2011-06-04T08:16:16Z</time>
      </trkpt>
      <trkpt lat="44.68964" lon="6.9098">
        <ele>2636.4</ele>
        <time>2011-06-04T08:16:20Z</time>
      </trkpt>
      <trkpt lat="44.68966" lon="6.90976">
        <ele>2637.6</ele>
        <time>2011-06-04T08:16:25Z</time>
      </trkpt>
      <trkpt lat="44.68966" lon="6.90975">
        <ele>2640</ele>
        <time>2011-06-04T08:16:35Z</time>
      </trkpt>
      <trkpt lat="44.68967" lon="6.90972">
        <ele>2641.4</ele>
        <time>2011-06-04T08:16:41Z</time>
      </trkpt>
      <trkpt lat="44.68968" lon="6.90968">
        <ele>2642.6</ele>
        <time>2011-06-04T08:16:46Z</time>
      </trkpt>
      <trkpt lat="44.68971" lon="6.90967">
        <ele>2643.4</ele>
        <time>2011-06-04T08:16:50Z</time>
      </trkpt>
      <trkpt lat="44.68973" lon="6.90965">
        <ele>2644.4</ele>
        <time>2011-06-04T08:16:54Z</time>
      </trkpt>
      <trkpt lat="44.68975" lon="6.90962">
        <ele>2645.8</ele>
        <time>2011-06-04T08:16:59Z</time>
      </trkpt>
      <trkpt lat="44.68978" lon="6.90961">
        <ele>2646.8</ele>
        <time>2011-06-04T08:17:03Z</time>
      </trkpt>
      <trkpt lat="44.68979" lon="6.90959">
        <ele>2648.2</ele>
        <time>2011-06-04T08:17:08Z</time>
      </trkpt>
      <trkpt lat="44.6898" lon="6.90955">
        <ele>2649.6</ele>
        <time>2011-06-04T08:17:13Z</time>
      </trkpt>
      <trkpt lat="44.68983" lon="6.90951">
        <ele>2651.2</ele>
        <time>2011-06-04T08:17:19Z</time>
      </trkpt>
      <trkpt lat="44.68983" lon="6.90951">
        <ele>2651.4</ele>
        <time>2011-06-04T08:17:20Z</time>
      </trkpt>
      <trkpt lat="44.68985" lon="6.90949">
        <ele>2652.4</ele>
        <time>2011-06-04T08:17:24Z</time>
      </trkpt>
      <trkpt lat="44.68987" lon="6.90946">
        <ele>2653.6</ele>
        <time>2011-06-04T08:17:29Z</time>
      </trkpt>
      <trkpt lat="44.68989" lon="6.90942">
        <ele>2654.6</ele>
        <time>2011-06-04T08:17:33Z</time>
      </trkpt>
      <trkpt lat="44.68989" lon="6.90944">
        <ele>2656.4</ele>
        <time>2011-06-04T08:17:44Z</time>
      </trkpt>
      <trkpt lat="44.68992" lon="6.9094">
        <ele>2657.4</ele>
        <time>2011-06-04T08:17:51Z</time>
      </trkpt>
      <trkpt lat="44.68995" lon="6.90934">
        <ele>2658.4</ele>
        <time>2011-06-04T08:17:57Z</time>
      </trkpt>
      <trkpt lat="44.68998" lon="6.9093">
        <ele>2659.2</ele>
        <time>2011-06-04T08:18:02Z</time>
      </trkpt>
      <trkpt lat="44.68999" lon="6.90929">
        <ele>2659.4</ele>
        <time>2011-06-04T08:18:03Z</time>
      </trkpt>
      <trkpt lat="44.69002" lon="6.90924">
        <ele>2660.2</ele>
        <time>2011-06-04T08:18:07Z</time>
      </trkpt>
      <trkpt lat="44.69002" lon="6.90922">
        <ele>2660.6</ele>
        <time>2011-06-04T08:18:09Z</time>
      </trkpt>
      <trkpt lat="44.69003" lon="6.9092">
        <ele>2661</ele>
        <time>2011-06-04T08:18:11Z</time>
      </trkpt>
      <trkpt lat="44.69003" lon="6.9092">
        <ele>2661.2</ele>
        <time>2011-06-04T08:18:12Z</time>
      </trkpt>
      <trkpt lat="44.69004" lon="6.90915">
        <ele>2662</ele>
        <time>2011-06-04T08:18:16Z</time>
      </trkpt>
      <trkpt lat="44.69005" lon="6.90914">
        <ele>2662.2</ele>
        <time>2011-06-04T08:18:17Z</time>
      </trkpt>
      <trkpt lat="44.69005" lon="6.90913">
        <ele>2662.4</ele>
        <time>2011-06-04T08:18:18Z</time>
      </trkpt>
      <trkpt lat="44.69007" lon="6.90909">
        <ele>2663.2</ele>
        <time>2011-06-04T08:18:22Z</time>
      </trkpt>
      <trkpt lat="44.69008" lon="6.90905">
        <ele>2664.2</ele>
        <time>2011-06-04T08:18:26Z</time>
      </trkpt>
      <trkpt lat="44.69008" lon="6.90901">
        <ele>2665.2</ele>
        <time>2011-06-04T08:18:30Z</time>
      </trkpt>
      <trkpt lat="44.69009" lon="6.90897">
        <ele>2666.4</ele>
        <time>2011-06-04T08:18:35Z</time>
      </trkpt>
      <trkpt lat="44.6901" lon="6.90894">
        <ele>2667.4</ele>
        <time>2011-06-04T08:18:39Z</time>
      </trkpt>
      <trkpt lat="44.69011" lon="6.9089">
        <ele>2668.8</ele>
        <time>2011-06-04T08:18:44Z</time>
      </trkpt>
      <trkpt lat="44.69011" lon="6.90889">
        <ele>2669</ele>
        <time>2011-06-04T08:18:45Z</time>
      </trkpt>
      <trkpt lat="44.69013" lon="6.90885">
        <ele>2670.2</ele>
        <time>2011-06-04T08:18:50Z</time>
      </trkpt>
      <trkpt lat="44.69014" lon="6.90882">
        <ele>2671.2</ele>
        <time>2011-06-04T08:18:54Z</time>
      </trkpt>
      <trkpt lat="44.69015" lon="6.90879">
        <ele>2672.2</ele>
        <time>2011-06-04T08:18:58Z</time>
      </trkpt>
      <trkpt lat="44.69017" lon="6.90878">
        <ele>2673.4</ele>
        <time>2011-06-04T08:19:02Z</time>
      </trkpt>
      <trkpt lat="44.69021" lon="6.90882">
        <ele>2674.2</ele>
        <time>2011-06-04T08:19:07Z</time>
      </trkpt>
      <trkpt lat="44.69022" lon="6.90884">
        <ele>2674.8</ele>
        <time>2011-06-04T08:19:10Z</time>
      </trkpt>
      <trkpt lat="44.69024" lon="6.90886">
        <ele>2675.2</ele>
        <time>2011-06-04T08:19:12Z</time>
      </trkpt>
      <trkpt lat="44.69027" lon="6.90888">
        <ele>2676</ele>
        <time>2011-06-04T08:19:17Z</time>
      </trkpt>
      <trkpt lat="44.69031" lon="6.9089">
        <ele>2677.2</ele>
        <time>2011-06-04T08:19:23Z</time>
      </trkpt>
      <trkpt lat="44.69033" lon="6.9089">
        <ele>2678.2</ele>
        <time>2011-06-04T08:19:29Z</time>
      </trkpt>
      <trkpt lat="44.69037" lon="6.90892">
        <ele>2679</ele>
        <time>2011-06-04T08:19:34Z</time>
      </trkpt>
      <trkpt lat="44.69038" lon="6.90893">
        <ele>2679.4</ele>
        <time>2011-06-04T08:19:36Z</time>
      </trkpt>
      <trkpt lat="44.69039" lon="6.90893">
        <ele>2679.6</ele>
        <time>2011-06-04T08:19:38Z</time>
      </trkpt>
      <trkpt lat="44.69043" lon="6.90894">
        <ele>2680.6</ele>
        <time>2011-06-04T08:19:43Z</time>
      </trkpt>
      <trkpt lat="44.69046" lon="6.90895">
        <ele>2681.8</ele>
        <time>2011-06-04T08:19:48Z</time>
      </trkpt>
      <trkpt lat="44.69047" lon="6.90893">
        <ele>2682.8</ele>
        <time>2011-06-04T08:19:53Z</time>
      </trkpt>
      <trkpt lat="44.6905" lon="6.90889">
        <ele>2683.8</ele>
        <time>2011-06-04T08:19:58Z</time>
      </trkpt>
      <trkpt lat="44.69051" lon="6.90887">
        <ele>2684.8</ele>
        <time>2011-06-04T08:20:02Z</time>
      </trkpt>
      <trkpt lat="44.69051" lon="6.90884">
        <ele>2686</ele>
        <time>2011-06-04T08:20:07Z</time>
      </trkpt>
      <trkpt lat="44.6905" lon="6.90884">
        <ele>2686.4</ele>
        <time>2011-06-04T08:20:08Z</time>
      </trkpt>
      <trkpt lat="44.69052" lon="6.90882">
        <ele>2688.2</ele>
        <time>2011-06-04T08:20:15Z</time>
      </trkpt>
      <trkpt lat="44.69055" lon="6.90882">
        <ele>2689.6</ele>
        <time>2011-06-04T08:20:21Z</time>
      </trkpt>
      <trkpt lat="44.69059" lon="6.90884">
        <ele>2690.8</ele>
        <time>2011-06-04T08:20:26Z</time>
      </trkpt>
      <trkpt lat="44.69063" lon="6.90885">
        <ele>2692</ele>
        <time>2011-06-04T08:20:32Z</time>
      </trkpt>
      <trkpt lat="44.69066" lon="6.90886">
        <ele>2693.2</ele>
        <time>2011-06-04T08:20:37Z</time>
      </trkpt>
      <trkpt lat="44.6907" lon="6.90887">
        <ele>2694.4</ele>
        <time>2011-06-04T08:20:43Z</time>
      </trkpt>
      <trkpt lat="44.69074" lon="6.90888">
        <ele>2695.6</ele>
        <time>2011-06-04T08:20:48Z</time>
      </trkpt>
      <trkpt lat="44.69078" lon="6.90889">
        <ele>2696.8</ele>
        <time>2011-06-04T08:20:54Z</time>
      </trkpt>
      <trkpt lat="44.69082" lon="6.90889">
        <ele>2698</ele>
        <time>2011-06-04T08:20:59Z</time>
      </trkpt>
      <trkpt lat="44.69084" lon="6.9089">
        <ele>2699</ele>
        <time>2011-06-04T08:21:03Z</time>
      </trkpt>
      <trkpt lat="44.69086" lon="6.9089">
        <ele>2699.8</ele>
        <time>2011-06-04T08:21:07Z</time>
      </trkpt>
      <trkpt lat="44.69089" lon="6.90891">
        <ele>2700.8</ele>
        <time>2011-06-04T08:21:11Z</time>
      </trkpt>
      <trkpt lat="44.69092" lon="6.90891">
        <ele>2701.8</ele>
        <time>2011-06-04T08:21:15Z</time>
      </trkpt>
      <trkpt lat="44.69095" lon="6.90892">
        <ele>2703</ele>
        <time>2011-06-04T08:21:20Z</time>
      </trkpt>
      <trkpt lat="44.691" lon="6.90893">
        <ele>2704.2</ele>
        <time>2011-06-04T08:21:26Z</time>
      </trkpt>
      <trkpt lat="44.69102" lon="6.90893">
        <ele>2705</ele>
        <time>2011-06-04T08:21:29Z</time>
      </trkpt>
      <trkpt lat="44.69103" lon="6.90893">
        <ele>2705.4</ele>
        <time>2011-06-04T08:21:31Z</time>
      </trkpt>
      <trkpt lat="44.69104" lon="6.90895">
        <ele>2706.8</ele>
        <time>2011-06-04T08:21:39Z</time>
      </trkpt>
      <trkpt lat="44.69106" lon="6.90892">
        <ele>2707.6</ele>
        <time>2011-06-04T08:21:44Z</time>
      </trkpt>
      <trkpt lat="44.69109" lon="6.9089">
        <ele>2708</ele>
        <time>2011-06-04T08:21:48Z</time>
      </trkpt>
      <trkpt lat="44.6911" lon="6.90889">
        <ele>2708.2</ele>
        <time>2011-06-04T08:21:49Z</time>
      </trkpt>
      <trkpt lat="44.6911" lon="6.90884">
        <ele>2708.8</ele>
        <time>2011-06-04T08:21:53Z</time>
      </trkpt>
      <trkpt lat="44.69109" lon="6.9088">
        <ele>2709.4</ele>
        <time>2011-06-04T08:21:57Z</time>
      </trkpt>
      <trkpt lat="44.69109" lon="6.90878">
        <ele>2709.8</ele>
        <time>2011-06-04T08:21:58Z</time>
      </trkpt>
      <trkpt lat="44.69109" lon="6.90877">
        <ele>2709.8</ele>
        <time>2011-06-04T08:21:59Z</time>
      </trkpt>
      <trkpt lat="44.69109" lon="6.90873">
        <ele>2710.4</ele>
        <time>2011-06-04T08:22:02Z</time>
      </trkpt>
      <trkpt lat="44.69109" lon="6.90863">
        <ele>2711.8</ele>
        <time>2011-06-04T08:22:10Z</time>
      </trkpt>
      <trkpt lat="44.69109" lon="6.90856">
        <ele>2712.8</ele>
        <time>2011-06-04T08:22:15Z</time>
      </trkpt>
      <trkpt lat="44.6911" lon="6.90852">
        <ele>2713.8</ele>
        <time>2011-06-04T08:22:19Z</time>
      </trkpt>
      <trkpt lat="44.6911" lon="6.90851">
        <ele>2714</ele>
        <time>2011-06-04T08:22:20Z</time>
      </trkpt>
      <trkpt lat="44.6911" lon="6.90851">
        <ele>2714.2</ele>
        <time>2011-06-04T08:22:21Z</time>
      </trkpt>
      <trkpt lat="44.6911" lon="6.90845">
        <ele>2715.6</ele>
        <time>2011-06-04T08:22:26Z</time>
      </trkpt>
      <trkpt lat="44.6911" lon="6.90841">
        <ele>2716.6</ele>
        <time>2011-06-04T08:22:30Z</time>
      </trkpt>
      <trkpt lat="44.6911" lon="6.90838">
        <ele>2717.6</ele>
        <time>2011-06-04T08:22:34Z</time>
      </trkpt>
      <trkpt lat="44.6911" lon="6.90833">
        <ele>2718.8</ele>
        <time>2011-06-04T08:22:39Z</time>
      </trkpt>
      <trkpt lat="44.69111" lon="6.90828">
        <ele>2720.4</ele>
        <time>2011-06-04T08:22:45Z</time>
      </trkpt>
      <trkpt lat="44.69112" lon="6.90827">
        <ele>2720.8</ele>
        <time>2011-06-04T08:22:46Z</time>
      </trkpt>
      <trkpt lat="44.69112" lon="6.90825">
        <ele>2721.4</ele>
        <time>2011-06-04T08:22:49Z</time>
      </trkpt>
      <trkpt lat="44.69113" lon="6.90822">
        <ele>2722.8</ele>
        <time>2011-06-04T08:22:54Z</time>
      </trkpt>
      <trkpt lat="44.69114" lon="6.90819">
        <ele>2723.8</ele>
        <time>2011-06-04T08:22:58Z</time>
      </trkpt>
      <trkpt lat="44.69115" lon="6.90814">
        <ele>2725.2</ele>
        <time>2011-06-04T08:23:03Z</time>
      </trkpt>
      <trkpt lat="44.69118" lon="6.9081">
        <ele>2726.8</ele>
        <time>2011-06-04T08:23:09Z</time>
      </trkpt>
      <trkpt lat="44.69121" lon="6.90808">
        <ele>2728</ele>
        <time>2011-06-04T08:23:14Z</time>
      </trkpt>
      <trkpt lat="44.69122" lon="6.90808">
        <ele>2728.2</ele>
        <time>2011-06-04T08:23:15Z</time>
      </trkpt>
      <trkpt lat="44.69124" lon="6.9081">
        <ele>2728.8</ele>
        <time>2011-06-04T08:23:18Z</time>
      </trkpt>
      <trkpt lat="44.69124" lon="6.9081">
        <ele>2729</ele>
        <time>2011-06-04T08:23:19Z</time>
      </trkpt>
      <trkpt lat="44.69128" lon="6.90812">
        <ele>2729.8</ele>
        <time>2011-06-04T08:23:24Z</time>
      </trkpt>
      <trkpt lat="44.69131" lon="6.90813">
        <ele>2730.6</ele>
        <time>2011-06-04T08:23:28Z</time>
      </trkpt>
      <trkpt lat="44.69134" lon="6.90816">
        <ele>2731.2</ele>
        <time>2011-06-04T08:23:33Z</time>
      </trkpt>
      <trkpt lat="44.69136" lon="6.90819">
        <ele>2731.6</ele>
        <time>2011-06-04T08:23:35Z</time>
      </trkpt>
      <trkpt lat="44.69136" lon="6.90821">
        <ele>2732</ele>
        <time>2011-06-04T08:23:37Z</time>
      </trkpt>
      <trkpt lat="44.69137" lon="6.90822">
        <ele>2732</ele>
        <time>2011-06-04T08:23:38Z</time>
      </trkpt>
      <trkpt lat="44.69139" lon="6.90827">
        <ele>2732.8</ele>
        <time>2011-06-04T08:23:43Z</time>
      </trkpt>
      <trkpt lat="44.69143" lon="6.90829">
        <ele>2733.8</ele>
        <time>2011-06-04T08:23:50Z</time>
      </trkpt>
      <trkpt lat="44.69146" lon="6.90826">
        <ele>2734.8</ele>
        <time>2011-06-04T08:23:56Z</time>
      </trkpt>
      <trkpt lat="44.69149" lon="6.90829">
        <ele>2735.6</ele>
        <time>2011-06-04T08:24:02Z</time>
      </trkpt>
      <trkpt lat="44.6915" lon="6.9083">
        <ele>2735.8</ele>
        <time>2011-06-04T08:24:04Z</time>
      </trkpt>
      <trkpt lat="44.6915" lon="6.90831">
        <ele>2736.2</ele>
        <time>2011-06-04T08:24:06Z</time>
      </trkpt>
      <trkpt lat="44.69153" lon="6.90833">
        <ele>2736.8</ele>
        <time>2011-06-04T08:24:11Z</time>
      </trkpt>
      <trkpt lat="44.69157" lon="6.90838">
        <ele>2738</ele>
        <time>2011-06-04T08:24:17Z</time>
      </trkpt>
      <trkpt lat="44.69161" lon="6.90845">
        <ele>2739</ele>
        <time>2011-06-04T08:24:23Z</time>
      </trkpt>
      <trkpt lat="44.69162" lon="6.90847">
        <ele>2739.4</ele>
        <time>2011-06-04T08:24:25Z</time>
      </trkpt>
      <trkpt lat="44.69165" lon="6.9085">
        <ele>2739.8</ele>
        <time>2011-06-04T08:24:28Z</time>
      </trkpt>
      <trkpt lat="44.69165" lon="6.90851">
        <ele>2740</ele>
        <time>2011-06-04T08:24:29Z</time>
      </trkpt>
      <trkpt lat="44.69167" lon="6.90854">
        <ele>2740.8</ele>
        <time>2011-06-04T08:24:33Z</time>
      </trkpt>
      <trkpt lat="44.69172" lon="6.90857">
        <ele>2741.8</ele>
        <time>2011-06-04T08:24:39Z</time>
      </trkpt>
      <trkpt lat="44.69174" lon="6.90859">
        <ele>2742.8</ele>
        <time>2011-06-04T08:24:45Z</time>
      </trkpt>
      <trkpt lat="44.69174" lon="6.90855">
        <ele>2743.6</ele>
        <time>2011-06-04T08:24:49Z</time>
      </trkpt>
      <trkpt lat="44.69174" lon="6.90853">
        <ele>2744</ele>
        <time>2011-06-04T08:24:51Z</time>
      </trkpt>
      <trkpt lat="44.69174" lon="6.90849">
        <ele>2745</ele>
        <time>2011-06-04T08:24:56Z</time>
      </trkpt>
      <trkpt lat="44.69173" lon="6.90843">
        <ele>2746.2</ele>
        <time>2011-06-04T08:25:01Z</time>
      </trkpt>
      <trkpt lat="44.69173" lon="6.90839">
        <ele>2747.2</ele>
        <time>2011-06-04T08:25:05Z</time>
      </trkpt>
      <trkpt lat="44.69174" lon="6.90835">
        <ele>2748.4</ele>
        <time>2011-06-04T08:25:10Z</time>
      </trkpt>
      <trkpt lat="44.69175" lon="6.9083">
        <ele>2749.8</ele>
        <time>2011-06-04T08:25:16Z</time>
      </trkpt>
      <trkpt lat="44.69176" lon="6.9083">
        <ele>2750</ele>
        <time>2011-06-04T08:25:17Z</time>
      </trkpt>
      <trkpt lat="44.69177" lon="6.90826">
        <ele>2751.2</ele>
        <time>2011-06-04T08:25:22Z</time>
      </trkpt>
      <trkpt lat="44.69178" lon="6.90824">
        <ele>2752.4</ele>
        <time>2011-06-04T08:25:27Z</time>
      </trkpt>
      <trkpt lat="44.69178" lon="6.90822">
        <ele>2753.4</ele>
        <time>2011-06-04T08:25:31Z</time>
      </trkpt>
      <trkpt lat="44.69179" lon="6.9082">
        <ele>2754.4</ele>
        <time>2011-06-04T08:25:36Z</time>
      </trkpt>
      <trkpt lat="44.6918" lon="6.90816">
        <ele>2755.4</ele>
        <time>2011-06-04T08:25:41Z</time>
      </trkpt>
      <trkpt lat="44.69181" lon="6.90814">
        <ele>2756.6</ele>
        <time>2011-06-04T08:25:46Z</time>
      </trkpt>
      <trkpt lat="44.69183" lon="6.90811">
        <ele>2758</ele>
        <time>2011-06-04T08:25:52Z</time>
      </trkpt>
      <trkpt lat="44.69183" lon="6.90809">
        <ele>2758.6</ele>
        <time>2011-06-04T08:25:55Z</time>
      </trkpt>
      <trkpt lat="44.69183" lon="6.90808">
        <ele>2759.2</ele>
        <time>2011-06-04T08:25:58Z</time>
      </trkpt>
      <trkpt lat="44.69184" lon="6.90805">
        <ele>2760.6</ele>
        <time>2011-06-04T08:26:05Z</time>
      </trkpt>
      <trkpt lat="44.69185" lon="6.90801">
        <ele>2761.6</ele>
        <time>2011-06-04T08:26:10Z</time>
      </trkpt>
      <trkpt lat="44.69187" lon="6.90798">
        <ele>2762.6</ele>
        <time>2011-06-04T08:26:15Z</time>
      </trkpt>
      <trkpt lat="44.69189" lon="6.90793">
        <ele>2763.6</ele>
        <time>2011-06-04T08:26:20Z</time>
      </trkpt>
      <trkpt lat="44.6919" lon="6.90791">
        <ele>2764.4</ele>
        <time>2011-06-04T08:26:25Z</time>
      </trkpt>
      <trkpt lat="44.69191" lon="6.90788">
        <ele>2765.4</ele>
        <time>2011-06-04T08:26:29Z</time>
      </trkpt>
      <trkpt lat="44.69191" lon="6.90787">
        <ele>2765.6</ele>
        <time>2011-06-04T08:26:30Z</time>
      </trkpt>
      <trkpt lat="44.69193" lon="6.90783">
        <ele>2766.4</ele>
        <time>2011-06-04T08:26:35Z</time>
      </trkpt>
      <trkpt lat="44.69194" lon="6.90779">
        <ele>2767.6</ele>
        <time>2011-06-04T08:26:40Z</time>
      </trkpt>
      <trkpt lat="44.69195" lon="6.90775">
        <ele>2769</ele>
        <time>2011-06-04T08:26:46Z</time>
      </trkpt>
      <trkpt lat="44.69196" lon="6.90772">
        <ele>2770.2</ele>
        <time>2011-06-04T08:26:51Z</time>
      </trkpt>
      <trkpt lat="44.69196" lon="6.90768">
        <ele>2771.2</ele>
        <time>2011-06-04T08:26:56Z</time>
      </trkpt>
      <trkpt lat="44.69197" lon="6.90763">
        <ele>2772.2</ele>
        <time>2011-06-04T08:27:00Z</time>
      </trkpt>
      <trkpt lat="44.69197" lon="6.90762">
        <ele>2772.4</ele>
        <time>2011-06-04T08:27:01Z</time>
      </trkpt>
      <trkpt lat="44.69198" lon="6.9076">
        <ele>2773.4</ele>
        <time>2011-06-04T08:27:05Z</time>
      </trkpt>
      <trkpt lat="44.69198" lon="6.90758">
        <ele>2774.8</ele>
        <time>2011-06-04T08:27:12Z</time>
      </trkpt>
      <trkpt lat="44.692" lon="6.90752">
        <ele>2776</ele>
        <time>2011-06-04T08:27:18Z</time>
      </trkpt>
      <trkpt lat="44.69202" lon="6.90748">
        <ele>2777.2</ele>
        <time>2011-06-04T08:27:23Z</time>
      </trkpt>
      <trkpt lat="44.69204" lon="6.90743">
        <ele>2778.4</ele>
        <time>2011-06-04T08:27:28Z</time>
      </trkpt>
      <trkpt lat="44.69206" lon="6.90742">
        <ele>2779</ele>
        <time>2011-06-04T08:27:31Z</time>
      </trkpt>
      <trkpt lat="44.69207" lon="6.90741">
        <ele>2779.4</ele>
        <time>2011-06-04T08:27:33Z</time>
      </trkpt>
      <trkpt lat="44.69209" lon="6.90741">
        <ele>2780.2</ele>
        <time>2011-06-04T08:27:37Z</time>
      </trkpt>
      <trkpt lat="44.69211" lon="6.90741">
        <ele>2781</ele>
        <time>2011-06-04T08:27:41Z</time>
      </trkpt>
      <trkpt lat="44.69213" lon="6.90745">
        <ele>2782</ele>
        <time>2011-06-04T08:27:46Z</time>
      </trkpt>
      <trkpt lat="44.69216" lon="6.90747">
        <ele>2783</ele>
        <time>2011-06-04T08:27:51Z</time>
      </trkpt>
      <trkpt lat="44.69219" lon="6.90746">
        <ele>2783.8</ele>
        <time>2011-06-04T08:27:56Z</time>
      </trkpt>
      <trkpt lat="44.69221" lon="6.90744">
        <ele>2784.8</ele>
        <time>2011-06-04T08:28:01Z</time>
      </trkpt>
      <trkpt lat="44.69222" lon="6.90744">
        <ele>2785</ele>
        <time>2011-06-04T08:28:02Z</time>
      </trkpt>
      <trkpt lat="44.69223" lon="6.90743">
        <ele>2785.6</ele>
        <time>2011-06-04T08:28:05Z</time>
      </trkpt>
      <trkpt lat="44.69226" lon="6.90743">
        <ele>2786.8</ele>
        <time>2011-06-04T08:28:10Z</time>
      </trkpt>
      <trkpt lat="44.69229" lon="6.90746">
        <ele>2787.8</ele>
        <time>2011-06-04T08:28:15Z</time>
      </trkpt>
      <trkpt lat="44.69231" lon="6.90748">
        <ele>2788.8</ele>
        <time>2011-06-04T08:28:19Z</time>
      </trkpt>
      <trkpt lat="44.69234" lon="6.9075">
        <ele>2789.6</ele>
        <time>2011-06-04T08:28:23Z</time>
      </trkpt>
      <trkpt lat="44.69237" lon="6.90751">
        <ele>2790.6</ele>
        <time>2011-06-04T08:28:27Z</time>
      </trkpt>
      <trkpt lat="44.69238" lon="6.90751">
        <ele>2790.8</ele>
        <time>2011-06-04T08:28:28Z</time>
      </trkpt>
      <trkpt lat="44.6924" lon="6.90754">
        <ele>2791.8</ele>
        <time>2011-06-04T08:28:32Z</time>
      </trkpt>
      <trkpt lat="44.69243" lon="6.90756">
        <ele>2793</ele>
        <time>2011-06-04T08:28:37Z</time>
      </trkpt>
      <trkpt lat="44.69245" lon="6.9076">
        <ele>2794.2</ele>
        <time>2011-06-04T08:28:42Z</time>
      </trkpt>
      <trkpt lat="44.69248" lon="6.90764">
        <ele>2795.2</ele>
        <time>2011-06-04T08:28:47Z</time>
      </trkpt>
      <trkpt lat="44.69249" lon="6.90769">
        <ele>2796.4</ele>
        <time>2011-06-04T08:28:52Z</time>
      </trkpt>
      <trkpt lat="44.69249" lon="6.9077">
        <ele>2796.6</ele>
        <time>2011-06-04T08:28:53Z</time>
      </trkpt>
      <trkpt lat="44.69251" lon="6.90777">
        <ele>2798</ele>
        <time>2011-06-04T08:29:00Z</time>
      </trkpt>
      <trkpt lat="44.69253" lon="6.90787">
        <ele>2799.6</ele>
        <time>2011-06-04T08:29:09Z</time>
      </trkpt>
      <trkpt lat="44.69256" lon="6.90791">
        <ele>2800.6</ele>
        <time>2011-06-04T08:29:14Z</time>
      </trkpt>
      <trkpt lat="44.69256" lon="6.90792">
        <ele>2800.8</ele>
        <time>2011-06-04T08:29:15Z</time>
      </trkpt>
      <trkpt lat="44.69257" lon="6.90793">
        <ele>2801</ele>
        <time>2011-06-04T08:29:16Z</time>
      </trkpt>
      <trkpt lat="44.69262" lon="6.90799">
        <ele>2802.4</ele>
        <time>2011-06-04T08:29:24Z</time>
      </trkpt>
      <trkpt lat="44.69265" lon="6.90799">
        <ele>2803.8</ele>
        <time>2011-06-04T08:29:30Z</time>
      </trkpt>
      <trkpt lat="44.6927" lon="6.908">
        <ele>2805.2</ele>
        <time>2011-06-04T08:29:37Z</time>
      </trkpt>
      <trkpt lat="44.69272" lon="6.90799">
        <ele>2806.2</ele>
        <time>2011-06-04T08:29:42Z</time>
      </trkpt>
      <trkpt lat="44.69273" lon="6.90799">
        <ele>2806.4</ele>
        <time>2011-06-04T08:29:43Z</time>
      </trkpt>
      <trkpt lat="44.69276" lon="6.90796">
        <ele>2807.8</ele>
        <time>2011-06-04T08:29:50Z</time>
      </trkpt>
      <trkpt lat="44.69279" lon="6.90794">
        <ele>2809.6</ele>
        <time>2011-06-04T08:30:00Z</time>
      </trkpt>
      <trkpt lat="44.69283" lon="6.90791">
        <ele>2811</ele>
        <time>2011-06-04T08:30:07Z</time>
      </trkpt>
      <trkpt lat="44.69287" lon="6.90791">
        <ele>2811.8</ele>
        <time>2011-06-04T08:30:13Z</time>
      </trkpt>
      <trkpt lat="44.69289" lon="6.90792">
        <ele>2812.2</ele>
        <time>2011-06-04T08:30:15Z</time>
      </trkpt>
      <trkpt lat="44.69291" lon="6.90793">
        <ele>2812.8</ele>
        <time>2011-06-04T08:30:18Z</time>
      </trkpt>
      <trkpt lat="44.69295" lon="6.90793">
        <ele>2813.8</ele>
        <time>2011-06-04T08:30:24Z</time>
      </trkpt>
      <trkpt lat="44.69299" lon="6.90789">
        <ele>2815</ele>
        <time>2011-06-04T08:30:30Z</time>
      </trkpt>
      <trkpt lat="44.69302" lon="6.90787">
        <ele>2815.8</ele>
        <time>2011-06-04T08:30:34Z</time>
      </trkpt>
      <trkpt lat="44.69303" lon="6.90786">
        <ele>2816.2</ele>
        <time>2011-06-04T08:30:36Z</time>
      </trkpt>
      <trkpt lat="44.69304" lon="6.90786">
        <ele>2816.4</ele>
        <time>2011-06-04T08:30:37Z</time>
      </trkpt>
      <trkpt lat="44.69309" lon="6.90786">
        <ele>2817.2</ele>
        <time>2011-06-04T08:30:42Z</time>
      </trkpt>
      <trkpt lat="44.69311" lon="6.90788">
        <ele>2817.6</ele>
        <time>2011-06-04T08:30:45Z</time>
      </trkpt>
      <trkpt lat="44.69313" lon="6.90788">
        <ele>2818</ele>
        <time>2011-06-04T08:30:47Z</time>
      </trkpt>
      <trkpt lat="44.69317" lon="6.9079">
        <ele>2818.8</ele>
        <time>2011-06-04T08:30:52Z</time>
      </trkpt>
      <trkpt lat="44.6932" lon="6.90792">
        <ele>2819.4</ele>
        <time>2011-06-04T08:30:56Z</time>
      </trkpt>
      <trkpt lat="44.69321" lon="6.90793">
        <ele>2819.6</ele>
        <time>2011-06-04T08:30:57Z</time>
      </trkpt>
      <trkpt lat="44.69322" lon="6.90793">
        <ele>2819.8</ele>
        <time>2011-06-04T08:30:58Z</time>
      </trkpt>
      <trkpt lat="44.69324" lon="6.90795">
        <ele>2820.2</ele>
        <time>2011-06-04T08:31:01Z</time>
      </trkpt>
      <trkpt lat="44.69325" lon="6.90795">
        <ele>2820.4</ele>
        <time>2011-06-04T08:31:02Z</time>
      </trkpt>
      <trkpt lat="44.69326" lon="6.90795">
        <ele>2820.6</ele>
        <time>2011-06-04T08:31:03Z</time>
      </trkpt>
      <trkpt lat="44.6933" lon="6.90797">
        <ele>2821.4</ele>
        <time>2011-06-04T08:31:08Z</time>
      </trkpt>
      <trkpt lat="44.69331" lon="6.90797">
        <ele>2821.6</ele>
        <time>2011-06-04T08:31:09Z</time>
      </trkpt>
      <trkpt lat="44.69332" lon="6.90797">
        <ele>2821.8</ele>
        <time>2011-06-04T08:31:10Z</time>
      </trkpt>
      <trkpt lat="44.69334" lon="6.90798">
        <ele>2822</ele>
        <time>2011-06-04T08:31:12Z</time>
      </trkpt>
      <trkpt lat="44.69338" lon="6.90799">
        <ele>2823</ele>
        <time>2011-06-04T08:31:17Z</time>
      </trkpt>
      <trkpt lat="44.69339" lon="6.908">
        <ele>2823.2</ele>
        <time>2011-06-04T08:31:19Z</time>
      </trkpt>
      <trkpt lat="44.69342" lon="6.908">
        <ele>2823.8</ele>
        <time>2011-06-04T08:31:22Z</time>
      </trkpt>
      <trkpt lat="44.69345" lon="6.908">
        <ele>2824.2</ele>
        <time>2011-06-04T08:31:25Z</time>
      </trkpt>
      <trkpt lat="44.69345" lon="6.908">
        <ele>2824.4</ele>
        <time>2011-06-04T08:31:26Z</time>
      </trkpt>
      <trkpt lat="44.69346" lon="6.908">
        <ele>2824.6</ele>
        <time>2011-06-04T08:31:27Z</time>
      </trkpt>
      <trkpt lat="44.69349" lon="6.90801">
        <ele>2825.6</ele>
        <time>2011-06-04T08:31:33Z</time>
      </trkpt>
      <trkpt lat="44.69353" lon="6.90802">
        <ele>2826.8</ele>
        <time>2011-06-04T08:31:39Z</time>
      </trkpt>
      <trkpt lat="44.69356" lon="6.90803">
        <ele>2827.8</ele>
        <time>2011-06-04T08:31:44Z</time>
      </trkpt>
      <trkpt lat="44.69356" lon="6.90803">
        <ele>2829</ele>
        <time>2011-06-04T08:31:50Z</time>
      </trkpt>
      <trkpt lat="44.69357" lon="6.90802">
        <ele>2829.2</ele>
        <time>2011-06-04T08:31:51Z</time>
      </trkpt>
      <trkpt lat="44.69359" lon="6.90801">
        <ele>2830.2</ele>
        <time>2011-06-04T08:31:56Z</time>
      </trkpt>
      <trkpt lat="44.69361" lon="6.90799">
        <ele>2831.6</ele>
        <time>2011-06-04T08:32:02Z</time>
      </trkpt>
      <trkpt lat="44.69363" lon="6.90795">
        <ele>2833</ele>
        <time>2011-06-04T08:32:08Z</time>
      </trkpt>
      <trkpt lat="44.69366" lon="6.90792">
        <ele>2834.2</ele>
        <time>2011-06-04T08:32:13Z</time>
      </trkpt>
      <trkpt lat="44.69369" lon="6.90792">
        <ele>2835</ele>
        <time>2011-06-04T08:32:17Z</time>
      </trkpt>
      <trkpt lat="44.69371" lon="6.90792">
        <ele>2835.6</ele>
        <time>2011-06-04T08:32:20Z</time>
      </trkpt>
      <trkpt lat="44.69372" lon="6.90793">
        <ele>2836.2</ele>
        <time>2011-06-04T08:32:22Z</time>
      </trkpt>
      <trkpt lat="44.69373" lon="6.90798">
        <ele>2837.4</ele>
        <time>2011-06-04T08:32:28Z</time>
      </trkpt>
      <trkpt lat="44.69375" lon="6.90803">
        <ele>2838.4</ele>
        <time>2011-06-04T08:32:33Z</time>
      </trkpt>
      <trkpt lat="44.69377" lon="6.90808">
        <ele>2839.4</ele>
        <time>2011-06-04T08:32:39Z</time>
      </trkpt>
      <trkpt lat="44.69379" lon="6.90813">
        <ele>2840.8</ele>
        <time>2011-06-04T08:32:45Z</time>
      </trkpt>
      <trkpt lat="44.6938" lon="6.90818">
        <ele>2842</ele>
        <time>2011-06-04T08:32:51Z</time>
      </trkpt>
      <trkpt lat="44.69381" lon="6.90823">
        <ele>2842.8</ele>
        <time>2011-06-04T08:32:56Z</time>
      </trkpt>
      <trkpt lat="44.69383" lon="6.90828">
        <ele>2844</ele>
        <time>2011-06-04T08:33:02Z</time>
      </trkpt>
      <trkpt lat="44.69384" lon="6.90833">
        <ele>2845</ele>
        <time>2011-06-04T08:33:07Z</time>
      </trkpt>
      <trkpt lat="44.69385" lon="6.90836">
        <ele>2846</ele>
        <time>2011-06-04T08:33:12Z</time>
      </trkpt>
      <trkpt lat="44.69387" lon="6.90839">
        <ele>2846.6</ele>
        <time>2011-06-04T08:33:16Z</time>
      </trkpt>
      <trkpt lat="44.6939" lon="6.90844">
        <ele>2847.6</ele>
        <time>2011-06-04T08:33:21Z</time>
      </trkpt>
      <trkpt lat="44.69391" lon="6.90846">
        <ele>2848.6</ele>
        <time>2011-06-04T08:33:26Z</time>
      </trkpt>
      <trkpt lat="44.69393" lon="6.90848">
        <ele>2849.4</ele>
        <time>2011-06-04T08:33:30Z</time>
      </trkpt>
      <trkpt lat="44.69394" lon="6.90851">
        <ele>2850.2</ele>
        <time>2011-06-04T08:33:34Z</time>
      </trkpt>
      <trkpt lat="44.69395" lon="6.90854">
        <ele>2851</ele>
        <time>2011-06-04T08:33:38Z</time>
      </trkpt>
      <trkpt lat="44.69397" lon="6.90854">
        <ele>2852</ele>
        <time>2011-06-04T08:33:42Z</time>
      </trkpt>
      <trkpt lat="44.69397" lon="6.90854">
        <ele>2852.2</ele>
        <time>2011-06-04T08:33:43Z</time>
      </trkpt>
      <trkpt lat="44.694" lon="6.90855">
        <ele>2853</ele>
        <time>2011-06-04T08:33:47Z</time>
      </trkpt>
      <trkpt lat="44.69402" lon="6.90859">
        <ele>2854</ele>
        <time>2011-06-04T08:33:51Z</time>
      </trkpt>
      <trkpt lat="44.69404" lon="6.90863">
        <ele>2855.2</ele>
        <time>2011-06-04T08:33:57Z</time>
      </trkpt>
      <trkpt lat="44.69407" lon="6.90862">
        <ele>2856.6</ele>
        <time>2011-06-04T08:34:04Z</time>
      </trkpt>
      <trkpt lat="44.6941" lon="6.90864">
        <ele>2857.8</ele>
        <time>2011-06-04T08:34:10Z</time>
      </trkpt>
      <trkpt lat="44.69412" lon="6.90864">
        <ele>2858.4</ele>
        <time>2011-06-04T08:34:13Z</time>
      </trkpt>
      <trkpt lat="44.69414" lon="6.90864">
        <ele>2859</ele>
        <time>2011-06-04T08:34:16Z</time>
      </trkpt>
      <trkpt lat="44.69415" lon="6.90865">
        <ele>2859.8</ele>
        <time>2011-06-04T08:34:20Z</time>
      </trkpt>
      <trkpt lat="44.69417" lon="6.90867">
        <ele>2860.8</ele>
        <time>2011-06-04T08:34:25Z</time>
      </trkpt>
      <trkpt lat="44.69417" lon="6.90868">
        <ele>2862</ele>
        <time>2011-06-04T08:34:32Z</time>
      </trkpt>
      <trkpt lat="44.69418" lon="6.90867">
        <ele>2863</ele>
        <time>2011-06-04T08:34:37Z</time>
      </trkpt>
      <trkpt lat="44.6942" lon="6.90865">
        <ele>2863.8</ele>
        <time>2011-06-04T08:34:41Z</time>
      </trkpt>
      <trkpt lat="44.69422" lon="6.90867">
        <ele>2864.8</ele>
        <time>2011-06-04T08:34:46Z</time>
      </trkpt>
      <trkpt lat="44.69426" lon="6.90869">
        <ele>2867.6</ele>
        <time>2011-06-04T08:34:59Z</time>
      </trkpt>
      <trkpt lat="44.69427" lon="6.90868">
        <ele>2868.4</ele>
        <time>2011-06-04T08:35:03Z</time>
      </trkpt>
      <trkpt lat="44.69428" lon="6.90868">
        <ele>2868.6</ele>
        <time>2011-06-04T08:35:04Z</time>
      </trkpt>
      <trkpt lat="44.69431" lon="6.90869">
        <ele>2869.8</ele>
        <time>2011-06-04T08:35:09Z</time>
      </trkpt>
      <trkpt lat="44.69433" lon="6.9087">
        <ele>2871</ele>
        <time>2011-06-04T08:35:14Z</time>
      </trkpt>
      <trkpt lat="44.69435" lon="6.90871">
        <ele>2872</ele>
        <time>2011-06-04T08:35:18Z</time>
      </trkpt>
      <trkpt lat="44.69437" lon="6.90871">
        <ele>2873.2</ele>
        <time>2011-06-04T08:35:23Z</time>
      </trkpt>
      <trkpt lat="44.69439" lon="6.90869">
        <ele>2874</ele>
        <time>2011-06-04T08:35:27Z</time>
      </trkpt>
      <trkpt lat="44.69441" lon="6.90869">
        <ele>2874.8</ele>
        <time>2011-06-04T08:35:31Z</time>
      </trkpt>
      <trkpt lat="44.69444" lon="6.90869">
        <ele>2875.8</ele>
        <time>2011-06-04T08:35:35Z</time>
      </trkpt>
      <trkpt lat="44.69445" lon="6.9087">
        <ele>2876.6</ele>
        <time>2011-06-04T08:35:39Z</time>
      </trkpt>
      <trkpt lat="44.69446" lon="6.90872">
        <ele>2877.4</ele>
        <time>2011-06-04T08:35:43Z</time>
      </trkpt>
      <trkpt lat="44.69447" lon="6.90871">
        <ele>2878.6</ele>
        <time>2011-06-04T08:35:49Z</time>
      </trkpt>
      <trkpt lat="44.6945" lon="6.90872">
        <ele>2879.8</ele>
        <time>2011-06-04T08:35:56Z</time>
      </trkpt>
      <trkpt lat="44.69453" lon="6.90873">
        <ele>2880.8</ele>
        <time>2011-06-04T08:36:03Z</time>
      </trkpt>
      <trkpt lat="44.69457" lon="6.90872">
        <ele>2882.2</ele>
        <time>2011-06-04T08:36:12Z</time>
      </trkpt>
      <trkpt lat="44.69458" lon="6.90871">
        <ele>2882.4</ele>
        <time>2011-06-04T08:36:14Z</time>
      </trkpt>
      <trkpt lat="44.69459" lon="6.90871">
        <ele>2882.6</ele>
        <time>2011-06-04T08:36:15Z</time>
      </trkpt>
      <trkpt lat="44.69462" lon="6.90869">
        <ele>2883</ele>
        <time>2011-06-04T08:36:18Z</time>
      </trkpt>
      <trkpt lat="44.69466" lon="6.90863">
        <ele>2883.6</ele>
        <time>2011-06-04T08:36:23Z</time>
      </trkpt>
      <trkpt lat="44.69467" lon="6.9086">
        <ele>2884</ele>
        <time>2011-06-04T08:36:25Z</time>
      </trkpt>
      <trkpt lat="44.69469" lon="6.90854">
        <ele>2884.4</ele>
        <time>2011-06-04T08:36:29Z</time>
      </trkpt>
      <trkpt lat="44.69469" lon="6.90852">
        <ele>2884.6</ele>
        <time>2011-06-04T08:36:30Z</time>
      </trkpt>
      <trkpt lat="44.69476" lon="6.90842">
        <ele>2885.8</ele>
        <time>2011-06-04T08:36:38Z</time>
      </trkpt>
      <trkpt lat="44.69481" lon="6.9084">
        <ele>2886.8</ele>
        <time>2011-06-04T08:36:43Z</time>
      </trkpt>
      <trkpt lat="44.69482" lon="6.9084">
        <ele>2887</ele>
        <time>2011-06-04T08:36:44Z</time>
      </trkpt>
      <trkpt lat="44.69484" lon="6.9084">
        <ele>2887.4</ele>
        <time>2011-06-04T08:36:47Z</time>
      </trkpt>
      <trkpt lat="44.69487" lon="6.9084">
        <ele>2888</ele>
        <time>2011-06-04T08:36:51Z</time>
      </trkpt>
      <trkpt lat="44.69488" lon="6.9084">
        <ele>2888.2</ele>
        <time>2011-06-04T08:36:52Z</time>
      </trkpt>
      <trkpt lat="44.69489" lon="6.9084">
        <ele>2888.6</ele>
        <time>2011-06-04T08:36:55Z</time>
      </trkpt>
      <trkpt lat="44.69492" lon="6.90839">
        <ele>2889.6</ele>
        <time>2011-06-04T08:37:00Z</time>
      </trkpt>
      <trkpt lat="44.69494" lon="6.90837">
        <ele>2890.2</ele>
        <time>2011-06-04T08:37:04Z</time>
      </trkpt>
      <trkpt lat="44.69495" lon="6.90836">
        <ele>2890.8</ele>
        <time>2011-06-04T08:37:06Z</time>
      </trkpt>
      <trkpt lat="44.69497" lon="6.90836">
        <ele>2891.4</ele>
        <time>2011-06-04T08:37:09Z</time>
      </trkpt>
      <trkpt lat="44.69499" lon="6.90834">
        <ele>2892</ele>
        <time>2011-06-04T08:37:13Z</time>
      </trkpt>
      <trkpt lat="44.69501" lon="6.90834">
        <ele>2892.8</ele>
        <time>2011-06-04T08:37:17Z</time>
      </trkpt>
      <trkpt lat="44.69504" lon="6.90835">
        <ele>2893.6</ele>
        <time>2011-06-04T08:37:22Z</time>
      </trkpt>
      <trkpt lat="44.69505" lon="6.90839">
        <ele>2894.2</ele>
        <time>2011-06-04T08:37:25Z</time>
      </trkpt>
      <trkpt lat="44.69506" lon="6.9084">
        <ele>2894.4</ele>
        <time>2011-06-04T08:37:27Z</time>
      </trkpt>
      <trkpt lat="44.69509" lon="6.90841">
        <ele>2895.2</ele>
        <time>2011-06-04T08:37:31Z</time>
      </trkpt>
      <trkpt lat="44.69512" lon="6.90841">
        <ele>2896</ele>
        <time>2011-06-04T08:37:36Z</time>
      </trkpt>
      <trkpt lat="44.69516" lon="6.90837">
        <ele>2896.6</ele>
        <time>2011-06-04T08:37:41Z</time>
      </trkpt>
      <trkpt lat="44.69517" lon="6.90835">
        <ele>2896.6</ele>
        <time>2011-06-04T08:37:42Z</time>
      </trkpt>
      <trkpt lat="44.69517" lon="6.90831">
        <ele>2897</ele>
        <time>2011-06-04T08:37:45Z</time>
      </trkpt>
      <trkpt lat="44.69516" lon="6.90828">
        <ele>2897.4</ele>
        <time>2011-06-04T08:37:47Z</time>
      </trkpt>
      <trkpt lat="44.69516" lon="6.90824">
        <ele>2897.8</ele>
        <time>2011-06-04T08:37:51Z</time>
      </trkpt>
      <trkpt lat="44.69517" lon="6.90821">
        <ele>2898.4</ele>
        <time>2011-06-04T08:37:55Z</time>
      </trkpt>
      <trkpt lat="44.69517" lon="6.90817">
        <ele>2899</ele>
        <time>2011-06-04T08:37:59Z</time>
      </trkpt>
      <trkpt lat="44.69517" lon="6.90813">
        <ele>2899.8</ele>
        <time>2011-06-04T08:38:04Z</time>
      </trkpt>
      <trkpt lat="44.69519" lon="6.90811">
        <ele>2900.2</ele>
        <time>2011-06-04T08:38:06Z</time>
      </trkpt>
      <trkpt lat="44.6952" lon="6.90811">
        <ele>2900.6</ele>
        <time>2011-06-04T08:38:08Z</time>
      </trkpt>
      <trkpt lat="44.69521" lon="6.90812">
        <ele>2900.8</ele>
        <time>2011-06-04T08:38:09Z</time>
      </trkpt>
      <trkpt lat="44.69526" lon="6.9081">
        <ele>2901.4</ele>
        <time>2011-06-04T08:38:13Z</time>
      </trkpt>
      <trkpt lat="44.69534" lon="6.90808">
        <ele>2902.4</ele>
        <time>2011-06-04T08:38:20Z</time>
      </trkpt>
      <trkpt lat="44.69537" lon="6.90807">
        <ele>2903</ele>
        <time>2011-06-04T08:38:23Z</time>
      </trkpt>
      <trkpt lat="44.69542" lon="6.90807">
        <ele>2903.6</ele>
        <time>2011-06-04T08:38:28Z</time>
      </trkpt>
      <trkpt lat="44.69546" lon="6.90807">
        <ele>2904</ele>
        <time>2011-06-04T08:38:32Z</time>
      </trkpt>
      <trkpt lat="44.69546" lon="6.90807">
        <ele>2904.2</ele>
        <time>2011-06-04T08:38:33Z</time>
      </trkpt>
      <trkpt lat="44.69552" lon="6.90807">
        <ele>2904.6</ele>
        <time>2011-06-04T08:38:38Z</time>
      </trkpt>
      <trkpt lat="44.69555" lon="6.90806">
        <ele>2905</ele>
        <time>2011-06-04T08:38:41Z</time>
      </trkpt>
      <trkpt lat="44.69557" lon="6.90806">
        <ele>2905.2</ele>
        <time>2011-06-04T08:38:43Z</time>
      </trkpt>
      <trkpt lat="44.69562" lon="6.90806">
        <ele>2905.4</ele>
        <time>2011-06-04T08:38:47Z</time>
      </trkpt>
      <trkpt lat="44.69563" lon="6.90806">
        <ele>2905.4</ele>
        <time>2011-06-04T08:38:48Z</time>
      </trkpt>
      <trkpt lat="44.69569" lon="6.90805">
        <ele>2905.8</ele>
        <time>2011-06-04T08:38:52Z</time>
      </trkpt>
      <trkpt lat="44.69572" lon="6.90804">
        <ele>2905.8</ele>
        <time>2011-06-04T08:38:54Z</time>
      </trkpt>
      <trkpt lat="44.69572" lon="6.90804">
        <ele>2905.8</ele>
        <time>2011-06-04T08:38:54Z</time>
      </trkpt>
      <trkpt lat="44.69573" lon="6.90802">
        <ele>2905.8</ele>
        <time>2011-06-04T08:38:56Z</time>
      </trkpt>
      <trkpt lat="44.69574" lon="6.90799">
        <ele>2906</ele>
        <time>2011-06-04T08:38:58Z</time>
      </trkpt>
      <trkpt lat="44.69576" lon="6.90797">
        <ele>2906</ele>
        <time>2011-06-04T08:39:00Z</time>
      </trkpt>
      <trkpt lat="44.69576" lon="6.90796">
        <ele>2906.2</ele>
        <time>2011-06-04T08:39:01Z</time>
      </trkpt>
      <trkpt lat="44.69578" lon="6.90794">
        <ele>2906.4</ele>
        <time>2011-06-04T08:39:03Z</time>
      </trkpt>
      <trkpt lat="44.69581" lon="6.90792">
        <ele>2906.6</ele>
        <time>2011-06-04T08:39:07Z</time>
      </trkpt>
      <trkpt lat="44.69583" lon="6.90787">
        <ele>2907</ele>
        <time>2011-06-04T08:39:12Z</time>
      </trkpt>
      <trkpt lat="44.69585" lon="6.90784">
        <ele>2907.6</ele>
        <time>2011-06-04T08:39:17Z</time>
      </trkpt>
      <trkpt lat="44.69587" lon="6.90782">
        <ele>2907.8</ele>
        <time>2011-06-04T08:39:21Z</time>
      </trkpt>
      <trkpt lat="44.69589" lon="6.90782">
        <ele>2908.4</ele>
        <time>2011-06-04T08:39:25Z</time>
      </trkpt>
      <trkpt lat="44.69593" lon="6.90781">
        <ele>2909.2</ele>
        <time>2011-06-04T08:39:31Z</time>
      </trkpt>
      <trkpt lat="44.69594" lon="6.90778">
        <ele>2910.2</ele>
        <time>2011-06-04T08:39:39Z</time>
      </trkpt>
      <trkpt lat="44.69596" lon="6.90775">
        <ele>2911</ele>
        <time>2011-06-04T08:39:44Z</time>
      </trkpt>
      <trkpt lat="44.69598" lon="6.90775">
        <ele>2911.8</ele>
        <time>2011-06-04T08:39:50Z</time>
      </trkpt>
      <trkpt lat="44.696" lon="6.90775">
        <ele>2912.2</ele>
        <time>2011-06-04T08:39:54Z</time>
      </trkpt>
      <trkpt lat="44.696" lon="6.90775">
        <ele>2912.4</ele>
        <time>2011-06-04T08:39:55Z</time>
      </trkpt>
      <trkpt lat="44.69601" lon="6.90774">
        <ele>2913.2</ele>
        <time>2011-06-04T08:40:01Z</time>
      </trkpt>
      <trkpt lat="44.69602" lon="6.90769">
        <ele>2914.2</ele>
        <time>2011-06-04T08:40:06Z</time>
      </trkpt>
      <trkpt lat="44.69602" lon="6.90766">
        <ele>2915</ele>
        <time>2011-06-04T08:40:10Z</time>
      </trkpt>
      <trkpt lat="44.69604" lon="6.90762">
        <ele>2916</ele>
        <time>2011-06-04T08:40:15Z</time>
      </trkpt>
      <trkpt lat="44.69605" lon="6.9076">
        <ele>2917</ele>
        <time>2011-06-04T08:40:20Z</time>
      </trkpt>
      <trkpt lat="44.69605" lon="6.90757">
        <ele>2918.4</ele>
        <time>2011-06-04T08:40:26Z</time>
      </trkpt>
      <trkpt lat="44.69607" lon="6.90754">
        <ele>2919.4</ele>
        <time>2011-06-04T08:40:30Z</time>
      </trkpt>
      <trkpt lat="44.69607" lon="6.90754">
        <ele>2919.6</ele>
        <time>2011-06-04T08:40:31Z</time>
      </trkpt>
      <trkpt lat="44.69608" lon="6.9075">
        <ele>2920.6</ele>
        <time>2011-06-04T08:40:36Z</time>
      </trkpt>
      <trkpt lat="44.6961" lon="6.90747">
        <ele>2921.6</ele>
        <time>2011-06-04T08:40:40Z</time>
      </trkpt>
      <trkpt lat="44.69612" lon="6.90744">
        <ele>2922.6</ele>
        <time>2011-06-04T08:40:44Z</time>
      </trkpt>
      <trkpt lat="44.69614" lon="6.90739">
        <ele>2923.6</ele>
        <time>2011-06-04T08:40:49Z</time>
      </trkpt>
      <trkpt lat="44.69616" lon="6.90735">
        <ele>2924.6</ele>
        <time>2011-06-04T08:40:53Z</time>
      </trkpt>
      <trkpt lat="44.69617" lon="6.90734">
        <ele>2924.8</ele>
        <time>2011-06-04T08:40:54Z</time>
      </trkpt>
      <trkpt lat="44.69617" lon="6.90734">
        <ele>2925</ele>
        <time>2011-06-04T08:40:55Z</time>
      </trkpt>
      <trkpt lat="44.69619" lon="6.9073">
        <ele>2925.8</ele>
        <time>2011-06-04T08:40:59Z</time>
      </trkpt>
      <trkpt lat="44.69625" lon="6.90721">
        <ele>2927.4</ele>
        <time>2011-06-04T08:41:07Z</time>
      </trkpt>
      <trkpt lat="44.6963" lon="6.90717">
        <ele>2928.8</ele>
        <time>2011-06-04T08:41:13Z</time>
      </trkpt>
      <trkpt lat="44.69632" lon="6.90716">
        <ele>2929.2</ele>
        <time>2011-06-04T08:41:15Z</time>
      </trkpt>
      <trkpt lat="44.69635" lon="6.90714">
        <ele>2930</ele>
        <time>2011-06-04T08:41:19Z</time>
      </trkpt>
      <trkpt lat="44.6964" lon="6.90711">
        <ele>2931.2</ele>
        <time>2011-06-04T08:41:25Z</time>
      </trkpt>
      <trkpt lat="44.69644" lon="6.90709">
        <ele>2932.2</ele>
        <time>2011-06-04T08:41:30Z</time>
      </trkpt>
      <trkpt lat="44.69647" lon="6.90708">
        <ele>2933</ele>
        <time>2011-06-04T08:41:34Z</time>
      </trkpt>
      <trkpt lat="44.69648" lon="6.90707">
        <ele>2933</ele>
        <time>2011-06-04T08:41:35Z</time>
      </trkpt>
      <trkpt lat="44.69651" lon="6.90704">
        <ele>2933.6</ele>
        <time>2011-06-04T08:41:38Z</time>
      </trkpt>
      <trkpt lat="44.69654" lon="6.90702">
        <ele>2934</ele>
        <time>2011-06-04T08:41:41Z</time>
      </trkpt>
      <trkpt lat="44.6966" lon="6.90694">
        <ele>2935.4</ele>
        <time>2011-06-04T08:41:48Z</time>
      </trkpt>
      <trkpt lat="44.69662" lon="6.90692">
        <ele>2935.8</ele>
        <time>2011-06-04T08:41:50Z</time>
      </trkpt>
      <trkpt lat="44.69667" lon="6.90684">
        <ele>2937</ele>
        <time>2011-06-04T08:41:56Z</time>
      </trkpt>
      <trkpt lat="44.69673" lon="6.90675">
        <ele>2938.4</ele>
        <time>2011-06-04T08:42:04Z</time>
      </trkpt>
      <trkpt lat="44.69675" lon="6.90673">
        <ele>2938.8</ele>
        <time>2011-06-04T08:42:06Z</time>
      </trkpt>
      <trkpt lat="44.6968" lon="6.90666">
        <ele>2939.8</ele>
        <time>2011-06-04T08:42:12Z</time>
      </trkpt>
      <trkpt lat="44.69688" lon="6.90666">
        <ele>2940.6</ele>
        <time>2011-06-04T08:42:19Z</time>
      </trkpt>
      <trkpt lat="44.6969" lon="6.90668">
        <ele>2940.8</ele>
        <time>2011-06-04T08:42:22Z</time>
      </trkpt>
      <trkpt lat="44.69693" lon="6.9067">
        <ele>2941.2</ele>
        <time>2011-06-04T08:42:25Z</time>
      </trkpt>
      <trkpt lat="44.69693" lon="6.9067">
        <ele>2941.2</ele>
        <time>2011-06-04T08:42:26Z</time>
      </trkpt>
      <trkpt lat="44.69697" lon="6.90671">
        <ele>2941.8</ele>
        <time>2011-06-04T08:42:30Z</time>
      </trkpt>
      <trkpt lat="44.69701" lon="6.90671">
        <ele>2942.4</ele>
        <time>2011-06-04T08:42:35Z</time>
      </trkpt>
      <trkpt lat="44.69702" lon="6.90671">
        <ele>2942.6</ele>
        <time>2011-06-04T08:42:36Z</time>
      </trkpt>
      <trkpt lat="44.69704" lon="6.90671">
        <ele>2942.8</ele>
        <time>2011-06-04T08:42:38Z</time>
      </trkpt>
      <trkpt lat="44.69704" lon="6.9067">
        <ele>2942.8</ele>
        <time>2011-06-04T08:42:39Z</time>
      </trkpt>
      <trkpt lat="44.69707" lon="6.9067">
        <ele>2943.2</ele>
        <time>2011-06-04T08:42:42Z</time>
      </trkpt>
      <trkpt lat="44.69708" lon="6.9067">
        <ele>2943.4</ele>
        <time>2011-06-04T08:42:43Z</time>
      </trkpt>
      <trkpt lat="44.69708" lon="6.90671">
        <ele>2943.4</ele>
        <time>2011-06-04T08:42:44Z</time>
      </trkpt>
      <trkpt lat="44.69709" lon="6.90677">
        <ele>2944</ele>
        <time>2011-06-04T08:42:49Z</time>
      </trkpt>
      <trkpt lat="44.69709" lon="6.90678">
        <ele>2944.2</ele>
        <time>2011-06-04T08:42:50Z</time>
      </trkpt>
      <trkpt lat="44.69709" lon="6.9068">
        <ele>2944.2</ele>
        <time>2011-06-04T08:42:51Z</time>
      </trkpt>
      <trkpt lat="44.69708" lon="6.90684">
        <ele>2944.6</ele>
        <time>2011-06-04T08:42:55Z</time>
      </trkpt>
      <trkpt lat="44.69708" lon="6.90689">
        <ele>2945</ele>
        <time>2011-06-04T08:43:00Z</time>
      </trkpt>
      <trkpt lat="44.69708" lon="6.90694">
        <ele>2945.6</ele>
        <time>2011-06-04T08:43:06Z</time>
      </trkpt>
      <trkpt lat="44.69708" lon="6.90705">
        <ele>2946.2</ele>
        <time>2011-06-04T08:43:13Z</time>
      </trkpt>
      <trkpt lat="44.69708" lon="6.90708">
        <ele>2946.2</ele>
        <time>2011-06-04T08:43:15Z</time>
      </trkpt>
      <trkpt lat="44.69709" lon="6.90712">
        <ele>2946.4</ele>
        <time>2011-06-04T08:43:19Z</time>
      </trkpt>
      <trkpt lat="44.6971" lon="6.90714">
        <ele>2946.4</ele>
        <time>2011-06-04T08:43:21Z</time>
      </trkpt>
      <trkpt lat="44.6971" lon="6.90717">
        <ele>2946.6</ele>
        <time>2011-06-04T08:43:25Z</time>
      </trkpt>
      <trkpt lat="44.69709" lon="6.90717">
        <ele>2946.6</ele>
        <time>2011-06-04T08:43:38Z</time>
      </trkpt>
      <trkpt lat="44.69708" lon="6.90716">
        <ele>2946.6</ele>
        <time>2011-06-04T08:43:39Z</time>
      </trkpt>
      <trkpt lat="44.69708" lon="6.90711">
        <ele>2946.6</ele>
        <time>2011-06-04T08:43:44Z</time>
      </trkpt>
      <trkpt lat="44.69707" lon="6.90697">
        <ele>2946.6</ele>
        <time>2011-06-04T08:43:52Z</time>
      </trkpt>
      <trkpt lat="44.69708" lon="6.90695">
        <ele>2946.6</ele>
        <time>2011-06-04T08:43:53Z</time>
      </trkpt>
      <trkpt lat="44.6971" lon="6.90694">
        <ele>2946.6</ele>
        <time>2011-06-04T08:43:56Z</time>
      </trkpt>
      <trkpt lat="44.69716" lon="6.90691">
        <ele>2946.6</ele>
        <time>2011-06-04T08:44:01Z</time>
      </trkpt>
      <trkpt lat="44.69718" lon="6.90689">
        <ele>2946.6</ele>
        <time>2011-06-04T08:44:04Z</time>
      </trkpt>
      <trkpt lat="44.69719" lon="6.90689">
        <ele>2946.8</ele>
        <time>2011-06-04T08:44:07Z</time>
      </trkpt>
      <trkpt lat="44.6972" lon="6.90687">
        <ele>2947</ele>
        <time>2011-06-04T08:44:14Z</time>
      </trkpt>
      <trkpt lat="44.69721" lon="6.90687">
        <ele>2947.2</ele>
        <time>2011-06-04T08:44:21Z</time>
      </trkpt>
      <trkpt lat="44.69717" lon="6.90689">
        <ele>2946.6</ele>
        <time>2011-06-04T08:44:47Z</time>
      </trkpt>
      <trkpt lat="44.69715" lon="6.9069">
        <ele>2946.4</ele>
        <time>2011-06-04T08:44:49Z</time>
      </trkpt>
      <trkpt lat="44.69714" lon="6.90693">
        <ele>2946.4</ele>
        <time>2011-06-04T08:44:52Z</time>
      </trkpt>
      <trkpt lat="44.69711" lon="6.90694">
        <ele>2946.2</ele>
        <time>2011-06-04T08:44:55Z</time>
      </trkpt>
      <trkpt lat="44.6971" lon="6.90696">
        <ele>2946.2</ele>
        <time>2011-06-04T08:44:57Z</time>
      </trkpt>
      <trkpt lat="44.69707" lon="6.90702">
        <ele>2946</ele>
        <time>2011-06-04T08:45:02Z</time>
      </trkpt>
      <trkpt lat="44.69707" lon="6.90709">
        <ele>2945.8</ele>
        <time>2011-06-04T08:45:06Z</time>
      </trkpt>
      <trkpt lat="44.69707" lon="6.90711">
        <ele>2945.6</ele>
        <time>2011-06-04T08:45:08Z</time>
      </trkpt>
      <trkpt lat="44.69706" lon="6.90711">
        <ele>2945.6</ele>
        <time>2011-06-04T08:45:09Z</time>
      </trkpt>
      <trkpt lat="44.69702" lon="6.90711">
        <ele>2945.6</ele>
        <time>2011-06-04T08:45:12Z</time>
      </trkpt>
      <trkpt lat="44.69698" lon="6.90711">
        <ele>2945.4</ele>
        <time>2011-06-04T08:45:16Z</time>
      </trkpt>
      <trkpt lat="44.69693" lon="6.90711">
        <ele>2945.2</ele>
        <time>2011-06-04T08:45:19Z</time>
      </trkpt>
      <trkpt lat="44.6969" lon="6.90711">
        <ele>2945.2</ele>
        <time>2011-06-04T08:45:21Z</time>
      </trkpt>
      <trkpt lat="44.69688" lon="6.90711">
        <ele>2945.2</ele>
        <time>2011-06-04T08:45:22Z</time>
      </trkpt>
      <trkpt lat="44.69681" lon="6.90708">
        <ele>2945</ele>
        <time>2011-06-04T08:45:27Z</time>
      </trkpt>
      <trkpt lat="44.69671" lon="6.90711">
        <ele>2944.6</ele>
        <time>2011-06-04T08:45:31Z</time>
      </trkpt>
      <trkpt lat="44.69661" lon="6.90711">
        <ele>2944.4</ele>
        <time>2011-06-04T08:45:35Z</time>
      </trkpt>
      <trkpt lat="44.69651" lon="6.90708">
        <ele>2944.2</ele>
        <time>2011-06-04T08:45:39Z</time>
      </trkpt>
      <trkpt lat="44.69646" lon="6.90708">
        <ele>2944</ele>
        <time>2011-06-04T08:45:41Z</time>
      </trkpt>
      <trkpt lat="44.69637" lon="6.90713">
        <ele>2943.6</ele>
        <time>2011-06-04T08:45:45Z</time>
      </trkpt>
      <trkpt lat="44.69632" lon="6.90716">
        <ele>2943.2</ele>
        <time>2011-06-04T08:45:48Z</time>
      </trkpt>
      <trkpt lat="44.69628" lon="6.90719">
        <ele>2943</ele>
        <time>2011-06-04T08:45:50Z</time>
      </trkpt>
      <trkpt lat="44.69622" lon="6.9073">
        <ele>2942.4</ele>
        <time>2011-06-04T08:45:55Z</time>
      </trkpt>
      <trkpt lat="44.69619" lon="6.90734">
        <ele>2941.8</ele>
        <time>2011-06-04T08:45:59Z</time>
      </trkpt>
      <trkpt lat="44.69618" lon="6.90737">
        <ele>2941.8</ele>
        <time>2011-06-04T08:46:00Z</time>
      </trkpt>
      <trkpt lat="44.69614" lon="6.90749">
        <ele>2941.2</ele>
        <time>2011-06-04T08:46:04Z</time>
      </trkpt>
      <trkpt lat="44.69611" lon="6.90759">
        <ele>2940.6</ele>
        <time>2011-06-04T08:46:08Z</time>
      </trkpt>
      <trkpt lat="44.69611" lon="6.90761">
        <ele>2940.6</ele>
        <time>2011-06-04T08:46:09Z</time>
      </trkpt>
      <trkpt lat="44.69608" lon="6.90773">
        <ele>2939.6</ele>
        <time>2011-06-04T08:46:15Z</time>
      </trkpt>
      <trkpt lat="44.69608" lon="6.90784">
        <ele>2938.4</ele>
        <time>2011-06-04T08:46:22Z</time>
      </trkpt>
      <trkpt lat="44.69609" lon="6.90787">
        <ele>2938</ele>
        <time>2011-06-04T08:46:25Z</time>
      </trkpt>
      <trkpt lat="44.69607" lon="6.90788">
        <ele>2937.6</ele>
        <time>2011-06-04T08:46:27Z</time>
      </trkpt>
      <trkpt lat="44.69601" lon="6.90784">
        <ele>2936.4</ele>
        <time>2011-06-04T08:46:33Z</time>
      </trkpt>
      <trkpt lat="44.69599" lon="6.90784">
        <ele>2936</ele>
        <time>2011-06-04T08:46:35Z</time>
      </trkpt>
      <trkpt lat="44.69594" lon="6.90784">
        <ele>2935</ele>
        <time>2011-06-04T08:46:39Z</time>
      </trkpt>
      <trkpt lat="44.69592" lon="6.90783">
        <ele>2934.6</ele>
        <time>2011-06-04T08:46:41Z</time>
      </trkpt>
      <trkpt lat="44.69591" lon="6.90784">
        <ele>2934.4</ele>
        <time>2011-06-04T08:46:42Z</time>
      </trkpt>
      <trkpt lat="44.69588" lon="6.90786">
        <ele>2934</ele>
        <time>2011-06-04T08:46:44Z</time>
      </trkpt>
      <trkpt lat="44.69583" lon="6.90793">
        <ele>2932.8</ele>
        <time>2011-06-04T08:46:49Z</time>
      </trkpt>
      <trkpt lat="44.69582" lon="6.90795">
        <ele>2932.4</ele>
        <time>2011-06-04T08:46:50Z</time>
      </trkpt>
      <trkpt lat="44.69579" lon="6.90799">
        <ele>2932</ele>
        <time>2011-06-04T08:46:52Z</time>
      </trkpt>
      <trkpt lat="44.69578" lon="6.908">
        <ele>2931.8</ele>
        <time>2011-06-04T08:46:53Z</time>
      </trkpt>
      <trkpt lat="44.69569" lon="6.9081">
        <ele>2930.4</ele>
        <time>2011-06-04T08:46:58Z</time>
      </trkpt>
      <trkpt lat="44.69567" lon="6.9081">
        <ele>2930.2</ele>
        <time>2011-06-04T08:46:59Z</time>
      </trkpt>
      <trkpt lat="44.69563" lon="6.90813">
        <ele>2929.6</ele>
        <time>2011-06-04T08:47:02Z</time>
      </trkpt>
      <trkpt lat="44.6956" lon="6.90816">
        <ele>2929.2</ele>
        <time>2011-06-04T08:47:04Z</time>
      </trkpt>
      <trkpt lat="44.69559" lon="6.90817">
        <ele>2928.8</ele>
        <time>2011-06-04T08:47:05Z</time>
      </trkpt>
      <trkpt lat="44.69554" lon="6.90822">
        <ele>2928.2</ele>
        <time>2011-06-04T08:47:08Z</time>
      </trkpt>
      <trkpt lat="44.6955" lon="6.90821">
        <ele>2927.8</ele>
        <time>2011-06-04T08:47:10Z</time>
      </trkpt>
      <trkpt lat="44.69548" lon="6.9082">
        <ele>2927.6</ele>
        <time>2011-06-04T08:47:11Z</time>
      </trkpt>
      <trkpt lat="44.69541" lon="6.90815">
        <ele>2926.6</ele>
        <time>2011-06-04T08:47:15Z</time>
      </trkpt>
      <trkpt lat="44.69537" lon="6.90814">
        <ele>2926.2</ele>
        <time>2011-06-04T08:47:17Z</time>
      </trkpt>
      <trkpt lat="44.69532" lon="6.90813">
        <ele>2925.6</ele>
        <time>2011-06-04T08:47:20Z</time>
      </trkpt>
      <trkpt lat="44.6953" lon="6.90814">
        <ele>2925.4</ele>
        <time>2011-06-04T08:47:21Z</time>
      </trkpt>
      <trkpt lat="44.69527" lon="6.90817">
        <ele>2924.8</ele>
        <time>2011-06-04T08:47:24Z</time>
      </trkpt>
      <trkpt lat="44.69525" lon="6.90818">
        <ele>2923.4</ele>
        <time>2011-06-04T08:47:30Z</time>
      </trkpt>
      <trkpt lat="44.69523" lon="6.9082">
        <ele>2922.4</ele>
        <time>2011-06-04T08:47:35Z</time>
      </trkpt>
      <trkpt lat="44.69522" lon="6.90824">
        <ele>2921.8</ele>
        <time>2011-06-04T08:47:38Z</time>
      </trkpt>
      <trkpt lat="44.69521" lon="6.90826">
        <ele>2921.4</ele>
        <time>2011-06-04T08:47:40Z</time>
      </trkpt>
      <trkpt lat="44.6952" lon="6.90831">
        <ele>2920.4</ele>
        <time>2011-06-04T08:47:45Z</time>
      </trkpt>
      <trkpt lat="44.6952" lon="6.90832">
        <ele>2920.2</ele>
        <time>2011-06-04T08:47:46Z</time>
      </trkpt>
      <trkpt lat="44.6952" lon="6.90835">
        <ele>2920</ele>
        <time>2011-06-04T08:47:47Z</time>
      </trkpt>
      <trkpt lat="44.69519" lon="6.90838">
        <ele>2919.8</ele>
        <time>2011-06-04T08:47:48Z</time>
      </trkpt>
      <trkpt lat="44.69515" lon="6.90841">
        <ele>2919</ele>
        <time>2011-06-04T08:47:52Z</time>
      </trkpt>
      <trkpt lat="44.69512" lon="6.9085">
        <ele>2918.2</ele>
        <time>2011-06-04T08:47:57Z</time>
      </trkpt>
      <trkpt lat="44.69511" lon="6.90852">
        <ele>2918</ele>
        <time>2011-06-04T08:47:58Z</time>
      </trkpt>
      <trkpt lat="44.69508" lon="6.90859">
        <ele>2917.4</ele>
        <time>2011-06-04T08:48:01Z</time>
      </trkpt>
      <trkpt lat="44.69506" lon="6.90864">
        <ele>2917</ele>
        <time>2011-06-04T08:48:03Z</time>
      </trkpt>
      <trkpt lat="44.69501" lon="6.90871">
        <ele>2916.4</ele>
        <time>2011-06-04T08:48:06Z</time>
      </trkpt>
      <trkpt lat="44.69499" lon="6.90872">
        <ele>2916.2</ele>
        <time>2011-06-04T08:48:07Z</time>
      </trkpt>
      <trkpt lat="44.69492" lon="6.9088">
        <ele>2915.2</ele>
        <time>2011-06-04T08:48:12Z</time>
      </trkpt>
      <trkpt lat="44.69489" lon="6.9089">
        <ele>2914.2</ele>
        <time>2011-06-04T08:48:18Z</time>
      </trkpt>
      <trkpt lat="44.69489" lon="6.90892">
        <ele>2914</ele>
        <time>2011-06-04T08:48:19Z</time>
      </trkpt>
      <trkpt lat="44.6949" lon="6.90893">
        <ele>2913.8</ele>
        <time>2011-06-04T08:48:20Z</time>
      </trkpt>
      <trkpt lat="44.6949" lon="6.90896">
        <ele>2913.4</ele>
        <time>2011-06-04T08:48:22Z</time>
      </trkpt>
      <trkpt lat="44.69493" lon="6.90896">
        <ele>2912.8</ele>
        <time>2011-06-04T08:48:26Z</time>
      </trkpt>
      <trkpt lat="44.69495" lon="6.90899">
        <ele>2912.4</ele>
        <time>2011-06-04T08:48:29Z</time>
      </trkpt>
      <trkpt lat="44.69494" lon="6.90902">
        <ele>2912.2</ele>
        <time>2011-06-04T08:48:31Z</time>
      </trkpt>
      <trkpt lat="44.69494" lon="6.90906">
        <ele>2911.8</ele>
        <time>2011-06-04T08:48:34Z</time>
      </trkpt>
      <trkpt lat="44.69494" lon="6.9091">
        <ele>2911.6</ele>
        <time>2011-06-04T08:48:36Z</time>
      </trkpt>
      <trkpt lat="44.69494" lon="6.90914">
        <ele>2911.4</ele>
        <time>2011-06-04T08:48:38Z</time>
      </trkpt>
      <trkpt lat="44.69492" lon="6.9092">
        <ele>2910.8</ele>
        <time>2011-06-04T08:48:42Z</time>
      </trkpt>
      <trkpt lat="44.69491" lon="6.90925">
        <ele>2910.2</ele>
        <time>2011-06-04T08:48:46Z</time>
      </trkpt>
      <trkpt lat="44.6949" lon="6.90927">
        <ele>2910.2</ele>
        <time>2011-06-04T08:48:47Z</time>
      </trkpt>
      <trkpt lat="44.69487" lon="6.90932">
        <ele>2909.6</ele>
        <time>2011-06-04T08:48:51Z</time>
      </trkpt>
      <trkpt lat="44.69485" lon="6.90935">
        <ele>2909.4</ele>
        <time>2011-06-04T08:48:53Z</time>
      </trkpt>
      <trkpt lat="44.69483" lon="6.90937">
        <ele>2909.2</ele>
        <time>2011-06-04T08:48:54Z</time>
      </trkpt>
      <trkpt lat="44.6948" lon="6.90942">
        <ele>2909</ele>
        <time>2011-06-04T08:48:56Z</time>
      </trkpt>
      <trkpt lat="44.69477" lon="6.90955">
        <ele>2908.2</ele>
        <time>2011-06-04T08:49:01Z</time>
      </trkpt>
      <trkpt lat="44.69476" lon="6.9096">
        <ele>2908</ele>
        <time>2011-06-04T08:49:03Z</time>
      </trkpt>
      <trkpt lat="44.69476" lon="6.90965">
        <ele>2907.6</ele>
        <time>2011-06-04T08:49:06Z</time>
      </trkpt>
      <trkpt lat="44.69475" lon="6.90966">
        <ele>2906.8</ele>
        <time>2011-06-04T08:49:13Z</time>
      </trkpt>
      <trkpt lat="44.69476" lon="6.90966">
        <ele>2906.4</ele>
        <time>2011-06-04T08:49:17Z</time>
      </trkpt>
      <trkpt lat="44.69478" lon="6.9097">
        <ele>2906.2</ele>
        <time>2011-06-04T08:49:19Z</time>
      </trkpt>
      <trkpt lat="44.6948" lon="6.90973">
        <ele>2906</ele>
        <time>2011-06-04T08:49:21Z</time>
      </trkpt>
      <trkpt lat="44.69481" lon="6.90977">
        <ele>2906</ele>
        <time>2011-06-04T08:49:23Z</time>
      </trkpt>
      <trkpt lat="44.69483" lon="6.90979">
        <ele>2905.6</ele>
        <time>2011-06-04T08:49:26Z</time>
      </trkpt>
      <trkpt lat="44.69486" lon="6.90981">
        <ele>2905.6</ele>
        <time>2011-06-04T08:49:28Z</time>
      </trkpt>
      <trkpt lat="44.69487" lon="6.90982">
        <ele>2905.4</ele>
        <time>2011-06-04T08:49:29Z</time>
      </trkpt>
      <trkpt lat="44.69492" lon="6.90985">
        <ele>2905.2</ele>
        <time>2011-06-04T08:49:33Z</time>
      </trkpt>
      <trkpt lat="44.69497" lon="6.9099">
        <ele>2904.8</ele>
        <time>2011-06-04T08:49:38Z</time>
      </trkpt>
      <trkpt lat="44.695" lon="6.90993">
        <ele>2904.8</ele>
        <time>2011-06-04T08:49:41Z</time>
      </trkpt>
      <trkpt lat="44.69501" lon="6.90995">
        <ele>2904.6</ele>
        <time>2011-06-04T08:49:43Z</time>
      </trkpt>
      <trkpt lat="44.69506" lon="6.91001">
        <ele>2904.4</ele>
        <time>2011-06-04T08:49:49Z</time>
      </trkpt>
      <trkpt lat="44.69507" lon="6.91001">
        <ele>2904.4</ele>
        <time>2011-06-04T08:49:50Z</time>
      </trkpt>
      <trkpt lat="44.69511" lon="6.91003">
        <ele>2904.2</ele>
        <time>2011-06-04T08:49:54Z</time>
      </trkpt>
      <trkpt lat="44.69514" lon="6.91003">
        <ele>2904.2</ele>
        <time>2011-06-04T08:49:57Z</time>
      </trkpt>
      <trkpt lat="44.69515" lon="6.91003">
        <ele>2904.2</ele>
        <time>2011-06-04T08:49:58Z</time>
      </trkpt>
      <trkpt lat="44.69516" lon="6.91003">
        <ele>2904.2</ele>
        <time>2011-06-04T08:49:59Z</time>
      </trkpt>
      <trkpt lat="44.69518" lon="6.91002">
        <ele>2904.2</ele>
        <time>2011-06-04T08:50:02Z</time>
      </trkpt>
      <trkpt lat="44.69522" lon="6.91002">
        <ele>2904.2</ele>
        <time>2011-06-04T08:50:07Z</time>
      </trkpt>
      <trkpt lat="44.69525" lon="6.91003">
        <ele>2904.4</ele>
        <time>2011-06-04T08:50:11Z</time>
      </trkpt>
      <trkpt lat="44.69527" lon="6.91006">
        <ele>2904.6</ele>
        <time>2011-06-04T08:50:16Z</time>
      </trkpt>
      <trkpt lat="44.69529" lon="6.91009">
        <ele>2904.8</ele>
        <time>2011-06-04T08:50:20Z</time>
      </trkpt>
      <trkpt lat="44.6953" lon="6.9101">
        <ele>2905</ele>
        <time>2011-06-04T08:50:24Z</time>
      </trkpt>
      <trkpt lat="44.69531" lon="6.91011">
        <ele>2905.2</ele>
        <time>2011-06-04T08:50:25Z</time>
      </trkpt>
      <trkpt lat="44.69532" lon="6.91012">
        <ele>2905.2</ele>
        <time>2011-06-04T08:50:26Z</time>
      </trkpt>
      <trkpt lat="44.69533" lon="6.91014">
        <ele>2905.4</ele>
        <time>2011-06-04T08:50:29Z</time>
      </trkpt>
      <trkpt lat="44.69537" lon="6.91021">
        <ele>2905.8</ele>
        <time>2011-06-04T08:50:35Z</time>
      </trkpt>
      <trkpt lat="44.69537" lon="6.91023">
        <ele>2905.8</ele>
        <time>2011-06-04T08:50:37Z</time>
      </trkpt>
      <trkpt lat="44.69537" lon="6.91024">
        <ele>2906</ele>
        <time>2011-06-04T08:50:39Z</time>
      </trkpt>
      <trkpt lat="44.69538" lon="6.91027">
        <ele>2906.2</ele>
        <time>2011-06-04T08:50:41Z</time>
      </trkpt>
      <trkpt lat="44.69538" lon="6.91028">
        <ele>2906.4</ele>
        <time>2011-06-04T08:50:42Z</time>
      </trkpt>
      <trkpt lat="44.69538" lon="6.91029">
        <ele>2906.4</ele>
        <time>2011-06-04T08:50:43Z</time>
      </trkpt>
      <trkpt lat="44.69539" lon="6.91032">
        <ele>2906.8</ele>
        <time>2011-06-04T08:50:47Z</time>
      </trkpt>
      <trkpt lat="44.69539" lon="6.91033">
        <ele>2906.8</ele>
        <time>2011-06-04T08:50:48Z</time>
      </trkpt>
      <trkpt lat="44.69541" lon="6.91036">
        <ele>2907.4</ele>
        <time>2011-06-04T08:50:53Z</time>
      </trkpt>
      <trkpt lat="44.69543" lon="6.91039">
        <ele>2908</ele>
        <time>2011-06-04T08:50:58Z</time>
      </trkpt>
      <trkpt lat="44.69545" lon="6.91041">
        <ele>2908.6</ele>
        <time>2011-06-04T08:51:03Z</time>
      </trkpt>
      <trkpt lat="44.69547" lon="6.91042">
        <ele>2909.4</ele>
        <time>2011-06-04T08:51:07Z</time>
      </trkpt>
      <trkpt lat="44.69548" lon="6.91044">
        <ele>2910</ele>
        <time>2011-06-04T08:51:11Z</time>
      </trkpt>
      <trkpt lat="44.69549" lon="6.91047">
        <ele>2910.8</ele>
        <time>2011-06-04T08:51:16Z</time>
      </trkpt>
      <trkpt lat="44.69549" lon="6.91049">
        <ele>2911.8</ele>
        <time>2011-06-04T08:51:21Z</time>
      </trkpt>
      <trkpt lat="44.69549" lon="6.91054">
        <ele>2912.8</ele>
        <time>2011-06-04T08:51:27Z</time>
      </trkpt>
      <trkpt lat="44.69548" lon="6.91058">
        <ele>2913.8</ele>
        <time>2011-06-04T08:51:32Z</time>
      </trkpt>
      <trkpt lat="44.69547" lon="6.91062">
        <ele>2914.6</ele>
        <time>2011-06-04T08:51:37Z</time>
      </trkpt>
      <trkpt lat="44.69548" lon="6.91064">
        <ele>2915.2</ele>
        <time>2011-06-04T08:51:42Z</time>
      </trkpt>
      <trkpt lat="44.69547" lon="6.91069">
        <ele>2916.4</ele>
        <time>2011-06-04T08:51:48Z</time>
      </trkpt>
      <trkpt lat="44.69548" lon="6.9107">
        <ele>2917.2</ele>
        <time>2011-06-04T08:51:53Z</time>
      </trkpt>
      <trkpt lat="44.6955" lon="6.9107">
        <ele>2917.8</ele>
        <time>2011-06-04T08:51:56Z</time>
      </trkpt>
      <trkpt lat="44.69551" lon="6.9107">
        <ele>2918</ele>
        <time>2011-06-04T08:51:58Z</time>
      </trkpt>
      <trkpt lat="44.69552" lon="6.91072">
        <ele>2919</ele>
        <time>2011-06-04T08:52:03Z</time>
      </trkpt>
      <trkpt lat="44.69552" lon="6.91075">
        <ele>2920</ele>
        <time>2011-06-04T08:52:08Z</time>
      </trkpt>
      <trkpt lat="44.69553" lon="6.91077">
        <ele>2921</ele>
        <time>2011-06-04T08:52:13Z</time>
      </trkpt>
      <trkpt lat="44.69553" lon="6.91081">
        <ele>2921.8</ele>
        <time>2011-06-04T08:52:17Z</time>
      </trkpt>
      <trkpt lat="44.69554" lon="6.91085">
        <ele>2922.8</ele>
        <time>2011-06-04T08:52:23Z</time>
      </trkpt>
      <trkpt lat="44.69555" lon="6.91087">
        <ele>2923.6</ele>
        <time>2011-06-04T08:52:27Z</time>
      </trkpt>
      <trkpt lat="44.69557" lon="6.91088">
        <ele>2924.6</ele>
        <time>2011-06-04T08:52:32Z</time>
      </trkpt>
      <trkpt lat="44.69558" lon="6.91087">
        <ele>2925.6</ele>
        <time>2011-06-04T08:52:38Z</time>
      </trkpt>
      <trkpt lat="44.69558" lon="6.91086">
        <ele>2926.2</ele>
        <time>2011-06-04T08:52:43Z</time>
      </trkpt>
      <trkpt lat="44.69557" lon="6.91086">
        <ele>2931.8</ele>
        <time>2011-06-04T08:55:01Z</time>
      </trkpt>
      <trkpt lat="44.69557" lon="6.91091">
        <ele>2931.8</ele>
        <time>2011-06-04T08:55:12Z</time>
      </trkpt>
      <trkpt lat="44.69556" lon="6.91093">
        <ele>2931.8</ele>
        <time>2011-06-04T08:55:14Z</time>
      </trkpt>
      <trkpt lat="44.69555" lon="6.91099">
        <ele>2931.6</ele>
        <time>2011-06-04T08:55:17Z</time>
      </trkpt>
      <trkpt lat="44.69554" lon="6.91105">
        <ele>2931.6</ele>
        <time>2011-06-04T08:55:20Z</time>
      </trkpt>
      <trkpt lat="44.69554" lon="6.91109">
        <ele>2931.4</ele>
        <time>2011-06-04T08:55:22Z</time>
      </trkpt>
      <trkpt lat="44.69553" lon="6.91121">
        <ele>2931.2</ele>
        <time>2011-06-04T08:55:26Z</time>
      </trkpt>
      <trkpt lat="44.69553" lon="6.91125">
        <ele>2931.2</ele>
        <time>2011-06-04T08:55:27Z</time>
      </trkpt>
      <trkpt lat="44.69553" lon="6.91132">
        <ele>2931</ele>
        <time>2011-06-04T08:55:31Z</time>
      </trkpt>
      <trkpt lat="44.69555" lon="6.91142">
        <ele>2930.6</ele>
        <time>2011-06-04T08:55:36Z</time>
      </trkpt>
      <trkpt lat="44.69557" lon="6.9115">
        <ele>2930.4</ele>
        <time>2011-06-04T08:55:40Z</time>
      </trkpt>
      <trkpt lat="44.69557" lon="6.91152">
        <ele>2930.4</ele>
        <time>2011-06-04T08:55:41Z</time>
      </trkpt>
      <trkpt lat="44.69557" lon="6.91154">
        <ele>2930.4</ele>
        <time>2011-06-04T08:55:42Z</time>
      </trkpt>
      <trkpt lat="44.6956" lon="6.9116">
        <ele>2930.2</ele>
        <time>2011-06-04T08:55:47Z</time>
      </trkpt>
      <trkpt lat="44.69562" lon="6.91163">
        <ele>2930</ele>
        <time>2011-06-04T08:55:51Z</time>
      </trkpt>
      <trkpt lat="44.69563" lon="6.91164">
        <ele>2930</ele>
        <time>2011-06-04T08:55:52Z</time>
      </trkpt>
      <trkpt lat="44.69565" lon="6.91169">
        <ele>2929.8</ele>
        <time>2011-06-04T08:55:57Z</time>
      </trkpt>
      <trkpt lat="44.69565" lon="6.9117">
        <ele>2929.8</ele>
        <time>2011-06-04T08:55:58Z</time>
      </trkpt>
      <trkpt lat="44.69566" lon="6.91172">
        <ele>2929.6</ele>
        <time>2011-06-04T08:56:00Z</time>
      </trkpt>
      <trkpt lat="44.69566" lon="6.91177">
        <ele>2929.6</ele>
        <time>2011-06-04T08:56:04Z</time>
      </trkpt>
      <trkpt lat="44.69562" lon="6.91185">
        <ele>2929.4</ele>
        <time>2011-06-04T08:56:11Z</time>
      </trkpt>
      <trkpt lat="44.69559" lon="6.91191">
        <ele>2929.2</ele>
        <time>2011-06-04T08:56:15Z</time>
      </trkpt>
      <trkpt lat="44.69557" lon="6.91193">
        <ele>2929</ele>
        <time>2011-06-04T08:56:16Z</time>
      </trkpt>
      <trkpt lat="44.69552" lon="6.91198">
        <ele>2929</ele>
        <time>2011-06-04T08:56:19Z</time>
      </trkpt>
      <trkpt lat="44.6955" lon="6.91202">
        <ele>2928.8</ele>
        <time>2011-06-04T08:56:21Z</time>
      </trkpt>
      <trkpt lat="44.69548" lon="6.91206">
        <ele>2928.6</ele>
        <time>2011-06-04T08:56:23Z</time>
      </trkpt>
      <trkpt lat="44.69548" lon="6.91206">
        <ele>2928.6</ele>
        <time>2011-06-04T08:56:23Z</time>
      </trkpt>
      <trkpt lat="44.69544" lon="6.91213">
        <ele>2928.4</ele>
        <time>2011-06-04T08:56:26Z</time>
      </trkpt>
      <trkpt lat="44.69543" lon="6.91215">
        <ele>2928.2</ele>
        <time>2011-06-04T08:56:27Z</time>
      </trkpt>
      <trkpt lat="44.69538" lon="6.91222">
        <ele>2928</ele>
        <time>2011-06-04T08:56:31Z</time>
      </trkpt>
      <trkpt lat="44.69537" lon="6.91222">
        <ele>2927.8</ele>
        <time>2011-06-04T08:56:32Z</time>
      </trkpt>
      <trkpt lat="44.69535" lon="6.91222">
        <ele>2927.4</ele>
        <time>2011-06-04T08:56:36Z</time>
      </trkpt>
      <trkpt lat="44.69536" lon="6.91221">
        <ele>2926.6</ele>
        <time>2011-06-04T08:56:46Z</time>
      </trkpt>
      <trkpt lat="44.69534" lon="6.91221">
        <ele>2926.4</ele>
        <time>2011-06-04T08:56:48Z</time>
      </trkpt>
      <trkpt lat="44.69532" lon="6.9122">
        <ele>2926</ele>
        <time>2011-06-04T08:56:50Z</time>
      </trkpt>
      <trkpt lat="44.6953" lon="6.91219">
        <ele>2925.8</ele>
        <time>2011-06-04T08:56:52Z</time>
      </trkpt>
      <trkpt lat="44.6953" lon="6.91219">
        <ele>2925.8</ele>
        <time>2011-06-04T08:56:53Z</time>
      </trkpt>
      <trkpt lat="44.69529" lon="6.91219">
        <ele>2925.6</ele>
        <time>2011-06-04T08:56:55Z</time>
      </trkpt>
      <trkpt lat="44.69524" lon="6.91219">
        <ele>2925</ele>
        <time>2011-06-04T08:57:02Z</time>
      </trkpt>
      <trkpt lat="44.69514" lon="6.91225">
        <ele>2924.4</ele>
        <time>2011-06-04T08:57:08Z</time>
      </trkpt>
      <trkpt lat="44.69507" lon="6.91232">
        <ele>2924</ele>
        <time>2011-06-04T08:57:13Z</time>
      </trkpt>
      <trkpt lat="44.69502" lon="6.9124">
        <ele>2923.4</ele>
        <time>2011-06-04T08:57:18Z</time>
      </trkpt>
      <trkpt lat="44.69501" lon="6.91243">
        <ele>2923.2</ele>
        <time>2011-06-04T08:57:19Z</time>
      </trkpt>
      <trkpt lat="44.69495" lon="6.91253">
        <ele>2922.6</ele>
        <time>2011-06-04T08:57:23Z</time>
      </trkpt>
      <trkpt lat="44.69491" lon="6.91262">
        <ele>2922.2</ele>
        <time>2011-06-04T08:57:28Z</time>
      </trkpt>
      <trkpt lat="44.69489" lon="6.91264">
        <ele>2922</ele>
        <time>2011-06-04T08:57:30Z</time>
      </trkpt>
      <trkpt lat="44.69486" lon="6.91266">
        <ele>2921.6</ele>
        <time>2011-06-04T08:57:33Z</time>
      </trkpt>
      <trkpt lat="44.69485" lon="6.91267">
        <ele>2921.4</ele>
        <time>2011-06-04T08:57:34Z</time>
      </trkpt>
      <trkpt lat="44.69482" lon="6.9127">
        <ele>2920.6</ele>
        <time>2011-06-04T08:57:39Z</time>
      </trkpt>
      <trkpt lat="44.69481" lon="6.91266">
        <ele>2919</ele>
        <time>2011-06-04T08:57:51Z</time>
      </trkpt>
      <trkpt lat="44.6948" lon="6.91265">
        <ele>2919</ele>
        <time>2011-06-04T08:57:52Z</time>
      </trkpt>
      <trkpt lat="44.69475" lon="6.9126">
        <ele>2918</ele>
        <time>2011-06-04T08:57:58Z</time>
      </trkpt>
      <trkpt lat="44.69475" lon="6.91259">
        <ele>2917.8</ele>
        <time>2011-06-04T08:57:59Z</time>
      </trkpt>
      <trkpt lat="44.69472" lon="6.91255">
        <ele>2917.2</ele>
        <time>2011-06-04T08:58:03Z</time>
      </trkpt>
      <trkpt lat="44.69468" lon="6.91251">
        <ele>2916.2</ele>
        <time>2011-06-04T08:58:08Z</time>
      </trkpt>
      <trkpt lat="44.69467" lon="6.9125">
        <ele>2916</ele>
        <time>2011-06-04T08:58:09Z</time>
      </trkpt>
      <trkpt lat="44.69467" lon="6.91249">
        <ele>2915.8</ele>
        <time>2011-06-04T08:58:10Z</time>
      </trkpt>
      <trkpt lat="44.69466" lon="6.91247">
        <ele>2915.2</ele>
        <time>2011-06-04T08:58:13Z</time>
      </trkpt>
      <trkpt lat="44.69463" lon="6.9124">
        <ele>2914.2</ele>
        <time>2011-06-04T08:58:18Z</time>
      </trkpt>
      <trkpt lat="44.69459" lon="6.91233">
        <ele>2912.8</ele>
        <time>2011-06-04T08:58:25Z</time>
      </trkpt>
      <trkpt lat="44.69454" lon="6.91223">
        <ele>2910.8</ele>
        <time>2011-06-04T08:58:33Z</time>
      </trkpt>
      <trkpt lat="44.69453" lon="6.91219">
        <ele>2910.2</ele>
        <time>2011-06-04T08:58:36Z</time>
      </trkpt>
      <trkpt lat="44.69452" lon="6.91218">
        <ele>2909.8</ele>
        <time>2011-06-04T08:58:37Z</time>
      </trkpt>
      <trkpt lat="44.69451" lon="6.91214">
        <ele>2909</ele>
        <time>2011-06-04T08:58:40Z</time>
      </trkpt>
      <trkpt lat="44.69448" lon="6.91209">
        <ele>2908</ele>
        <time>2011-06-04T08:58:44Z</time>
      </trkpt>
      <trkpt lat="44.69447" lon="6.91207">
        <ele>2907.4</ele>
        <time>2011-06-04T08:58:46Z</time>
      </trkpt>
      <trkpt lat="44.69445" lon="6.912">
        <ele>2906.2</ele>
        <time>2011-06-04T08:58:51Z</time>
      </trkpt>
      <trkpt lat="44.69444" lon="6.91197">
        <ele>2905.6</ele>
        <time>2011-06-04T08:58:53Z</time>
      </trkpt>
      <trkpt lat="44.69444" lon="6.91193">
        <ele>2904.8</ele>
        <time>2011-06-04T08:58:56Z</time>
      </trkpt>
      <trkpt lat="44.69443" lon="6.91192">
        <ele>2904.6</ele>
        <time>2011-06-04T08:58:57Z</time>
      </trkpt>
      <trkpt lat="44.69438" lon="6.91179">
        <ele>2902.8</ele>
        <time>2011-06-04T08:59:03Z</time>
      </trkpt>
      <trkpt lat="44.69436" lon="6.91174">
        <ele>2902.4</ele>
        <time>2011-06-04T08:59:05Z</time>
      </trkpt>
      <trkpt lat="44.69434" lon="6.9117">
        <ele>2901.4</ele>
        <time>2011-06-04T08:59:08Z</time>
      </trkpt>
      <trkpt lat="44.69433" lon="6.91168">
        <ele>2901.2</ele>
        <time>2011-06-04T08:59:09Z</time>
      </trkpt>
      <trkpt lat="44.69429" lon="6.91165">
        <ele>2900</ele>
        <time>2011-06-04T08:59:13Z</time>
      </trkpt>
      <trkpt lat="44.69427" lon="6.91163">
        <ele>2899.4</ele>
        <time>2011-06-04T08:59:15Z</time>
      </trkpt>
      <trkpt lat="44.69424" lon="6.91159">
        <ele>2898.2</ele>
        <time>2011-06-04T08:59:19Z</time>
      </trkpt>
      <trkpt lat="44.69422" lon="6.91157">
        <ele>2897.6</ele>
        <time>2011-06-04T08:59:21Z</time>
      </trkpt>
      <trkpt lat="44.69419" lon="6.91153">
        <ele>2896.4</ele>
        <time>2011-06-04T08:59:25Z</time>
      </trkpt>
      <trkpt lat="44.69416" lon="6.91148">
        <ele>2894.6</ele>
        <time>2011-06-04T08:59:31Z</time>
      </trkpt>
      <trkpt lat="44.69416" lon="6.91147">
        <ele>2894.4</ele>
        <time>2011-06-04T08:59:32Z</time>
      </trkpt>
      <trkpt lat="44.69412" lon="6.91144">
        <ele>2893</ele>
        <time>2011-06-04T08:59:36Z</time>
      </trkpt>
      <trkpt lat="44.69411" lon="6.91143">
        <ele>2892.8</ele>
        <time>2011-06-04T08:59:37Z</time>
      </trkpt>
      <trkpt lat="44.6941" lon="6.9114">
        <ele>2892</ele>
        <time>2011-06-04T08:59:39Z</time>
      </trkpt>
      <trkpt lat="44.69407" lon="6.91138">
        <ele>2890.8</ele>
        <time>2011-06-04T08:59:43Z</time>
      </trkpt>
      <trkpt lat="44.69405" lon="6.91136">
        <ele>2889.4</ele>
        <time>2011-06-04T08:59:47Z</time>
      </trkpt>
      <trkpt lat="44.69405" lon="6.91135">
        <ele>2889.2</ele>
        <time>2011-06-04T08:59:48Z</time>
      </trkpt>
      <trkpt lat="44.69403" lon="6.91132">
        <ele>2887.8</ele>
        <time>2011-06-04T08:59:52Z</time>
      </trkpt>
      <trkpt lat="44.694" lon="6.91129">
        <ele>2886.4</ele>
        <time>2011-06-04T08:59:56Z</time>
      </trkpt>
      <trkpt lat="44.69397" lon="6.91131">
        <ele>2885.2</ele>
        <time>2011-06-04T09:00:00Z</time>
      </trkpt>
      <trkpt lat="44.69397" lon="6.91132">
        <ele>2884.8</ele>
        <time>2011-06-04T09:00:01Z</time>
      </trkpt>
      <trkpt lat="44.69396" lon="6.91132">
        <ele>2884.4</ele>
        <time>2011-06-04T09:00:02Z</time>
      </trkpt>
      <trkpt lat="44.69394" lon="6.9113">
        <ele>2883.8</ele>
        <time>2011-06-04T09:00:04Z</time>
      </trkpt>
      <trkpt lat="44.69389" lon="6.91127">
        <ele>2881.6</ele>
        <time>2011-06-04T09:00:10Z</time>
      </trkpt>
      <trkpt lat="44.69388" lon="6.91127">
        <ele>2881.2</ele>
        <time>2011-06-04T09:00:11Z</time>
      </trkpt>
      <trkpt lat="44.69385" lon="6.9113">
        <ele>2879.8</ele>
        <time>2011-06-04T09:00:15Z</time>
      </trkpt>
      <trkpt lat="44.69384" lon="6.91129">
        <ele>2879</ele>
        <time>2011-06-04T09:00:17Z</time>
      </trkpt>
      <trkpt lat="44.69383" lon="6.91129">
        <ele>2878.6</ele>
        <time>2011-06-04T09:00:18Z</time>
      </trkpt>
      <trkpt lat="44.69382" lon="6.9113">
        <ele>2877.8</ele>
        <time>2011-06-04T09:00:20Z</time>
      </trkpt>
      <trkpt lat="44.69381" lon="6.91131">
        <ele>2874.6</ele>
        <time>2011-06-04T09:00:29Z</time>
      </trkpt>
      <trkpt lat="44.69381" lon="6.91132">
        <ele>2874.2</ele>
        <time>2011-06-04T09:00:30Z</time>
      </trkpt>
      <trkpt lat="44.69382" lon="6.91136">
        <ele>2873.6</ele>
        <time>2011-06-04T09:00:32Z</time>
      </trkpt>
      <trkpt lat="44.69382" lon="6.9114">
        <ele>2872.8</ele>
        <time>2011-06-04T09:00:34Z</time>
      </trkpt>
      <trkpt lat="44.6938" lon="6.91145">
        <ele>2871.2</ele>
        <time>2011-06-04T09:00:38Z</time>
      </trkpt>
      <trkpt lat="44.6938" lon="6.91145">
        <ele>2870.8</ele>
        <time>2011-06-04T09:00:39Z</time>
      </trkpt>
      <trkpt lat="44.69379" lon="6.91147">
        <ele>2870</ele>
        <time>2011-06-04T09:00:41Z</time>
      </trkpt>
      <trkpt lat="44.69377" lon="6.91147">
        <ele>2869.2</ele>
        <time>2011-06-04T09:00:43Z</time>
      </trkpt>
      <trkpt lat="44.69374" lon="6.91146">
        <ele>2868</ele>
        <time>2011-06-04T09:00:46Z</time>
      </trkpt>
      <trkpt lat="44.69371" lon="6.91147">
        <ele>2867</ele>
        <time>2011-06-04T09:00:48Z</time>
      </trkpt>
      <trkpt lat="44.69368" lon="6.91149">
        <ele>2866</ele>
        <time>2011-06-04T09:00:50Z</time>
      </trkpt>
      <trkpt lat="44.69365" lon="6.9115">
        <ele>2865</ele>
        <time>2011-06-04T09:00:52Z</time>
      </trkpt>
      <trkpt lat="44.69359" lon="6.91151">
        <ele>2862.8</ele>
        <time>2011-06-04T09:00:57Z</time>
      </trkpt>
      <trkpt lat="44.69356" lon="6.91151">
        <ele>2861.8</ele>
        <time>2011-06-04T09:00:59Z</time>
      </trkpt>
      <trkpt lat="44.69351" lon="6.9115">
        <ele>2860.2</ele>
        <time>2011-06-04T09:01:02Z</time>
      </trkpt>
      <trkpt lat="44.69348" lon="6.91149">
        <ele>2858.6</ele>
        <time>2011-06-04T09:01:05Z</time>
      </trkpt>
      <trkpt lat="44.69345" lon="6.91149">
        <ele>2857</ele>
        <time>2011-06-04T09:01:08Z</time>
      </trkpt>
      <trkpt lat="44.69343" lon="6.91148">
        <ele>2855</ele>
        <time>2011-06-04T09:01:12Z</time>
      </trkpt>
      <trkpt lat="44.69342" lon="6.91151">
        <ele>2854</ele>
        <time>2011-06-04T09:01:14Z</time>
      </trkpt>
      <trkpt lat="44.6934" lon="6.91154">
        <ele>2852.4</ele>
        <time>2011-06-04T09:01:17Z</time>
      </trkpt>
      <trkpt lat="44.69338" lon="6.91157">
        <ele>2851</ele>
        <time>2011-06-04T09:01:20Z</time>
      </trkpt>
      <trkpt lat="44.69337" lon="6.91157">
        <ele>2850.4</ele>
        <time>2011-06-04T09:01:21Z</time>
      </trkpt>
      <trkpt lat="44.69334" lon="6.91158">
        <ele>2847.8</ele>
        <time>2011-06-04T09:01:26Z</time>
      </trkpt>
      <trkpt lat="44.69332" lon="6.91159">
        <ele>2845.8</ele>
        <time>2011-06-04T09:01:30Z</time>
      </trkpt>
      <trkpt lat="44.69328" lon="6.9116">
        <ele>2843.4</ele>
        <time>2011-06-04T09:01:35Z</time>
      </trkpt>
      <trkpt lat="44.69326" lon="6.91162">
        <ele>2840.8</ele>
        <time>2011-06-04T09:01:40Z</time>
      </trkpt>
      <trkpt lat="44.69325" lon="6.91164">
        <ele>2840.4</ele>
        <time>2011-06-04T09:01:41Z</time>
      </trkpt>
      <trkpt lat="44.69324" lon="6.91167">
        <ele>2839.4</ele>
        <time>2011-06-04T09:01:43Z</time>
      </trkpt>
      <trkpt lat="44.69321" lon="6.91168">
        <ele>2837.8</ele>
        <time>2011-06-04T09:01:46Z</time>
      </trkpt>
      <trkpt lat="44.69316" lon="6.91165">
        <ele>2835.4</ele>
        <time>2011-06-04T09:01:51Z</time>
      </trkpt>
      <trkpt lat="44.69312" lon="6.91167">
        <ele>2833.4</ele>
        <time>2011-06-04T09:01:55Z</time>
      </trkpt>
      <trkpt lat="44.69308" lon="6.91164">
        <ele>2831.2</ele>
        <time>2011-06-04T09:01:59Z</time>
      </trkpt>
      <trkpt lat="44.69302" lon="6.91166">
        <ele>2828.6</ele>
        <time>2011-06-04T09:02:04Z</time>
      </trkpt>
      <trkpt lat="44.69295" lon="6.91163">
        <ele>2826.4</ele>
        <time>2011-06-04T09:02:08Z</time>
      </trkpt>
      <trkpt lat="44.69293" lon="6.91163">
        <ele>2825.8</ele>
        <time>2011-06-04T09:02:09Z</time>
      </trkpt>
      <trkpt lat="44.69287" lon="6.91162">
        <ele>2824.2</ele>
        <time>2011-06-04T09:02:12Z</time>
      </trkpt>
      <trkpt lat="44.69282" lon="6.9116">
        <ele>2822.4</ele>
        <time>2011-06-04T09:02:15Z</time>
      </trkpt>
      <trkpt lat="44.69277" lon="6.91161">
        <ele>2820.4</ele>
        <time>2011-06-04T09:02:18Z</time>
      </trkpt>
      <trkpt lat="44.69273" lon="6.9116">
        <ele>2819.2</ele>
        <time>2011-06-04T09:02:20Z</time>
      </trkpt>
      <trkpt lat="44.69269" lon="6.91161">
        <ele>2817.2</ele>
        <time>2011-06-04T09:02:23Z</time>
      </trkpt>
      <trkpt lat="44.69267" lon="6.91162">
        <ele>2816.6</ele>
        <time>2011-06-04T09:02:24Z</time>
      </trkpt>
      <trkpt lat="44.69266" lon="6.91162">
        <ele>2816</ele>
        <time>2011-06-04T09:02:25Z</time>
      </trkpt>
      <trkpt lat="44.69263" lon="6.91161">
        <ele>2814.2</ele>
        <time>2011-06-04T09:02:28Z</time>
      </trkpt>
      <trkpt lat="44.69259" lon="6.91159">
        <ele>2811</ele>
        <time>2011-06-04T09:02:33Z</time>
      </trkpt>
      <trkpt lat="44.69259" lon="6.91158">
        <ele>2810.4</ele>
        <time>2011-06-04T09:02:34Z</time>
      </trkpt>
      <trkpt lat="44.69255" lon="6.91157">
        <ele>2807.4</ele>
        <time>2011-06-04T09:02:39Z</time>
      </trkpt>
      <trkpt lat="44.69252" lon="6.91155">
        <ele>2804.4</ele>
        <time>2011-06-04T09:02:44Z</time>
      </trkpt>
      <trkpt lat="44.69248" lon="6.91156">
        <ele>2802</ele>
        <time>2011-06-04T09:02:48Z</time>
      </trkpt>
      <trkpt lat="44.69247" lon="6.91155">
        <ele>2801.4</ele>
        <time>2011-06-04T09:02:49Z</time>
      </trkpt>
      <trkpt lat="44.69244" lon="6.91156">
        <ele>2799.6</ele>
        <time>2011-06-04T09:02:52Z</time>
      </trkpt>
      <trkpt lat="44.69242" lon="6.91156">
        <ele>2799</ele>
        <time>2011-06-04T09:02:53Z</time>
      </trkpt>
      <trkpt lat="44.69241" lon="6.91157">
        <ele>2798.4</ele>
        <time>2011-06-04T09:02:54Z</time>
      </trkpt>
      <trkpt lat="44.69234" lon="6.9116">
        <ele>2794.8</ele>
        <time>2011-06-04T09:03:00Z</time>
      </trkpt>
      <trkpt lat="44.6923" lon="6.91159">
        <ele>2791.6</ele>
        <time>2011-06-04T09:03:05Z</time>
      </trkpt>
      <trkpt lat="44.69229" lon="6.91159">
        <ele>2791</ele>
        <time>2011-06-04T09:03:06Z</time>
      </trkpt>
      <trkpt lat="44.69227" lon="6.9116">
        <ele>2789.2</ele>
        <time>2011-06-04T09:03:09Z</time>
      </trkpt>
      <trkpt lat="44.69226" lon="6.91162">
        <ele>2788</ele>
        <time>2011-06-04T09:03:11Z</time>
      </trkpt>
      <trkpt lat="44.69226" lon="6.91169">
        <ele>2785.8</ele>
        <time>2011-06-04T09:03:15Z</time>
      </trkpt>
      <trkpt lat="44.69225" lon="6.9117">
        <ele>2785.2</ele>
        <time>2011-06-04T09:03:16Z</time>
      </trkpt>
      <trkpt lat="44.69222" lon="6.91174">
        <ele>2782.8</ele>
        <time>2011-06-04T09:03:20Z</time>
      </trkpt>
      <trkpt lat="44.69217" lon="6.91176">
        <ele>2780</ele>
        <time>2011-06-04T09:03:25Z</time>
      </trkpt>
      <trkpt lat="44.69216" lon="6.91177">
        <ele>2779.4</ele>
        <time>2011-06-04T09:03:26Z</time>
      </trkpt>
      <trkpt lat="44.6921" lon="6.9118">
        <ele>2776.6</ele>
        <time>2011-06-04T09:03:31Z</time>
      </trkpt>
      <trkpt lat="44.69202" lon="6.91182">
        <ele>2773</ele>
        <time>2011-06-04T09:03:37Z</time>
      </trkpt>
      <trkpt lat="44.69198" lon="6.91182">
        <ele>2771.2</ele>
        <time>2011-06-04T09:03:40Z</time>
      </trkpt>
      <trkpt lat="44.69195" lon="6.91182">
        <ele>2769.4</ele>
        <time>2011-06-04T09:03:43Z</time>
      </trkpt>
      <trkpt lat="44.69194" lon="6.91181">
        <ele>2768.2</ele>
        <time>2011-06-04T09:03:45Z</time>
      </trkpt>
      <trkpt lat="44.69193" lon="6.91181">
        <ele>2767.6</ele>
        <time>2011-06-04T09:03:46Z</time>
      </trkpt>
      <trkpt lat="44.69193" lon="6.91182">
        <ele>2767</ele>
        <time>2011-06-04T09:03:47Z</time>
      </trkpt>
      <trkpt lat="44.69188" lon="6.91188">
        <ele>2764</ele>
        <time>2011-06-04T09:03:52Z</time>
      </trkpt>
      <trkpt lat="44.69184" lon="6.91187">
        <ele>2762.2</ele>
        <time>2011-06-04T09:03:55Z</time>
      </trkpt>
      <trkpt lat="44.69181" lon="6.91185">
        <ele>2761</ele>
        <time>2011-06-04T09:03:57Z</time>
      </trkpt>
      <trkpt lat="44.69173" lon="6.91186">
        <ele>2757.8</ele>
        <time>2011-06-04T09:04:02Z</time>
      </trkpt>
      <trkpt lat="44.69168" lon="6.91177">
        <ele>2755.4</ele>
        <time>2011-06-04T09:04:06Z</time>
      </trkpt>
      <trkpt lat="44.69164" lon="6.91174">
        <ele>2753.6</ele>
        <time>2011-06-04T09:04:09Z</time>
      </trkpt>
      <trkpt lat="44.69159" lon="6.91172">
        <ele>2751.6</ele>
        <time>2011-06-04T09:04:12Z</time>
      </trkpt>
      <trkpt lat="44.69155" lon="6.9117">
        <ele>2750.4</ele>
        <time>2011-06-04T09:04:14Z</time>
      </trkpt>
      <trkpt lat="44.69151" lon="6.91171">
        <ele>2748.6</ele>
        <time>2011-06-04T09:04:17Z</time>
      </trkpt>
      <trkpt lat="44.69148" lon="6.91172">
        <ele>2747.4</ele>
        <time>2011-06-04T09:04:19Z</time>
      </trkpt>
      <trkpt lat="44.69146" lon="6.91171">
        <ele>2746.8</ele>
        <time>2011-06-04T09:04:20Z</time>
      </trkpt>
      <trkpt lat="44.69142" lon="6.91166">
        <ele>2745</ele>
        <time>2011-06-04T09:04:23Z</time>
      </trkpt>
      <trkpt lat="44.69137" lon="6.91158">
        <ele>2742.8</ele>
        <time>2011-06-04T09:04:27Z</time>
      </trkpt>
      <trkpt lat="44.69136" lon="6.91157">
        <ele>2742.2</ele>
        <time>2011-06-04T09:04:28Z</time>
      </trkpt>
      <trkpt lat="44.69128" lon="6.91158">
        <ele>2739.4</ele>
        <time>2011-06-04T09:04:33Z</time>
      </trkpt>
      <trkpt lat="44.6912" lon="6.91163">
        <ele>2735.8</ele>
        <time>2011-06-04T09:04:39Z</time>
      </trkpt>
      <trkpt lat="44.69119" lon="6.91163">
        <ele>2735.2</ele>
        <time>2011-06-04T09:04:40Z</time>
      </trkpt>
      <trkpt lat="44.6911" lon="6.91164">
        <ele>2732.4</ele>
        <time>2011-06-04T09:04:45Z</time>
      </trkpt>
      <trkpt lat="44.69103" lon="6.91167">
        <ele>2729.6</ele>
        <time>2011-06-04T09:04:50Z</time>
      </trkpt>
      <trkpt lat="44.69102" lon="6.91167">
        <ele>2729</ele>
        <time>2011-06-04T09:04:51Z</time>
      </trkpt>
      <trkpt lat="44.69098" lon="6.91167">
        <ele>2726.6</ele>
        <time>2011-06-04T09:04:55Z</time>
      </trkpt>
      <trkpt lat="44.69097" lon="6.91168">
        <ele>2725.6</ele>
        <time>2011-06-04T09:04:57Z</time>
      </trkpt>
      <trkpt lat="44.69098" lon="6.91169">
        <ele>2707.4</ele>
        <time>2011-06-04T09:05:40Z</time>
      </trkpt>
      <trkpt lat="44.69095" lon="6.91166">
        <ele>2677.8</ele>
        <time>2011-06-04T09:08:19Z</time>
      </trkpt>
      <trkpt lat="44.69095" lon="6.91164">
        <ele>2677.6</ele>
        <time>2011-06-04T09:08:22Z</time>
      </trkpt>
      <trkpt lat="44.69095" lon="6.91161">
        <ele>2677.4</ele>
        <time>2011-06-04T09:08:24Z</time>
      </trkpt>
      <trkpt lat="44.69096" lon="6.91152">
        <ele>2677</ele>
        <time>2011-06-04T09:08:29Z</time>
      </trkpt>
      <trkpt lat="44.69098" lon="6.9115">
        <ele>2677</ele>
        <time>2011-06-04T09:08:31Z</time>
      </trkpt>
      <trkpt lat="44.69099" lon="6.91144">
        <ele>2676.8</ele>
        <time>2011-06-04T09:08:35Z</time>
      </trkpt>
      <trkpt lat="44.69101" lon="6.9114">
        <ele>2676.8</ele>
        <time>2011-06-04T09:08:38Z</time>
      </trkpt>
      <trkpt lat="44.69102" lon="6.91139">
        <ele>2676.6</ele>
        <time>2011-06-04T09:08:39Z</time>
      </trkpt>
      <trkpt lat="44.69106" lon="6.9113">
        <ele>2676.6</ele>
        <time>2011-06-04T09:08:45Z</time>
      </trkpt>
      <trkpt lat="44.6911" lon="6.91124">
        <ele>2676.4</ele>
        <time>2011-06-04T09:08:50Z</time>
      </trkpt>
      <trkpt lat="44.69112" lon="6.9112">
        <ele>2676.4</ele>
        <time>2011-06-04T09:08:54Z</time>
      </trkpt>
      <trkpt lat="44.69113" lon="6.91117">
        <ele>2676.4</ele>
        <time>2011-06-04T09:08:56Z</time>
      </trkpt>
      <trkpt lat="44.69113" lon="6.9111">
        <ele>2676.4</ele>
        <time>2011-06-04T09:09:02Z</time>
      </trkpt>
      <trkpt lat="44.69114" lon="6.91103">
        <ele>2676.4</ele>
        <time>2011-06-04T09:09:07Z</time>
      </trkpt>
      <trkpt lat="44.69115" lon="6.91102">
        <ele>2676.4</ele>
        <time>2011-06-04T09:09:08Z</time>
      </trkpt>
      <trkpt lat="44.69116" lon="6.91096">
        <ele>2676.8</ele>
        <time>2011-06-04T09:09:13Z</time>
      </trkpt>
      <trkpt lat="44.69117" lon="6.91095">
        <ele>2676.8</ele>
        <time>2011-06-04T09:09:14Z</time>
      </trkpt>
      <trkpt lat="44.69118" lon="6.9109">
        <ele>2677</ele>
        <time>2011-06-04T09:09:18Z</time>
      </trkpt>
      <trkpt lat="44.69118" lon="6.91088">
        <ele>2677.2</ele>
        <time>2011-06-04T09:09:19Z</time>
      </trkpt>
      <trkpt lat="44.69119" lon="6.91085">
        <ele>2677.4</ele>
        <time>2011-06-04T09:09:21Z</time>
      </trkpt>
      <trkpt lat="44.69119" lon="6.91081">
        <ele>2677.8</ele>
        <time>2011-06-04T09:09:24Z</time>
      </trkpt>
      <trkpt lat="44.6912" lon="6.91075">
        <ele>2678.2</ele>
        <time>2011-06-04T09:09:29Z</time>
      </trkpt>
      <trkpt lat="44.69121" lon="6.91073">
        <ele>2678.4</ele>
        <time>2011-06-04T09:09:31Z</time>
      </trkpt>
      <trkpt lat="44.69122" lon="6.9107">
        <ele>2678.6</ele>
        <time>2011-06-04T09:09:33Z</time>
      </trkpt>
      <trkpt lat="44.69122" lon="6.91069">
        <ele>2678.8</ele>
        <time>2011-06-04T09:09:34Z</time>
      </trkpt>
      <trkpt lat="44.69123" lon="6.91068">
        <ele>2678.8</ele>
        <time>2011-06-04T09:09:35Z</time>
      </trkpt>
      <trkpt lat="44.69124" lon="6.91064">
        <ele>2679.4</ele>
        <time>2011-06-04T09:09:39Z</time>
      </trkpt>
      <trkpt lat="44.69124" lon="6.91063">
        <ele>2679.4</ele>
        <time>2011-06-04T09:09:40Z</time>
      </trkpt>
      <trkpt lat="44.69125" lon="6.9106">
        <ele>2679.6</ele>
        <time>2011-06-04T09:09:42Z</time>
      </trkpt>
      <trkpt lat="44.69126" lon="6.91057">
        <ele>2680</ele>
        <time>2011-06-04T09:09:45Z</time>
      </trkpt>
      <trkpt lat="44.69127" lon="6.91055">
        <ele>2680.2</ele>
        <time>2011-06-04T09:09:47Z</time>
      </trkpt>
      <trkpt lat="44.69127" lon="6.91052">
        <ele>2680.6</ele>
        <time>2011-06-04T09:09:49Z</time>
      </trkpt>
      <trkpt lat="44.69128" lon="6.9105">
        <ele>2680.8</ele>
        <time>2011-06-04T09:09:51Z</time>
      </trkpt>
      <trkpt lat="44.69128" lon="6.91048">
        <ele>2681</ele>
        <time>2011-06-04T09:09:53Z</time>
      </trkpt>
      <trkpt lat="44.69129" lon="6.91046">
        <ele>2681</ele>
        <time>2011-06-04T09:09:54Z</time>
      </trkpt>
      <trkpt lat="44.69129" lon="6.91045">
        <ele>2681.2</ele>
        <time>2011-06-04T09:09:55Z</time>
      </trkpt>
      <trkpt lat="44.69131" lon="6.9104">
        <ele>2681.6</ele>
        <time>2011-06-04T09:09:59Z</time>
      </trkpt>
      <trkpt lat="44.69131" lon="6.91038">
        <ele>2681.8</ele>
        <time>2011-06-04T09:10:01Z</time>
      </trkpt>
      <trkpt lat="44.69132" lon="6.91034">
        <ele>2682.2</ele>
        <time>2011-06-04T09:10:04Z</time>
      </trkpt>
      <trkpt lat="44.69132" lon="6.91032">
        <ele>2682.4</ele>
        <time>2011-06-04T09:10:05Z</time>
      </trkpt>
      <trkpt lat="44.69132" lon="6.91027">
        <ele>2683</ele>
        <time>2011-06-04T09:10:09Z</time>
      </trkpt>
      <trkpt lat="44.69132" lon="6.91025">
        <ele>2683.2</ele>
        <time>2011-06-04T09:10:10Z</time>
      </trkpt>
      <trkpt lat="44.69132" lon="6.91023">
        <ele>2683.6</ele>
        <time>2011-06-04T09:10:12Z</time>
      </trkpt>
      <trkpt lat="44.69132" lon="6.91019">
        <ele>2684.2</ele>
        <time>2011-06-04T09:10:15Z</time>
      </trkpt>
      <trkpt lat="44.69132" lon="6.91012">
        <ele>2685.2</ele>
        <time>2011-06-04T09:10:20Z</time>
      </trkpt>
      <trkpt lat="44.69133" lon="6.91007">
        <ele>2686</ele>
        <time>2011-06-04T09:10:24Z</time>
      </trkpt>
      <trkpt lat="44.69133" lon="6.91004">
        <ele>2686.4</ele>
        <time>2011-06-04T09:10:26Z</time>
      </trkpt>
      <trkpt lat="44.69133" lon="6.90997">
        <ele>2687.4</ele>
        <time>2011-06-04T09:10:31Z</time>
      </trkpt>
      <trkpt lat="44.69133" lon="6.90996">
        <ele>2687.8</ele>
        <time>2011-06-04T09:10:32Z</time>
      </trkpt>
      <trkpt lat="44.69133" lon="6.90993">
        <ele>2688.4</ele>
        <time>2011-06-04T09:10:35Z</time>
      </trkpt>
      <trkpt lat="44.69133" lon="6.90989">
        <ele>2689.2</ele>
        <time>2011-06-04T09:10:38Z</time>
      </trkpt>
      <trkpt lat="44.69134" lon="6.90987">
        <ele>2689.6</ele>
        <time>2011-06-04T09:10:40Z</time>
      </trkpt>
      <trkpt lat="44.69134" lon="6.90983">
        <ele>2690.2</ele>
        <time>2011-06-04T09:10:43Z</time>
      </trkpt>
      <trkpt lat="44.69134" lon="6.9098">
        <ele>2690.8</ele>
        <time>2011-06-04T09:10:45Z</time>
      </trkpt>
      <trkpt lat="44.69134" lon="6.90977">
        <ele>2691.4</ele>
        <time>2011-06-04T09:10:47Z</time>
      </trkpt>
      <trkpt lat="44.69135" lon="6.90972">
        <ele>2692.4</ele>
        <time>2011-06-04T09:10:51Z</time>
      </trkpt>
      <trkpt lat="44.69135" lon="6.90971">
        <ele>2692.6</ele>
        <time>2011-06-04T09:10:52Z</time>
      </trkpt>
      <trkpt lat="44.69134" lon="6.90967">
        <ele>2693.8</ele>
        <time>2011-06-04T09:10:56Z</time>
      </trkpt>
      <trkpt lat="44.69133" lon="6.9096">
        <ele>2695</ele>
        <time>2011-06-04T09:11:01Z</time>
      </trkpt>
      <trkpt lat="44.69133" lon="6.90957">
        <ele>2695.6</ele>
        <time>2011-06-04T09:11:03Z</time>
      </trkpt>
      <trkpt lat="44.69133" lon="6.90956">
        <ele>2695.8</ele>
        <time>2011-06-04T09:11:04Z</time>
      </trkpt>
      <trkpt lat="44.69134" lon="6.90953">
        <ele>2696.2</ele>
        <time>2011-06-04T09:11:06Z</time>
      </trkpt>
      <trkpt lat="44.69134" lon="6.90947">
        <ele>2697.2</ele>
        <time>2011-06-04T09:11:10Z</time>
      </trkpt>
      <trkpt lat="44.69135" lon="6.90946">
        <ele>2697.4</ele>
        <time>2011-06-04T09:11:11Z</time>
      </trkpt>
      <trkpt lat="44.69135" lon="6.90946">
        <ele>2697.6</ele>
        <time>2011-06-04T09:11:12Z</time>
      </trkpt>
      <trkpt lat="44.69136" lon="6.90944">
        <ele>2698</ele>
        <time>2011-06-04T09:11:14Z</time>
      </trkpt>
      <trkpt lat="44.69137" lon="6.90942">
        <ele>2698.4</ele>
        <time>2011-06-04T09:11:16Z</time>
      </trkpt>
      <trkpt lat="44.69138" lon="6.90941">
        <ele>2698.6</ele>
        <time>2011-06-04T09:11:17Z</time>
      </trkpt>
      <trkpt lat="44.6914" lon="6.9094">
        <ele>2699.2</ele>
        <time>2011-06-04T09:11:20Z</time>
      </trkpt>
      <trkpt lat="44.69141" lon="6.9094">
        <ele>2699.4</ele>
        <time>2011-06-04T09:11:21Z</time>
      </trkpt>
      <trkpt lat="44.69142" lon="6.90941">
        <ele>2700</ele>
        <time>2011-06-04T09:11:24Z</time>
      </trkpt>
      <trkpt lat="44.69144" lon="6.90944">
        <ele>2701.4</ele>
        <time>2011-06-04T09:11:29Z</time>
      </trkpt>
      <trkpt lat="44.69147" lon="6.90946">
        <ele>2702.6</ele>
        <time>2011-06-04T09:11:34Z</time>
      </trkpt>
      <trkpt lat="44.69148" lon="6.90946">
        <ele>2703</ele>
        <time>2011-06-04T09:11:36Z</time>
      </trkpt>
      <trkpt lat="44.6915" lon="6.90947">
        <ele>2703.8</ele>
        <time>2011-06-04T09:11:40Z</time>
      </trkpt>
      <trkpt lat="44.69152" lon="6.90948">
        <ele>2704.6</ele>
        <time>2011-06-04T09:11:44Z</time>
      </trkpt>
      <trkpt lat="44.69153" lon="6.90943">
        <ele>2706</ele>
        <time>2011-06-04T09:11:50Z</time>
      </trkpt>
      <trkpt lat="44.69154" lon="6.9094">
        <ele>2706.8</ele>
        <time>2011-06-04T09:11:54Z</time>
      </trkpt>
      <trkpt lat="44.69154" lon="6.90937">
        <ele>2707.6</ele>
        <time>2011-06-04T09:11:58Z</time>
      </trkpt>
      <trkpt lat="44.69155" lon="6.90933">
        <ele>2708.4</ele>
        <time>2011-06-04T09:12:02Z</time>
      </trkpt>
      <trkpt lat="44.69155" lon="6.90929">
        <ele>2709.4</ele>
        <time>2011-06-04T09:12:07Z</time>
      </trkpt>
      <trkpt lat="44.69157" lon="6.90928">
        <ele>2710.4</ele>
        <time>2011-06-04T09:12:12Z</time>
      </trkpt>
      <trkpt lat="44.6916" lon="6.9093">
        <ele>2711.2</ele>
        <time>2011-06-04T09:12:17Z</time>
      </trkpt>
      <trkpt lat="44.69161" lon="6.90931">
        <ele>2712.2</ele>
        <time>2011-06-04T09:12:21Z</time>
      </trkpt>
      <trkpt lat="44.69163" lon="6.90932">
        <ele>2713.2</ele>
        <time>2011-06-04T09:12:26Z</time>
      </trkpt>
      <trkpt lat="44.69164" lon="6.90932">
        <ele>2714.2</ele>
        <time>2011-06-04T09:12:30Z</time>
      </trkpt>
      <trkpt lat="44.69165" lon="6.90929">
        <ele>2715</ele>
        <time>2011-06-04T09:12:34Z</time>
      </trkpt>
      <trkpt lat="44.69166" lon="6.90926">
        <ele>2716.2</ele>
        <time>2011-06-04T09:12:39Z</time>
      </trkpt>
      <trkpt lat="44.69166" lon="6.90924">
        <ele>2717</ele>
        <time>2011-06-04T09:12:42Z</time>
      </trkpt>
      <trkpt lat="44.69167" lon="6.90923">
        <ele>2717.2</ele>
        <time>2011-06-04T09:12:43Z</time>
      </trkpt>
      <trkpt lat="44.69167" lon="6.9092">
        <ele>2718.2</ele>
        <time>2011-06-04T09:12:48Z</time>
      </trkpt>
      <trkpt lat="44.69168" lon="6.90917">
        <ele>2719.2</ele>
        <time>2011-06-04T09:12:52Z</time>
      </trkpt>
      <trkpt lat="44.69169" lon="6.90917">
        <ele>2720</ele>
        <time>2011-06-04T09:12:56Z</time>
      </trkpt>
      <trkpt lat="44.69171" lon="6.90918">
        <ele>2721</ele>
        <time>2011-06-04T09:13:01Z</time>
      </trkpt>
      <trkpt lat="44.69174" lon="6.9092">
        <ele>2722.4</ele>
        <time>2011-06-04T09:13:07Z</time>
      </trkpt>
      <trkpt lat="44.69176" lon="6.90922">
        <ele>2723.4</ele>
        <time>2011-06-04T09:13:11Z</time>
      </trkpt>
      <trkpt lat="44.69178" lon="6.90922">
        <ele>2724.4</ele>
        <time>2011-06-04T09:13:15Z</time>
      </trkpt>
      <trkpt lat="44.69181" lon="6.90923">
        <ele>2725.4</ele>
        <time>2011-06-04T09:13:19Z</time>
      </trkpt>
      <trkpt lat="44.69184" lon="6.90923">
        <ele>2726.6</ele>
        <time>2011-06-04T09:13:24Z</time>
      </trkpt>
      <trkpt lat="44.69187" lon="6.90922">
        <ele>2728</ele>
        <time>2011-06-04T09:13:29Z</time>
      </trkpt>
      <trkpt lat="44.69188" lon="6.90919">
        <ele>2729.8</ele>
        <time>2011-06-04T09:13:35Z</time>
      </trkpt>
      <trkpt lat="44.69187" lon="6.90914">
        <ele>2731</ele>
        <time>2011-06-04T09:13:40Z</time>
      </trkpt>
      <trkpt lat="44.69186" lon="6.90911">
        <ele>2731.8</ele>
        <time>2011-06-04T09:13:42Z</time>
      </trkpt>
      <trkpt lat="44.69185" lon="6.90908">
        <ele>2732.6</ele>
        <time>2011-06-04T09:13:45Z</time>
      </trkpt>
      <trkpt lat="44.69184" lon="6.90905">
        <ele>2733.6</ele>
        <time>2011-06-04T09:13:49Z</time>
      </trkpt>
      <trkpt lat="44.69183" lon="6.90901">
        <ele>2734.6</ele>
        <time>2011-06-04T09:13:52Z</time>
      </trkpt>
      <trkpt lat="44.69183" lon="6.90899">
        <ele>2735.2</ele>
        <time>2011-06-04T09:13:54Z</time>
      </trkpt>
      <trkpt lat="44.69182" lon="6.90895">
        <ele>2736.4</ele>
        <time>2011-06-04T09:13:58Z</time>
      </trkpt>
      <trkpt lat="44.69182" lon="6.90894">
        <ele>2736.6</ele>
        <time>2011-06-04T09:13:59Z</time>
      </trkpt>
      <trkpt lat="44.69182" lon="6.90893">
        <ele>2736.8</ele>
        <time>2011-06-04T09:14:00Z</time>
      </trkpt>
      <trkpt lat="44.69181" lon="6.90889">
        <ele>2738</ele>
        <time>2011-06-04T09:14:04Z</time>
      </trkpt>
      <trkpt lat="44.69181" lon="6.90887">
        <ele>2738.6</ele>
        <time>2011-06-04T09:14:06Z</time>
      </trkpt>
      <trkpt lat="44.69182" lon="6.90884">
        <ele>2739.4</ele>
        <time>2011-06-04T09:14:09Z</time>
      </trkpt>
      <trkpt lat="44.69181" lon="6.90881">
        <ele>2740.4</ele>
        <time>2011-06-04T09:14:13Z</time>
      </trkpt>
      <trkpt lat="44.69183" lon="6.90876">
        <ele>2741.8</ele>
        <time>2011-06-04T09:14:18Z</time>
      </trkpt>
      <trkpt lat="44.69185" lon="6.90876">
        <ele>2743</ele>
        <time>2011-06-04T09:14:22Z</time>
      </trkpt>
      <trkpt lat="44.69188" lon="6.90878">
        <ele>2744.4</ele>
        <time>2011-06-04T09:14:27Z</time>
      </trkpt>
      <trkpt lat="44.69191" lon="6.90879">
        <ele>2745.6</ele>
        <time>2011-06-04T09:14:32Z</time>
      </trkpt>
      <trkpt lat="44.69191" lon="6.90878">
        <ele>2746</ele>
        <time>2011-06-04T09:14:34Z</time>
      </trkpt>
      <trkpt lat="44.69193" lon="6.90877">
        <ele>2746.8</ele>
        <time>2011-06-04T09:14:37Z</time>
      </trkpt>
      <trkpt lat="44.69196" lon="6.90875">
        <ele>2748.2</ele>
        <time>2011-06-04T09:14:44Z</time>
      </trkpt>
      <trkpt lat="44.69199" lon="6.90869">
        <ele>2749.8</ele>
        <time>2011-06-04T09:14:51Z</time>
      </trkpt>
      <trkpt lat="44.692" lon="6.90863">
        <ele>2751.2</ele>
        <time>2011-06-04T09:14:59Z</time>
      </trkpt>
      <trkpt lat="44.69201" lon="6.90861">
        <ele>2751.8</ele>
        <time>2011-06-04T09:15:04Z</time>
      </trkpt>
      <trkpt lat="44.69202" lon="6.90859">
        <ele>2752.4</ele>
        <time>2011-06-04T09:15:07Z</time>
      </trkpt>
      <trkpt lat="44.69202" lon="6.90858">
        <ele>2752.6</ele>
        <time>2011-06-04T09:15:09Z</time>
      </trkpt>
      <trkpt lat="44.69202" lon="6.90856">
        <ele>2753</ele>
        <time>2011-06-04T09:15:13Z</time>
      </trkpt>
      <trkpt lat="44.69201" lon="6.9085">
        <ele>2754</ele>
        <time>2011-06-04T09:15:19Z</time>
      </trkpt>
      <trkpt lat="44.692" lon="6.90845">
        <ele>2755</ele>
        <time>2011-06-04T09:15:24Z</time>
      </trkpt>
      <trkpt lat="44.69199" lon="6.90844">
        <ele>2755.6</ele>
        <time>2011-06-04T09:15:28Z</time>
      </trkpt>
      <trkpt lat="44.69197" lon="6.9084">
        <ele>2756.6</ele>
        <time>2011-06-04T09:15:32Z</time>
      </trkpt>
      <trkpt lat="44.69197" lon="6.90837">
        <ele>2757.6</ele>
        <time>2011-06-04T09:15:36Z</time>
      </trkpt>
      <trkpt lat="44.69198" lon="6.90833">
        <ele>2759</ele>
        <time>2011-06-04T09:15:42Z</time>
      </trkpt>
      <trkpt lat="44.69199" lon="6.90829">
        <ele>2760.2</ele>
        <time>2011-06-04T09:15:47Z</time>
      </trkpt>
      <trkpt lat="44.69199" lon="6.90825">
        <ele>2761.2</ele>
        <time>2011-06-04T09:15:52Z</time>
      </trkpt>
      <trkpt lat="44.692" lon="6.90822">
        <ele>2762.2</ele>
        <time>2011-06-04T09:15:57Z</time>
      </trkpt>
      <trkpt lat="44.69199" lon="6.90819">
        <ele>2763</ele>
        <time>2011-06-04T09:16:01Z</time>
      </trkpt>
      <trkpt lat="44.69199" lon="6.90817">
        <ele>2764</ele>
        <time>2011-06-04T09:16:06Z</time>
      </trkpt>
      <trkpt lat="44.69199" lon="6.90813">
        <ele>2765</ele>
        <time>2011-06-04T09:16:10Z</time>
      </trkpt>
      <trkpt lat="44.69199" lon="6.90807">
        <ele>2766</ele>
        <time>2011-06-04T09:16:15Z</time>
      </trkpt>
      <trkpt lat="44.692" lon="6.90802">
        <ele>2767.4</ele>
        <time>2011-06-04T09:16:21Z</time>
      </trkpt>
      <trkpt lat="44.69202" lon="6.90799">
        <ele>2768.8</ele>
        <time>2011-06-04T09:16:26Z</time>
      </trkpt>
      <trkpt lat="44.69204" lon="6.90801">
        <ele>2770.2</ele>
        <time>2011-06-04T09:16:31Z</time>
      </trkpt>
      <trkpt lat="44.69206" lon="6.90802">
        <ele>2771.4</ele>
        <time>2011-06-04T09:16:36Z</time>
      </trkpt>
      <trkpt lat="44.69208" lon="6.90803">
        <ele>2772.4</ele>
        <time>2011-06-04T09:16:39Z</time>
      </trkpt>
      <trkpt lat="44.69209" lon="6.90803">
        <ele>2772.8</ele>
        <time>2011-06-04T09:16:41Z</time>
      </trkpt>
      <trkpt lat="44.69212" lon="6.90805">
        <ele>2774.2</ele>
        <time>2011-06-04T09:16:46Z</time>
      </trkpt>
      <trkpt lat="44.69216" lon="6.90807">
        <ele>2775.2</ele>
        <time>2011-06-04T09:16:51Z</time>
      </trkpt>
      <trkpt lat="44.69218" lon="6.90808">
        <ele>2776.2</ele>
        <time>2011-06-04T09:16:55Z</time>
      </trkpt>
      <trkpt lat="44.6922" lon="6.90809">
        <ele>2777</ele>
        <time>2011-06-04T09:16:59Z</time>
      </trkpt>
      <trkpt lat="44.69222" lon="6.90809">
        <ele>2778.2</ele>
        <time>2011-06-04T09:17:04Z</time>
      </trkpt>
      <trkpt lat="44.69225" lon="6.90811">
        <ele>2779.2</ele>
        <time>2011-06-04T09:17:08Z</time>
      </trkpt>
      <trkpt lat="44.69225" lon="6.90811">
        <ele>2779.4</ele>
        <time>2011-06-04T09:17:09Z</time>
      </trkpt>
      <trkpt lat="44.69227" lon="6.90813">
        <ele>2780.2</ele>
        <time>2011-06-04T09:17:13Z</time>
      </trkpt>
      <trkpt lat="44.6923" lon="6.90814">
        <ele>2781.2</ele>
        <time>2011-06-04T09:17:17Z</time>
      </trkpt>
      <trkpt lat="44.69233" lon="6.90815">
        <ele>2782</ele>
        <time>2011-06-04T09:17:21Z</time>
      </trkpt>
      <trkpt lat="44.69236" lon="6.90816">
        <ele>2783</ele>
        <time>2011-06-04T09:17:26Z</time>
      </trkpt>
      <trkpt lat="44.69238" lon="6.90816">
        <ele>2784</ele>
        <time>2011-06-04T09:17:31Z</time>
      </trkpt>
      <trkpt lat="44.69241" lon="6.90817">
        <ele>2785</ele>
        <time>2011-06-04T09:17:36Z</time>
      </trkpt>
      <trkpt lat="44.69245" lon="6.90819">
        <ele>2786.2</ele>
        <time>2011-06-04T09:17:42Z</time>
      </trkpt>
      <trkpt lat="44.69248" lon="6.9082">
        <ele>2787</ele>
        <time>2011-06-04T09:17:46Z</time>
      </trkpt>
      <trkpt lat="44.6925" lon="6.9082">
        <ele>2787.8</ele>
        <time>2011-06-04T09:17:50Z</time>
      </trkpt>
      <trkpt lat="44.69253" lon="6.9082">
        <ele>2789</ele>
        <time>2011-06-04T09:17:55Z</time>
      </trkpt>
      <trkpt lat="44.69256" lon="6.90819">
        <ele>2790.2</ele>
        <time>2011-06-04T09:18:00Z</time>
      </trkpt>
      <trkpt lat="44.69259" lon="6.90819">
        <ele>2791</ele>
        <time>2011-06-04T09:18:03Z</time>
      </trkpt>
      <trkpt lat="44.6926" lon="6.90819">
        <ele>2791.4</ele>
        <time>2011-06-04T09:18:05Z</time>
      </trkpt>
      <trkpt lat="44.69262" lon="6.90819">
        <ele>2792.2</ele>
        <time>2011-06-04T09:18:09Z</time>
      </trkpt>
      <trkpt lat="44.69264" lon="6.90818">
        <ele>2793.4</ele>
        <time>2011-06-04T09:18:14Z</time>
      </trkpt>
      <trkpt lat="44.69263" lon="6.90815">
        <ele>2794.2</ele>
        <time>2011-06-04T09:18:18Z</time>
      </trkpt>
      <trkpt lat="44.69263" lon="6.90813">
        <ele>2795.4</ele>
        <time>2011-06-04T09:18:24Z</time>
      </trkpt>
      <trkpt lat="44.69262" lon="6.9081">
        <ele>2796.8</ele>
        <time>2011-06-04T09:18:30Z</time>
      </trkpt>
      <trkpt lat="44.69262" lon="6.90807">
        <ele>2797.4</ele>
        <time>2011-06-04T09:18:33Z</time>
      </trkpt>
      <trkpt lat="44.69263" lon="6.90804">
        <ele>2798.4</ele>
        <time>2011-06-04T09:18:37Z</time>
      </trkpt>
      <trkpt lat="44.69263" lon="6.90803">
        <ele>2798.6</ele>
        <time>2011-06-04T09:18:38Z</time>
      </trkpt>
      <trkpt lat="44.69265" lon="6.90801">
        <ele>2799.6</ele>
        <time>2011-06-04T09:18:42Z</time>
      </trkpt>
      <trkpt lat="44.69269" lon="6.90803">
        <ele>2800.8</ele>
        <time>2011-06-04T09:18:47Z</time>
      </trkpt>
      <trkpt lat="44.69272" lon="6.90802">
        <ele>2802</ele>
        <time>2011-06-04T09:18:52Z</time>
      </trkpt>
      <trkpt lat="44.69275" lon="6.908">
        <ele>2802.8</ele>
        <time>2011-06-04T09:18:56Z</time>
      </trkpt>
      <trkpt lat="44.69277" lon="6.90797">
        <ele>2803.6</ele>
        <time>2011-06-04T09:19:00Z</time>
      </trkpt>
      <trkpt lat="44.69278" lon="6.90796">
        <ele>2804.2</ele>
        <time>2011-06-04T09:19:02Z</time>
      </trkpt>
      <trkpt lat="44.69279" lon="6.90796">
        <ele>2804.6</ele>
        <time>2011-06-04T09:19:04Z</time>
      </trkpt>
      <trkpt lat="44.69281" lon="6.90798">
        <ele>2805.8</ele>
        <time>2011-06-04T09:19:08Z</time>
      </trkpt>
      <trkpt lat="44.69283" lon="6.90799">
        <ele>2806.4</ele>
        <time>2011-06-04T09:19:11Z</time>
      </trkpt>
      <trkpt lat="44.69284" lon="6.90799">
        <ele>2806.8</ele>
        <time>2011-06-04T09:19:12Z</time>
      </trkpt>
      <trkpt lat="44.69286" lon="6.90799">
        <ele>2807.8</ele>
        <time>2011-06-04T09:19:16Z</time>
      </trkpt>
      <trkpt lat="44.6929" lon="6.908">
        <ele>2809.4</ele>
        <time>2011-06-04T09:19:22Z</time>
      </trkpt>
      <trkpt lat="44.69293" lon="6.90799">
        <ele>2810.4</ele>
        <time>2011-06-04T09:19:26Z</time>
      </trkpt>
      <trkpt lat="44.69296" lon="6.90799">
        <ele>2810.8</ele>
        <time>2011-06-04T09:19:28Z</time>
      </trkpt>
      <trkpt lat="44.69297" lon="6.90798">
        <ele>2811.2</ele>
        <time>2011-06-04T09:19:30Z</time>
      </trkpt>
      <trkpt lat="44.693" lon="6.90798">
        <ele>2811.6</ele>
        <time>2011-06-04T09:19:32Z</time>
      </trkpt>
      <trkpt lat="44.69301" lon="6.90797">
        <ele>2811.8</ele>
        <time>2011-06-04T09:19:33Z</time>
      </trkpt>
      <trkpt lat="44.69303" lon="6.90798">
        <ele>2812.4</ele>
        <time>2011-06-04T09:19:36Z</time>
      </trkpt>
      <trkpt lat="44.69304" lon="6.90798">
        <ele>2812.6</ele>
        <time>2011-06-04T09:19:37Z</time>
      </trkpt>
      <trkpt lat="44.69306" lon="6.90799">
        <ele>2813.4</ele>
        <time>2011-06-04T09:19:40Z</time>
      </trkpt>
      <trkpt lat="44.69311" lon="6.908">
        <ele>2814.2</ele>
        <time>2011-06-04T09:19:45Z</time>
      </trkpt>
      <trkpt lat="44.69312" lon="6.908">
        <ele>2814.4</ele>
        <time>2011-06-04T09:19:46Z</time>
      </trkpt>
      <trkpt lat="44.69314" lon="6.908">
        <ele>2814.6</ele>
        <time>2011-06-04T09:19:47Z</time>
      </trkpt>
      <trkpt lat="44.69316" lon="6.908">
        <ele>2815</ele>
        <time>2011-06-04T09:19:49Z</time>
      </trkpt>
      <trkpt lat="44.69319" lon="6.90801">
        <ele>2815.6</ele>
        <time>2011-06-04T09:19:52Z</time>
      </trkpt>
      <trkpt lat="44.69319" lon="6.90801">
        <ele>2815.8</ele>
        <time>2011-06-04T09:19:53Z</time>
      </trkpt>
      <trkpt lat="44.69324" lon="6.90803">
        <ele>2816.6</ele>
        <time>2011-06-04T09:19:58Z</time>
      </trkpt>
      <trkpt lat="44.69328" lon="6.90805">
        <ele>2817.6</ele>
        <time>2011-06-04T09:20:03Z</time>
      </trkpt>
      <trkpt lat="44.6933" lon="6.90807">
        <ele>2818</ele>
        <time>2011-06-04T09:20:05Z</time>
      </trkpt>
      <trkpt lat="44.69331" lon="6.90807">
        <ele>2818.2</ele>
        <time>2011-06-04T09:20:06Z</time>
      </trkpt>
      <trkpt lat="44.69332" lon="6.90807">
        <ele>2818.4</ele>
        <time>2011-06-04T09:20:07Z</time>
      </trkpt>
      <trkpt lat="44.69336" lon="6.90809">
        <ele>2819</ele>
        <time>2011-06-04T09:20:11Z</time>
      </trkpt>
      <trkpt lat="44.6934" lon="6.90813">
        <ele>2819.8</ele>
        <time>2011-06-04T09:20:16Z</time>
      </trkpt>
      <trkpt lat="44.69343" lon="6.90817">
        <ele>2820.6</ele>
        <time>2011-06-04T09:20:21Z</time>
      </trkpt>
      <trkpt lat="44.69345" lon="6.90819">
        <ele>2821.4</ele>
        <time>2011-06-04T09:20:25Z</time>
      </trkpt>
      <trkpt lat="44.69348" lon="6.90822">
        <ele>2822.4</ele>
        <time>2011-06-04T09:20:30Z</time>
      </trkpt>
      <trkpt lat="44.69351" lon="6.90826">
        <ele>2823.4</ele>
        <time>2011-06-04T09:20:35Z</time>
      </trkpt>
      <trkpt lat="44.69353" lon="6.9083">
        <ele>2824.6</ele>
        <time>2011-06-04T09:20:40Z</time>
      </trkpt>
      <trkpt lat="44.69354" lon="6.90832">
        <ele>2825.6</ele>
        <time>2011-06-04T09:20:44Z</time>
      </trkpt>
      <trkpt lat="44.69357" lon="6.90835">
        <ele>2827</ele>
        <time>2011-06-04T09:20:50Z</time>
      </trkpt>
      <trkpt lat="44.69357" lon="6.90836">
        <ele>2827.2</ele>
        <time>2011-06-04T09:20:51Z</time>
      </trkpt>
      <trkpt lat="44.69358" lon="6.90838">
        <ele>2828</ele>
        <time>2011-06-04T09:20:54Z</time>
      </trkpt>
      <trkpt lat="44.6936" lon="6.90839">
        <ele>2829.2</ele>
        <time>2011-06-04T09:20:59Z</time>
      </trkpt>
      <trkpt lat="44.69362" lon="6.90842">
        <ele>2830.4</ele>
        <time>2011-06-04T09:21:04Z</time>
      </trkpt>
      <trkpt lat="44.69364" lon="6.90844">
        <ele>2831.6</ele>
        <time>2011-06-04T09:21:09Z</time>
      </trkpt>
      <trkpt lat="44.69365" lon="6.90847">
        <ele>2832.4</ele>
        <time>2011-06-04T09:21:13Z</time>
      </trkpt>
      <trkpt lat="44.69368" lon="6.9085">
        <ele>2834</ele>
        <time>2011-06-04T09:21:19Z</time>
      </trkpt>
      <trkpt lat="44.6937" lon="6.90853">
        <ele>2834.8</ele>
        <time>2011-06-04T09:21:23Z</time>
      </trkpt>
      <trkpt lat="44.69372" lon="6.90855">
        <ele>2835.6</ele>
        <time>2011-06-04T09:21:27Z</time>
      </trkpt>
      <trkpt lat="44.69375" lon="6.90858">
        <ele>2836.8</ele>
        <time>2011-06-04T09:21:32Z</time>
      </trkpt>
      <trkpt lat="44.69377" lon="6.9086">
        <ele>2837.6</ele>
        <time>2011-06-04T09:21:36Z</time>
      </trkpt>
      <trkpt lat="44.69379" lon="6.90862">
        <ele>2838.8</ele>
        <time>2011-06-04T09:21:41Z</time>
      </trkpt>
      <trkpt lat="44.6938" lon="6.90864">
        <ele>2839.8</ele>
        <time>2011-06-04T09:21:46Z</time>
      </trkpt>
      <trkpt lat="44.69383" lon="6.90865">
        <ele>2841.8</ele>
        <time>2011-06-04T09:21:55Z</time>
      </trkpt>
      <trkpt lat="44.69384" lon="6.90865">
        <ele>2843.2</ele>
        <time>2011-06-04T09:22:00Z</time>
      </trkpt>
      <trkpt lat="44.69384" lon="6.90865">
        <ele>2843.4</ele>
        <time>2011-06-04T09:22:01Z</time>
      </trkpt>
      <trkpt lat="44.69385" lon="6.90867">
        <ele>2844.6</ele>
        <time>2011-06-04T09:22:07Z</time>
      </trkpt>
      <trkpt lat="44.69387" lon="6.90867">
        <ele>2848</ele>
        <time>2011-06-04T09:22:30Z</time>
      </trkpt>
      <trkpt lat="44.69386" lon="6.90859">
        <ele>2848.8</ele>
        <time>2011-06-04T09:22:47Z</time>
      </trkpt>
      <trkpt lat="44.69386" lon="6.90849">
        <ele>2849.2</ele>
        <time>2011-06-04T09:22:54Z</time>
      </trkpt>
      <trkpt lat="44.69386" lon="6.90848">
        <ele>2849.4</ele>
        <time>2011-06-04T09:22:55Z</time>
      </trkpt>
      <trkpt lat="44.69387" lon="6.90837">
        <ele>2849.6</ele>
        <time>2011-06-04T09:23:02Z</time>
      </trkpt>
      <trkpt lat="44.69388" lon="6.90822">
        <ele>2850.4</ele>
        <time>2011-06-04T09:23:11Z</time>
      </trkpt>
      <trkpt lat="44.69388" lon="6.90818">
        <ele>2850.6</ele>
        <time>2011-06-04T09:23:13Z</time>
      </trkpt>
      <trkpt lat="44.69391" lon="6.90801">
        <ele>2851.4</ele>
        <time>2011-06-04T09:23:24Z</time>
      </trkpt>
      <trkpt lat="44.69391" lon="6.90796">
        <ele>2851.6</ele>
        <time>2011-06-04T09:23:27Z</time>
      </trkpt>
      <trkpt lat="44.69393" lon="6.90789">
        <ele>2851.8</ele>
        <time>2011-06-04T09:23:32Z</time>
      </trkpt>
      <trkpt lat="44.69396" lon="6.90777">
        <ele>2852.4</ele>
        <time>2011-06-04T09:23:41Z</time>
      </trkpt>
      <trkpt lat="44.69398" lon="6.90772">
        <ele>2852.4</ele>
        <time>2011-06-04T09:23:45Z</time>
      </trkpt>
      <trkpt lat="44.69399" lon="6.9077">
        <ele>2852.6</ele>
        <time>2011-06-04T09:23:46Z</time>
      </trkpt>
      <trkpt lat="44.69402" lon="6.90764">
        <ele>2852.8</ele>
        <time>2011-06-04T09:23:51Z</time>
      </trkpt>
      <trkpt lat="44.69406" lon="6.90755">
        <ele>2853.4</ele>
        <time>2011-06-04T09:23:59Z</time>
      </trkpt>
      <trkpt lat="44.69409" lon="6.9075">
        <ele>2853.6</ele>
        <time>2011-06-04T09:24:03Z</time>
      </trkpt>
      <trkpt lat="44.6941" lon="6.90748">
        <ele>2853.8</ele>
        <time>2011-06-04T09:24:05Z</time>
      </trkpt>
      <trkpt lat="44.69416" lon="6.90738">
        <ele>2854.4</ele>
        <time>2011-06-04T09:24:14Z</time>
      </trkpt>
      <trkpt lat="44.69421" lon="6.90735">
        <ele>2855</ele>
        <time>2011-06-04T09:24:21Z</time>
      </trkpt>
      <trkpt lat="44.69423" lon="6.90734">
        <ele>2855.2</ele>
        <time>2011-06-04T09:24:23Z</time>
      </trkpt>
      <trkpt lat="44.69424" lon="6.90734">
        <ele>2855.2</ele>
        <time>2011-06-04T09:24:25Z</time>
      </trkpt>
      <trkpt lat="44.69426" lon="6.90732">
        <ele>2855.4</ele>
        <time>2011-06-04T09:24:27Z</time>
      </trkpt>
      <trkpt lat="44.6943" lon="6.90733">
        <ele>2856</ele>
        <time>2011-06-04T09:24:32Z</time>
      </trkpt>
      <trkpt lat="44.69431" lon="6.90734">
        <ele>2856.2</ele>
        <time>2011-06-04T09:24:34Z</time>
      </trkpt>
      <trkpt lat="44.69433" lon="6.90735">
        <ele>2856.4</ele>
        <time>2011-06-04T09:24:36Z</time>
      </trkpt>
      <trkpt lat="44.69434" lon="6.90736">
        <ele>2856.8</ele>
        <time>2011-06-04T09:24:39Z</time>
      </trkpt>
      <trkpt lat="44.69435" lon="6.90736">
        <ele>2857</ele>
        <time>2011-06-04T09:24:40Z</time>
      </trkpt>
      <trkpt lat="44.69437" lon="6.90736">
        <ele>2857.6</ele>
        <time>2011-06-04T09:24:44Z</time>
      </trkpt>
      <trkpt lat="44.69438" lon="6.90736">
        <ele>2857.8</ele>
        <time>2011-06-04T09:24:45Z</time>
      </trkpt>
      <trkpt lat="44.6944" lon="6.90737">
        <ele>2858.4</ele>
        <time>2011-06-04T09:24:49Z</time>
      </trkpt>
      <trkpt lat="44.69444" lon="6.90737">
        <ele>2859.4</ele>
        <time>2011-06-04T09:24:54Z</time>
      </trkpt>
      <trkpt lat="44.69449" lon="6.90736">
        <ele>2860.8</ele>
        <time>2011-06-04T09:25:01Z</time>
      </trkpt>
      <trkpt lat="44.69451" lon="6.90738">
        <ele>2861.8</ele>
        <time>2011-06-04T09:25:06Z</time>
      </trkpt>
      <trkpt lat="44.69453" lon="6.9074">
        <ele>2862.4</ele>
        <time>2011-06-04T09:25:10Z</time>
      </trkpt>
      <trkpt lat="44.69454" lon="6.9074">
        <ele>2863.2</ele>
        <time>2011-06-04T09:25:14Z</time>
      </trkpt>
      <trkpt lat="44.69455" lon="6.9074">
        <ele>2863.4</ele>
        <time>2011-06-04T09:25:15Z</time>
      </trkpt>
      <trkpt lat="44.69457" lon="6.90737">
        <ele>2864</ele>
        <time>2011-06-04T09:25:19Z</time>
      </trkpt>
      <trkpt lat="44.69458" lon="6.90732">
        <ele>2864.8</ele>
        <time>2011-06-04T09:25:24Z</time>
      </trkpt>
      <trkpt lat="44.6946" lon="6.90727">
        <ele>2865.8</ele>
        <time>2011-06-04T09:25:30Z</time>
      </trkpt>
      <trkpt lat="44.69463" lon="6.90721">
        <ele>2866.6</ele>
        <time>2011-06-04T09:25:36Z</time>
      </trkpt>
      <trkpt lat="44.69463" lon="6.90721">
        <ele>2867.6</ele>
        <time>2011-06-04T09:25:42Z</time>
      </trkpt>
      <trkpt lat="44.69463" lon="6.9072">
        <ele>2867.8</ele>
        <time>2011-06-04T09:25:43Z</time>
      </trkpt>
      <trkpt lat="44.69465" lon="6.90718">
        <ele>2868.4</ele>
        <time>2011-06-04T09:25:48Z</time>
      </trkpt>
      <trkpt lat="44.6947" lon="6.90713">
        <ele>2869.2</ele>
        <time>2011-06-04T09:25:55Z</time>
      </trkpt>
      <trkpt lat="44.69472" lon="6.90713">
        <ele>2869.8</ele>
        <time>2011-06-04T09:26:01Z</time>
      </trkpt>
      <trkpt lat="44.69474" lon="6.90713">
        <ele>2870.2</ele>
        <time>2011-06-04T09:26:05Z</time>
      </trkpt>
      <trkpt lat="44.69476" lon="6.90713">
        <ele>2870.8</ele>
        <time>2011-06-04T09:26:10Z</time>
      </trkpt>
      <trkpt lat="44.69477" lon="6.90715">
        <ele>2872.6</ele>
        <time>2011-06-04T09:26:26Z</time>
      </trkpt>
      <trkpt lat="44.69478" lon="6.90717">
        <ele>2873</ele>
        <time>2011-06-04T09:26:28Z</time>
      </trkpt>
      <trkpt lat="44.69479" lon="6.90722">
        <ele>2873.8</ele>
        <time>2011-06-04T09:26:34Z</time>
      </trkpt>
      <trkpt lat="44.6948" lon="6.90726">
        <ele>2874.6</ele>
        <time>2011-06-04T09:26:40Z</time>
      </trkpt>
      <trkpt lat="44.69481" lon="6.90731">
        <ele>2875.2</ele>
        <time>2011-06-04T09:26:46Z</time>
      </trkpt>
      <trkpt lat="44.69482" lon="6.90734">
        <ele>2876</ele>
        <time>2011-06-04T09:26:51Z</time>
      </trkpt>
      <trkpt lat="44.69483" lon="6.90737">
        <ele>2876.6</ele>
        <time>2011-06-04T09:26:56Z</time>
      </trkpt>
      <trkpt lat="44.69484" lon="6.90738">
        <ele>2876.8</ele>
        <time>2011-06-04T09:26:57Z</time>
      </trkpt>
      <trkpt lat="44.69484" lon="6.9074">
        <ele>2877.4</ele>
        <time>2011-06-04T09:27:02Z</time>
      </trkpt>
      <trkpt lat="44.69484" lon="6.90744">
        <ele>2878</ele>
        <time>2011-06-04T09:27:08Z</time>
      </trkpt>
      <trkpt lat="44.69483" lon="6.9075">
        <ele>2878.8</ele>
        <time>2011-06-04T09:27:15Z</time>
      </trkpt>
      <trkpt lat="44.69483" lon="6.90748">
        <ele>2879.6</ele>
        <time>2011-06-04T09:27:25Z</time>
      </trkpt>
      <trkpt lat="44.69485" lon="6.90748">
        <ele>2880.6</ele>
        <time>2011-06-04T09:27:45Z</time>
      </trkpt>
      <trkpt lat="44.69488" lon="6.90751">
        <ele>2880.8</ele>
        <time>2011-06-04T09:27:48Z</time>
      </trkpt>
      <trkpt lat="44.69489" lon="6.90752">
        <ele>2881</ele>
        <time>2011-06-04T09:27:50Z</time>
      </trkpt>
      <trkpt lat="44.69491" lon="6.90753">
        <ele>2881.6</ele>
        <time>2011-06-04T09:27:55Z</time>
      </trkpt>
      <trkpt lat="44.69495" lon="6.90753">
        <ele>2882.4</ele>
        <time>2011-06-04T09:28:02Z</time>
      </trkpt>
      <trkpt lat="44.69497" lon="6.90756">
        <ele>2883</ele>
        <time>2011-06-04T09:28:06Z</time>
      </trkpt>
      <trkpt lat="44.69499" lon="6.90756">
        <ele>2883.8</ele>
        <time>2011-06-04T09:28:12Z</time>
      </trkpt>
      <trkpt lat="44.69501" lon="6.90755">
        <ele>2884.6</ele>
        <time>2011-06-04T09:28:17Z</time>
      </trkpt>
      <trkpt lat="44.69502" lon="6.90754">
        <ele>2886</ele>
        <time>2011-06-04T09:28:29Z</time>
      </trkpt>
      <trkpt lat="44.69501" lon="6.90751">
        <ele>2887</ele>
        <time>2011-06-04T09:28:41Z</time>
      </trkpt>
      <trkpt lat="44.69503" lon="6.90747">
        <ele>2887.6</ele>
        <time>2011-06-04T09:28:47Z</time>
      </trkpt>
      <trkpt lat="44.69502" lon="6.90741">
        <ele>2888</ele>
        <time>2011-06-04T09:28:53Z</time>
      </trkpt>
      <trkpt lat="44.69503" lon="6.90733">
        <ele>2888.8</ele>
        <time>2011-06-04T09:29:01Z</time>
      </trkpt>
      <trkpt lat="44.69503" lon="6.90731">
        <ele>2889</ele>
        <time>2011-06-04T09:29:03Z</time>
      </trkpt>
      <trkpt lat="44.69504" lon="6.90726">
        <ele>2889.4</ele>
        <time>2011-06-04T09:29:08Z</time>
      </trkpt>
      <trkpt lat="44.69506" lon="6.9072">
        <ele>2890</ele>
        <time>2011-06-04T09:29:15Z</time>
      </trkpt>
      <trkpt lat="44.69506" lon="6.90713">
        <ele>2890.4</ele>
        <time>2011-06-04T09:29:20Z</time>
      </trkpt>
      <trkpt lat="44.69506" lon="6.90712">
        <ele>2890.4</ele>
        <time>2011-06-04T09:29:21Z</time>
      </trkpt>
      <trkpt lat="44.69505" lon="6.90708">
        <ele>2890.8</ele>
        <time>2011-06-04T09:29:26Z</time>
      </trkpt>
      <trkpt lat="44.69506" lon="6.90709">
        <ele>2891</ele>
        <time>2011-06-04T09:29:28Z</time>
      </trkpt>
      <trkpt lat="44.69509" lon="6.90711">
        <ele>2891.2</ele>
        <time>2011-06-04T09:29:32Z</time>
      </trkpt>
      <trkpt lat="44.69512" lon="6.90713">
        <ele>2891.4</ele>
        <time>2011-06-04T09:29:37Z</time>
      </trkpt>
      <trkpt lat="44.69517" lon="6.90725">
        <ele>2891.6</ele>
        <time>2011-06-04T09:29:46Z</time>
      </trkpt>
      <trkpt lat="44.69517" lon="6.90726">
        <ele>2891.6</ele>
        <time>2011-06-04T09:29:47Z</time>
      </trkpt>
      <trkpt lat="44.69518" lon="6.90733">
        <ele>2891.6</ele>
        <time>2011-06-04T09:29:53Z</time>
      </trkpt>
      <trkpt lat="44.69517" lon="6.90739">
        <ele>2891.8</ele>
        <time>2011-06-04T09:29:58Z</time>
      </trkpt>
      <trkpt lat="44.69516" lon="6.9074">
        <ele>2891.8</ele>
        <time>2011-06-04T09:30:00Z</time>
      </trkpt>
      <trkpt lat="44.69515" lon="6.90741">
        <ele>2891.8</ele>
        <time>2011-06-04T09:30:05Z</time>
      </trkpt>
      <trkpt lat="44.69515" lon="6.90746">
        <ele>2891.8</ele>
        <time>2011-06-04T09:30:11Z</time>
      </trkpt>
      <trkpt lat="44.69515" lon="6.90749">
        <ele>2891.8</ele>
        <time>2011-06-04T09:30:14Z</time>
      </trkpt>
      <trkpt lat="44.69515" lon="6.90752">
        <ele>2891.8</ele>
        <time>2011-06-04T09:30:16Z</time>
      </trkpt>
      <trkpt lat="44.69516" lon="6.9076">
        <ele>2891.8</ele>
        <time>2011-06-04T09:30:22Z</time>
      </trkpt>
      <trkpt lat="44.69515" lon="6.9077">
        <ele>2891.6</ele>
        <time>2011-06-04T09:30:30Z</time>
      </trkpt>
      <trkpt lat="44.69515" lon="6.90771">
        <ele>2891.6</ele>
        <time>2011-06-04T09:30:31Z</time>
      </trkpt>
      <trkpt lat="44.69515" lon="6.90773">
        <ele>2891.6</ele>
        <time>2011-06-04T09:30:33Z</time>
      </trkpt>
      <trkpt lat="44.69515" lon="6.90775">
        <ele>2891.8</ele>
        <time>2011-06-04T09:30:35Z</time>
      </trkpt>
      <trkpt lat="44.69514" lon="6.90781">
        <ele>2891.8</ele>
        <time>2011-06-04T09:30:40Z</time>
      </trkpt>
      <trkpt lat="44.69511" lon="6.90789">
        <ele>2892</ele>
        <time>2011-06-04T09:30:46Z</time>
      </trkpt>
      <trkpt lat="44.69511" lon="6.90799">
        <ele>2892.4</ele>
        <time>2011-06-04T09:30:53Z</time>
      </trkpt>
      <trkpt lat="44.69511" lon="6.908">
        <ele>2892.6</ele>
        <time>2011-06-04T09:30:54Z</time>
      </trkpt>
      <trkpt lat="44.69512" lon="6.90806">
        <ele>2892.8</ele>
        <time>2011-06-04T09:30:59Z</time>
      </trkpt>
      <trkpt lat="44.69509" lon="6.90817">
        <ele>2893.2</ele>
        <time>2011-06-04T09:31:06Z</time>
      </trkpt>
      <trkpt lat="44.6951" lon="6.9082">
        <ele>2893.4</ele>
        <time>2011-06-04T09:31:12Z</time>
      </trkpt>
      <trkpt lat="44.69511" lon="6.90817">
        <ele>2893.6</ele>
        <time>2011-06-04T09:31:16Z</time>
      </trkpt>
      <trkpt lat="44.69511" lon="6.90816">
        <ele>2893.8</ele>
        <time>2011-06-04T09:31:17Z</time>
      </trkpt>
      <trkpt lat="44.69512" lon="6.90812">
        <ele>2894</ele>
        <time>2011-06-04T09:31:21Z</time>
      </trkpt>
      <trkpt lat="44.69515" lon="6.90802">
        <ele>2894.2</ele>
        <time>2011-06-04T09:31:27Z</time>
      </trkpt>
      <trkpt lat="44.69518" lon="6.90794">
        <ele>2894.4</ele>
        <time>2011-06-04T09:31:34Z</time>
      </trkpt>
      <trkpt lat="44.6952" lon="6.90791">
        <ele>2894.6</ele>
        <time>2011-06-04T09:31:37Z</time>
      </trkpt>
      <trkpt lat="44.69521" lon="6.90787">
        <ele>2894.8</ele>
        <time>2011-06-04T09:31:41Z</time>
      </trkpt>
      <trkpt lat="44.69522" lon="6.90785">
        <ele>2894.8</ele>
        <time>2011-06-04T09:31:43Z</time>
      </trkpt>
      <trkpt lat="44.69522" lon="6.90777">
        <ele>2895.2</ele>
        <time>2011-06-04T09:31:49Z</time>
      </trkpt>
      <trkpt lat="44.69522" lon="6.90775">
        <ele>2895.4</ele>
        <time>2011-06-04T09:31:50Z</time>
      </trkpt>
      <trkpt lat="44.69522" lon="6.90773">
        <ele>2895.8</ele>
        <time>2011-06-04T09:31:56Z</time>
      </trkpt>
      <trkpt lat="44.69522" lon="6.90772">
        <ele>2896.2</ele>
        <time>2011-06-04T09:32:00Z</time>
      </trkpt>
      <trkpt lat="44.69524" lon="6.90769">
        <ele>2896.6</ele>
        <time>2011-06-04T09:32:03Z</time>
      </trkpt>
      <trkpt lat="44.69525" lon="6.90763">
        <ele>2897.2</ele>
        <time>2011-06-04T09:32:09Z</time>
      </trkpt>
      <trkpt lat="44.69528" lon="6.90756">
        <ele>2898</ele>
        <time>2011-06-04T09:32:17Z</time>
      </trkpt>
      <trkpt lat="44.6953" lon="6.90756">
        <ele>2898.4</ele>
        <time>2011-06-04T09:32:24Z</time>
      </trkpt>
      <trkpt lat="44.69532" lon="6.90756">
        <ele>2898.6</ele>
        <time>2011-06-04T09:32:33Z</time>
      </trkpt>
      <trkpt lat="44.69528" lon="6.90752">
        <ele>2900.6</ele>
        <time>2011-06-04T09:33:02Z</time>
      </trkpt>
      <trkpt lat="44.69528" lon="6.9075">
        <ele>2900.8</ele>
        <time>2011-06-04T09:33:04Z</time>
      </trkpt>
      <trkpt lat="44.69529" lon="6.9074">
        <ele>2901.6</ele>
        <time>2011-06-04T09:33:12Z</time>
      </trkpt>
      <trkpt lat="44.69529" lon="6.90734">
        <ele>2902.2</ele>
        <time>2011-06-04T09:33:18Z</time>
      </trkpt>
      <trkpt lat="44.6953" lon="6.90729">
        <ele>2902.8</ele>
        <time>2011-06-04T09:33:24Z</time>
      </trkpt>
      <trkpt lat="44.69531" lon="6.90727">
        <ele>2903.2</ele>
        <time>2011-06-04T09:33:31Z</time>
      </trkpt>
      <trkpt lat="44.6953" lon="6.90728">
        <ele>2903.4</ele>
        <time>2011-06-04T09:33:36Z</time>
      </trkpt>
      <trkpt lat="44.69531" lon="6.90721">
        <ele>2904</ele>
        <time>2011-06-04T09:33:43Z</time>
      </trkpt>
      <trkpt lat="44.69533" lon="6.90712">
        <ele>2904.4</ele>
        <time>2011-06-04T09:33:52Z</time>
      </trkpt>
      <trkpt lat="44.69534" lon="6.90707">
        <ele>2904.8</ele>
        <time>2011-06-04T09:33:59Z</time>
      </trkpt>
      <trkpt lat="44.69535" lon="6.90703">
        <ele>2904.8</ele>
        <time>2011-06-04T09:34:03Z</time>
      </trkpt>
      <trkpt lat="44.69535" lon="6.90701">
        <ele>2905</ele>
        <time>2011-06-04T09:34:05Z</time>
      </trkpt>
      <trkpt lat="44.69536" lon="6.90697">
        <ele>2905.2</ele>
        <time>2011-06-04T09:34:09Z</time>
      </trkpt>
      <trkpt lat="44.69537" lon="6.90692">
        <ele>2905.4</ele>
        <time>2011-06-04T09:34:15Z</time>
      </trkpt>
      <trkpt lat="44.69539" lon="6.90686">
        <ele>2905.6</ele>
        <time>2011-06-04T09:34:22Z</time>
      </trkpt>
      <trkpt lat="44.69541" lon="6.9068">
        <ele>2905.8</ele>
        <time>2011-06-04T09:34:28Z</time>
      </trkpt>
      <trkpt lat="44.69541" lon="6.90678">
        <ele>2906</ele>
        <time>2011-06-04T09:34:30Z</time>
      </trkpt>
      <trkpt lat="44.69542" lon="6.90674">
        <ele>2906.2</ele>
        <time>2011-06-04T09:34:35Z</time>
      </trkpt>
      <trkpt lat="44.69544" lon="6.90667">
        <ele>2906.8</ele>
        <time>2011-06-04T09:34:42Z</time>
      </trkpt>
      <trkpt lat="44.69546" lon="6.90659">
        <ele>2907.2</ele>
        <time>2011-06-04T09:34:49Z</time>
      </trkpt>
      <trkpt lat="44.69546" lon="6.90658">
        <ele>2907.4</ele>
        <time>2011-06-04T09:34:50Z</time>
      </trkpt>
      <trkpt lat="44.69546" lon="6.90657">
        <ele>2907.4</ele>
        <time>2011-06-04T09:34:51Z</time>
      </trkpt>
      <trkpt lat="44.69548" lon="6.90654">
        <ele>2907.8</ele>
        <time>2011-06-04T09:34:55Z</time>
      </trkpt>
      <trkpt lat="44.69549" lon="6.90657">
        <ele>2908.2</ele>
        <time>2011-06-04T09:34:59Z</time>
      </trkpt>
      <trkpt lat="44.6955" lon="6.90659">
        <ele>2908.6</ele>
        <time>2011-06-04T09:35:04Z</time>
      </trkpt>
      <trkpt lat="44.69553" lon="6.90658">
        <ele>2909.4</ele>
        <time>2011-06-04T09:35:09Z</time>
      </trkpt>
      <trkpt lat="44.69556" lon="6.90661">
        <ele>2910.2</ele>
        <time>2011-06-04T09:35:16Z</time>
      </trkpt>
      <trkpt lat="44.69555" lon="6.90661">
        <ele>2910.8</ele>
        <time>2011-06-04T09:35:23Z</time>
      </trkpt>
      <trkpt lat="44.69556" lon="6.90661">
        <ele>2911.2</ele>
        <time>2011-06-04T09:35:27Z</time>
      </trkpt>
      <trkpt lat="44.69557" lon="6.90661">
        <ele>2911.4</ele>
        <time>2011-06-04T09:35:30Z</time>
      </trkpt>
      <trkpt lat="44.69559" lon="6.90661">
        <ele>2912</ele>
        <time>2011-06-04T09:35:37Z</time>
      </trkpt>
      <trkpt lat="44.69562" lon="6.9066">
        <ele>2912.4</ele>
        <time>2011-06-04T09:35:42Z</time>
      </trkpt>
      <trkpt lat="44.69565" lon="6.90659">
        <ele>2912.8</ele>
        <time>2011-06-04T09:35:46Z</time>
      </trkpt>
      <trkpt lat="44.69567" lon="6.90659">
        <ele>2913.4</ele>
        <time>2011-06-04T09:35:51Z</time>
      </trkpt>
      <trkpt lat="44.6957" lon="6.9066">
        <ele>2914</ele>
        <time>2011-06-04T09:35:56Z</time>
      </trkpt>
      <trkpt lat="44.69572" lon="6.90661">
        <ele>2914.8</ele>
        <time>2011-06-04T09:36:01Z</time>
      </trkpt>
      <trkpt lat="44.69573" lon="6.90662">
        <ele>2915.4</ele>
        <time>2011-06-04T09:36:05Z</time>
      </trkpt>
      <trkpt lat="44.69574" lon="6.90663">
        <ele>2915.6</ele>
        <time>2011-06-04T09:36:07Z</time>
      </trkpt>
      <trkpt lat="44.69575" lon="6.90665">
        <ele>2916.6</ele>
        <time>2011-06-04T09:36:13Z</time>
      </trkpt>
      <trkpt lat="44.69577" lon="6.90666">
        <ele>2917.6</ele>
        <time>2011-06-04T09:36:19Z</time>
      </trkpt>
      <trkpt lat="44.69582" lon="6.90663">
        <ele>2918.4</ele>
        <time>2011-06-04T09:36:26Z</time>
      </trkpt>
      <trkpt lat="44.69584" lon="6.90664">
        <ele>2919.2</ele>
        <time>2011-06-04T09:36:31Z</time>
      </trkpt>
      <trkpt lat="44.69587" lon="6.90662">
        <ele>2919.8</ele>
        <time>2011-06-04T09:36:36Z</time>
      </trkpt>
      <trkpt lat="44.69589" lon="6.90661">
        <ele>2920.4</ele>
        <time>2011-06-04T09:36:39Z</time>
      </trkpt>
      <trkpt lat="44.69589" lon="6.90661">
        <ele>2920.4</ele>
        <time>2011-06-04T09:36:40Z</time>
      </trkpt>
      <trkpt lat="44.69591" lon="6.9066">
        <ele>2920.8</ele>
        <time>2011-06-04T09:36:44Z</time>
      </trkpt>
      <trkpt lat="44.69596" lon="6.90658">
        <ele>2921.8</ele>
        <time>2011-06-04T09:36:51Z</time>
      </trkpt>
      <trkpt lat="44.69601" lon="6.90654">
        <ele>2922.4</ele>
        <time>2011-06-04T09:36:59Z</time>
      </trkpt>
      <trkpt lat="44.69601" lon="6.90653">
        <ele>2923.6</ele>
        <time>2011-06-04T09:37:10Z</time>
      </trkpt>
      <trkpt lat="44.69602" lon="6.90648">
        <ele>2925.6</ele>
        <time>2011-06-04T09:37:31Z</time>
      </trkpt>
      <trkpt lat="44.69602" lon="6.90648">
        <ele>2925.6</ele>
        <time>2011-06-04T09:37:32Z</time>
      </trkpt>
      <trkpt lat="44.69605" lon="6.90642">
        <ele>2926.6</ele>
        <time>2011-06-04T09:37:39Z</time>
      </trkpt>
      <trkpt lat="44.6961" lon="6.90641">
        <ele>2927.6</ele>
        <time>2011-06-04T09:37:46Z</time>
      </trkpt>
      <trkpt lat="44.69614" lon="6.9064">
        <ele>2928.4</ele>
        <time>2011-06-04T09:37:52Z</time>
      </trkpt>
      <trkpt lat="44.69617" lon="6.90641">
        <ele>2929.2</ele>
        <time>2011-06-04T09:38:00Z</time>
      </trkpt>
      <trkpt lat="44.69617" lon="6.90641">
        <ele>2929.4</ele>
        <time>2011-06-04T09:38:01Z</time>
      </trkpt>
      <trkpt lat="44.69621" lon="6.90644">
        <ele>2929.8</ele>
        <time>2011-06-04T09:38:08Z</time>
      </trkpt>
      <trkpt lat="44.69626" lon="6.90645">
        <ele>2930.4</ele>
        <time>2011-06-04T09:38:16Z</time>
      </trkpt>
      <trkpt lat="44.6963" lon="6.90644">
        <ele>2930.6</ele>
        <time>2011-06-04T09:38:22Z</time>
      </trkpt>
      <trkpt lat="44.69634" lon="6.90642">
        <ele>2931.2</ele>
        <time>2011-06-04T09:38:29Z</time>
      </trkpt>
      <trkpt lat="44.69635" lon="6.90642">
        <ele>2931.2</ele>
        <time>2011-06-04T09:38:30Z</time>
      </trkpt>
      <trkpt lat="44.69637" lon="6.90641">
        <ele>2931.8</ele>
        <time>2011-06-04T09:38:37Z</time>
      </trkpt>
      <trkpt lat="44.69642" lon="6.90643">
        <ele>2933</ele>
        <time>2011-06-04T09:39:02Z</time>
      </trkpt>
      <trkpt lat="44.69645" lon="6.90647">
        <ele>2933</ele>
        <time>2011-06-04T09:39:08Z</time>
      </trkpt>
      <trkpt lat="44.69649" lon="6.90648">
        <ele>2933</ele>
        <time>2011-06-04T09:39:13Z</time>
      </trkpt>
      <trkpt lat="44.6965" lon="6.90649">
        <ele>2933</ele>
        <time>2011-06-04T09:39:14Z</time>
      </trkpt>
      <trkpt lat="44.69654" lon="6.9065">
        <ele>2933.2</ele>
        <time>2011-06-04T09:39:20Z</time>
      </trkpt>
      <trkpt lat="44.69655" lon="6.90653">
        <ele>2933.2</ele>
        <time>2011-06-04T09:39:23Z</time>
      </trkpt>
      <trkpt lat="44.69654" lon="6.90656">
        <ele>2933.2</ele>
        <time>2011-06-04T09:39:25Z</time>
      </trkpt>
      <trkpt lat="44.69652" lon="6.90661">
        <ele>2933.2</ele>
        <time>2011-06-04T09:39:31Z</time>
      </trkpt>
      <trkpt lat="44.69651" lon="6.90668">
        <ele>2933</ele>
        <time>2011-06-04T09:39:38Z</time>
      </trkpt>
      <trkpt lat="44.69652" lon="6.90669">
        <ele>2933</ele>
        <time>2011-06-04T09:39:40Z</time>
      </trkpt>
      <trkpt lat="44.69656" lon="6.90671">
        <ele>2933.4</ele>
        <time>2011-06-04T09:39:46Z</time>
      </trkpt>
      <trkpt lat="44.69661" lon="6.9067">
        <ele>2933.6</ele>
        <time>2011-06-04T09:39:53Z</time>
      </trkpt>
      <trkpt lat="44.69662" lon="6.90674">
        <ele>2934</ele>
        <time>2011-06-04T09:39:58Z</time>
      </trkpt>
      <trkpt lat="44.69666" lon="6.90676">
        <ele>2934.4</ele>
        <time>2011-06-04T09:40:04Z</time>
      </trkpt>
      <trkpt lat="44.69669" lon="6.90676">
        <ele>2934.8</ele>
        <time>2011-06-04T09:40:09Z</time>
      </trkpt>
      <trkpt lat="44.69671" lon="6.90679">
        <ele>2935.2</ele>
        <time>2011-06-04T09:40:13Z</time>
      </trkpt>
      <trkpt lat="44.69672" lon="6.90686">
        <ele>2935.8</ele>
        <time>2011-06-04T09:40:19Z</time>
      </trkpt>
      <trkpt lat="44.69675" lon="6.9069">
        <ele>2936.4</ele>
        <time>2011-06-04T09:40:26Z</time>
      </trkpt>
      <trkpt lat="44.69676" lon="6.90688">
        <ele>2937</ele>
        <time>2011-06-04T09:40:34Z</time>
      </trkpt>
      <trkpt lat="44.69675" lon="6.90688">
        <ele>2937.2</ele>
        <time>2011-06-04T09:40:35Z</time>
      </trkpt>
      <trkpt lat="44.69676" lon="6.90687">
        <ele>2937.4</ele>
        <time>2011-06-04T09:40:40Z</time>
      </trkpt>
      <trkpt lat="44.69676" lon="6.90687">
        <ele>2937.6</ele>
        <time>2011-06-04T09:40:52Z</time>
      </trkpt>
      <trkpt lat="44.69676" lon="6.90687">
        <ele>2938.4</ele>
        <time>2011-06-04T09:41:20Z</time>
      </trkpt>
      <trkpt lat="44.6967" lon="6.90684">
        <ele>2938.6</ele>
        <time>2011-06-04T09:41:26Z</time>
      </trkpt>
      <trkpt lat="44.69668" lon="6.90685">
        <ele>2938.6</ele>
        <time>2011-06-04T09:41:32Z</time>
      </trkpt>
      <trkpt lat="44.69672" lon="6.90686">
        <ele>2939</ele>
        <time>2011-06-04T09:41:41Z</time>
      </trkpt>
      <trkpt lat="44.69673" lon="6.90687">
        <ele>2939</ele>
        <time>2011-06-04T09:41:46Z</time>
      </trkpt>
      <trkpt lat="44.69675" lon="6.90688">
        <ele>2939.4</ele>
        <time>2011-06-04T09:41:52Z</time>
      </trkpt>
      <trkpt lat="44.69674" lon="6.90688">
        <ele>2940</ele>
        <time>2011-06-04T09:41:58Z</time>
      </trkpt>
      <trkpt lat="44.69675" lon="6.90682">
        <ele>2940.4</ele>
        <time>2011-06-04T09:42:46Z</time>
      </trkpt>
      <trkpt lat="44.69682" lon="6.90679">
        <ele>2940.2</ele>
        <time>2011-06-04T09:42:52Z</time>
      </trkpt>
      <trkpt lat="44.69682" lon="6.90678">
        <ele>2940.2</ele>
        <time>2011-06-04T09:42:53Z</time>
      </trkpt>
      <trkpt lat="44.69683" lon="6.90674">
        <ele>2940.2</ele>
        <time>2011-06-04T09:42:56Z</time>
      </trkpt>
      <trkpt lat="44.69684" lon="6.90673">
        <ele>2940.2</ele>
        <time>2011-06-04T09:42:58Z</time>
      </trkpt>
      <trkpt lat="44.69685" lon="6.90671">
        <ele>2940.2</ele>
        <time>2011-06-04T09:43:00Z</time>
      </trkpt>
      <trkpt lat="44.69688" lon="6.90671">
        <ele>2940</ele>
        <time>2011-06-04T09:43:06Z</time>
      </trkpt>
      <trkpt lat="44.69692" lon="6.90671">
        <ele>2939.8</ele>
        <time>2011-06-04T09:43:12Z</time>
      </trkpt>
      <trkpt lat="44.69694" lon="6.90673">
        <ele>2939.8</ele>
        <time>2011-06-04T09:43:16Z</time>
      </trkpt>
      <trkpt lat="44.69699" lon="6.90674">
        <ele>2940</ele>
        <time>2011-06-04T09:43:24Z</time>
      </trkpt>
      <trkpt lat="44.697" lon="6.90674">
        <ele>2940</ele>
        <time>2011-06-04T09:43:25Z</time>
      </trkpt>
      <trkpt lat="44.69702" lon="6.90673">
        <ele>2940</ele>
        <time>2011-06-04T09:43:29Z</time>
      </trkpt>
      <trkpt lat="44.69707" lon="6.9067">
        <ele>2940</ele>
        <time>2011-06-04T09:43:38Z</time>
      </trkpt>
      <trkpt lat="44.6971" lon="6.90665">
        <ele>2940</ele>
        <time>2011-06-04T09:43:45Z</time>
      </trkpt>
      <trkpt lat="44.69713" lon="6.90662">
        <ele>2940.2</ele>
        <time>2011-06-04T09:43:50Z</time>
      </trkpt>
      <trkpt lat="44.69714" lon="6.90662">
        <ele>2940.4</ele>
        <time>2011-06-04T09:43:56Z</time>
      </trkpt>
      <trkpt lat="44.69714" lon="6.90662">
        <ele>2940.4</ele>
        <time>2011-06-04T09:43:59Z</time>
      </trkpt>
      <trkpt lat="44.69715" lon="6.90664">
        <ele>2940.2</ele>
        <time>2011-06-04T09:44:18Z</time>
      </trkpt>
      <trkpt lat="44.69717" lon="6.90666">
        <ele>2940.4</ele>
        <time>2011-06-04T09:45:51Z</time>
      </trkpt>
      <trkpt lat="44.69712" lon="6.90668">
        <ele>2940.8</ele>
        <time>2011-06-04T09:46:31Z</time>
      </trkpt>
      <trkpt lat="44.69711" lon="6.90669">
        <ele>2940.8</ele>
        <time>2011-06-04T09:46:32Z</time>
      </trkpt>
      <trkpt lat="44.69708" lon="6.90672">
        <ele>2940.8</ele>
        <time>2011-06-04T09:46:34Z</time>
      </trkpt>
      <trkpt lat="44.69708" lon="6.90673">
        <ele>2940.8</ele>
        <time>2011-06-04T09:46:35Z</time>
      </trkpt>
      <trkpt lat="44.69704" lon="6.90675">
        <ele>2940.6</ele>
        <time>2011-06-04T09:46:38Z</time>
      </trkpt>
      <trkpt lat="44.69693" lon="6.90673">
        <ele>2940.6</ele>
        <time>2011-06-04T09:46:43Z</time>
      </trkpt>
      <trkpt lat="44.69689" lon="6.90672">
        <ele>2940.4</ele>
        <time>2011-06-04T09:46:45Z</time>
      </trkpt>
      <trkpt lat="44.69687" lon="6.90675">
        <ele>2940.2</ele>
        <time>2011-06-04T09:46:47Z</time>
      </trkpt>
      <trkpt lat="44.69681" lon="6.9068">
        <ele>2939.8</ele>
        <time>2011-06-04T09:46:52Z</time>
      </trkpt>
      <trkpt lat="44.6968" lon="6.90681">
        <ele>2939.6</ele>
        <time>2011-06-04T09:46:53Z</time>
      </trkpt>
      <trkpt lat="44.6968" lon="6.90681">
        <ele>2939.4</ele>
        <time>2011-06-04T09:46:58Z</time>
      </trkpt>
      <trkpt lat="44.69684" lon="6.90676">
        <ele>2939.2</ele>
        <time>2011-06-04T09:47:03Z</time>
      </trkpt>
      <trkpt lat="44.69687" lon="6.90671">
        <ele>2939</ele>
        <time>2011-06-04T09:47:07Z</time>
      </trkpt>
      <trkpt lat="44.69691" lon="6.9067">
        <ele>2939</ele>
        <time>2011-06-04T09:47:12Z</time>
      </trkpt>
      <trkpt lat="44.69694" lon="6.90671">
        <ele>2939</ele>
        <time>2011-06-04T09:47:15Z</time>
      </trkpt>
      <trkpt lat="44.69695" lon="6.90671">
        <ele>2939</ele>
        <time>2011-06-04T09:47:17Z</time>
      </trkpt>
      <trkpt lat="44.69696" lon="6.90672">
        <ele>2939</ele>
        <time>2011-06-04T09:47:19Z</time>
      </trkpt>
      <trkpt lat="44.69699" lon="6.90673">
        <ele>2939.2</ele>
        <time>2011-06-04T09:47:22Z</time>
      </trkpt>
      <trkpt lat="44.69702" lon="6.90672">
        <ele>2939.2</ele>
        <time>2011-06-04T09:47:25Z</time>
      </trkpt>
      <trkpt lat="44.69704" lon="6.90672">
        <ele>2939.4</ele>
        <time>2011-06-04T09:47:27Z</time>
      </trkpt>
      <trkpt lat="44.69706" lon="6.90671">
        <ele>2939.4</ele>
        <time>2011-06-04T09:47:30Z</time>
      </trkpt>
      <trkpt lat="44.69708" lon="6.90669">
        <ele>2939.4</ele>
        <time>2011-06-04T09:47:32Z</time>
      </trkpt>
      <trkpt lat="44.6971" lon="6.90665">
        <ele>2939.6</ele>
        <time>2011-06-04T09:47:35Z</time>
      </trkpt>
      <trkpt lat="44.69712" lon="6.90662">
        <ele>2939.8</ele>
        <time>2011-06-04T09:47:39Z</time>
      </trkpt>
      <trkpt lat="44.69712" lon="6.90661">
        <ele>2940.2</ele>
        <time>2011-06-04T09:47:46Z</time>
      </trkpt>
      <trkpt lat="44.69712" lon="6.9066">
        <ele>2940.4</ele>
        <time>2011-06-04T09:47:53Z</time>
      </trkpt>
      <trkpt lat="44.69711" lon="6.90664">
        <ele>2940.2</ele>
        <time>2011-06-04T09:48:06Z</time>
      </trkpt>
      <trkpt lat="44.69715" lon="6.90664">
        <ele>2940.2</ele>
        <time>2011-06-04T09:48:17Z</time>
      </trkpt>
      <trkpt lat="44.69716" lon="6.90664">
        <ele>2940</ele>
        <time>2011-06-04T09:48:29Z</time>
      </trkpt>
      <trkpt lat="44.69714" lon="6.90664">
        <ele>2939.8</ele>
        <time>2011-06-04T09:48:39Z</time>
      </trkpt>
      <trkpt lat="44.69717" lon="6.90664">
        <ele>2939.8</ele>
        <time>2011-06-04T09:48:44Z</time>
      </trkpt>
      <trkpt lat="44.69716" lon="6.90665">
        <ele>2939.8</ele>
        <time>2011-06-04T09:48:52Z</time>
      </trkpt>
      <trkpt lat="44.6972" lon="6.90666">
        <ele>2940</ele>
        <time>2011-06-04T09:49:07Z</time>
      </trkpt>
      <trkpt lat="44.69722" lon="6.90671">
        <ele>2940.2</ele>
        <time>2011-06-04T09:49:11Z</time>
      </trkpt>
      <trkpt lat="44.69721" lon="6.90673">
        <ele>2940.4</ele>
        <time>2011-06-04T09:49:12Z</time>
      </trkpt>
      <trkpt lat="44.69722" lon="6.90676">
        <ele>2940.6</ele>
        <time>2011-06-04T09:49:15Z</time>
      </trkpt>
      <trkpt lat="44.69724" lon="6.90681">
        <ele>2941.4</ele>
        <time>2011-06-04T09:49:20Z</time>
      </trkpt>
      <trkpt lat="44.69724" lon="6.90683">
        <ele>2941.6</ele>
        <time>2011-06-04T09:49:22Z</time>
      </trkpt>
      <trkpt lat="44.69723" lon="6.90684">
        <ele>2942</ele>
        <time>2011-06-04T09:49:25Z</time>
      </trkpt>
      <trkpt lat="44.69723" lon="6.90687">
        <ele>2942.6</ele>
        <time>2011-06-04T09:49:29Z</time>
      </trkpt>
      <trkpt lat="44.69725" lon="6.90691">
        <ele>2943.6</ele>
        <time>2011-06-04T09:49:35Z</time>
      </trkpt>
      <trkpt lat="44.69727" lon="6.90693">
        <ele>2944.4</ele>
        <time>2011-06-04T09:49:40Z</time>
      </trkpt>
      <trkpt lat="44.69728" lon="6.90693">
        <ele>2944.4</ele>
        <time>2011-06-04T09:49:41Z</time>
      </trkpt>
      <trkpt lat="44.6973" lon="6.90697">
        <ele>2945</ele>
        <time>2011-06-04T09:49:45Z</time>
      </trkpt>
      <trkpt lat="44.69731" lon="6.90698">
        <ele>2945.4</ele>
        <time>2011-06-04T09:49:47Z</time>
      </trkpt>
      <trkpt lat="44.69733" lon="6.90699">
        <ele>2945.8</ele>
        <time>2011-06-04T09:49:50Z</time>
      </trkpt>
      <trkpt lat="44.69736" lon="6.90704">
        <ele>2946.4</ele>
        <time>2011-06-04T09:49:56Z</time>
      </trkpt>
      <trkpt lat="44.6974" lon="6.90707">
        <ele>2947</ele>
        <time>2011-06-04T09:50:02Z</time>
      </trkpt>
      <trkpt lat="44.69742" lon="6.90708">
        <ele>2947</ele>
        <time>2011-06-04T09:50:04Z</time>
      </trkpt>
      <trkpt lat="44.69743" lon="6.90711">
        <ele>2947.2</ele>
        <time>2011-06-04T09:50:07Z</time>
      </trkpt>
      <trkpt lat="44.69745" lon="6.90712">
        <ele>2947.4</ele>
        <time>2011-06-04T09:50:09Z</time>
      </trkpt>
      <trkpt lat="44.69747" lon="6.90715">
        <ele>2947.6</ele>
        <time>2011-06-04T09:50:13Z</time>
      </trkpt>
      <trkpt lat="44.69748" lon="6.90715">
        <ele>2947.6</ele>
        <time>2011-06-04T09:50:14Z</time>
      </trkpt>
      <trkpt lat="44.6975" lon="6.90715">
        <ele>2947.8</ele>
        <time>2011-06-04T09:50:16Z</time>
      </trkpt>
      <trkpt lat="44.6975" lon="6.90716">
        <ele>2947.8</ele>
        <time>2011-06-04T09:50:17Z</time>
      </trkpt>
      <trkpt lat="44.69753" lon="6.90718">
        <ele>2948.2</ele>
        <time>2011-06-04T09:50:24Z</time>
      </trkpt>
      <trkpt lat="44.69753" lon="6.90719">
        <ele>2948.4</ele>
        <time>2011-06-04T09:50:28Z</time>
      </trkpt>
      <trkpt lat="44.69755" lon="6.90722">
        <ele>2949</ele>
        <time>2011-06-04T09:50:47Z</time>
      </trkpt>
      <trkpt lat="44.69757" lon="6.90723">
        <ele>2948.8</ele>
        <time>2011-06-04T09:50:53Z</time>
      </trkpt>
      <trkpt lat="44.69758" lon="6.90723">
        <ele>2949</ele>
        <time>2011-06-04T09:50:56Z</time>
      </trkpt>
      <trkpt lat="44.6976" lon="6.90722">
        <ele>2949</ele>
        <time>2011-06-04T09:50:58Z</time>
      </trkpt>
      <trkpt lat="44.69761" lon="6.90721">
        <ele>2949</ele>
        <time>2011-06-04T09:50:59Z</time>
      </trkpt>
      <trkpt lat="44.69763" lon="6.9072">
        <ele>2949</ele>
        <time>2011-06-04T09:51:03Z</time>
      </trkpt>
      <trkpt lat="44.69764" lon="6.90717">
        <ele>2948.8</ele>
        <time>2011-06-04T09:51:09Z</time>
      </trkpt>
      <trkpt lat="44.69765" lon="6.90715">
        <ele>2948.8</ele>
        <time>2011-06-04T09:51:14Z</time>
      </trkpt>
      <trkpt lat="44.69767" lon="6.90714">
        <ele>2948.8</ele>
        <time>2011-06-04T09:51:19Z</time>
      </trkpt>
      <trkpt lat="44.69769" lon="6.90714">
        <ele>2948.8</ele>
        <time>2011-06-04T09:51:23Z</time>
      </trkpt>
      <trkpt lat="44.69771" lon="6.90714">
        <ele>2948.8</ele>
        <time>2011-06-04T09:51:27Z</time>
      </trkpt>
      <trkpt lat="44.69773" lon="6.90714">
        <ele>2948.8</ele>
        <time>2011-06-04T09:51:31Z</time>
      </trkpt>
      <trkpt lat="44.69773" lon="6.90714">
        <ele>2948.8</ele>
        <time>2011-06-04T09:51:32Z</time>
      </trkpt>
      <trkpt lat="44.69774" lon="6.90714">
        <ele>2948.6</ele>
        <time>2011-06-04T09:51:38Z</time>
      </trkpt>
      <trkpt lat="44.69775" lon="6.90715">
        <ele>2948.6</ele>
        <time>2011-06-04T09:51:42Z</time>
      </trkpt>
      <trkpt lat="44.69775" lon="6.90716">
        <ele>2949</ele>
        <time>2011-06-04T09:51:48Z</time>
      </trkpt>
      <trkpt lat="44.69775" lon="6.90717">
        <ele>2949.2</ele>
        <time>2011-06-04T09:51:53Z</time>
      </trkpt>
      <trkpt lat="44.69781" lon="6.90717">
        <ele>2951</ele>
        <time>2011-06-04T09:52:35Z</time>
      </trkpt>
      <trkpt lat="44.69784" lon="6.90718">
        <ele>2951.6</ele>
        <time>2011-06-04T09:52:41Z</time>
      </trkpt>
      <trkpt lat="44.69784" lon="6.90719">
        <ele>2952</ele>
        <time>2011-06-04T09:52:47Z</time>
      </trkpt>
      <trkpt lat="44.69789" lon="6.9072">
        <ele>2952.4</ele>
        <time>2011-06-04T09:52:53Z</time>
      </trkpt>
      <trkpt lat="44.69791" lon="6.90721">
        <ele>2952.6</ele>
        <time>2011-06-04T09:52:55Z</time>
      </trkpt>
      <trkpt lat="44.69792" lon="6.90722">
        <ele>2952.8</ele>
        <time>2011-06-04T09:52:57Z</time>
      </trkpt>
      <trkpt lat="44.69794" lon="6.90723">
        <ele>2952.8</ele>
        <time>2011-06-04T09:53:00Z</time>
      </trkpt>
      <trkpt lat="44.69795" lon="6.90723">
        <ele>2953</ele>
        <time>2011-06-04T09:53:01Z</time>
      </trkpt>
      <trkpt lat="44.69798" lon="6.90728">
        <ele>2953.2</ele>
        <time>2011-06-04T09:53:06Z</time>
      </trkpt>
      <trkpt lat="44.69799" lon="6.90728">
        <ele>2953.4</ele>
        <time>2011-06-04T09:53:09Z</time>
      </trkpt>
      <trkpt lat="44.698" lon="6.90728">
        <ele>2953.4</ele>
        <time>2011-06-04T09:53:10Z</time>
      </trkpt>
      <trkpt lat="44.69801" lon="6.90726">
        <ele>2953.8</ele>
        <time>2011-06-04T09:53:16Z</time>
      </trkpt>
      <trkpt lat="44.69802" lon="6.90724">
        <ele>2954.2</ele>
        <time>2011-06-04T09:53:20Z</time>
      </trkpt>
      <trkpt lat="44.69803" lon="6.90724">
        <ele>2954.6</ele>
        <time>2011-06-04T09:53:25Z</time>
      </trkpt>
      <trkpt lat="44.69806" lon="6.90719">
        <ele>2955.6</ele>
        <time>2011-06-04T09:53:35Z</time>
      </trkpt>
      <trkpt lat="44.69807" lon="6.90716">
        <ele>2956</ele>
        <time>2011-06-04T09:53:40Z</time>
      </trkpt>
      <trkpt lat="44.69809" lon="6.90715">
        <ele>2956.2</ele>
        <time>2011-06-04T09:53:42Z</time>
      </trkpt>
      <trkpt lat="44.69811" lon="6.90715">
        <ele>2956.8</ele>
        <time>2011-06-04T09:53:45Z</time>
      </trkpt>
      <trkpt lat="44.69812" lon="6.90715">
        <ele>2956.8</ele>
        <time>2011-06-04T09:53:46Z</time>
      </trkpt>
      <trkpt lat="44.69813" lon="6.90714">
        <ele>2958.8</ele>
        <time>2011-06-04T09:54:05Z</time>
      </trkpt>
      <trkpt lat="44.69813" lon="6.90713">
        <ele>2960.4</ele>
        <time>2011-06-04T09:54:37Z</time>
      </trkpt>
      <trkpt lat="44.69813" lon="6.9071">
        <ele>2960.4</ele>
        <time>2011-06-04T09:54:59Z</time>
      </trkpt>
      <trkpt lat="44.69814" lon="6.90703">
        <ele>2960.8</ele>
        <time>2011-06-04T09:55:06Z</time>
      </trkpt>
      <trkpt lat="44.69817" lon="6.907">
        <ele>2961</ele>
        <time>2011-06-04T09:55:09Z</time>
      </trkpt>
      <trkpt lat="44.69819" lon="6.90698">
        <ele>2961.2</ele>
        <time>2011-06-04T09:55:11Z</time>
      </trkpt>
      <trkpt lat="44.6982" lon="6.90697">
        <ele>2961.2</ele>
        <time>2011-06-04T09:55:12Z</time>
      </trkpt>
      <trkpt lat="44.69822" lon="6.90692">
        <ele>2961.6</ele>
        <time>2011-06-04T09:55:16Z</time>
      </trkpt>
      <trkpt lat="44.69823" lon="6.90689">
        <ele>2962</ele>
        <time>2011-06-04T09:55:20Z</time>
      </trkpt>
      <trkpt lat="44.69825" lon="6.90687">
        <ele>2963.2</ele>
        <time>2011-06-04T09:55:30Z</time>
      </trkpt>
      <trkpt lat="44.69827" lon="6.90684">
        <ele>2964</ele>
        <time>2011-06-04T09:55:35Z</time>
      </trkpt>
      <trkpt lat="44.69828" lon="6.90684">
        <ele>2965</ele>
        <time>2011-06-04T09:55:40Z</time>
      </trkpt>
      <trkpt lat="44.69828" lon="6.90684">
        <ele>2965.2</ele>
        <time>2011-06-04T09:55:41Z</time>
      </trkpt>
      <trkpt lat="44.6983" lon="6.90684">
        <ele>2965.8</ele>
        <time>2011-06-04T09:55:45Z</time>
      </trkpt>
      <trkpt lat="44.69832" lon="6.90682">
        <ele>2966.6</ele>
        <time>2011-06-04T09:55:49Z</time>
      </trkpt>
      <trkpt lat="44.69833" lon="6.9068">
        <ele>2967.8</ele>
        <time>2011-06-04T09:55:54Z</time>
      </trkpt>
      <trkpt lat="44.69834" lon="6.90676">
        <ele>2968.6</ele>
        <time>2011-06-04T09:55:59Z</time>
      </trkpt>
      <trkpt lat="44.69836" lon="6.90673">
        <ele>2969.6</ele>
        <time>2011-06-04T09:56:04Z</time>
      </trkpt>
      <trkpt lat="44.69837" lon="6.90671">
        <ele>2970.4</ele>
        <time>2011-06-04T09:56:09Z</time>
      </trkpt>
      <trkpt lat="44.6984" lon="6.90667">
        <ele>2971.6</ele>
        <time>2011-06-04T09:56:16Z</time>
      </trkpt>
      <trkpt lat="44.6984" lon="6.90667">
        <ele>2971.8</ele>
        <time>2011-06-04T09:56:17Z</time>
      </trkpt>
      <trkpt lat="44.69842" lon="6.90664">
        <ele>2972.4</ele>
        <time>2011-06-04T09:56:21Z</time>
      </trkpt>
      <trkpt lat="44.69845" lon="6.9066">
        <ele>2973.6</ele>
        <time>2011-06-04T09:56:27Z</time>
      </trkpt>
      <trkpt lat="44.69846" lon="6.90658">
        <ele>2974.8</ele>
        <time>2011-06-04T09:56:32Z</time>
      </trkpt>
      <trkpt lat="44.69847" lon="6.90656">
        <ele>2975.4</ele>
        <time>2011-06-04T09:56:36Z</time>
      </trkpt>
      <trkpt lat="44.69849" lon="6.90653">
        <ele>2976.2</ele>
        <time>2011-06-04T09:56:41Z</time>
      </trkpt>
      <trkpt lat="44.6985" lon="6.90652">
        <ele>2976.8</ele>
        <time>2011-06-04T09:56:45Z</time>
      </trkpt>
      <trkpt lat="44.69851" lon="6.90651">
        <ele>2978</ele>
        <time>2011-06-04T09:56:52Z</time>
      </trkpt>
      <trkpt lat="44.69852" lon="6.90647">
        <ele>2979.2</ele>
        <time>2011-06-04T09:57:02Z</time>
      </trkpt>
      <trkpt lat="44.69852" lon="6.90647">
        <ele>2980.6</ele>
        <time>2011-06-04T09:57:11Z</time>
      </trkpt>
      <trkpt lat="44.69852" lon="6.90646">
        <ele>2981.4</ele>
        <time>2011-06-04T09:57:20Z</time>
      </trkpt>
      <trkpt lat="44.69853" lon="6.90646">
        <ele>2981.8</ele>
        <time>2011-06-04T09:57:26Z</time>
      </trkpt>
      <trkpt lat="44.69854" lon="6.90646">
        <ele>2982.2</ele>
        <time>2011-06-04T09:57:35Z</time>
      </trkpt>
      <trkpt lat="44.69853" lon="6.90646">
        <ele>2982.4</ele>
        <time>2011-06-04T09:57:47Z</time>
      </trkpt>
      <trkpt lat="44.69854" lon="6.90644">
        <ele>2982.4</ele>
        <time>2011-06-04T09:57:53Z</time>
      </trkpt>
      <trkpt lat="44.69857" lon="6.90638">
        <ele>2982.6</ele>
        <time>2011-06-04T09:57:58Z</time>
      </trkpt>
      <trkpt lat="44.69858" lon="6.90637">
        <ele>2982.8</ele>
        <time>2011-06-04T09:57:59Z</time>
      </trkpt>
      <trkpt lat="44.6986" lon="6.90632">
        <ele>2983</ele>
        <time>2011-06-04T09:58:02Z</time>
      </trkpt>
      <trkpt lat="44.69861" lon="6.90631">
        <ele>2983</ele>
        <time>2011-06-04T09:58:03Z</time>
      </trkpt>
      <trkpt lat="44.69865" lon="6.90628">
        <ele>2983.6</ele>
        <time>2011-06-04T09:58:08Z</time>
      </trkpt>
      <trkpt lat="44.69868" lon="6.90626">
        <ele>2984.2</ele>
        <time>2011-06-04T09:58:12Z</time>
      </trkpt>
      <trkpt lat="44.6987" lon="6.90626">
        <ele>2984.6</ele>
        <time>2011-06-04T09:58:14Z</time>
      </trkpt>
      <trkpt lat="44.69872" lon="6.90625">
        <ele>2985.2</ele>
        <time>2011-06-04T09:58:17Z</time>
      </trkpt>
      <trkpt lat="44.69873" lon="6.90624">
        <ele>2986.2</ele>
        <time>2011-06-04T09:58:24Z</time>
      </trkpt>
      <trkpt lat="44.69872" lon="6.90623">
        <ele>2987.8</ele>
        <time>2011-06-04T09:58:33Z</time>
      </trkpt>
      <trkpt lat="44.69871" lon="6.90624">
        <ele>2988.6</ele>
        <time>2011-06-04T09:58:38Z</time>
      </trkpt>
      <trkpt lat="44.69871" lon="6.90623">
        <ele>2990.2</ele>
        <time>2011-06-04T09:58:52Z</time>
      </trkpt>
      <trkpt lat="44.69869" lon="6.9062">
        <ele>2993.2</ele>
        <time>2011-06-04T10:00:03Z</time>
      </trkpt>
      <trkpt lat="44.69869" lon="6.9062">
        <ele>2993.4</ele>
        <time>2011-06-04T10:00:11Z</time>
      </trkpt>
      <trkpt lat="44.6987" lon="6.90621">
        <ele>2994.8</ele>
        <time>2011-06-04T10:02:04Z</time>
      </trkpt>
      <trkpt lat="44.69873" lon="6.90622">
        <ele>2994.8</ele>
        <time>2011-06-04T10:02:09Z</time>
      </trkpt>
      <trkpt lat="44.69876" lon="6.90625">
        <ele>2993.4</ele>
        <time>2011-06-04T10:03:11Z</time>
      </trkpt>
      <trkpt lat="44.69875" lon="6.90629">
        <ele>2993.4</ele>
        <time>2011-06-04T10:03:22Z</time>
      </trkpt>
      <trkpt lat="44.69875" lon="6.90627">
        <ele>2993.2</ele>
        <time>2011-06-04T10:03:44Z</time>
      </trkpt>
      <trkpt lat="44.6987" lon="6.90629">
        <ele>2993</ele>
        <time>2011-06-04T10:05:15Z</time>
      </trkpt>
      <trkpt lat="44.69866" lon="6.90631">
        <ele>2992.8</ele>
        <time>2011-06-04T10:05:17Z</time>
      </trkpt>
      <trkpt lat="44.69863" lon="6.90632">
        <ele>2992.8</ele>
        <time>2011-06-04T10:05:19Z</time>
      </trkpt>
      <trkpt lat="44.69861" lon="6.90633">
        <ele>2992.8</ele>
        <time>2011-06-04T10:05:21Z</time>
      </trkpt>
      <trkpt lat="44.69855" lon="6.90642">
        <ele>2992.4</ele>
        <time>2011-06-04T10:05:26Z</time>
      </trkpt>
      <trkpt lat="44.69849" lon="6.9065">
        <ele>2992.2</ele>
        <time>2011-06-04T10:05:31Z</time>
      </trkpt>
      <trkpt lat="44.69847" lon="6.9065">
        <ele>2992</ele>
        <time>2011-06-04T10:05:33Z</time>
      </trkpt>
      <trkpt lat="44.69844" lon="6.90657">
        <ele>2991.8</ele>
        <time>2011-06-04T10:05:36Z</time>
      </trkpt>
      <trkpt lat="44.69843" lon="6.90663">
        <ele>2991.6</ele>
        <time>2011-06-04T10:05:38Z</time>
      </trkpt>
      <trkpt lat="44.69841" lon="6.90668">
        <ele>2991.6</ele>
        <time>2011-06-04T10:05:40Z</time>
      </trkpt>
      <trkpt lat="44.69838" lon="6.90674">
        <ele>2991.2</ele>
        <time>2011-06-04T10:05:43Z</time>
      </trkpt>
      <trkpt lat="44.69837" lon="6.90675">
        <ele>2991</ele>
        <time>2011-06-04T10:05:45Z</time>
      </trkpt>
      <trkpt lat="44.69832" lon="6.90684">
        <ele>2990.4</ele>
        <time>2011-06-04T10:05:49Z</time>
      </trkpt>
      <trkpt lat="44.6983" lon="6.90686">
        <ele>2990.4</ele>
        <time>2011-06-04T10:05:50Z</time>
      </trkpt>
      <trkpt lat="44.69826" lon="6.90687">
        <ele>2989.8</ele>
        <time>2011-06-04T10:05:53Z</time>
      </trkpt>
      <trkpt lat="44.69824" lon="6.9069">
        <ele>2989.6</ele>
        <time>2011-06-04T10:05:55Z</time>
      </trkpt>
      <trkpt lat="44.6982" lon="6.90698">
        <ele>2988.6</ele>
        <time>2011-06-04T10:06:00Z</time>
      </trkpt>
      <trkpt lat="44.6982" lon="6.907">
        <ele>2988.4</ele>
        <time>2011-06-04T10:06:01Z</time>
      </trkpt>
      <trkpt lat="44.69819" lon="6.90701">
        <ele>2988.2</ele>
        <time>2011-06-04T10:06:02Z</time>
      </trkpt>
      <trkpt lat="44.69815" lon="6.90711">
        <ele>2987</ele>
        <time>2011-06-04T10:06:08Z</time>
      </trkpt>
      <trkpt lat="44.69808" lon="6.90722">
        <ele>2985.8</ele>
        <time>2011-06-04T10:06:13Z</time>
      </trkpt>
      <trkpt lat="44.69804" lon="6.90727">
        <ele>2985</ele>
        <time>2011-06-04T10:06:17Z</time>
      </trkpt>
      <trkpt lat="44.69801" lon="6.90726">
        <ele>2984.4</ele>
        <time>2011-06-04T10:06:19Z</time>
      </trkpt>
      <trkpt lat="44.69793" lon="6.90724">
        <ele>2983.4</ele>
        <time>2011-06-04T10:06:23Z</time>
      </trkpt>
      <trkpt lat="44.69792" lon="6.90723">
        <ele>2983.2</ele>
        <time>2011-06-04T10:06:24Z</time>
      </trkpt>
      <trkpt lat="44.6979" lon="6.9072">
        <ele>2982.4</ele>
        <time>2011-06-04T10:06:27Z</time>
      </trkpt>
      <trkpt lat="44.69783" lon="6.90719">
        <ele>2981.4</ele>
        <time>2011-06-04T10:06:32Z</time>
      </trkpt>
      <trkpt lat="44.69778" lon="6.90719">
        <ele>2980.4</ele>
        <time>2011-06-04T10:06:37Z</time>
      </trkpt>
      <trkpt lat="44.69776" lon="6.90719">
        <ele>2980</ele>
        <time>2011-06-04T10:06:39Z</time>
      </trkpt>
      <trkpt lat="44.69772" lon="6.9072">
        <ele>2978.8</ele>
        <time>2011-06-04T10:06:44Z</time>
      </trkpt>
      <trkpt lat="44.69764" lon="6.90719">
        <ele>2977.2</ele>
        <time>2011-06-04T10:06:52Z</time>
      </trkpt>
      <trkpt lat="44.69762" lon="6.90718">
        <ele>2976.6</ele>
        <time>2011-06-04T10:06:55Z</time>
      </trkpt>
      <trkpt lat="44.69762" lon="6.90718">
        <ele>2976.4</ele>
        <time>2011-06-04T10:06:56Z</time>
      </trkpt>
      <trkpt lat="44.69761" lon="6.90715">
        <ele>2976</ele>
        <time>2011-06-04T10:06:58Z</time>
      </trkpt>
      <trkpt lat="44.6976" lon="6.90714">
        <ele>2975.4</ele>
        <time>2011-06-04T10:07:01Z</time>
      </trkpt>
      <trkpt lat="44.69759" lon="6.90715">
        <ele>2975.2</ele>
        <time>2011-06-04T10:07:02Z</time>
      </trkpt>
      <trkpt lat="44.69757" lon="6.90718">
        <ele>2974.8</ele>
        <time>2011-06-04T10:07:04Z</time>
      </trkpt>
      <trkpt lat="44.69753" lon="6.90718">
        <ele>2974.6</ele>
        <time>2011-06-04T10:07:06Z</time>
      </trkpt>
      <trkpt lat="44.69751" lon="6.90717">
        <ele>2974</ele>
        <time>2011-06-04T10:07:09Z</time>
      </trkpt>
      <trkpt lat="44.69749" lon="6.90718">
        <ele>2973.6</ele>
        <time>2011-06-04T10:07:12Z</time>
      </trkpt>
      <trkpt lat="44.69744" lon="6.90715">
        <ele>2972.6</ele>
        <time>2011-06-04T10:07:17Z</time>
      </trkpt>
      <trkpt lat="44.69744" lon="6.90714">
        <ele>2972.4</ele>
        <time>2011-06-04T10:07:19Z</time>
      </trkpt>
      <trkpt lat="44.69743" lon="6.90713">
        <ele>2972.2</ele>
        <time>2011-06-04T10:07:20Z</time>
      </trkpt>
      <trkpt lat="44.69742" lon="6.90712">
        <ele>2972</ele>
        <time>2011-06-04T10:07:21Z</time>
      </trkpt>
      <trkpt lat="44.69737" lon="6.90708">
        <ele>2971</ele>
        <time>2011-06-04T10:07:27Z</time>
      </trkpt>
      <trkpt lat="44.69734" lon="6.90705">
        <ele>2970.6</ele>
        <time>2011-06-04T10:07:30Z</time>
      </trkpt>
      <trkpt lat="44.69734" lon="6.90705">
        <ele>2970.6</ele>
        <time>2011-06-04T10:07:31Z</time>
      </trkpt>
      <trkpt lat="44.6973" lon="6.90699">
        <ele>2970</ele>
        <time>2011-06-04T10:07:35Z</time>
      </trkpt>
      <trkpt lat="44.69724" lon="6.90693">
        <ele>2969.4</ele>
        <time>2011-06-04T10:07:39Z</time>
      </trkpt>
      <trkpt lat="44.69718" lon="6.90685">
        <ele>2968.6</ele>
        <time>2011-06-04T10:07:44Z</time>
      </trkpt>
      <trkpt lat="44.69718" lon="6.90685">
        <ele>2968.4</ele>
        <time>2011-06-04T10:07:45Z</time>
      </trkpt>
      <trkpt lat="44.69715" lon="6.90685">
        <ele>2968.2</ele>
        <time>2011-06-04T10:07:47Z</time>
      </trkpt>
      <trkpt lat="44.69711" lon="6.90688">
        <ele>2967.6</ele>
        <time>2011-06-04T10:07:50Z</time>
      </trkpt>
      <trkpt lat="44.69708" lon="6.90688">
        <ele>2967.4</ele>
        <time>2011-06-04T10:07:51Z</time>
      </trkpt>
      <trkpt lat="44.69706" lon="6.90687">
        <ele>2967</ele>
        <time>2011-06-04T10:07:53Z</time>
      </trkpt>
      <trkpt lat="44.69705" lon="6.90683">
        <ele>2966.6</ele>
        <time>2011-06-04T10:07:55Z</time>
      </trkpt>
      <trkpt lat="44.69704" lon="6.90678">
        <ele>2966.2</ele>
        <time>2011-06-04T10:07:58Z</time>
      </trkpt>
      <trkpt lat="44.69703" lon="6.90673">
        <ele>2966</ele>
        <time>2011-06-04T10:07:59Z</time>
      </trkpt>
      <trkpt lat="44.69702" lon="6.90671">
        <ele>2965.6</ele>
        <time>2011-06-04T10:08:01Z</time>
      </trkpt>
      <trkpt lat="44.69701" lon="6.90668">
        <ele>2965</ele>
        <time>2011-06-04T10:08:04Z</time>
      </trkpt>
      <trkpt lat="44.69701" lon="6.90665">
        <ele>2963.8</ele>
        <time>2011-06-04T10:08:11Z</time>
      </trkpt>
      <trkpt lat="44.69699" lon="6.90662">
        <ele>2955</ele>
        <time>2011-06-04T10:09:42Z</time>
      </trkpt>
      <trkpt lat="44.69698" lon="6.90662">
        <ele>2954.2</ele>
        <time>2011-06-04T10:09:51Z</time>
      </trkpt>
      <trkpt lat="44.69696" lon="6.9066">
        <ele>2952.4</ele>
        <time>2011-06-04T10:10:19Z</time>
      </trkpt>
      <trkpt lat="44.69698" lon="6.90661">
        <ele>2951.4</ele>
        <time>2011-06-04T10:10:52Z</time>
      </trkpt>
      <trkpt lat="44.69699" lon="6.90665">
        <ele>2949</ele>
        <time>2011-06-04T10:11:55Z</time>
      </trkpt>
      <trkpt lat="44.69701" lon="6.90663">
        <ele>2947.2</ele>
        <time>2011-06-04T10:12:44Z</time>
      </trkpt>
      <trkpt lat="44.69701" lon="6.90664">
        <ele>2946.2</ele>
        <time>2011-06-04T10:13:08Z</time>
      </trkpt>
      <trkpt lat="44.697" lon="6.90662">
        <ele>2946</ele>
        <time>2011-06-04T10:13:19Z</time>
      </trkpt>
      <trkpt lat="44.697" lon="6.90663">
        <ele>2945.8</ele>
        <time>2011-06-04T10:13:33Z</time>
      </trkpt>
      <trkpt lat="44.697" lon="6.90663">
        <ele>2945.6</ele>
        <time>2011-06-04T10:13:36Z</time>
      </trkpt>
      <trkpt lat="44.697" lon="6.90662">
        <ele>2945.4</ele>
        <time>2011-06-04T10:13:39Z</time>
      </trkpt>
      <trkpt lat="44.697" lon="6.90664">
        <ele>2945.4</ele>
        <time>2011-06-04T10:14:21Z</time>
      </trkpt>
      <trkpt lat="44.69702" lon="6.9067">
        <ele>2946</ele>
        <time>2011-06-04T10:15:08Z</time>
      </trkpt>
      <trkpt lat="44.69699" lon="6.90664">
        <ele>2946</ele>
        <time>2011-06-04T10:15:23Z</time>
      </trkpt>
      <trkpt lat="44.697" lon="6.90664">
        <ele>2945.6</ele>
        <time>2011-06-04T10:16:30Z</time>
      </trkpt>
      <trkpt lat="44.69699" lon="6.90664">
        <ele>2946.4</ele>
        <time>2011-06-04T10:19:58Z</time>
      </trkpt>
      <trkpt lat="44.69698" lon="6.90663">
        <ele>2946.8</ele>
        <time>2011-06-04T10:20:23Z</time>
      </trkpt>
      <trkpt lat="44.69697" lon="6.90661">
        <ele>2947.2</ele>
        <time>2011-06-04T10:20:38Z</time>
      </trkpt>
      <trkpt lat="44.69699" lon="6.90664">
        <ele>2947.2</ele>
        <time>2011-06-04T10:21:05Z</time>
      </trkpt>
      <trkpt lat="44.69699" lon="6.90665">
        <ele>2949</ele>
        <time>2011-06-04T10:22:13Z</time>
      </trkpt>
      <trkpt lat="44.697" lon="6.90665">
        <ele>2948.4</ele>
        <time>2011-06-04T10:22:41Z</time>
      </trkpt>
      <trkpt lat="44.69701" lon="6.90668">
        <ele>2948.2</ele>
        <time>2011-06-04T10:22:47Z</time>
      </trkpt>
      <trkpt lat="44.69703" lon="6.90671">
        <ele>2948</ele>
        <time>2011-06-04T10:22:52Z</time>
      </trkpt>
      <trkpt lat="44.69707" lon="6.90666">
        <ele>2948</ele>
        <time>2011-06-04T10:22:57Z</time>
      </trkpt>
      <trkpt lat="44.69707" lon="6.90665">
        <ele>2948</ele>
        <time>2011-06-04T10:22:58Z</time>
      </trkpt>
      <trkpt lat="44.69708" lon="6.90663">
        <ele>2948.2</ele>
        <time>2011-06-04T10:23:02Z</time>
      </trkpt>
      <trkpt lat="44.6971" lon="6.90663">
        <ele>2948.2</ele>
        <time>2011-06-04T10:23:03Z</time>
      </trkpt>
      <trkpt lat="44.69713" lon="6.90664">
        <ele>2948.2</ele>
        <time>2011-06-04T10:23:08Z</time>
      </trkpt>
      <trkpt lat="44.69715" lon="6.90664">
        <ele>2948</ele>
        <time>2011-06-04T10:23:17Z</time>
      </trkpt>
      <trkpt lat="44.69718" lon="6.90668">
        <ele>2948</ele>
        <time>2011-06-04T10:23:21Z</time>
      </trkpt>
      <trkpt lat="44.69719" lon="6.90673">
        <ele>2948</ele>
        <time>2011-06-04T10:23:25Z</time>
      </trkpt>
      <trkpt lat="44.6972" lon="6.90674">
        <ele>2948.2</ele>
        <time>2011-06-04T10:23:26Z</time>
      </trkpt>
      <trkpt lat="44.69721" lon="6.90674">
        <ele>2948.2</ele>
        <time>2011-06-04T10:23:27Z</time>
      </trkpt>
      <trkpt lat="44.69726" lon="6.90679">
        <ele>2948.2</ele>
        <time>2011-06-04T10:23:32Z</time>
      </trkpt>
      <trkpt lat="44.69727" lon="6.9068">
        <ele>2948.2</ele>
        <time>2011-06-04T10:23:33Z</time>
      </trkpt>
      <trkpt lat="44.69732" lon="6.90682">
        <ele>2948.2</ele>
        <time>2011-06-04T10:23:37Z</time>
      </trkpt>
      <trkpt lat="44.69733" lon="6.90683">
        <ele>2948.2</ele>
        <time>2011-06-04T10:23:38Z</time>
      </trkpt>
      <trkpt lat="44.69736" lon="6.90685">
        <ele>2948.2</ele>
        <time>2011-06-04T10:23:42Z</time>
      </trkpt>
      <trkpt lat="44.69737" lon="6.90685">
        <ele>2948.2</ele>
        <time>2011-06-04T10:23:43Z</time>
      </trkpt>
      <trkpt lat="44.69741" lon="6.90688">
        <ele>2948.2</ele>
        <time>2011-06-04T10:23:48Z</time>
      </trkpt>
      <trkpt lat="44.69745" lon="6.90691">
        <ele>2948.4</ele>
        <time>2011-06-04T10:23:52Z</time>
      </trkpt>
      <trkpt lat="44.69751" lon="6.90697">
        <ele>2948.2</ele>
        <time>2011-06-04T10:24:00Z</time>
      </trkpt>
      <trkpt lat="44.69752" lon="6.90698">
        <ele>2948.2</ele>
        <time>2011-06-04T10:24:01Z</time>
      </trkpt>
      <trkpt lat="44.69755" lon="6.90698">
        <ele>2948.2</ele>
        <time>2011-06-04T10:24:04Z</time>
      </trkpt>
      <trkpt lat="44.69755" lon="6.90698">
        <ele>2948.2</ele>
        <time>2011-06-04T10:24:05Z</time>
      </trkpt>
      <trkpt lat="44.69758" lon="6.90699">
        <ele>2948.4</ele>
        <time>2011-06-04T10:24:08Z</time>
      </trkpt>
      <trkpt lat="44.6976" lon="6.90699">
        <ele>2948.4</ele>
        <time>2011-06-04T10:24:10Z</time>
      </trkpt>
      <trkpt lat="44.69765" lon="6.90699">
        <ele>2948.4</ele>
        <time>2011-06-04T10:24:15Z</time>
      </trkpt>
      <trkpt lat="44.6977" lon="6.907">
        <ele>2948.6</ele>
        <time>2011-06-04T10:24:20Z</time>
      </trkpt>
      <trkpt lat="44.69771" lon="6.907">
        <ele>2948.8</ele>
        <time>2011-06-04T10:24:21Z</time>
      </trkpt>
      <trkpt lat="44.69772" lon="6.907">
        <ele>2948.8</ele>
        <time>2011-06-04T10:24:23Z</time>
      </trkpt>
      <trkpt lat="44.69775" lon="6.90699">
        <ele>2949.2</ele>
        <time>2011-06-04T10:24:26Z</time>
      </trkpt>
      <trkpt lat="44.69777" lon="6.90697">
        <ele>2949.4</ele>
        <time>2011-06-04T10:24:30Z</time>
      </trkpt>
      <trkpt lat="44.69777" lon="6.90696">
        <ele>2949.6</ele>
        <time>2011-06-04T10:24:32Z</time>
      </trkpt>
      <trkpt lat="44.69777" lon="6.90696">
        <ele>2950</ele>
        <time>2011-06-04T10:24:37Z</time>
      </trkpt>
      <trkpt lat="44.69779" lon="6.90696">
        <ele>2952</ele>
        <time>2011-06-04T10:25:01Z</time>
      </trkpt>
      <trkpt lat="44.6978" lon="6.90696">
        <ele>2952</ele>
        <time>2011-06-04T10:25:02Z</time>
      </trkpt>
      <trkpt lat="44.69783" lon="6.907">
        <ele>2952.4</ele>
        <time>2011-06-04T10:25:06Z</time>
      </trkpt>
      <trkpt lat="44.69783" lon="6.90701">
        <ele>2952.4</ele>
        <time>2011-06-04T10:25:07Z</time>
      </trkpt>
      <trkpt lat="44.69784" lon="6.90705">
        <ele>2952.8</ele>
        <time>2011-06-04T10:25:11Z</time>
      </trkpt>
      <trkpt lat="44.69787" lon="6.90709">
        <ele>2953.4</ele>
        <time>2011-06-04T10:25:17Z</time>
      </trkpt>
      <trkpt lat="44.69789" lon="6.90714">
        <ele>2954</ele>
        <time>2011-06-04T10:25:22Z</time>
      </trkpt>
      <trkpt lat="44.69792" lon="6.90714">
        <ele>2954.6</ele>
        <time>2011-06-04T10:25:27Z</time>
      </trkpt>
      <trkpt lat="44.69795" lon="6.90712">
        <ele>2955.6</ele>
        <time>2011-06-04T10:25:33Z</time>
      </trkpt>
      <trkpt lat="44.69799" lon="6.90712">
        <ele>2956.4</ele>
        <time>2011-06-04T10:25:38Z</time>
      </trkpt>
      <trkpt lat="44.69802" lon="6.90713">
        <ele>2957</ele>
        <time>2011-06-04T10:25:42Z</time>
      </trkpt>
      <trkpt lat="44.69803" lon="6.90713">
        <ele>2957.2</ele>
        <time>2011-06-04T10:25:43Z</time>
      </trkpt>
      <trkpt lat="44.69806" lon="6.90715">
        <ele>2958</ele>
        <time>2011-06-04T10:25:47Z</time>
      </trkpt>
      <trkpt lat="44.69809" lon="6.90714">
        <ele>2958.8</ele>
        <time>2011-06-04T10:25:52Z</time>
      </trkpt>
      <trkpt lat="44.69811" lon="6.9071">
        <ele>2959.6</ele>
        <time>2011-06-04T10:25:56Z</time>
      </trkpt>
      <trkpt lat="44.69813" lon="6.90703">
        <ele>2960.6</ele>
        <time>2011-06-04T10:26:01Z</time>
      </trkpt>
      <trkpt lat="44.69815" lon="6.90701">
        <ele>2961.2</ele>
        <time>2011-06-04T10:26:04Z</time>
      </trkpt>
      <trkpt lat="44.69815" lon="6.907">
        <ele>2961.4</ele>
        <time>2011-06-04T10:26:05Z</time>
      </trkpt>
      <trkpt lat="44.69817" lon="6.90698">
        <ele>2962</ele>
        <time>2011-06-04T10:26:08Z</time>
      </trkpt>
      <trkpt lat="44.69817" lon="6.90698">
        <ele>2962.2</ele>
        <time>2011-06-04T10:26:09Z</time>
      </trkpt>
      <trkpt lat="44.69819" lon="6.90695">
        <ele>2963.4</ele>
        <time>2011-06-04T10:26:15Z</time>
      </trkpt>
      <trkpt lat="44.6982" lon="6.9069">
        <ele>2964.4</ele>
        <time>2011-06-04T10:26:20Z</time>
      </trkpt>
      <trkpt lat="44.6982" lon="6.90688">
        <ele>2965</ele>
        <time>2011-06-04T10:26:23Z</time>
      </trkpt>
      <trkpt lat="44.69822" lon="6.90687">
        <ele>2965.6</ele>
        <time>2011-06-04T10:26:26Z</time>
      </trkpt>
      <trkpt lat="44.69823" lon="6.90685">
        <ele>2966.8</ele>
        <time>2011-06-04T10:26:31Z</time>
      </trkpt>
      <trkpt lat="44.69825" lon="6.90685">
        <ele>2967.8</ele>
        <time>2011-06-04T10:26:35Z</time>
      </trkpt>
      <trkpt lat="44.69827" lon="6.90684">
        <ele>2968.8</ele>
        <time>2011-06-04T10:26:40Z</time>
      </trkpt>
      <trkpt lat="44.69828" lon="6.90683">
        <ele>2969.6</ele>
        <time>2011-06-04T10:26:44Z</time>
      </trkpt>
      <trkpt lat="44.69829" lon="6.90679">
        <ele>2970.6</ele>
        <time>2011-06-04T10:26:48Z</time>
      </trkpt>
      <trkpt lat="44.69831" lon="6.90676">
        <ele>2971.6</ele>
        <time>2011-06-04T10:26:52Z</time>
      </trkpt>
      <trkpt lat="44.69833" lon="6.90674">
        <ele>2972.8</ele>
        <time>2011-06-04T10:26:57Z</time>
      </trkpt>
      <trkpt lat="44.69835" lon="6.90672">
        <ele>2973.6</ele>
        <time>2011-06-04T10:27:01Z</time>
      </trkpt>
      <trkpt lat="44.69837" lon="6.90668">
        <ele>2975</ele>
        <time>2011-06-04T10:27:06Z</time>
      </trkpt>
      <trkpt lat="44.69839" lon="6.90664">
        <ele>2976.2</ele>
        <time>2011-06-04T10:27:11Z</time>
      </trkpt>
      <trkpt lat="44.6984" lon="6.90658">
        <ele>2978</ele>
        <time>2011-06-04T10:27:17Z</time>
      </trkpt>
      <trkpt lat="44.69841" lon="6.90652">
        <ele>2979.6</ele>
        <time>2011-06-04T10:27:23Z</time>
      </trkpt>
      <trkpt lat="44.69843" lon="6.90648">
        <ele>2981.2</ele>
        <time>2011-06-04T10:27:28Z</time>
      </trkpt>
      <trkpt lat="44.69848" lon="6.90646">
        <ele>2986.2</ele>
        <time>2011-06-04T10:27:58Z</time>
      </trkpt>
      <trkpt lat="44.6985" lon="6.90644">
        <ele>2986.4</ele>
        <time>2011-06-04T10:28:00Z</time>
      </trkpt>
      <trkpt lat="44.69852" lon="6.90643">
        <ele>2986.6</ele>
        <time>2011-06-04T10:28:02Z</time>
      </trkpt>
      <trkpt lat="44.69854" lon="6.90637">
        <ele>2987</ele>
        <time>2011-06-04T10:28:05Z</time>
      </trkpt>
      <trkpt lat="44.69855" lon="6.90635">
        <ele>2987</ele>
        <time>2011-06-04T10:28:06Z</time>
      </trkpt>
      <trkpt lat="44.69855" lon="6.90633">
        <ele>2987.2</ele>
        <time>2011-06-04T10:28:07Z</time>
      </trkpt>
      <trkpt lat="44.69856" lon="6.90632">
        <ele>2987.4</ele>
        <time>2011-06-04T10:28:08Z</time>
      </trkpt>
      <trkpt lat="44.69859" lon="6.9063">
        <ele>2987.8</ele>
        <time>2011-06-04T10:28:11Z</time>
      </trkpt>
      <trkpt lat="44.69863" lon="6.90628">
        <ele>2988.4</ele>
        <time>2011-06-04T10:28:15Z</time>
      </trkpt>
      <trkpt lat="44.69866" lon="6.90627">
        <ele>2989</ele>
        <time>2011-06-04T10:28:19Z</time>
      </trkpt>
      <trkpt lat="44.69868" lon="6.90625">
        <ele>2989.8</ele>
        <time>2011-06-04T10:28:23Z</time>
      </trkpt>
      <trkpt lat="44.69868" lon="6.90624">
        <ele>2990</ele>
        <time>2011-06-04T10:28:24Z</time>
      </trkpt>
      <trkpt lat="44.6987" lon="6.90622">
        <ele>2990.6</ele>
        <time>2011-06-04T10:28:28Z</time>
      </trkpt>
      <trkpt lat="44.69868" lon="6.90626">
        <ele>2992</ele>
        <time>2011-06-04T10:28:38Z</time>
      </trkpt>
      <trkpt lat="44.6986" lon="6.90631">
        <ele>2992</ele>
        <time>2011-06-04T10:28:45Z</time>
      </trkpt>
      <trkpt lat="44.69857" lon="6.90635">
        <ele>2992</ele>
        <time>2011-06-04T10:28:48Z</time>
      </trkpt>
      <trkpt lat="44.69854" lon="6.90639">
        <ele>2991.8</ele>
        <time>2011-06-04T10:28:51Z</time>
      </trkpt>
      <trkpt lat="44.69849" lon="6.90647">
        <ele>2991.6</ele>
        <time>2011-06-04T10:28:55Z</time>
      </trkpt>
      <trkpt lat="44.69848" lon="6.90648">
        <ele>2991.6</ele>
        <time>2011-06-04T10:28:56Z</time>
      </trkpt>
      <trkpt lat="44.69844" lon="6.90654">
        <ele>2991.4</ele>
        <time>2011-06-04T10:29:00Z</time>
      </trkpt>
      <trkpt lat="44.69843" lon="6.90657">
        <ele>2991.2</ele>
        <time>2011-06-04T10:29:02Z</time>
      </trkpt>
      <trkpt lat="44.69838" lon="6.90669">
        <ele>2990.6</ele>
        <time>2011-06-04T10:29:09Z</time>
      </trkpt>
      <trkpt lat="44.69835" lon="6.9067">
        <ele>2990.2</ele>
        <time>2011-06-04T10:29:13Z</time>
      </trkpt>
      <trkpt lat="44.69834" lon="6.90672">
        <ele>2990.2</ele>
        <time>2011-06-04T10:29:14Z</time>
      </trkpt>
      <trkpt lat="44.69829" lon="6.90679">
        <ele>2989.6</ele>
        <time>2011-06-04T10:29:18Z</time>
      </trkpt>
      <trkpt lat="44.69824" lon="6.90675">
        <ele>2989.2</ele>
        <time>2011-06-04T10:29:21Z</time>
      </trkpt>
      <trkpt lat="44.69822" lon="6.90674">
        <ele>2988.8</ele>
        <time>2011-06-04T10:29:23Z</time>
      </trkpt>
      <trkpt lat="44.69819" lon="6.90676">
        <ele>2988.4</ele>
        <time>2011-06-04T10:29:26Z</time>
      </trkpt>
      <trkpt lat="44.69818" lon="6.90676">
        <ele>2988.2</ele>
        <time>2011-06-04T10:29:27Z</time>
      </trkpt>
      <trkpt lat="44.69815" lon="6.90678">
        <ele>2987.6</ele>
        <time>2011-06-04T10:29:30Z</time>
      </trkpt>
      <trkpt lat="44.69814" lon="6.90679">
        <ele>2987.4</ele>
        <time>2011-06-04T10:29:31Z</time>
      </trkpt>
      <trkpt lat="44.69811" lon="6.9068">
        <ele>2986.8</ele>
        <time>2011-06-04T10:29:34Z</time>
      </trkpt>
      <trkpt lat="44.69804" lon="6.90685">
        <ele>2985.6</ele>
        <time>2011-06-04T10:29:40Z</time>
      </trkpt>
      <trkpt lat="44.69803" lon="6.90686">
        <ele>2985.2</ele>
        <time>2011-06-04T10:29:41Z</time>
      </trkpt>
      <trkpt lat="44.69799" lon="6.90683">
        <ele>2984.6</ele>
        <time>2011-06-04T10:29:44Z</time>
      </trkpt>
      <trkpt lat="44.69798" lon="6.90682">
        <ele>2984.4</ele>
        <time>2011-06-04T10:29:45Z</time>
      </trkpt>
      <trkpt lat="44.69795" lon="6.90678">
        <ele>2983.8</ele>
        <time>2011-06-04T10:29:47Z</time>
      </trkpt>
      <trkpt lat="44.69792" lon="6.90673">
        <ele>2983</ele>
        <time>2011-06-04T10:29:50Z</time>
      </trkpt>
      <trkpt lat="44.69789" lon="6.9067">
        <ele>2982.4</ele>
        <time>2011-06-04T10:29:52Z</time>
      </trkpt>
      <trkpt lat="44.69785" lon="6.90666">
        <ele>2981.4</ele>
        <time>2011-06-04T10:29:55Z</time>
      </trkpt>
      <trkpt lat="44.69778" lon="6.90656">
        <ele>2979.6</ele>
        <time>2011-06-04T10:30:01Z</time>
      </trkpt>
      <trkpt lat="44.69776" lon="6.90652">
        <ele>2979</ele>
        <time>2011-06-04T10:30:03Z</time>
      </trkpt>
      <trkpt lat="44.69772" lon="6.90647">
        <ele>2977.6</ele>
        <time>2011-06-04T10:30:07Z</time>
      </trkpt>
      <trkpt lat="44.69768" lon="6.90632">
        <ele>2976</ele>
        <time>2011-06-04T10:30:12Z</time>
      </trkpt>
      <trkpt lat="44.69767" lon="6.90629">
        <ele>2975.8</ele>
        <time>2011-06-04T10:30:13Z</time>
      </trkpt>
      <trkpt lat="44.69764" lon="6.90616">
        <ele>2974.4</ele>
        <time>2011-06-04T10:30:17Z</time>
      </trkpt>
      <trkpt lat="44.69765" lon="6.90608">
        <ele>2973.4</ele>
        <time>2011-06-04T10:30:20Z</time>
      </trkpt>
      <trkpt lat="44.69764" lon="6.90603">
        <ele>2972.8</ele>
        <time>2011-06-04T10:30:22Z</time>
      </trkpt>
      <trkpt lat="44.69763" lon="6.90596">
        <ele>2972</ele>
        <time>2011-06-04T10:30:24Z</time>
      </trkpt>
      <trkpt lat="44.69761" lon="6.9059">
        <ele>2971.4</ele>
        <time>2011-06-04T10:30:26Z</time>
      </trkpt>
      <trkpt lat="44.69757" lon="6.9058">
        <ele>2969.8</ele>
        <time>2011-06-04T10:30:30Z</time>
      </trkpt>
      <trkpt lat="44.69757" lon="6.90577">
        <ele>2969.6</ele>
        <time>2011-06-04T10:30:31Z</time>
      </trkpt>
      <trkpt lat="44.69752" lon="6.90563">
        <ele>2967.2</ele>
        <time>2011-06-04T10:30:37Z</time>
      </trkpt>
      <trkpt lat="44.6975" lon="6.90555">
        <ele>2966</ele>
        <time>2011-06-04T10:30:40Z</time>
      </trkpt>
      <trkpt lat="44.69746" lon="6.90547">
        <ele>2964.6</ele>
        <time>2011-06-04T10:30:43Z</time>
      </trkpt>
      <trkpt lat="44.69741" lon="6.9054">
        <ele>2963.4</ele>
        <time>2011-06-04T10:30:46Z</time>
      </trkpt>
      <trkpt lat="44.6974" lon="6.90538">
        <ele>2963</ele>
        <time>2011-06-04T10:30:47Z</time>
      </trkpt>
      <trkpt lat="44.69739" lon="6.90533">
        <ele>2962</ele>
        <time>2011-06-04T10:30:49Z</time>
      </trkpt>
      <trkpt lat="44.69738" lon="6.90531">
        <ele>2961.6</ele>
        <time>2011-06-04T10:30:50Z</time>
      </trkpt>
      <trkpt lat="44.69737" lon="6.90527">
        <ele>2960.8</ele>
        <time>2011-06-04T10:30:52Z</time>
      </trkpt>
      <trkpt lat="44.69735" lon="6.90514">
        <ele>2958.4</ele>
        <time>2011-06-04T10:30:57Z</time>
      </trkpt>
      <trkpt lat="44.69733" lon="6.90508">
        <ele>2957</ele>
        <time>2011-06-04T10:31:00Z</time>
      </trkpt>
      <trkpt lat="44.69731" lon="6.90503">
        <ele>2955.8</ele>
        <time>2011-06-04T10:31:02Z</time>
      </trkpt>
      <trkpt lat="44.69731" lon="6.90492">
        <ele>2953.2</ele>
        <time>2011-06-04T10:31:07Z</time>
      </trkpt>
      <trkpt lat="44.69731" lon="6.90489">
        <ele>2952.8</ele>
        <time>2011-06-04T10:31:08Z</time>
      </trkpt>
      <trkpt lat="44.69732" lon="6.90482">
        <ele>2951</ele>
        <time>2011-06-04T10:31:11Z</time>
      </trkpt>
      <trkpt lat="44.69729" lon="6.90474">
        <ele>2948.8</ele>
        <time>2011-06-04T10:31:15Z</time>
      </trkpt>
      <trkpt lat="44.69728" lon="6.90471">
        <ele>2947.6</ele>
        <time>2011-06-04T10:31:17Z</time>
      </trkpt>
      <trkpt lat="44.69728" lon="6.9047">
        <ele>2946.6</ele>
        <time>2011-06-04T10:31:19Z</time>
      </trkpt>
      <trkpt lat="44.69726" lon="6.90461">
        <ele>2944.2</ele>
        <time>2011-06-04T10:31:23Z</time>
      </trkpt>
      <trkpt lat="44.69724" lon="6.90459">
        <ele>2943.6</ele>
        <time>2011-06-04T10:31:24Z</time>
      </trkpt>
      <trkpt lat="44.69721" lon="6.90449">
        <ele>2941.2</ele>
        <time>2011-06-04T10:31:28Z</time>
      </trkpt>
      <trkpt lat="44.69721" lon="6.90446">
        <ele>2940.6</ele>
        <time>2011-06-04T10:31:29Z</time>
      </trkpt>
      <trkpt lat="44.69721" lon="6.90437">
        <ele>2938.6</ele>
        <time>2011-06-04T10:31:32Z</time>
      </trkpt>
      <trkpt lat="44.6972" lon="6.90434">
        <ele>2938</ele>
        <time>2011-06-04T10:31:33Z</time>
      </trkpt>
      <trkpt lat="44.69718" lon="6.90429">
        <ele>2936.8</ele>
        <time>2011-06-04T10:31:35Z</time>
      </trkpt>
      <trkpt lat="44.69717" lon="6.90428">
        <ele>2936.2</ele>
        <time>2011-06-04T10:31:36Z</time>
      </trkpt>
      <trkpt lat="44.69713" lon="6.90426">
        <ele>2933.8</ele>
        <time>2011-06-04T10:31:40Z</time>
      </trkpt>
      <trkpt lat="44.69711" lon="6.90426">
        <ele>2932.6</ele>
        <time>2011-06-04T10:31:42Z</time>
      </trkpt>
      <trkpt lat="44.69711" lon="6.90425">
        <ele>2931</ele>
        <time>2011-06-04T10:31:45Z</time>
      </trkpt>
      <trkpt lat="44.69707" lon="6.90424">
        <ele>2927.2</ele>
        <time>2011-06-04T10:31:52Z</time>
      </trkpt>
      <trkpt lat="44.69705" lon="6.90422">
        <ele>2926</ele>
        <time>2011-06-04T10:31:54Z</time>
      </trkpt>
      <trkpt lat="44.69705" lon="6.90421">
        <ele>2925.6</ele>
        <time>2011-06-04T10:31:55Z</time>
      </trkpt>
      <trkpt lat="44.69701" lon="6.9042">
        <ele>2924</ele>
        <time>2011-06-04T10:31:58Z</time>
      </trkpt>
      <trkpt lat="44.69697" lon="6.90419">
        <ele>2922</ele>
        <time>2011-06-04T10:32:02Z</time>
      </trkpt>
      <trkpt lat="44.69694" lon="6.90417">
        <ele>2920.6</ele>
        <time>2011-06-04T10:32:05Z</time>
      </trkpt>
      <trkpt lat="44.69693" lon="6.90416">
        <ele>2919.6</ele>
        <time>2011-06-04T10:32:07Z</time>
      </trkpt>
      <trkpt lat="44.69692" lon="6.90415">
        <ele>2919</ele>
        <time>2011-06-04T10:32:08Z</time>
      </trkpt>
      <trkpt lat="44.6969" lon="6.9041">
        <ele>2917.2</ele>
        <time>2011-06-04T10:32:12Z</time>
      </trkpt>
      <trkpt lat="44.69689" lon="6.90409">
        <ele>2916.6</ele>
        <time>2011-06-04T10:32:13Z</time>
      </trkpt>
      <trkpt lat="44.69688" lon="6.90406">
        <ele>2914.8</ele>
        <time>2011-06-04T10:32:17Z</time>
      </trkpt>
      <trkpt lat="44.69687" lon="6.90401">
        <ele>2911.2</ele>
        <time>2011-06-04T10:32:25Z</time>
      </trkpt>
      <trkpt lat="44.69687" lon="6.90399">
        <ele>2909</ele>
        <time>2011-06-04T10:32:30Z</time>
      </trkpt>
      <trkpt lat="44.69687" lon="6.90395">
        <ele>2907</ele>
        <time>2011-06-04T10:32:35Z</time>
      </trkpt>
      <trkpt lat="44.69688" lon="6.9039">
        <ele>2904.4</ele>
        <time>2011-06-04T10:32:41Z</time>
      </trkpt>
      <trkpt lat="44.69688" lon="6.90386">
        <ele>2902.4</ele>
        <time>2011-06-04T10:32:46Z</time>
      </trkpt>
      <trkpt lat="44.69688" lon="6.90386">
        <ele>2902</ele>
        <time>2011-06-04T10:32:47Z</time>
      </trkpt>
      <trkpt lat="44.69688" lon="6.90382">
        <ele>2900.2</ele>
        <time>2011-06-04T10:32:52Z</time>
      </trkpt>
      <trkpt lat="44.6969" lon="6.90378">
        <ele>2892.8</ele>
        <time>2011-06-04T10:33:14Z</time>
      </trkpt>
      <trkpt lat="44.69691" lon="6.90376">
        <ele>2891</ele>
        <time>2011-06-04T10:33:20Z</time>
      </trkpt>
      <trkpt lat="44.69691" lon="6.90374">
        <ele>2889.2</ele>
        <time>2011-06-04T10:33:27Z</time>
      </trkpt>
      <trkpt lat="44.69691" lon="6.90369">
        <ele>2888.4</ele>
        <time>2011-06-04T10:33:29Z</time>
      </trkpt>
      <trkpt lat="44.69692" lon="6.90362">
        <ele>2887.8</ele>
        <time>2011-06-04T10:33:31Z</time>
      </trkpt>
      <trkpt lat="44.69692" lon="6.90352">
        <ele>2886.6</ele>
        <time>2011-06-04T10:33:35Z</time>
      </trkpt>
      <trkpt lat="44.69693" lon="6.90338">
        <ele>2884.8</ele>
        <time>2011-06-04T10:33:40Z</time>
      </trkpt>
      <trkpt lat="44.69693" lon="6.90336">
        <ele>2884.4</ele>
        <time>2011-06-04T10:33:41Z</time>
      </trkpt>
      <trkpt lat="44.69693" lon="6.90326">
        <ele>2882.8</ele>
        <time>2011-06-04T10:33:45Z</time>
      </trkpt>
      <trkpt lat="44.69692" lon="6.90323">
        <ele>2882.4</ele>
        <time>2011-06-04T10:33:46Z</time>
      </trkpt>
      <trkpt lat="44.69693" lon="6.90318">
        <ele>2881.2</ele>
        <time>2011-06-04T10:33:49Z</time>
      </trkpt>
      <trkpt lat="44.69693" lon="6.90311">
        <ele>2879.2</ele>
        <time>2011-06-04T10:33:54Z</time>
      </trkpt>
      <trkpt lat="44.69693" lon="6.90311">
        <ele>2878.4</ele>
        <time>2011-06-04T10:33:56Z</time>
      </trkpt>
      <trkpt lat="44.69693" lon="6.90309">
        <ele>2872.6</ele>
        <time>2011-06-04T10:34:12Z</time>
      </trkpt>
      <trkpt lat="44.69692" lon="6.90304">
        <ele>2871</ele>
        <time>2011-06-04T10:34:16Z</time>
      </trkpt>
      <trkpt lat="44.69692" lon="6.90303">
        <ele>2870.4</ele>
        <time>2011-06-04T10:34:18Z</time>
      </trkpt>
      <trkpt lat="44.69691" lon="6.903">
        <ele>2869.6</ele>
        <time>2011-06-04T10:34:20Z</time>
      </trkpt>
      <trkpt lat="44.69691" lon="6.90297">
        <ele>2869</ele>
        <time>2011-06-04T10:34:22Z</time>
      </trkpt>
      <trkpt lat="44.69692" lon="6.90293">
        <ele>2868.2</ele>
        <time>2011-06-04T10:34:24Z</time>
      </trkpt>
      <trkpt lat="44.69693" lon="6.90292">
        <ele>2867.8</ele>
        <time>2011-06-04T10:34:25Z</time>
      </trkpt>
      <trkpt lat="44.69693" lon="6.9029">
        <ele>2867.6</ele>
        <time>2011-06-04T10:34:26Z</time>
      </trkpt>
      <trkpt lat="44.69693" lon="6.90289">
        <ele>2867.2</ele>
        <time>2011-06-04T10:34:27Z</time>
      </trkpt>
      <trkpt lat="44.69692" lon="6.90283">
        <ele>2865.6</ele>
        <time>2011-06-04T10:34:31Z</time>
      </trkpt>
      <trkpt lat="44.69692" lon="6.90282">
        <ele>2865.2</ele>
        <time>2011-06-04T10:34:32Z</time>
      </trkpt>
      <trkpt lat="44.69687" lon="6.90271">
        <ele>2863.2</ele>
        <time>2011-06-04T10:34:37Z</time>
      </trkpt>
      <trkpt lat="44.69685" lon="6.90266">
        <ele>2862.4</ele>
        <time>2011-06-04T10:34:39Z</time>
      </trkpt>
      <trkpt lat="44.69683" lon="6.90257">
        <ele>2861.2</ele>
        <time>2011-06-04T10:34:42Z</time>
      </trkpt>
      <trkpt lat="44.6968" lon="6.90245">
        <ele>2859.2</ele>
        <time>2011-06-04T10:34:47Z</time>
      </trkpt>
      <trkpt lat="44.69679" lon="6.90241">
        <ele>2858.2</ele>
        <time>2011-06-04T10:34:49Z</time>
      </trkpt>
      <trkpt lat="44.69681" lon="6.90235">
        <ele>2857</ele>
        <time>2011-06-04T10:34:52Z</time>
      </trkpt>
      <trkpt lat="44.69681" lon="6.90234">
        <ele>2856.6</ele>
        <time>2011-06-04T10:34:53Z</time>
      </trkpt>
      <trkpt lat="44.69681" lon="6.90228">
        <ele>2855.2</ele>
        <time>2011-06-04T10:34:56Z</time>
      </trkpt>
      <trkpt lat="44.69681" lon="6.90223">
        <ele>2854</ele>
        <time>2011-06-04T10:34:59Z</time>
      </trkpt>
      <trkpt lat="44.69681" lon="6.90217">
        <ele>2852.6</ele>
        <time>2011-06-04T10:35:02Z</time>
      </trkpt>
      <trkpt lat="44.69681" lon="6.90215">
        <ele>2852.2</ele>
        <time>2011-06-04T10:35:03Z</time>
      </trkpt>
      <trkpt lat="44.69681" lon="6.90205">
        <ele>2850</ele>
        <time>2011-06-04T10:35:08Z</time>
      </trkpt>
      <trkpt lat="44.6968" lon="6.90197">
        <ele>2848.6</ele>
        <time>2011-06-04T10:35:11Z</time>
      </trkpt>
      <trkpt lat="44.69681" lon="6.90194">
        <ele>2847.8</ele>
        <time>2011-06-04T10:35:13Z</time>
      </trkpt>
      <trkpt lat="44.69682" lon="6.90191">
        <ele>2846.8</ele>
        <time>2011-06-04T10:35:15Z</time>
      </trkpt>
      <trkpt lat="44.69687" lon="6.90189">
        <ele>2845.2</ele>
        <time>2011-06-04T10:35:19Z</time>
      </trkpt>
      <trkpt lat="44.69689" lon="6.90188">
        <ele>2844</ele>
        <time>2011-06-04T10:35:22Z</time>
      </trkpt>
      <trkpt lat="44.6969" lon="6.90187">
        <ele>2843.2</ele>
        <time>2011-06-04T10:35:24Z</time>
      </trkpt>
      <trkpt lat="44.69691" lon="6.90186">
        <ele>2839.8</ele>
        <time>2011-06-04T10:35:33Z</time>
      </trkpt>
      <trkpt lat="44.69694" lon="6.90184">
        <ele>2837.2</ele>
        <time>2011-06-04T10:35:40Z</time>
      </trkpt>
      <trkpt lat="44.69695" lon="6.90182">
        <ele>2833.8</ele>
        <time>2011-06-04T10:35:50Z</time>
      </trkpt>
      <trkpt lat="44.69697" lon="6.90182">
        <ele>2832.8</ele>
        <time>2011-06-04T10:35:53Z</time>
      </trkpt>
      <trkpt lat="44.69698" lon="6.90182">
        <ele>2831.8</ele>
        <time>2011-06-04T10:35:56Z</time>
      </trkpt>
      <trkpt lat="44.69698" lon="6.90183">
        <ele>2823.8</ele>
        <time>2011-06-04T10:36:25Z</time>
      </trkpt>
      <trkpt lat="44.69699" lon="6.90184">
        <ele>2821.4</ele>
        <time>2011-06-04T10:36:35Z</time>
      </trkpt>
      <trkpt lat="44.69699" lon="6.90182">
        <ele>2817.6</ele>
        <time>2011-06-04T10:36:54Z</time>
      </trkpt>
      <trkpt lat="44.697" lon="6.90182">
        <ele>2816.4</ele>
        <time>2011-06-04T10:37:00Z</time>
      </trkpt>
      <trkpt lat="44.69696" lon="6.90183">
        <ele>2815.4</ele>
        <time>2011-06-04T10:37:06Z</time>
      </trkpt>
      <trkpt lat="44.69695" lon="6.90183">
        <ele>2814.6</ele>
        <time>2011-06-04T10:37:11Z</time>
      </trkpt>
      <trkpt lat="44.69698" lon="6.90183">
        <ele>2813</ele>
        <time>2011-06-04T10:37:21Z</time>
      </trkpt>
      <trkpt lat="44.69699" lon="6.90183">
        <ele>2812.2</ele>
        <time>2011-06-04T10:37:27Z</time>
      </trkpt>
      <trkpt lat="44.697" lon="6.90182">
        <ele>2811.4</ele>
        <time>2011-06-04T10:37:32Z</time>
      </trkpt>
      <trkpt lat="44.69702" lon="6.90181">
        <ele>2810.6</ele>
        <time>2011-06-04T10:37:37Z</time>
      </trkpt>
      <trkpt lat="44.69703" lon="6.90182">
        <ele>2810.4</ele>
        <time>2011-06-04T10:37:38Z</time>
      </trkpt>
      <trkpt lat="44.69704" lon="6.90183">
        <ele>2810</ele>
        <time>2011-06-04T10:37:41Z</time>
      </trkpt>
      <trkpt lat="44.69702" lon="6.90183">
        <ele>2809.4</ele>
        <time>2011-06-04T10:37:45Z</time>
      </trkpt>
      <trkpt lat="44.69701" lon="6.90183">
        <ele>2809.4</ele>
        <time>2011-06-04T10:37:46Z</time>
      </trkpt>
      <trkpt lat="44.69699" lon="6.90183">
        <ele>2808.8</ele>
        <time>2011-06-04T10:37:51Z</time>
      </trkpt>
      <trkpt lat="44.69699" lon="6.90183">
        <ele>2807.6</ele>
        <time>2011-06-04T10:38:02Z</time>
      </trkpt>
      <trkpt lat="44.69699" lon="6.90182">
        <ele>2806.8</ele>
        <time>2011-06-04T10:38:10Z</time>
      </trkpt>
      <trkpt lat="44.69699" lon="6.90181">
        <ele>2805.4</ele>
        <time>2011-06-04T10:38:36Z</time>
      </trkpt>
      <trkpt lat="44.697" lon="6.90182">
        <ele>2803</ele>
        <time>2011-06-04T10:39:26Z</time>
      </trkpt>
      <trkpt lat="44.69697" lon="6.90183">
        <ele>2802.6</ele>
        <time>2011-06-04T10:39:35Z</time>
      </trkpt>
      <trkpt lat="44.69696" lon="6.90185">
        <ele>2802.4</ele>
        <time>2011-06-04T10:39:40Z</time>
      </trkpt>
      <trkpt lat="44.69696" lon="6.90184">
        <ele>2802.2</ele>
        <time>2011-06-04T10:39:49Z</time>
      </trkpt>
      <trkpt lat="44.69697" lon="6.90185">
        <ele>2801.4</ele>
        <time>2011-06-04T10:40:13Z</time>
      </trkpt>
      <trkpt lat="44.69696" lon="6.90185">
        <ele>2801</ele>
        <time>2011-06-04T10:40:24Z</time>
      </trkpt>
      <trkpt lat="44.69696" lon="6.90183">
        <ele>2800.6</ele>
        <time>2011-06-04T10:40:45Z</time>
      </trkpt>
      <trkpt lat="44.69696" lon="6.90184">
        <ele>2800.4</ele>
        <time>2011-06-04T10:40:50Z</time>
      </trkpt>
      <trkpt lat="44.69695" lon="6.90183">
        <ele>2798.2</ele>
        <time>2011-06-04T10:41:28Z</time>
      </trkpt>
      <trkpt lat="44.69694" lon="6.90183">
        <ele>2793.4</ele>
        <time>2011-06-04T10:42:43Z</time>
      </trkpt>
      <trkpt lat="44.69696" lon="6.90183">
        <ele>2792.8</ele>
        <time>2011-06-04T10:43:15Z</time>
      </trkpt>
      <trkpt lat="44.69696" lon="6.90184">
        <ele>2792.2</ele>
        <time>2011-06-04T10:43:39Z</time>
      </trkpt>
      <trkpt lat="44.69695" lon="6.90184">
        <ele>2792</ele>
        <time>2011-06-04T10:43:48Z</time>
      </trkpt>
      <trkpt lat="44.69695" lon="6.90183">
        <ele>2791.2</ele>
        <time>2011-06-04T10:44:18Z</time>
      </trkpt>
      <trkpt lat="44.69696" lon="6.90183">
        <ele>2790.4</ele>
        <time>2011-06-04T10:45:52Z</time>
      </trkpt>
      <trkpt lat="44.69695" lon="6.90183">
        <ele>2790.2</ele>
        <time>2011-06-04T10:46:18Z</time>
      </trkpt>
      <trkpt lat="44.69694" lon="6.90183">
        <ele>2787.8</ele>
        <time>2011-06-04T10:49:14Z</time>
      </trkpt>
      <trkpt lat="44.69694" lon="6.90183">
        <ele>2787.6</ele>
        <time>2011-06-04T10:49:51Z</time>
      </trkpt>
      <trkpt lat="44.69695" lon="6.90182">
        <ele>2787.8</ele>
        <time>2011-06-04T10:49:52Z</time>
      </trkpt>
      <trkpt lat="44.69694" lon="6.90183">
        <ele>2788.6</ele>
        <time>2011-06-04T10:50:01Z</time>
      </trkpt>
      <trkpt lat="44.69694" lon="6.90182">
        <ele>2789.4</ele>
        <time>2011-06-04T10:50:09Z</time>
      </trkpt>
      <trkpt lat="44.69694" lon="6.90181">
        <ele>2791.8</ele>
        <time>2011-06-04T10:50:27Z</time>
      </trkpt>
      <trkpt lat="44.69692" lon="6.90177">
        <ele>2798.2</ele>
        <time>2011-06-04T10:51:18Z</time>
      </trkpt>
      <trkpt lat="44.69693" lon="6.90179">
        <ele>2800</ele>
        <time>2011-06-04T10:51:37Z</time>
      </trkpt>
      <trkpt lat="44.69693" lon="6.90178">
        <ele>2800.4</ele>
        <time>2011-06-04T10:51:46Z</time>
      </trkpt>
      <trkpt lat="44.69692" lon="6.90179">
        <ele>2800.6</ele>
        <time>2011-06-04T10:52:09Z</time>
      </trkpt>
      <trkpt lat="44.69692" lon="6.90178">
        <ele>2800.4</ele>
        <time>2011-06-04T10:52:15Z</time>
      </trkpt>
      <trkpt lat="44.69691" lon="6.90178">
        <ele>2799.8</ele>
        <time>2011-06-04T10:53:26Z</time>
      </trkpt>
      <trkpt lat="44.69692" lon="6.90179">
        <ele>2799.6</ele>
        <time>2011-06-04T10:53:47Z</time>
      </trkpt>
      <trkpt lat="44.69691" lon="6.90178">
        <ele>2804.6</ele>
        <time>2011-06-04T10:56:12Z</time>
      </trkpt>
      <trkpt lat="44.69692" lon="6.90181">
        <ele>2803.8</ele>
        <time>2011-06-04T10:57:08Z</time>
      </trkpt>
      <trkpt lat="44.69691" lon="6.90179">
        <ele>2803.4</ele>
        <time>2011-06-04T10:57:20Z</time>
      </trkpt>
      <trkpt lat="44.69692" lon="6.9018">
        <ele>2802.8</ele>
        <time>2011-06-04T10:58:20Z</time>
      </trkpt>
      <trkpt lat="44.69692" lon="6.90179">
        <ele>2802.6</ele>
        <time>2011-06-04T10:58:24Z</time>
      </trkpt>
      <trkpt lat="44.69691" lon="6.90178">
        <ele>2801</ele>
        <time>2011-06-04T10:59:35Z</time>
      </trkpt>
      <trkpt lat="44.69693" lon="6.90179">
        <ele>2799</ele>
        <time>2011-06-04T11:03:07Z</time>
      </trkpt>
      <trkpt lat="44.69693" lon="6.90179">
        <ele>2799.8</ele>
        <time>2011-06-04T11:04:27Z</time>
      </trkpt>
      <trkpt lat="44.69693" lon="6.90178">
        <ele>2798.8</ele>
        <time>2011-06-04T11:05:27Z</time>
      </trkpt>
      <trkpt lat="44.69694" lon="6.90179">
        <ele>2798.8</ele>
        <time>2011-06-04T11:06:02Z</time>
      </trkpt>
      <trkpt lat="44.69691" lon="6.90179">
        <ele>2800.6</ele>
        <time>2011-06-04T11:06:58Z</time>
      </trkpt>
      <trkpt lat="44.69691" lon="6.90181">
        <ele>2800.6</ele>
        <time>2011-06-04T11:07:03Z</time>
      </trkpt>
      <trkpt lat="44.69693" lon="6.90179">
        <ele>2800.4</ele>
        <time>2011-06-04T11:07:15Z</time>
      </trkpt>
      <trkpt lat="44.69696" lon="6.90179">
        <ele>2799.4</ele>
        <time>2011-06-04T11:07:50Z</time>
      </trkpt>
      <trkpt lat="44.69698" lon="6.90178">
        <ele>2799.4</ele>
        <time>2011-06-04T11:07:54Z</time>
      </trkpt>
      <trkpt lat="44.69698" lon="6.90179">
        <ele>2799.2</ele>
        <time>2011-06-04T11:08:00Z</time>
      </trkpt>
      <trkpt lat="44.69698" lon="6.90179">
        <ele>2799.2</ele>
        <time>2011-06-04T11:08:01Z</time>
      </trkpt>
      <trkpt lat="44.69697" lon="6.90178">
        <ele>2799.2</ele>
        <time>2011-06-04T11:08:10Z</time>
      </trkpt>
      <trkpt lat="44.69697" lon="6.90178">
        <ele>2802.2</ele>
        <time>2011-06-04T11:09:20Z</time>
      </trkpt>
      <trkpt lat="44.69697" lon="6.90178">
        <ele>2802.6</ele>
        <time>2011-06-04T11:09:49Z</time>
      </trkpt>
      <trkpt lat="44.69698" lon="6.90178">
        <ele>2802.6</ele>
        <time>2011-06-04T11:09:57Z</time>
      </trkpt>
      <trkpt lat="44.69696" lon="6.90176">
        <ele>2802.4</ele>
        <time>2011-06-04T11:10:11Z</time>
      </trkpt>
      <trkpt lat="44.69696" lon="6.90176">
        <ele>2802.4</ele>
        <time>2011-06-04T11:10:16Z</time>
      </trkpt>
      <trkpt lat="44.69696" lon="6.90177">
        <ele>2802.2</ele>
        <time>2011-06-04T11:10:21Z</time>
      </trkpt>
      <trkpt lat="44.69693" lon="6.90178">
        <ele>2802.2</ele>
        <time>2011-06-04T11:10:26Z</time>
      </trkpt>
      <trkpt lat="44.6969" lon="6.90179">
        <ele>2802.2</ele>
        <time>2011-06-04T11:10:33Z</time>
      </trkpt>
      <trkpt lat="44.6969" lon="6.90179">
        <ele>2802.2</ele>
        <time>2011-06-04T11:10:35Z</time>
      </trkpt>
      <trkpt lat="44.69689" lon="6.90179">
        <ele>2802.4</ele>
        <time>2011-06-04T11:10:40Z</time>
      </trkpt>
      <trkpt lat="44.69692" lon="6.90178">
        <ele>2805</ele>
        <time>2011-06-04T11:11:52Z</time>
      </trkpt>
      <trkpt lat="44.69694" lon="6.90177">
        <ele>2804.6</ele>
        <time>2011-06-04T11:12:02Z</time>
      </trkpt>
      <trkpt lat="44.69701" lon="6.90173">
        <ele>2804</ele>
        <time>2011-06-04T11:12:09Z</time>
      </trkpt>
      <trkpt lat="44.69705" lon="6.9017">
        <ele>2803.8</ele>
        <time>2011-06-04T11:12:11Z</time>
      </trkpt>
      <trkpt lat="44.6971" lon="6.90166">
        <ele>2803.6</ele>
        <time>2011-06-04T11:12:13Z</time>
      </trkpt>
      <trkpt lat="44.69717" lon="6.90159">
        <ele>2803.2</ele>
        <time>2011-06-04T11:12:17Z</time>
      </trkpt>
      <trkpt lat="44.6972" lon="6.90154">
        <ele>2802.8</ele>
        <time>2011-06-04T11:12:20Z</time>
      </trkpt>
      <trkpt lat="44.69722" lon="6.90152">
        <ele>2802.4</ele>
        <time>2011-06-04T11:12:22Z</time>
      </trkpt>
      <trkpt lat="44.69726" lon="6.90148">
        <ele>2802</ele>
        <time>2011-06-04T11:12:25Z</time>
      </trkpt>
      <trkpt lat="44.69727" lon="6.90145">
        <ele>2801.6</ele>
        <time>2011-06-04T11:12:27Z</time>
      </trkpt>
      <trkpt lat="44.69729" lon="6.90135">
        <ele>2800.2</ele>
        <time>2011-06-04T11:12:33Z</time>
      </trkpt>
      <trkpt lat="44.69729" lon="6.90134">
        <ele>2800</ele>
        <time>2011-06-04T11:12:34Z</time>
      </trkpt>
      <trkpt lat="44.69731" lon="6.9013">
        <ele>2799.2</ele>
        <time>2011-06-04T11:12:38Z</time>
      </trkpt>
      <trkpt lat="44.69733" lon="6.90132">
        <ele>2798.8</ele>
        <time>2011-06-04T11:12:41Z</time>
      </trkpt>
      <trkpt lat="44.69736" lon="6.90133">
        <ele>2798</ele>
        <time>2011-06-04T11:12:45Z</time>
      </trkpt>
      <trkpt lat="44.69741" lon="6.90128">
        <ele>2797</ele>
        <time>2011-06-04T11:12:52Z</time>
      </trkpt>
      <trkpt lat="44.69742" lon="6.90126">
        <ele>2796.8</ele>
        <time>2011-06-04T11:12:53Z</time>
      </trkpt>
      <trkpt lat="44.69745" lon="6.90118">
        <ele>2796.2</ele>
        <time>2011-06-04T11:12:57Z</time>
      </trkpt>
      <trkpt lat="44.69747" lon="6.90115">
        <ele>2796</ele>
        <time>2011-06-04T11:12:59Z</time>
      </trkpt>
      <trkpt lat="44.69748" lon="6.90112">
        <ele>2795.6</ele>
        <time>2011-06-04T11:13:01Z</time>
      </trkpt>
      <trkpt lat="44.69751" lon="6.90109">
        <ele>2795.4</ele>
        <time>2011-06-04T11:13:03Z</time>
      </trkpt>
      <trkpt lat="44.69754" lon="6.90107">
        <ele>2795</ele>
        <time>2011-06-04T11:13:05Z</time>
      </trkpt>
      <trkpt lat="44.69756" lon="6.90106">
        <ele>2794.8</ele>
        <time>2011-06-04T11:13:06Z</time>
      </trkpt>
      <trkpt lat="44.69759" lon="6.90103">
        <ele>2794.6</ele>
        <time>2011-06-04T11:13:08Z</time>
      </trkpt>
      <trkpt lat="44.69767" lon="6.90094">
        <ele>2793.6</ele>
        <time>2011-06-04T11:13:14Z</time>
      </trkpt>
      <trkpt lat="44.69769" lon="6.90091">
        <ele>2793.2</ele>
        <time>2011-06-04T11:13:16Z</time>
      </trkpt>
      <trkpt lat="44.69771" lon="6.90089">
        <ele>2792.6</ele>
        <time>2011-06-04T11:13:19Z</time>
      </trkpt>
      <trkpt lat="44.69771" lon="6.90086">
        <ele>2792</ele>
        <time>2011-06-04T11:13:23Z</time>
      </trkpt>
      <trkpt lat="44.6977" lon="6.90081">
        <ele>2791.4</ele>
        <time>2011-06-04T11:13:26Z</time>
      </trkpt>
      <trkpt lat="44.6977" lon="6.90079">
        <ele>2791.2</ele>
        <time>2011-06-04T11:13:27Z</time>
      </trkpt>
      <trkpt lat="44.69773" lon="6.90077">
        <ele>2790.6</ele>
        <time>2011-06-04T11:13:31Z</time>
      </trkpt>
      <trkpt lat="44.69778" lon="6.90074">
        <ele>2790</ele>
        <time>2011-06-04T11:13:34Z</time>
      </trkpt>
      <trkpt lat="44.6978" lon="6.90073">
        <ele>2789.8</ele>
        <time>2011-06-04T11:13:35Z</time>
      </trkpt>
      <trkpt lat="44.69792" lon="6.90062">
        <ele>2788.8</ele>
        <time>2011-06-04T11:13:41Z</time>
      </trkpt>
      <trkpt lat="44.69795" lon="6.9006">
        <ele>2788.6</ele>
        <time>2011-06-04T11:13:42Z</time>
      </trkpt>
      <trkpt lat="44.69802" lon="6.90052">
        <ele>2787.6</ele>
        <time>2011-06-04T11:13:46Z</time>
      </trkpt>
      <trkpt lat="44.69809" lon="6.90045">
        <ele>2786.6</ele>
        <time>2011-06-04T11:13:51Z</time>
      </trkpt>
      <trkpt lat="44.69811" lon="6.90043">
        <ele>2786.4</ele>
        <time>2011-06-04T11:13:52Z</time>
      </trkpt>
      <trkpt lat="44.69816" lon="6.90035">
        <ele>2785.4</ele>
        <time>2011-06-04T11:13:56Z</time>
      </trkpt>
      <trkpt lat="44.69825" lon="6.90025">
        <ele>2783.8</ele>
        <time>2011-06-04T11:14:02Z</time>
      </trkpt>
      <trkpt lat="44.69827" lon="6.90024">
        <ele>2783.6</ele>
        <time>2011-06-04T11:14:03Z</time>
      </trkpt>
      <trkpt lat="44.69834" lon="6.90017">
        <ele>2781.8</ele>
        <time>2011-06-04T11:14:10Z</time>
      </trkpt>
      <trkpt lat="44.69833" lon="6.90014">
        <ele>2780.4</ele>
        <time>2011-06-04T11:14:17Z</time>
      </trkpt>
      <trkpt lat="44.69837" lon="6.90012">
        <ele>2779.2</ele>
        <time>2011-06-04T11:14:23Z</time>
      </trkpt>
      <trkpt lat="44.69839" lon="6.90013">
        <ele>2778</ele>
        <time>2011-06-04T11:14:30Z</time>
      </trkpt>
      <trkpt lat="44.69839" lon="6.90014">
        <ele>2777.8</ele>
        <time>2011-06-04T11:14:31Z</time>
      </trkpt>
      <trkpt lat="44.69839" lon="6.90017">
        <ele>2777.2</ele>
        <time>2011-06-04T11:14:35Z</time>
      </trkpt>
      <trkpt lat="44.69841" lon="6.90018">
        <ele>2776.6</ele>
        <time>2011-06-04T11:14:40Z</time>
      </trkpt>
      <trkpt lat="44.69842" lon="6.90018">
        <ele>2776.4</ele>
        <time>2011-06-04T11:14:41Z</time>
      </trkpt>
      <trkpt lat="44.69844" lon="6.9002">
        <ele>2776</ele>
        <time>2011-06-04T11:14:45Z</time>
      </trkpt>
      <trkpt lat="44.69846" lon="6.9002">
        <ele>2775.4</ele>
        <time>2011-06-04T11:14:50Z</time>
      </trkpt>
      <trkpt lat="44.6985" lon="6.90021">
        <ele>2774.6</ele>
        <time>2011-06-04T11:14:57Z</time>
      </trkpt>
      <trkpt lat="44.69854" lon="6.9002">
        <ele>2774.2</ele>
        <time>2011-06-04T11:15:02Z</time>
      </trkpt>
      <trkpt lat="44.69855" lon="6.90021">
        <ele>2774</ele>
        <time>2011-06-04T11:15:03Z</time>
      </trkpt>
      <trkpt lat="44.69858" lon="6.90021">
        <ele>2773.4</ele>
        <time>2011-06-04T11:15:09Z</time>
      </trkpt>
      <trkpt lat="44.69863" lon="6.9002">
        <ele>2772.8</ele>
        <time>2011-06-04T11:15:15Z</time>
      </trkpt>
      <trkpt lat="44.69865" lon="6.90019">
        <ele>2772</ele>
        <time>2011-06-04T11:15:22Z</time>
      </trkpt>
      <trkpt lat="44.69869" lon="6.90018">
        <ele>2771.4</ele>
        <time>2011-06-04T11:15:27Z</time>
      </trkpt>
      <trkpt lat="44.69871" lon="6.90017">
        <ele>2770.4</ele>
        <time>2011-06-04T11:15:34Z</time>
      </trkpt>
      <trkpt lat="44.69872" lon="6.90017">
        <ele>2770.4</ele>
        <time>2011-06-04T11:15:35Z</time>
      </trkpt>
      <trkpt lat="44.69876" lon="6.90017">
        <ele>2769.8</ele>
        <time>2011-06-04T11:15:39Z</time>
      </trkpt>
      <trkpt lat="44.69877" lon="6.90017">
        <ele>2769.8</ele>
        <time>2011-06-04T11:15:40Z</time>
      </trkpt>
      <trkpt lat="44.69881" lon="6.90015">
        <ele>2769.2</ele>
        <time>2011-06-04T11:15:45Z</time>
      </trkpt>
      <trkpt lat="44.69886" lon="6.90015">
        <ele>2768.6</ele>
        <time>2011-06-04T11:15:51Z</time>
      </trkpt>
      <trkpt lat="44.69887" lon="6.90017">
        <ele>2767.8</ele>
        <time>2011-06-04T11:15:59Z</time>
      </trkpt>
      <trkpt lat="44.69886" lon="6.90016">
        <ele>2766.6</ele>
        <time>2011-06-04T11:16:12Z</time>
      </trkpt>
      <trkpt lat="44.69889" lon="6.90015">
        <ele>2766.4</ele>
        <time>2011-06-04T11:16:16Z</time>
      </trkpt>
      <trkpt lat="44.69894" lon="6.90012">
        <ele>2766</ele>
        <time>2011-06-04T11:16:22Z</time>
      </trkpt>
      <trkpt lat="44.69895" lon="6.90012">
        <ele>2766</ele>
        <time>2011-06-04T11:16:23Z</time>
      </trkpt>
      <trkpt lat="44.69901" lon="6.90007">
        <ele>2765.6</ele>
        <time>2011-06-04T11:16:29Z</time>
      </trkpt>
      <trkpt lat="44.69902" lon="6.90006">
        <ele>2765.4</ele>
        <time>2011-06-04T11:16:30Z</time>
      </trkpt>
      <trkpt lat="44.69902" lon="6.90005">
        <ele>2765.4</ele>
        <time>2011-06-04T11:16:31Z</time>
      </trkpt>
      <trkpt lat="44.69903" lon="6.90002">
        <ele>2765.2</ele>
        <time>2011-06-04T11:16:33Z</time>
      </trkpt>
      <trkpt lat="44.69905" lon="6.90001">
        <ele>2765.2</ele>
        <time>2011-06-04T11:16:35Z</time>
      </trkpt>
      <trkpt lat="44.69909" lon="6.89999">
        <ele>2764.6</ele>
        <time>2011-06-04T11:16:41Z</time>
      </trkpt>
      <trkpt lat="44.69909" lon="6.89998">
        <ele>2764</ele>
        <time>2011-06-04T11:16:48Z</time>
      </trkpt>
      <trkpt lat="44.69908" lon="6.89997">
        <ele>2763.6</ele>
        <time>2011-06-04T11:16:54Z</time>
      </trkpt>
      <trkpt lat="44.69906" lon="6.89996">
        <ele>2761</ele>
        <time>2011-06-04T11:17:39Z</time>
      </trkpt>
      <trkpt lat="44.69906" lon="6.89996">
        <ele>2760.2</ele>
        <time>2011-06-04T11:17:54Z</time>
      </trkpt>
      <trkpt lat="44.69909" lon="6.89997">
        <ele>2759.2</ele>
        <time>2011-06-04T11:18:26Z</time>
      </trkpt>
      <trkpt lat="44.69909" lon="6.89997">
        <ele>2758.8</ele>
        <time>2011-06-04T11:18:39Z</time>
      </trkpt>
      <trkpt lat="44.69912" lon="6.89997">
        <ele>2758.2</ele>
        <time>2011-06-04T11:18:52Z</time>
      </trkpt>
      <trkpt lat="44.69917" lon="6.89996">
        <ele>2758</ele>
        <time>2011-06-04T11:18:58Z</time>
      </trkpt>
      <trkpt lat="44.69919" lon="6.89994">
        <ele>2758</ele>
        <time>2011-06-04T11:19:00Z</time>
      </trkpt>
      <trkpt lat="44.69922" lon="6.89993">
        <ele>2757.8</ele>
        <time>2011-06-04T11:19:04Z</time>
      </trkpt>
      <trkpt lat="44.69926" lon="6.8999">
        <ele>2757.8</ele>
        <time>2011-06-04T11:19:08Z</time>
      </trkpt>
      <trkpt lat="44.69928" lon="6.8999">
        <ele>2757.6</ele>
        <time>2011-06-04T11:19:10Z</time>
      </trkpt>
      <trkpt lat="44.69931" lon="6.8999">
        <ele>2757.6</ele>
        <time>2011-06-04T11:19:13Z</time>
      </trkpt>
      <trkpt lat="44.69931" lon="6.8999">
        <ele>2757.6</ele>
        <time>2011-06-04T11:19:14Z</time>
      </trkpt>
      <trkpt lat="44.69932" lon="6.89989">
        <ele>2757.6</ele>
        <time>2011-06-04T11:19:15Z</time>
      </trkpt>
      <trkpt lat="44.69936" lon="6.89985">
        <ele>2757.4</ele>
        <time>2011-06-04T11:19:20Z</time>
      </trkpt>
      <trkpt lat="44.69942" lon="6.8998">
        <ele>2757.2</ele>
        <time>2011-06-04T11:19:27Z</time>
      </trkpt>
      <trkpt lat="44.69943" lon="6.89979">
        <ele>2757.2</ele>
        <time>2011-06-04T11:19:28Z</time>
      </trkpt>
      <trkpt lat="44.69947" lon="6.89978">
        <ele>2757.2</ele>
        <time>2011-06-04T11:19:33Z</time>
      </trkpt>
      <trkpt lat="44.69948" lon="6.89977">
        <ele>2757.2</ele>
        <time>2011-06-04T11:19:35Z</time>
      </trkpt>
      <trkpt lat="44.69953" lon="6.89973">
        <ele>2757</ele>
        <time>2011-06-04T11:19:42Z</time>
      </trkpt>
      <trkpt lat="44.69958" lon="6.89969">
        <ele>2757</ele>
        <time>2011-06-04T11:19:46Z</time>
      </trkpt>
      <trkpt lat="44.69959" lon="6.89969">
        <ele>2756.8</ele>
        <time>2011-06-04T11:19:47Z</time>
      </trkpt>
      <trkpt lat="44.69962" lon="6.89966">
        <ele>2756.8</ele>
        <time>2011-06-04T11:19:51Z</time>
      </trkpt>
      <trkpt lat="44.69963" lon="6.89965">
        <ele>2756.8</ele>
        <time>2011-06-04T11:19:52Z</time>
      </trkpt>
      <trkpt lat="44.69969" lon="6.89962">
        <ele>2756.8</ele>
        <time>2011-06-04T11:19:59Z</time>
      </trkpt>
      <trkpt lat="44.69975" lon="6.89961">
        <ele>2756.6</ele>
        <time>2011-06-04T11:20:04Z</time>
      </trkpt>
      <trkpt lat="44.69976" lon="6.8996">
        <ele>2756.6</ele>
        <time>2011-06-04T11:20:05Z</time>
      </trkpt>
      <trkpt lat="44.69981" lon="6.89956">
        <ele>2756.4</ele>
        <time>2011-06-04T11:20:11Z</time>
      </trkpt>
      <trkpt lat="44.69987" lon="6.89953">
        <ele>2756.4</ele>
        <time>2011-06-04T11:20:17Z</time>
      </trkpt>
      <trkpt lat="44.69992" lon="6.89952">
        <ele>2756.4</ele>
        <time>2011-06-04T11:20:22Z</time>
      </trkpt>
      <trkpt lat="44.69991" lon="6.89952">
        <ele>2756.4</ele>
        <time>2011-06-04T11:20:24Z</time>
      </trkpt>
      <trkpt lat="44.69993" lon="6.89951">
        <ele>2757</ele>
        <time>2011-06-04T11:20:43Z</time>
      </trkpt>
      <trkpt lat="44.69996" lon="6.89949">
        <ele>2756.8</ele>
        <time>2011-06-04T11:20:48Z</time>
      </trkpt>
      <trkpt lat="44.69998" lon="6.89947">
        <ele>2756.8</ele>
        <time>2011-06-04T11:20:54Z</time>
      </trkpt>
      <trkpt lat="44.70001" lon="6.89946">
        <ele>2756.6</ele>
        <time>2011-06-04T11:21:01Z</time>
      </trkpt>
      <trkpt lat="44.70003" lon="6.89946">
        <ele>2756.6</ele>
        <time>2011-06-04T11:21:08Z</time>
      </trkpt>
      <trkpt lat="44.70004" lon="6.89943">
        <ele>2756.4</ele>
        <time>2011-06-04T11:21:13Z</time>
      </trkpt>
      <trkpt lat="44.70005" lon="6.89942">
        <ele>2756.4</ele>
        <time>2011-06-04T11:21:14Z</time>
      </trkpt>
      <trkpt lat="44.70007" lon="6.8994">
        <ele>2756.2</ele>
        <time>2011-06-04T11:21:16Z</time>
      </trkpt>
      <trkpt lat="44.70008" lon="6.89941">
        <ele>2756.2</ele>
        <time>2011-06-04T11:21:17Z</time>
      </trkpt>
      <trkpt lat="44.70011" lon="6.89943">
        <ele>2755.8</ele>
        <time>2011-06-04T11:21:23Z</time>
      </trkpt>
      <trkpt lat="44.70012" lon="6.89942">
        <ele>2755.6</ele>
        <time>2011-06-04T11:21:28Z</time>
      </trkpt>
      <trkpt lat="44.70016" lon="6.89943">
        <ele>2755.2</ele>
        <time>2011-06-04T11:21:35Z</time>
      </trkpt>
      <trkpt lat="44.70018" lon="6.89944">
        <ele>2754.8</ele>
        <time>2011-06-04T11:21:43Z</time>
      </trkpt>
      <trkpt lat="44.70018" lon="6.8994">
        <ele>2754.4</ele>
        <time>2011-06-04T11:22:44Z</time>
      </trkpt>
      <trkpt lat="44.7002" lon="6.8994">
        <ele>2754.2</ele>
        <time>2011-06-04T11:22:46Z</time>
      </trkpt>
      <trkpt lat="44.70022" lon="6.89939">
        <ele>2754.2</ele>
        <time>2011-06-04T11:22:48Z</time>
      </trkpt>
      <trkpt lat="44.70024" lon="6.89939">
        <ele>2754.2</ele>
        <time>2011-06-04T11:22:51Z</time>
      </trkpt>
      <trkpt lat="44.70031" lon="6.89937">
        <ele>2754</ele>
        <time>2011-06-04T11:22:57Z</time>
      </trkpt>
      <trkpt lat="44.70035" lon="6.89937">
        <ele>2753.8</ele>
        <time>2011-06-04T11:23:02Z</time>
      </trkpt>
      <trkpt lat="44.70038" lon="6.89936">
        <ele>2753.8</ele>
        <time>2011-06-04T11:23:06Z</time>
      </trkpt>
      <trkpt lat="44.7004" lon="6.89935">
        <ele>2753.6</ele>
        <time>2011-06-04T11:23:10Z</time>
      </trkpt>
      <trkpt lat="44.70044" lon="6.89934">
        <ele>2753.4</ele>
        <time>2011-06-04T11:23:18Z</time>
      </trkpt>
      <trkpt lat="44.70043" lon="6.89933">
        <ele>2752.6</ele>
        <time>2011-06-04T11:24:07Z</time>
      </trkpt>
      <trkpt lat="44.70043" lon="6.89935">
        <ele>2752.4</ele>
        <time>2011-06-04T11:24:18Z</time>
      </trkpt>
      <trkpt lat="44.70046" lon="6.89936">
        <ele>2752</ele>
        <time>2011-06-04T11:24:29Z</time>
      </trkpt>
      <trkpt lat="44.70049" lon="6.89937">
        <ele>2752</ele>
        <time>2011-06-04T11:24:34Z</time>
      </trkpt>
      <trkpt lat="44.7005" lon="6.89937">
        <ele>2752</ele>
        <time>2011-06-04T11:24:35Z</time>
      </trkpt>
      <trkpt lat="44.70054" lon="6.89934">
        <ele>2752.6</ele>
        <time>2011-06-04T11:26:31Z</time>
      </trkpt>
      <trkpt lat="44.7006" lon="6.89928">
        <ele>2752.6</ele>
        <time>2011-06-04T11:26:38Z</time>
      </trkpt>
      <trkpt lat="44.70062" lon="6.89927">
        <ele>2752.6</ele>
        <time>2011-06-04T11:26:40Z</time>
      </trkpt>
      <trkpt lat="44.70063" lon="6.89926">
        <ele>2752.4</ele>
        <time>2011-06-04T11:26:42Z</time>
      </trkpt>
      <trkpt lat="44.70064" lon="6.89926">
        <ele>2752.4</ele>
        <time>2011-06-04T11:26:43Z</time>
      </trkpt>
      <trkpt lat="44.70064" lon="6.89925">
        <ele>2752.4</ele>
        <time>2011-06-04T11:26:44Z</time>
      </trkpt>
      <trkpt lat="44.70067" lon="6.89924">
        <ele>2752.4</ele>
        <time>2011-06-04T11:26:47Z</time>
      </trkpt>
      <trkpt lat="44.70071" lon="6.8992">
        <ele>2752.2</ele>
        <time>2011-06-04T11:26:51Z</time>
      </trkpt>
      <trkpt lat="44.70072" lon="6.89919">
        <ele>2752.2</ele>
        <time>2011-06-04T11:26:52Z</time>
      </trkpt>
      <trkpt lat="44.70078" lon="6.89916">
        <ele>2752</ele>
        <time>2011-06-04T11:26:57Z</time>
      </trkpt>
      <trkpt lat="44.70083" lon="6.89913">
        <ele>2751.8</ele>
        <time>2011-06-04T11:27:01Z</time>
      </trkpt>
      <trkpt lat="44.70088" lon="6.89908">
        <ele>2751.6</ele>
        <time>2011-06-04T11:27:06Z</time>
      </trkpt>
      <trkpt lat="44.70094" lon="6.89904">
        <ele>2751.6</ele>
        <time>2011-06-04T11:27:12Z</time>
      </trkpt>
      <trkpt lat="44.70095" lon="6.89903">
        <ele>2751.6</ele>
        <time>2011-06-04T11:27:13Z</time>
      </trkpt>
      <trkpt lat="44.70098" lon="6.89901">
        <ele>2751.4</ele>
        <time>2011-06-04T11:27:17Z</time>
      </trkpt>
      <trkpt lat="44.70099" lon="6.899">
        <ele>2751.4</ele>
        <time>2011-06-04T11:27:18Z</time>
      </trkpt>
      <trkpt lat="44.70105" lon="6.89895">
        <ele>2751.2</ele>
        <time>2011-06-04T11:27:23Z</time>
      </trkpt>
      <trkpt lat="44.70109" lon="6.89893">
        <ele>2751.2</ele>
        <time>2011-06-04T11:27:27Z</time>
      </trkpt>
      <trkpt lat="44.70111" lon="6.8989">
        <ele>2751</ele>
        <time>2011-06-04T11:27:29Z</time>
      </trkpt>
      <trkpt lat="44.70115" lon="6.89886">
        <ele>2751</ele>
        <time>2011-06-04T11:27:32Z</time>
      </trkpt>
      <trkpt lat="44.70116" lon="6.89884">
        <ele>2751</ele>
        <time>2011-06-04T11:27:33Z</time>
      </trkpt>
      <trkpt lat="44.70117" lon="6.89883">
        <ele>2750.8</ele>
        <time>2011-06-04T11:27:34Z</time>
      </trkpt>
      <trkpt lat="44.7012" lon="6.8988">
        <ele>2750.8</ele>
        <time>2011-06-04T11:27:37Z</time>
      </trkpt>
      <trkpt lat="44.70125" lon="6.89873">
        <ele>2750.4</ele>
        <time>2011-06-04T11:27:42Z</time>
      </trkpt>
      <trkpt lat="44.7013" lon="6.89866">
        <ele>2750.2</ele>
        <time>2011-06-04T11:27:47Z</time>
      </trkpt>
      <trkpt lat="44.70137" lon="6.89859">
        <ele>2749.8</ele>
        <time>2011-06-04T11:27:53Z</time>
      </trkpt>
      <trkpt lat="44.70139" lon="6.89856">
        <ele>2749.6</ele>
        <time>2011-06-04T11:27:55Z</time>
      </trkpt>
      <trkpt lat="44.70145" lon="6.89849">
        <ele>2749.2</ele>
        <time>2011-06-04T11:28:00Z</time>
      </trkpt>
      <trkpt lat="44.70151" lon="6.89844">
        <ele>2748.8</ele>
        <time>2011-06-04T11:28:05Z</time>
      </trkpt>
      <trkpt lat="44.70155" lon="6.89842">
        <ele>2748.6</ele>
        <time>2011-06-04T11:28:09Z</time>
      </trkpt>
      <trkpt lat="44.70157" lon="6.8984">
        <ele>2748.4</ele>
        <time>2011-06-04T11:28:11Z</time>
      </trkpt>
      <trkpt lat="44.7016" lon="6.89837">
        <ele>2748.2</ele>
        <time>2011-06-04T11:28:14Z</time>
      </trkpt>
      <trkpt lat="44.70161" lon="6.89836">
        <ele>2748</ele>
        <time>2011-06-04T11:28:15Z</time>
      </trkpt>
      <trkpt lat="44.70166" lon="6.89831">
        <ele>2747.6</ele>
        <time>2011-06-04T11:28:21Z</time>
      </trkpt>
      <trkpt lat="44.70169" lon="6.89828">
        <ele>2747.4</ele>
        <time>2011-06-04T11:28:24Z</time>
      </trkpt>
      <trkpt lat="44.7017" lon="6.89827">
        <ele>2747.4</ele>
        <time>2011-06-04T11:28:25Z</time>
      </trkpt>
      <trkpt lat="44.70171" lon="6.89826">
        <ele>2747.4</ele>
        <time>2011-06-04T11:28:26Z</time>
      </trkpt>
      <trkpt lat="44.70174" lon="6.89821">
        <ele>2747</ele>
        <time>2011-06-04T11:28:31Z</time>
      </trkpt>
      <trkpt lat="44.70179" lon="6.89817">
        <ele>2746.8</ele>
        <time>2011-06-04T11:28:36Z</time>
      </trkpt>
      <trkpt lat="44.70182" lon="6.89812">
        <ele>2746.8</ele>
        <time>2011-06-04T11:28:40Z</time>
      </trkpt>
      <trkpt lat="44.70183" lon="6.89811">
        <ele>2746.6</ele>
        <time>2011-06-04T11:28:41Z</time>
      </trkpt>
      <trkpt lat="44.70184" lon="6.8981">
        <ele>2746.6</ele>
        <time>2011-06-04T11:28:43Z</time>
      </trkpt>
      <trkpt lat="44.70187" lon="6.89806">
        <ele>2746.4</ele>
        <time>2011-06-04T11:28:47Z</time>
      </trkpt>
      <trkpt lat="44.70194" lon="6.89799">
        <ele>2746.2</ele>
        <time>2011-06-04T11:28:55Z</time>
      </trkpt>
      <trkpt lat="44.70199" lon="6.89795">
        <ele>2746</ele>
        <time>2011-06-04T11:29:01Z</time>
      </trkpt>
      <trkpt lat="44.70202" lon="6.89793">
        <ele>2746</ele>
        <time>2011-06-04T11:29:04Z</time>
      </trkpt>
      <trkpt lat="44.70204" lon="6.89791">
        <ele>2745.8</ele>
        <time>2011-06-04T11:29:06Z</time>
      </trkpt>
      <trkpt lat="44.70212" lon="6.89784">
        <ele>2745.6</ele>
        <time>2011-06-04T11:29:13Z</time>
      </trkpt>
      <trkpt lat="44.70215" lon="6.89781">
        <ele>2745.6</ele>
        <time>2011-06-04T11:29:16Z</time>
      </trkpt>
      <trkpt lat="44.70218" lon="6.89778">
        <ele>2745.4</ele>
        <time>2011-06-04T11:29:19Z</time>
      </trkpt>
      <trkpt lat="44.70223" lon="6.8977">
        <ele>2745.2</ele>
        <time>2011-06-04T11:29:25Z</time>
      </trkpt>
      <trkpt lat="44.70227" lon="6.89762">
        <ele>2745.2</ele>
        <time>2011-06-04T11:29:30Z</time>
      </trkpt>
      <trkpt lat="44.70228" lon="6.89761">
        <ele>2745.2</ele>
        <time>2011-06-04T11:29:31Z</time>
      </trkpt>
      <trkpt lat="44.70235" lon="6.89753">
        <ele>2745</ele>
        <time>2011-06-04T11:29:37Z</time>
      </trkpt>
      <trkpt lat="44.70241" lon="6.89745">
        <ele>2745</ele>
        <time>2011-06-04T11:29:44Z</time>
      </trkpt>
      <trkpt lat="44.70248" lon="6.89738">
        <ele>2745</ele>
        <time>2011-06-04T11:29:50Z</time>
      </trkpt>
      <trkpt lat="44.70249" lon="6.89737">
        <ele>2745</ele>
        <time>2011-06-04T11:29:51Z</time>
      </trkpt>
      <trkpt lat="44.70253" lon="6.89732">
        <ele>2745.2</ele>
        <time>2011-06-04T11:29:56Z</time>
      </trkpt>
      <trkpt lat="44.70254" lon="6.8973">
        <ele>2745.2</ele>
        <time>2011-06-04T11:29:58Z</time>
      </trkpt>
      <trkpt lat="44.70255" lon="6.89727">
        <ele>2745.2</ele>
        <time>2011-06-04T11:30:00Z</time>
      </trkpt>
      <trkpt lat="44.70257" lon="6.89725">
        <ele>2745.2</ele>
        <time>2011-06-04T11:30:02Z</time>
      </trkpt>
      <trkpt lat="44.70262" lon="6.89717">
        <ele>2745.2</ele>
        <time>2011-06-04T11:30:07Z</time>
      </trkpt>
      <trkpt lat="44.70268" lon="6.8971">
        <ele>2745.2</ele>
        <time>2011-06-04T11:30:13Z</time>
      </trkpt>
      <trkpt lat="44.70269" lon="6.89709">
        <ele>2745.2</ele>
        <time>2011-06-04T11:30:14Z</time>
      </trkpt>
      <trkpt lat="44.70274" lon="6.89705">
        <ele>2745.4</ele>
        <time>2011-06-04T11:30:18Z</time>
      </trkpt>
      <trkpt lat="44.7028" lon="6.897">
        <ele>2745.6</ele>
        <time>2011-06-04T11:30:24Z</time>
      </trkpt>
      <trkpt lat="44.70285" lon="6.89697">
        <ele>2745.8</ele>
        <time>2011-06-04T11:30:28Z</time>
      </trkpt>
      <trkpt lat="44.70286" lon="6.89695">
        <ele>2746</ele>
        <time>2011-06-04T11:30:29Z</time>
      </trkpt>
      <trkpt lat="44.70288" lon="6.89694">
        <ele>2746.2</ele>
        <time>2011-06-04T11:30:31Z</time>
      </trkpt>
      <trkpt lat="44.70291" lon="6.89689">
        <ele>2746.6</ele>
        <time>2011-06-04T11:30:35Z</time>
      </trkpt>
      <trkpt lat="44.70297" lon="6.89684">
        <ele>2747.2</ele>
        <time>2011-06-04T11:30:40Z</time>
      </trkpt>
      <trkpt lat="44.70301" lon="6.89681">
        <ele>2747.6</ele>
        <time>2011-06-04T11:30:44Z</time>
      </trkpt>
      <trkpt lat="44.70304" lon="6.89678">
        <ele>2748.2</ele>
        <time>2011-06-04T11:30:48Z</time>
      </trkpt>
      <trkpt lat="44.70306" lon="6.89676">
        <ele>2748.4</ele>
        <time>2011-06-04T11:30:50Z</time>
      </trkpt>
      <trkpt lat="44.70307" lon="6.89675">
        <ele>2748.8</ele>
        <time>2011-06-04T11:30:52Z</time>
      </trkpt>
      <trkpt lat="44.7031" lon="6.89674">
        <ele>2749.2</ele>
        <time>2011-06-04T11:30:55Z</time>
      </trkpt>
      <trkpt lat="44.7031" lon="6.89674">
        <ele>2749.2</ele>
        <time>2011-06-04T11:30:56Z</time>
      </trkpt>
      <trkpt lat="44.70311" lon="6.89674">
        <ele>2750.2</ele>
        <time>2011-06-04T11:31:05Z</time>
      </trkpt>
      <trkpt lat="44.70314" lon="6.8967">
        <ele>2756.6</ele>
        <time>2011-06-04T11:32:43Z</time>
      </trkpt>
      <trkpt lat="44.70315" lon="6.8967">
        <ele>2756.6</ele>
        <time>2011-06-04T11:32:44Z</time>
      </trkpt>
      <trkpt lat="44.70321" lon="6.89669">
        <ele>2756.6</ele>
        <time>2011-06-04T11:32:50Z</time>
      </trkpt>
      <trkpt lat="44.7033" lon="6.89667">
        <ele>2756.6</ele>
        <time>2011-06-04T11:32:58Z</time>
      </trkpt>
      <trkpt lat="44.70334" lon="6.89666">
        <ele>2756.4</ele>
        <time>2011-06-04T11:33:02Z</time>
      </trkpt>
      <trkpt lat="44.70336" lon="6.89666">
        <ele>2756.4</ele>
        <time>2011-06-04T11:33:04Z</time>
      </trkpt>
      <trkpt lat="44.70342" lon="6.89664">
        <ele>2756.2</ele>
        <time>2011-06-04T11:33:10Z</time>
      </trkpt>
      <trkpt lat="44.70347" lon="6.89662">
        <ele>2756.2</ele>
        <time>2011-06-04T11:33:15Z</time>
      </trkpt>
      <trkpt lat="44.70351" lon="6.8966">
        <ele>2756</ele>
        <time>2011-06-04T11:33:18Z</time>
      </trkpt>
      <trkpt lat="44.70355" lon="6.8966">
        <ele>2756</ele>
        <time>2011-06-04T11:33:21Z</time>
      </trkpt>
      <trkpt lat="44.70363" lon="6.8966">
        <ele>2755.8</ele>
        <time>2011-06-04T11:33:28Z</time>
      </trkpt>
      <trkpt lat="44.70369" lon="6.89659">
        <ele>2755.8</ele>
        <time>2011-06-04T11:33:34Z</time>
      </trkpt>
      <trkpt lat="44.7037" lon="6.89658">
        <ele>2755.6</ele>
        <time>2011-06-04T11:33:35Z</time>
      </trkpt>
      <trkpt lat="44.70377" lon="6.89656">
        <ele>2755.6</ele>
        <time>2011-06-04T11:33:41Z</time>
      </trkpt>
      <trkpt lat="44.70387" lon="6.89655">
        <ele>2755.4</ele>
        <time>2011-06-04T11:33:49Z</time>
      </trkpt>
      <trkpt lat="44.70388" lon="6.89654">
        <ele>2755.4</ele>
        <time>2011-06-04T11:33:50Z</time>
      </trkpt>
      <trkpt lat="44.70395" lon="6.89652">
        <ele>2755.4</ele>
        <time>2011-06-04T11:33:56Z</time>
      </trkpt>
      <trkpt lat="44.70399" lon="6.89651">
        <ele>2755.2</ele>
        <time>2011-06-04T11:34:00Z</time>
      </trkpt>
      <trkpt lat="44.70402" lon="6.8965">
        <ele>2755.2</ele>
        <time>2011-06-04T11:34:02Z</time>
      </trkpt>
      <trkpt lat="44.70406" lon="6.8965">
        <ele>2755.2</ele>
        <time>2011-06-04T11:34:05Z</time>
      </trkpt>
      <trkpt lat="44.70411" lon="6.89647">
        <ele>2755</ele>
        <time>2011-06-04T11:34:09Z</time>
      </trkpt>
      <trkpt lat="44.7042" lon="6.89646">
        <ele>2754.8</ele>
        <time>2011-06-04T11:34:16Z</time>
      </trkpt>
      <trkpt lat="44.70424" lon="6.89645">
        <ele>2754.6</ele>
        <time>2011-06-04T11:34:20Z</time>
      </trkpt>
      <trkpt lat="44.70425" lon="6.89645">
        <ele>2754.4</ele>
        <time>2011-06-04T11:34:22Z</time>
      </trkpt>
      <trkpt lat="44.70429" lon="6.89646">
        <ele>2752.4</ele>
        <time>2011-06-04T11:35:02Z</time>
      </trkpt>
      <trkpt lat="44.70431" lon="6.89646">
        <ele>2752.2</ele>
        <time>2011-06-04T11:35:04Z</time>
      </trkpt>
      <trkpt lat="44.70435" lon="6.89644">
        <ele>2752.2</ele>
        <time>2011-06-04T11:35:07Z</time>
      </trkpt>
      <trkpt lat="44.70442" lon="6.89641">
        <ele>2752</ele>
        <time>2011-06-04T11:35:12Z</time>
      </trkpt>
      <trkpt lat="44.7045" lon="6.89638">
        <ele>2751.8</ele>
        <time>2011-06-04T11:35:17Z</time>
      </trkpt>
      <trkpt lat="44.70461" lon="6.89634">
        <ele>2751.6</ele>
        <time>2011-06-04T11:35:23Z</time>
      </trkpt>
      <trkpt lat="44.70469" lon="6.89632">
        <ele>2751.6</ele>
        <time>2011-06-04T11:35:27Z</time>
      </trkpt>
      <trkpt lat="44.70469" lon="6.89632">
        <ele>2751.6</ele>
        <time>2011-06-04T11:35:27Z</time>
      </trkpt>
      <trkpt lat="44.70479" lon="6.89629">
        <ele>2751.4</ele>
        <time>2011-06-04T11:35:32Z</time>
      </trkpt>
      <trkpt lat="44.70488" lon="6.89624">
        <ele>2751.4</ele>
        <time>2011-06-04T11:35:37Z</time>
      </trkpt>
      <trkpt lat="44.70495" lon="6.89622">
        <ele>2751.4</ele>
        <time>2011-06-04T11:35:42Z</time>
      </trkpt>
      <trkpt lat="44.70497" lon="6.89621">
        <ele>2751.4</ele>
        <time>2011-06-04T11:35:43Z</time>
      </trkpt>
      <trkpt lat="44.70502" lon="6.89617">
        <ele>2751.4</ele>
        <time>2011-06-04T11:35:47Z</time>
      </trkpt>
      <trkpt lat="44.70503" lon="6.89616">
        <ele>2751.4</ele>
        <time>2011-06-04T11:35:48Z</time>
      </trkpt>
      <trkpt lat="44.70509" lon="6.89613">
        <ele>2751.4</ele>
        <time>2011-06-04T11:35:53Z</time>
      </trkpt>
      <trkpt lat="44.70514" lon="6.8961">
        <ele>2751.6</ele>
        <time>2011-06-04T11:35:57Z</time>
      </trkpt>
      <trkpt lat="44.70516" lon="6.89608">
        <ele>2751.6</ele>
        <time>2011-06-04T11:35:59Z</time>
      </trkpt>
      <trkpt lat="44.70521" lon="6.89605">
        <ele>2751.8</ele>
        <time>2011-06-04T11:36:04Z</time>
      </trkpt>
      <trkpt lat="44.70524" lon="6.89603">
        <ele>2752</ele>
        <time>2011-06-04T11:36:07Z</time>
      </trkpt>
      <trkpt lat="44.70524" lon="6.89603">
        <ele>2752</ele>
        <time>2011-06-04T11:36:08Z</time>
      </trkpt>
      <trkpt lat="44.70527" lon="6.89599">
        <ele>2752.2</ele>
        <time>2011-06-04T11:36:12Z</time>
      </trkpt>
      <trkpt lat="44.70528" lon="6.89599">
        <ele>2752.2</ele>
        <time>2011-06-04T11:36:13Z</time>
      </trkpt>
      <trkpt lat="44.7053" lon="6.89597">
        <ele>2752.4</ele>
        <time>2011-06-04T11:36:15Z</time>
      </trkpt>
      <trkpt lat="44.70533" lon="6.89594">
        <ele>2752.8</ele>
        <time>2011-06-04T11:36:19Z</time>
      </trkpt>
      <trkpt lat="44.70536" lon="6.89592">
        <ele>2753</ele>
        <time>2011-06-04T11:36:22Z</time>
      </trkpt>
      <trkpt lat="44.70536" lon="6.89592">
        <ele>2753.2</ele>
        <time>2011-06-04T11:36:23Z</time>
      </trkpt>
      <trkpt lat="44.70537" lon="6.89592">
        <ele>2753.2</ele>
        <time>2011-06-04T11:36:24Z</time>
      </trkpt>
      <trkpt lat="44.70539" lon="6.8959">
        <ele>2753.6</ele>
        <time>2011-06-04T11:36:27Z</time>
      </trkpt>
      <trkpt lat="44.70542" lon="6.89587">
        <ele>2754</ele>
        <time>2011-06-04T11:36:32Z</time>
      </trkpt>
      <trkpt lat="44.70545" lon="6.89587">
        <ele>2754.4</ele>
        <time>2011-06-04T11:36:36Z</time>
      </trkpt>
      <trkpt lat="44.70546" lon="6.89585">
        <ele>2755.2</ele>
        <time>2011-06-04T11:36:43Z</time>
      </trkpt>
      <trkpt lat="44.70548" lon="6.89584">
        <ele>2755.4</ele>
        <time>2011-06-04T11:36:46Z</time>
      </trkpt>
      <trkpt lat="44.70551" lon="6.89582">
        <ele>2756.2</ele>
        <time>2011-06-04T11:36:52Z</time>
      </trkpt>
      <trkpt lat="44.70553" lon="6.89579">
        <ele>2757</ele>
        <time>2011-06-04T11:36:57Z</time>
      </trkpt>
      <trkpt lat="44.70555" lon="6.89581">
        <ele>2757.6</ele>
        <time>2011-06-04T11:37:01Z</time>
      </trkpt>
      <trkpt lat="44.70553" lon="6.89591">
        <ele>2758.4</ele>
        <time>2011-06-04T11:37:07Z</time>
      </trkpt>
      <trkpt lat="44.70553" lon="6.89593">
        <ele>2758.4</ele>
        <time>2011-06-04T11:37:08Z</time>
      </trkpt>
      <trkpt lat="44.70552" lon="6.89605">
        <ele>2759.4</ele>
        <time>2011-06-04T11:37:15Z</time>
      </trkpt>
      <trkpt lat="44.70552" lon="6.89607">
        <ele>2759.4</ele>
        <time>2011-06-04T11:37:16Z</time>
      </trkpt>
      <trkpt lat="44.70551" lon="6.89614">
        <ele>2760</ele>
        <time>2011-06-04T11:37:21Z</time>
      </trkpt>
      <trkpt lat="44.70551" lon="6.89618">
        <ele>2760.2</ele>
        <time>2011-06-04T11:37:23Z</time>
      </trkpt>
      <trkpt lat="44.7055" lon="6.89628">
        <ele>2761.2</ele>
        <time>2011-06-04T11:37:30Z</time>
      </trkpt>
      <trkpt lat="44.70548" lon="6.89637">
        <ele>2762.2</ele>
        <time>2011-06-04T11:37:37Z</time>
      </trkpt>
      <trkpt lat="44.70547" lon="6.89642">
        <ele>2762.8</ele>
        <time>2011-06-04T11:37:40Z</time>
      </trkpt>
      <trkpt lat="44.70546" lon="6.89648">
        <ele>2763.4</ele>
        <time>2011-06-04T11:37:44Z</time>
      </trkpt>
      <trkpt lat="44.70544" lon="6.89661">
        <ele>2765</ele>
        <time>2011-06-04T11:37:53Z</time>
      </trkpt>
      <trkpt lat="44.70543" lon="6.89667">
        <ele>2765.6</ele>
        <time>2011-06-04T11:37:57Z</time>
      </trkpt>
      <trkpt lat="44.70544" lon="6.8967">
        <ele>2766</ele>
        <time>2011-06-04T11:37:59Z</time>
      </trkpt>
      <trkpt lat="44.70541" lon="6.89681">
        <ele>2767.2</ele>
        <time>2011-06-04T11:38:06Z</time>
      </trkpt>
      <trkpt lat="44.70542" lon="6.89689">
        <ele>2768.2</ele>
        <time>2011-06-04T11:38:11Z</time>
      </trkpt>
      <trkpt lat="44.70541" lon="6.89692">
        <ele>2768.6</ele>
        <time>2011-06-04T11:38:13Z</time>
      </trkpt>
      <trkpt lat="44.70541" lon="6.89701">
        <ele>2769.6</ele>
        <time>2011-06-04T11:38:18Z</time>
      </trkpt>
      <trkpt lat="44.70541" lon="6.89704">
        <ele>2770</ele>
        <time>2011-06-04T11:38:20Z</time>
      </trkpt>
      <trkpt lat="44.70544" lon="6.89711">
        <ele>2771.2</ele>
        <time>2011-06-04T11:38:26Z</time>
      </trkpt>
      <trkpt lat="44.70547" lon="6.89714">
        <ele>2771.8</ele>
        <time>2011-06-04T11:38:29Z</time>
      </trkpt>
      <trkpt lat="44.7055" lon="6.89717">
        <ele>2772.4</ele>
        <time>2011-06-04T11:38:32Z</time>
      </trkpt>
      <trkpt lat="44.70552" lon="6.89721">
        <ele>2773.2</ele>
        <time>2011-06-04T11:38:36Z</time>
      </trkpt>
      <trkpt lat="44.70552" lon="6.89722">
        <ele>2773.6</ele>
        <time>2011-06-04T11:38:37Z</time>
      </trkpt>
      <trkpt lat="44.70554" lon="6.89725">
        <ele>2774.2</ele>
        <time>2011-06-04T11:38:40Z</time>
      </trkpt>
      <trkpt lat="44.70554" lon="6.89727">
        <ele>2774.6</ele>
        <time>2011-06-04T11:38:42Z</time>
      </trkpt>
      <trkpt lat="44.70557" lon="6.89732">
        <ele>2775.8</ele>
        <time>2011-06-04T11:38:47Z</time>
      </trkpt>
      <trkpt lat="44.70557" lon="6.89733">
        <ele>2776</ele>
        <time>2011-06-04T11:38:48Z</time>
      </trkpt>
      <trkpt lat="44.70558" lon="6.89734">
        <ele>2776.4</ele>
        <time>2011-06-04T11:38:49Z</time>
      </trkpt>
      <trkpt lat="44.70558" lon="6.89735">
        <ele>2776.8</ele>
        <time>2011-06-04T11:38:51Z</time>
      </trkpt>
      <trkpt lat="44.70559" lon="6.89736">
        <ele>2777</ele>
        <time>2011-06-04T11:38:52Z</time>
      </trkpt>
      <trkpt lat="44.7056" lon="6.89739">
        <ele>2777.8</ele>
        <time>2011-06-04T11:38:56Z</time>
      </trkpt>
      <trkpt lat="44.70559" lon="6.89741">
        <ele>2779</ele>
        <time>2011-06-04T11:39:02Z</time>
      </trkpt>
      <trkpt lat="44.7056" lon="6.89735">
        <ele>2779.8</ele>
        <time>2011-06-04T11:39:07Z</time>
      </trkpt>
      <trkpt lat="44.70562" lon="6.89729">
        <ele>2780.6</ele>
        <time>2011-06-04T11:39:12Z</time>
      </trkpt>
      <trkpt lat="44.70562" lon="6.89726">
        <ele>2780.8</ele>
        <time>2011-06-04T11:39:14Z</time>
      </trkpt>
      <trkpt lat="44.70564" lon="6.89723">
        <ele>2781.4</ele>
        <time>2011-06-04T11:39:17Z</time>
      </trkpt>
      <trkpt lat="44.70566" lon="6.89717">
        <ele>2782</ele>
        <time>2011-06-04T11:39:21Z</time>
      </trkpt>
      <trkpt lat="44.70568" lon="6.89715">
        <ele>2782.2</ele>
        <time>2011-06-04T11:39:22Z</time>
      </trkpt>
      <trkpt lat="44.70573" lon="6.89712">
        <ele>2782.8</ele>
        <time>2011-06-04T11:39:26Z</time>
      </trkpt>
      <trkpt lat="44.70574" lon="6.89712">
        <ele>2783</ele>
        <time>2011-06-04T11:39:27Z</time>
      </trkpt>
      <trkpt lat="44.70576" lon="6.89711">
        <ele>2783.6</ele>
        <time>2011-06-04T11:39:30Z</time>
      </trkpt>
      <trkpt lat="44.70577" lon="6.8971">
        <ele>2784</ele>
        <time>2011-06-04T11:39:32Z</time>
      </trkpt>
      <trkpt lat="44.70578" lon="6.89709">
        <ele>2784.2</ele>
        <time>2011-06-04T11:39:33Z</time>
      </trkpt>
      <trkpt lat="44.7058" lon="6.89707">
        <ele>2785.2</ele>
        <time>2011-06-04T11:39:37Z</time>
      </trkpt>
      <trkpt lat="44.70583" lon="6.89704">
        <ele>2786.8</ele>
        <time>2011-06-04T11:39:43Z</time>
      </trkpt>
      <trkpt lat="44.70586" lon="6.89703">
        <ele>2787.8</ele>
        <time>2011-06-04T11:39:48Z</time>
      </trkpt>
      <trkpt lat="44.70587" lon="6.89702">
        <ele>2788.8</ele>
        <time>2011-06-04T11:39:52Z</time>
      </trkpt>
      <trkpt lat="44.70589" lon="6.89699">
        <ele>2790.4</ele>
        <time>2011-06-04T11:39:57Z</time>
      </trkpt>
      <trkpt lat="44.7059" lon="6.89696">
        <ele>2791.4</ele>
        <time>2011-06-04T11:40:01Z</time>
      </trkpt>
      <trkpt lat="44.7059" lon="6.89696">
        <ele>2791.6</ele>
        <time>2011-06-04T11:40:02Z</time>
      </trkpt>
      <trkpt lat="44.70593" lon="6.89694">
        <ele>2793.2</ele>
        <time>2011-06-04T11:40:09Z</time>
      </trkpt>
      <trkpt lat="44.70594" lon="6.89694">
        <ele>2794.4</ele>
        <time>2011-06-04T11:40:14Z</time>
      </trkpt>
      <trkpt lat="44.70596" lon="6.8969">
        <ele>2795.6</ele>
        <time>2011-06-04T11:40:18Z</time>
      </trkpt>
      <trkpt lat="44.70598" lon="6.89688">
        <ele>2796.8</ele>
        <time>2011-06-04T11:40:22Z</time>
      </trkpt>
      <trkpt lat="44.70601" lon="6.89683">
        <ele>2798.6</ele>
        <time>2011-06-04T11:40:28Z</time>
      </trkpt>
      <trkpt lat="44.70603" lon="6.89679">
        <ele>2799.8</ele>
        <time>2011-06-04T11:40:33Z</time>
      </trkpt>
      <trkpt lat="44.70607" lon="6.89676">
        <ele>2801.2</ele>
        <time>2011-06-04T11:40:38Z</time>
      </trkpt>
      <trkpt lat="44.70609" lon="6.89675">
        <ele>2802.2</ele>
        <time>2011-06-04T11:40:42Z</time>
      </trkpt>
      <trkpt lat="44.70611" lon="6.89672">
        <ele>2803.4</ele>
        <time>2011-06-04T11:40:47Z</time>
      </trkpt>
      <trkpt lat="44.70613" lon="6.89668">
        <ele>2804.6</ele>
        <time>2011-06-04T11:40:52Z</time>
      </trkpt>
      <trkpt lat="44.70615" lon="6.89662">
        <ele>2805.8</ele>
        <time>2011-06-04T11:40:58Z</time>
      </trkpt>
      <trkpt lat="44.70616" lon="6.8966">
        <ele>2806.2</ele>
        <time>2011-06-04T11:40:59Z</time>
      </trkpt>
      <trkpt lat="44.70617" lon="6.89657">
        <ele>2807</ele>
        <time>2011-06-04T11:41:03Z</time>
      </trkpt>
      <trkpt lat="44.70621" lon="6.89651">
        <ele>2808.2</ele>
        <time>2011-06-04T11:41:09Z</time>
      </trkpt>
      <trkpt lat="44.70623" lon="6.89647">
        <ele>2808.6</ele>
        <time>2011-06-04T11:41:13Z</time>
      </trkpt>
      <trkpt lat="44.70624" lon="6.89644">
        <ele>2809</ele>
        <time>2011-06-04T11:41:15Z</time>
      </trkpt>
      <trkpt lat="44.70626" lon="6.89641">
        <ele>2809.2</ele>
        <time>2011-06-04T11:41:18Z</time>
      </trkpt>
      <trkpt lat="44.70627" lon="6.89637">
        <ele>2809.6</ele>
        <time>2011-06-04T11:41:22Z</time>
      </trkpt>
      <trkpt lat="44.70629" lon="6.89634">
        <ele>2809.8</ele>
        <time>2011-06-04T11:41:27Z</time>
      </trkpt>
      <trkpt lat="44.70631" lon="6.89631">
        <ele>2810</ele>
        <time>2011-06-04T11:41:32Z</time>
      </trkpt>
      <trkpt lat="44.70632" lon="6.89627">
        <ele>2810.2</ele>
        <time>2011-06-04T11:41:37Z</time>
      </trkpt>
      <trkpt lat="44.70636" lon="6.89622">
        <ele>2810.4</ele>
        <time>2011-06-04T11:41:43Z</time>
      </trkpt>
      <trkpt lat="44.70639" lon="6.89616">
        <ele>2810.4</ele>
        <time>2011-06-04T11:41:49Z</time>
      </trkpt>
      <trkpt lat="44.7064" lon="6.89614">
        <ele>2810.4</ele>
        <time>2011-06-04T11:41:51Z</time>
      </trkpt>
      <trkpt lat="44.70641" lon="6.89614">
        <ele>2810.4</ele>
        <time>2011-06-04T11:41:52Z</time>
      </trkpt>
      <trkpt lat="44.70642" lon="6.89609">
        <ele>2812.4</ele>
        <time>2011-06-04T11:42:51Z</time>
      </trkpt>
      <trkpt lat="44.70641" lon="6.89606">
        <ele>2812.4</ele>
        <time>2011-06-04T11:42:57Z</time>
      </trkpt>
      <trkpt lat="44.70647" lon="6.89606">
        <ele>2811</ele>
        <time>2011-06-04T11:43:39Z</time>
      </trkpt>
      <trkpt lat="44.7065" lon="6.896">
        <ele>2810.8</ele>
        <time>2011-06-04T11:43:47Z</time>
      </trkpt>
      <trkpt lat="44.70654" lon="6.89592">
        <ele>2810.4</ele>
        <time>2011-06-04T11:43:51Z</time>
      </trkpt>
      <trkpt lat="44.70655" lon="6.8959">
        <ele>2810.4</ele>
        <time>2011-06-04T11:43:52Z</time>
      </trkpt>
      <trkpt lat="44.70657" lon="6.89587">
        <ele>2810.2</ele>
        <time>2011-06-04T11:43:54Z</time>
      </trkpt>
      <trkpt lat="44.70661" lon="6.8958">
        <ele>2809.8</ele>
        <time>2011-06-04T11:43:59Z</time>
      </trkpt>
      <trkpt lat="44.70664" lon="6.89572">
        <ele>2809.6</ele>
        <time>2011-06-04T11:44:04Z</time>
      </trkpt>
      <trkpt lat="44.70667" lon="6.89565">
        <ele>2809.2</ele>
        <time>2011-06-04T11:44:10Z</time>
      </trkpt>
      <trkpt lat="44.70668" lon="6.89563">
        <ele>2809</ele>
        <time>2011-06-04T11:44:12Z</time>
      </trkpt>
      <trkpt lat="44.70669" lon="6.89559">
        <ele>2808.6</ele>
        <time>2011-06-04T11:44:15Z</time>
      </trkpt>
      <trkpt lat="44.70669" lon="6.89557">
        <ele>2808.6</ele>
        <time>2011-06-04T11:44:16Z</time>
      </trkpt>
      <trkpt lat="44.70669" lon="6.89556">
        <ele>2808.6</ele>
        <time>2011-06-04T11:44:18Z</time>
      </trkpt>
      <trkpt lat="44.70668" lon="6.89553">
        <ele>2808.4</ele>
        <time>2011-06-04T11:44:20Z</time>
      </trkpt>
      <trkpt lat="44.70667" lon="6.89548">
        <ele>2808</ele>
        <time>2011-06-04T11:44:25Z</time>
      </trkpt>
      <trkpt lat="44.70667" lon="6.89545">
        <ele>2807.8</ele>
        <time>2011-06-04T11:44:27Z</time>
      </trkpt>
      <trkpt lat="44.70667" lon="6.89541">
        <ele>2807.8</ele>
        <time>2011-06-04T11:44:29Z</time>
      </trkpt>
      <trkpt lat="44.70668" lon="6.89531">
        <ele>2807.4</ele>
        <time>2011-06-04T11:44:35Z</time>
      </trkpt>
      <trkpt lat="44.70668" lon="6.89529">
        <ele>2807.2</ele>
        <time>2011-06-04T11:44:37Z</time>
      </trkpt>
      <trkpt lat="44.70667" lon="6.89521">
        <ele>2806.8</ele>
        <time>2011-06-04T11:44:41Z</time>
      </trkpt>
      <trkpt lat="44.70667" lon="6.89516">
        <ele>2806.4</ele>
        <time>2011-06-04T11:44:44Z</time>
      </trkpt>
      <trkpt lat="44.70667" lon="6.89512">
        <ele>2806.2</ele>
        <time>2011-06-04T11:44:47Z</time>
      </trkpt>
      <trkpt lat="44.70669" lon="6.89507">
        <ele>2805.6</ele>
        <time>2011-06-04T11:44:53Z</time>
      </trkpt>
      <trkpt lat="44.70666" lon="6.89506">
        <ele>2805</ele>
        <time>2011-06-04T11:44:58Z</time>
      </trkpt>
      <trkpt lat="44.70665" lon="6.89505">
        <ele>2805</ele>
        <time>2011-06-04T11:44:59Z</time>
      </trkpt>
      <trkpt lat="44.70664" lon="6.895">
        <ele>2804.4</ele>
        <time>2011-06-04T11:45:04Z</time>
      </trkpt>
      <trkpt lat="44.70665" lon="6.89499">
        <ele>2804.2</ele>
        <time>2011-06-04T11:45:05Z</time>
      </trkpt>
      <trkpt lat="44.70665" lon="6.89498">
        <ele>2804</ele>
        <time>2011-06-04T11:45:06Z</time>
      </trkpt>
      <trkpt lat="44.70665" lon="6.89496">
        <ele>2803.8</ele>
        <time>2011-06-04T11:45:08Z</time>
      </trkpt>
      <trkpt lat="44.70665" lon="6.89495">
        <ele>2803.6</ele>
        <time>2011-06-04T11:45:09Z</time>
      </trkpt>
      <trkpt lat="44.70666" lon="6.89494">
        <ele>2803</ele>
        <time>2011-06-04T11:45:13Z</time>
      </trkpt>
      <trkpt lat="44.70666" lon="6.89491">
        <ele>2802.4</ele>
        <time>2011-06-04T11:45:17Z</time>
      </trkpt>
      <trkpt lat="44.70665" lon="6.89488">
        <ele>2801.6</ele>
        <time>2011-06-04T11:45:22Z</time>
      </trkpt>
      <trkpt lat="44.70664" lon="6.89484">
        <ele>2801</ele>
        <time>2011-06-04T11:45:26Z</time>
      </trkpt>
      <trkpt lat="44.70664" lon="6.89483">
        <ele>2800.8</ele>
        <time>2011-06-04T11:45:27Z</time>
      </trkpt>
      <trkpt lat="44.70662" lon="6.8948">
        <ele>2798.8</ele>
        <time>2011-06-04T11:45:38Z</time>
      </trkpt>
      <trkpt lat="44.70662" lon="6.89477">
        <ele>2798</ele>
        <time>2011-06-04T11:45:42Z</time>
      </trkpt>
      <trkpt lat="44.70662" lon="6.89478">
        <ele>2797</ele>
        <time>2011-06-04T11:45:48Z</time>
      </trkpt>
      <trkpt lat="44.70661" lon="6.89476">
        <ele>2796.2</ele>
        <time>2011-06-04T11:45:52Z</time>
      </trkpt>
      <trkpt lat="44.70661" lon="6.89475">
        <ele>2795.4</ele>
        <time>2011-06-04T11:45:57Z</time>
      </trkpt>
      <trkpt lat="44.70663" lon="6.89473">
        <ele>2794.2</ele>
        <time>2011-06-04T11:46:03Z</time>
      </trkpt>
      <trkpt lat="44.70667" lon="6.89471">
        <ele>2793</ele>
        <time>2011-06-04T11:46:09Z</time>
      </trkpt>
      <trkpt lat="44.70671" lon="6.8947">
        <ele>2792</ele>
        <time>2011-06-04T11:46:15Z</time>
      </trkpt>
      <trkpt lat="44.70676" lon="6.89465">
        <ele>2790.2</ele>
        <time>2011-06-04T11:46:22Z</time>
      </trkpt>
      <trkpt lat="44.70678" lon="6.89459">
        <ele>2789.2</ele>
        <time>2011-06-04T11:46:27Z</time>
      </trkpt>
      <trkpt lat="44.7068" lon="6.89459">
        <ele>2788.6</ele>
        <time>2011-06-04T11:46:29Z</time>
      </trkpt>
      <trkpt lat="44.7068" lon="6.89458">
        <ele>2788.4</ele>
        <time>2011-06-04T11:46:30Z</time>
      </trkpt>
      <trkpt lat="44.70681" lon="6.89457">
        <ele>2788</ele>
        <time>2011-06-04T11:46:32Z</time>
      </trkpt>
      <trkpt lat="44.70683" lon="6.89455">
        <ele>2787.6</ele>
        <time>2011-06-04T11:46:34Z</time>
      </trkpt>
      <trkpt lat="44.70687" lon="6.89453">
        <ele>2786.6</ele>
        <time>2011-06-04T11:46:38Z</time>
      </trkpt>
      <trkpt lat="44.70688" lon="6.89452">
        <ele>2786.4</ele>
        <time>2011-06-04T11:46:39Z</time>
      </trkpt>
      <trkpt lat="44.70689" lon="6.89451">
        <ele>2786.2</ele>
        <time>2011-06-04T11:46:41Z</time>
      </trkpt>
      <trkpt lat="44.70691" lon="6.89449">
        <ele>2785.4</ele>
        <time>2011-06-04T11:46:43Z</time>
      </trkpt>
      <trkpt lat="44.70691" lon="6.89445">
        <ele>2784.8</ele>
        <time>2011-06-04T11:46:45Z</time>
      </trkpt>
      <trkpt lat="44.70693" lon="6.89442">
        <ele>2784.4</ele>
        <time>2011-06-04T11:46:47Z</time>
      </trkpt>
      <trkpt lat="44.70695" lon="6.8944">
        <ele>2783.8</ele>
        <time>2011-06-04T11:46:49Z</time>
      </trkpt>
      <trkpt lat="44.70696" lon="6.89431">
        <ele>2782.4</ele>
        <time>2011-06-04T11:46:55Z</time>
      </trkpt>
      <trkpt lat="44.70697" lon="6.89428">
        <ele>2781.8</ele>
        <time>2011-06-04T11:46:57Z</time>
      </trkpt>
      <trkpt lat="44.70698" lon="6.89422">
        <ele>2781</ele>
        <time>2011-06-04T11:47:01Z</time>
      </trkpt>
      <trkpt lat="44.70699" lon="6.89416">
        <ele>2779.2</ele>
        <time>2011-06-04T11:47:07Z</time>
      </trkpt>
      <trkpt lat="44.70694" lon="6.89416">
        <ele>2771.4</ele>
        <time>2011-06-04T11:47:44Z</time>
      </trkpt>
      <trkpt lat="44.70692" lon="6.89416">
        <ele>2771</ele>
        <time>2011-06-04T11:47:46Z</time>
      </trkpt>
      <trkpt lat="44.70688" lon="6.89415">
        <ele>2770.2</ele>
        <time>2011-06-04T11:47:48Z</time>
      </trkpt>
      <trkpt lat="44.70685" lon="6.89411">
        <ele>2769.6</ele>
        <time>2011-06-04T11:47:52Z</time>
      </trkpt>
      <trkpt lat="44.70684" lon="6.89409">
        <ele>2769.2</ele>
        <time>2011-06-04T11:47:53Z</time>
      </trkpt>
      <trkpt lat="44.70684" lon="6.89409">
        <ele>2769</ele>
        <time>2011-06-04T11:47:55Z</time>
      </trkpt>
      <trkpt lat="44.70682" lon="6.89406">
        <ele>2768.2</ele>
        <time>2011-06-04T11:47:57Z</time>
      </trkpt>
      <trkpt lat="44.70682" lon="6.89404">
        <ele>2767.8</ele>
        <time>2011-06-04T11:48:00Z</time>
      </trkpt>
      <trkpt lat="44.70681" lon="6.89402">
        <ele>2767.2</ele>
        <time>2011-06-04T11:48:01Z</time>
      </trkpt>
      <trkpt lat="44.70678" lon="6.89401">
        <ele>2766.8</ele>
        <time>2011-06-04T11:48:04Z</time>
      </trkpt>
      <trkpt lat="44.70676" lon="6.89399">
        <ele>2766.4</ele>
        <time>2011-06-04T11:48:05Z</time>
      </trkpt>
      <trkpt lat="44.70674" lon="6.89399">
        <ele>2766</ele>
        <time>2011-06-04T11:48:07Z</time>
      </trkpt>
      <trkpt lat="44.70669" lon="6.89397">
        <ele>2764.8</ele>
        <time>2011-06-04T11:48:12Z</time>
      </trkpt>
      <trkpt lat="44.70668" lon="6.89396">
        <ele>2764.2</ele>
        <time>2011-06-04T11:48:14Z</time>
      </trkpt>
      <trkpt lat="44.70666" lon="6.89394">
        <ele>2763.6</ele>
        <time>2011-06-04T11:48:17Z</time>
      </trkpt>
      <trkpt lat="44.70663" lon="6.8939">
        <ele>2762.8</ele>
        <time>2011-06-04T11:48:20Z</time>
      </trkpt>
      <trkpt lat="44.70662" lon="6.89388">
        <ele>2762.6</ele>
        <time>2011-06-04T11:48:22Z</time>
      </trkpt>
      <trkpt lat="44.70658" lon="6.89384">
        <ele>2761</ele>
        <time>2011-06-04T11:48:27Z</time>
      </trkpt>
      <trkpt lat="44.70654" lon="6.89383">
        <ele>2759.8</ele>
        <time>2011-06-04T11:48:32Z</time>
      </trkpt>
      <trkpt lat="44.70653" lon="6.89382">
        <ele>2759.4</ele>
        <time>2011-06-04T11:48:33Z</time>
      </trkpt>
      <trkpt lat="44.70653" lon="6.89381">
        <ele>2759</ele>
        <time>2011-06-04T11:48:35Z</time>
      </trkpt>
      <trkpt lat="44.70651" lon="6.89382">
        <ele>2758.2</ele>
        <time>2011-06-04T11:48:39Z</time>
      </trkpt>
      <trkpt lat="44.70648" lon="6.89381">
        <ele>2756.8</ele>
        <time>2011-06-04T11:48:44Z</time>
      </trkpt>
      <trkpt lat="44.70645" lon="6.8938">
        <ele>2755.6</ele>
        <time>2011-06-04T11:48:47Z</time>
      </trkpt>
      <trkpt lat="44.70638" lon="6.89375">
        <ele>2754.2</ele>
        <time>2011-06-04T11:48:52Z</time>
      </trkpt>
      <trkpt lat="44.70632" lon="6.89369">
        <ele>2753.4</ele>
        <time>2011-06-04T11:48:55Z</time>
      </trkpt>
      <trkpt lat="44.7063" lon="6.89367">
        <ele>2752.8</ele>
        <time>2011-06-04T11:48:58Z</time>
      </trkpt>
      <trkpt lat="44.70629" lon="6.89365">
        <ele>2751</ele>
        <time>2011-06-04T11:49:03Z</time>
      </trkpt>
      <trkpt lat="44.70628" lon="6.89363">
        <ele>2749.6</ele>
        <time>2011-06-04T11:49:09Z</time>
      </trkpt>
      <trkpt lat="44.70626" lon="6.89361">
        <ele>2748.4</ele>
        <time>2011-06-04T11:49:13Z</time>
      </trkpt>
      <trkpt lat="44.70624" lon="6.8936">
        <ele>2748.2</ele>
        <time>2011-06-04T11:49:14Z</time>
      </trkpt>
      <trkpt lat="44.70622" lon="6.89353">
        <ele>2747.2</ele>
        <time>2011-06-04T11:49:16Z</time>
      </trkpt>
      <trkpt lat="44.70622" lon="6.89345">
        <ele>2746.4</ele>
        <time>2011-06-04T11:49:19Z</time>
      </trkpt>
      <trkpt lat="44.70621" lon="6.89341">
        <ele>2745.6</ele>
        <time>2011-06-04T11:49:22Z</time>
      </trkpt>
      <trkpt lat="44.70619" lon="6.89336">
        <ele>2745</ele>
        <time>2011-06-04T11:49:23Z</time>
      </trkpt>
      <trkpt lat="44.70618" lon="6.89332">
        <ele>2744.2</ele>
        <time>2011-06-04T11:49:26Z</time>
      </trkpt>
      <trkpt lat="44.70618" lon="6.89321">
        <ele>2742.8</ele>
        <time>2011-06-04T11:49:29Z</time>
      </trkpt>
      <trkpt lat="44.70618" lon="6.89318">
        <ele>2742.4</ele>
        <time>2011-06-04T11:49:30Z</time>
      </trkpt>
      <trkpt lat="44.70619" lon="6.893">
        <ele>2740.6</ele>
        <time>2011-06-04T11:49:35Z</time>
      </trkpt>
      <trkpt lat="44.70619" lon="6.89298">
        <ele>2740.2</ele>
        <time>2011-06-04T11:49:36Z</time>
      </trkpt>
      <trkpt lat="44.7062" lon="6.89295">
        <ele>2740</ele>
        <time>2011-06-04T11:49:37Z</time>
      </trkpt>
      <trkpt lat="44.70621" lon="6.89285">
        <ele>2738.4</ele>
        <time>2011-06-04T11:49:41Z</time>
      </trkpt>
      <trkpt lat="44.70619" lon="6.89271">
        <ele>2736.4</ele>
        <time>2011-06-04T11:49:47Z</time>
      </trkpt>
      <trkpt lat="44.70619" lon="6.8927">
        <ele>2736</ele>
        <time>2011-06-04T11:49:48Z</time>
      </trkpt>
      <trkpt lat="44.70619" lon="6.89268">
        <ele>2735.6</ele>
        <time>2011-06-04T11:49:50Z</time>
      </trkpt>
      <trkpt lat="44.70615" lon="6.8926">
        <ele>2734.2</ele>
        <time>2011-06-04T11:49:53Z</time>
      </trkpt>
      <trkpt lat="44.70612" lon="6.89256">
        <ele>2733</ele>
        <time>2011-06-04T11:49:56Z</time>
      </trkpt>
      <trkpt lat="44.7061" lon="6.89252">
        <ele>2732.2</ele>
        <time>2011-06-04T11:49:58Z</time>
      </trkpt>
      <trkpt lat="44.70608" lon="6.89251">
        <ele>2731.8</ele>
        <time>2011-06-04T11:49:59Z</time>
      </trkpt>
      <trkpt lat="44.70602" lon="6.89242">
        <ele>2729.8</ele>
        <time>2011-06-04T11:50:05Z</time>
      </trkpt>
      <trkpt lat="44.706" lon="6.89236">
        <ele>2728.6</ele>
        <time>2011-06-04T11:50:08Z</time>
      </trkpt>
      <trkpt lat="44.70598" lon="6.89232">
        <ele>2727.8</ele>
        <time>2011-06-04T11:50:09Z</time>
      </trkpt>
      <trkpt lat="44.70596" lon="6.8923">
        <ele>2727.4</ele>
        <time>2011-06-04T11:50:10Z</time>
      </trkpt>
      <trkpt lat="44.70591" lon="6.89223">
        <ele>2725.8</ele>
        <time>2011-06-04T11:50:14Z</time>
      </trkpt>
      <trkpt lat="44.70583" lon="6.89211">
        <ele>2723.2</ele>
        <time>2011-06-04T11:50:21Z</time>
      </trkpt>
      <trkpt lat="44.70573" lon="6.89202">
        <ele>2720.4</ele>
        <time>2011-06-04T11:50:27Z</time>
      </trkpt>
      <trkpt lat="44.70569" lon="6.89195">
        <ele>2718.6</ele>
        <time>2011-06-04T11:50:31Z</time>
      </trkpt>
      <trkpt lat="44.70564" lon="6.89186">
        <ele>2716</ele>
        <time>2011-06-04T11:50:37Z</time>
      </trkpt>
      <trkpt lat="44.70561" lon="6.89184">
        <ele>2714.4</ele>
        <time>2011-06-04T11:50:42Z</time>
      </trkpt>
      <trkpt lat="44.70558" lon="6.89179">
        <ele>2712.2</ele>
        <time>2011-06-04T11:50:47Z</time>
      </trkpt>
      <trkpt lat="44.70558" lon="6.89176">
        <ele>2711.4</ele>
        <time>2011-06-04T11:50:48Z</time>
      </trkpt>
      <trkpt lat="44.70555" lon="6.89173">
        <ele>2709.6</ele>
        <time>2011-06-04T11:50:52Z</time>
      </trkpt>
      <trkpt lat="44.70551" lon="6.89169">
        <ele>2707.4</ele>
        <time>2011-06-04T11:50:57Z</time>
      </trkpt>
      <trkpt lat="44.7055" lon="6.89168">
        <ele>2706.8</ele>
        <time>2011-06-04T11:50:58Z</time>
      </trkpt>
      <trkpt lat="44.70549" lon="6.89167">
        <ele>2706.4</ele>
        <time>2011-06-04T11:51:00Z</time>
      </trkpt>
      <trkpt lat="44.70545" lon="6.89163">
        <ele>2704</ele>
        <time>2011-06-04T11:51:04Z</time>
      </trkpt>
      <trkpt lat="44.70544" lon="6.89163">
        <ele>2703.6</ele>
        <time>2011-06-04T11:51:06Z</time>
      </trkpt>
      <trkpt lat="44.70542" lon="6.8916">
        <ele>2701.6</ele>
        <time>2011-06-04T11:51:09Z</time>
      </trkpt>
      <trkpt lat="44.70541" lon="6.8916">
        <ele>2701.2</ele>
        <time>2011-06-04T11:51:10Z</time>
      </trkpt>
      <trkpt lat="44.70541" lon="6.89159">
        <ele>2700.6</ele>
        <time>2011-06-04T11:51:12Z</time>
      </trkpt>
      <trkpt lat="44.70538" lon="6.89156">
        <ele>2699.2</ele>
        <time>2011-06-04T11:51:15Z</time>
      </trkpt>
      <trkpt lat="44.70537" lon="6.89154">
        <ele>2698.2</ele>
        <time>2011-06-04T11:51:16Z</time>
      </trkpt>
      <trkpt lat="44.70535" lon="6.89151">
        <ele>2696.6</ele>
        <time>2011-06-04T11:51:20Z</time>
      </trkpt>
      <trkpt lat="44.70531" lon="6.89149">
        <ele>2694.8</ele>
        <time>2011-06-04T11:51:23Z</time>
      </trkpt>
      <trkpt lat="44.7053" lon="6.89149">
        <ele>2694.2</ele>
        <time>2011-06-04T11:51:24Z</time>
      </trkpt>
      <trkpt lat="44.70529" lon="6.89148">
        <ele>2693.8</ele>
        <time>2011-06-04T11:51:26Z</time>
      </trkpt>
      <trkpt lat="44.70525" lon="6.89148">
        <ele>2692.2</ele>
        <time>2011-06-04T11:51:28Z</time>
      </trkpt>
      <trkpt lat="44.70524" lon="6.89148">
        <ele>2691.8</ele>
        <time>2011-06-04T11:51:29Z</time>
      </trkpt>
      <trkpt lat="44.70516" lon="6.89145">
        <ele>2689.2</ele>
        <time>2011-06-04T11:51:34Z</time>
      </trkpt>
      <trkpt lat="44.70513" lon="6.89141">
        <ele>2687.8</ele>
        <time>2011-06-04T11:51:38Z</time>
      </trkpt>
      <trkpt lat="44.70507" lon="6.89136">
        <ele>2685.6</ele>
        <time>2011-06-04T11:51:41Z</time>
      </trkpt>
      <trkpt lat="44.70502" lon="6.89126">
        <ele>2682.4</ele>
        <time>2011-06-04T11:51:48Z</time>
      </trkpt>
      <trkpt lat="44.70499" lon="6.89124">
        <ele>2681.4</ele>
        <time>2011-06-04T11:51:49Z</time>
      </trkpt>
      <trkpt lat="44.70494" lon="6.89118">
        <ele>2679.2</ele>
        <time>2011-06-04T11:51:53Z</time>
      </trkpt>
      <trkpt lat="44.70486" lon="6.89111">
        <ele>2675.8</ele>
        <time>2011-06-04T11:51:59Z</time>
      </trkpt>
      <trkpt lat="44.70483" lon="6.89108">
        <ele>2674.6</ele>
        <time>2011-06-04T11:52:01Z</time>
      </trkpt>
      <trkpt lat="44.70479" lon="6.89105">
        <ele>2672.6</ele>
        <time>2011-06-04T11:52:05Z</time>
      </trkpt>
      <trkpt lat="44.70478" lon="6.89104">
        <ele>2672</ele>
        <time>2011-06-04T11:52:07Z</time>
      </trkpt>
      <trkpt lat="44.70474" lon="6.891">
        <ele>2669.2</ele>
        <time>2011-06-04T11:52:11Z</time>
      </trkpt>
      <trkpt lat="44.70473" lon="6.89097">
        <ele>2667.4</ele>
        <time>2011-06-04T11:52:14Z</time>
      </trkpt>
      <trkpt lat="44.70471" lon="6.89093">
        <ele>2665.2</ele>
        <time>2011-06-04T11:52:18Z</time>
      </trkpt>
      <trkpt lat="44.7047" lon="6.89092">
        <ele>2664.6</ele>
        <time>2011-06-04T11:52:19Z</time>
      </trkpt>
      <trkpt lat="44.70468" lon="6.89088">
        <ele>2662.4</ele>
        <time>2011-06-04T11:52:23Z</time>
      </trkpt>
      <trkpt lat="44.70468" lon="6.89086">
        <ele>2661.4</ele>
        <time>2011-06-04T11:52:25Z</time>
      </trkpt>
      <trkpt lat="44.70466" lon="6.89081">
        <ele>2658.6</ele>
        <time>2011-06-04T11:52:30Z</time>
      </trkpt>
      <trkpt lat="44.7046" lon="6.89077">
        <ele>2655.2</ele>
        <time>2011-06-04T11:52:36Z</time>
      </trkpt>
      <trkpt lat="44.70459" lon="6.89076">
        <ele>2654.6</ele>
        <time>2011-06-04T11:52:37Z</time>
      </trkpt>
      <trkpt lat="44.70458" lon="6.89075">
        <ele>2654.2</ele>
        <time>2011-06-04T11:52:39Z</time>
      </trkpt>
      <trkpt lat="44.70452" lon="6.89074">
        <ele>2651.4</ele>
        <time>2011-06-04T11:52:44Z</time>
      </trkpt>
      <trkpt lat="44.70446" lon="6.89074">
        <ele>2648</ele>
        <time>2011-06-04T11:52:50Z</time>
      </trkpt>
      <trkpt lat="44.70444" lon="6.89073">
        <ele>2646.8</ele>
        <time>2011-06-04T11:52:52Z</time>
      </trkpt>
      <trkpt lat="44.70442" lon="6.89071">
        <ele>2645.2</ele>
        <time>2011-06-04T11:52:55Z</time>
      </trkpt>
      <trkpt lat="44.70442" lon="6.8907">
        <ele>2644.6</ele>
        <time>2011-06-04T11:52:56Z</time>
      </trkpt>
      <trkpt lat="44.7044" lon="6.89065">
        <ele>2642.4</ele>
        <time>2011-06-04T11:53:00Z</time>
      </trkpt>
      <trkpt lat="44.7044" lon="6.89063">
        <ele>2641.2</ele>
        <time>2011-06-04T11:53:02Z</time>
      </trkpt>
      <trkpt lat="44.70437" lon="6.89061">
        <ele>2639</ele>
        <time>2011-06-04T11:53:06Z</time>
      </trkpt>
      <trkpt lat="44.70432" lon="6.8906">
        <ele>2636</ele>
        <time>2011-06-04T11:53:11Z</time>
      </trkpt>
      <trkpt lat="44.7043" lon="6.89057">
        <ele>2635</ele>
        <time>2011-06-04T11:53:13Z</time>
      </trkpt>
      <trkpt lat="44.70426" lon="6.89052">
        <ele>2633.2</ele>
        <time>2011-06-04T11:53:16Z</time>
      </trkpt>
      <trkpt lat="44.70421" lon="6.89043">
        <ele>2629.6</ele>
        <time>2011-06-04T11:53:22Z</time>
      </trkpt>
      <trkpt lat="44.7042" lon="6.89041">
        <ele>2629</ele>
        <time>2011-06-04T11:53:23Z</time>
      </trkpt>
      <trkpt lat="44.70419" lon="6.89037">
        <ele>2627.8</ele>
        <time>2011-06-04T11:53:25Z</time>
      </trkpt>
      <trkpt lat="44.70417" lon="6.89033">
        <ele>2626.6</ele>
        <time>2011-06-04T11:53:27Z</time>
      </trkpt>
      <trkpt lat="44.70411" lon="6.89033">
        <ele>2624.2</ele>
        <time>2011-06-04T11:53:31Z</time>
      </trkpt>
      <trkpt lat="44.70402" lon="6.89034">
        <ele>2621.4</ele>
        <time>2011-06-04T11:53:36Z</time>
      </trkpt>
      <trkpt lat="44.70398" lon="6.89033">
        <ele>2620.4</ele>
        <time>2011-06-04T11:53:38Z</time>
      </trkpt>
      <trkpt lat="44.70388" lon="6.89029">
        <ele>2617</ele>
        <time>2011-06-04T11:53:44Z</time>
      </trkpt>
      <trkpt lat="44.70385" lon="6.89025">
        <ele>2615.4</ele>
        <time>2011-06-04T11:53:47Z</time>
      </trkpt>
      <trkpt lat="44.70385" lon="6.89023">
        <ele>2615</ele>
        <time>2011-06-04T11:53:48Z</time>
      </trkpt>
      <trkpt lat="44.7039" lon="6.89012">
        <ele>2611.6</ele>
        <time>2011-06-04T11:53:54Z</time>
      </trkpt>
      <trkpt lat="44.70385" lon="6.89007">
        <ele>2608.8</ele>
        <time>2011-06-04T11:53:59Z</time>
      </trkpt>
      <trkpt lat="44.70384" lon="6.89006">
        <ele>2608.4</ele>
        <time>2011-06-04T11:54:00Z</time>
      </trkpt>
      <trkpt lat="44.7038" lon="6.89004">
        <ele>2606.8</ele>
        <time>2011-06-04T11:54:03Z</time>
      </trkpt>
      <trkpt lat="44.70378" lon="6.89004">
        <ele>2606.2</ele>
        <time>2011-06-04T11:54:04Z</time>
      </trkpt>
      <trkpt lat="44.70369" lon="6.89">
        <ele>2602.4</ele>
        <time>2011-06-04T11:54:11Z</time>
      </trkpt>
      <trkpt lat="44.70367" lon="6.88998">
        <ele>2601.4</ele>
        <time>2011-06-04T11:54:13Z</time>
      </trkpt>
      <trkpt lat="44.70363" lon="6.88994">
        <ele>2599.2</ele>
        <time>2011-06-04T11:54:17Z</time>
      </trkpt>
      <trkpt lat="44.70357" lon="6.88989">
        <ele>2596</ele>
        <time>2011-06-04T11:54:23Z</time>
      </trkpt>
      <trkpt lat="44.70351" lon="6.88985">
        <ele>2594</ele>
        <time>2011-06-04T11:54:27Z</time>
      </trkpt>
      <trkpt lat="44.70346" lon="6.88983">
        <ele>2592.4</ele>
        <time>2011-06-04T11:54:30Z</time>
      </trkpt>
      <trkpt lat="44.70336" lon="6.88977">
        <ele>2589.2</ele>
        <time>2011-06-04T11:54:36Z</time>
      </trkpt>
      <trkpt lat="44.70335" lon="6.88973">
        <ele>2588</ele>
        <time>2011-06-04T11:54:38Z</time>
      </trkpt>
      <trkpt lat="44.70334" lon="6.88965">
        <ele>2586</ele>
        <time>2011-06-04T11:54:42Z</time>
      </trkpt>
      <trkpt lat="44.70333" lon="6.88961">
        <ele>2584.8</ele>
        <time>2011-06-04T11:54:44Z</time>
      </trkpt>
      <trkpt lat="44.7033" lon="6.88957">
        <ele>2583.8</ele>
        <time>2011-06-04T11:54:46Z</time>
      </trkpt>
      <trkpt lat="44.70328" lon="6.88951">
        <ele>2582.2</ele>
        <time>2011-06-04T11:54:49Z</time>
      </trkpt>
      <trkpt lat="44.70327" lon="6.88949">
        <ele>2581.6</ele>
        <time>2011-06-04T11:54:50Z</time>
      </trkpt>
      <trkpt lat="44.70326" lon="6.88947">
        <ele>2581</ele>
        <time>2011-06-04T11:54:51Z</time>
      </trkpt>
      <trkpt lat="44.70317" lon="6.88935">
        <ele>2578</ele>
        <time>2011-06-04T11:54:57Z</time>
      </trkpt>
      <trkpt lat="44.70315" lon="6.88931">
        <ele>2576.8</ele>
        <time>2011-06-04T11:54:59Z</time>
      </trkpt>
      <trkpt lat="44.7031" lon="6.88922">
        <ele>2574.2</ele>
        <time>2011-06-04T11:55:04Z</time>
      </trkpt>
      <trkpt lat="44.70308" lon="6.88917">
        <ele>2572.4</ele>
        <time>2011-06-04T11:55:07Z</time>
      </trkpt>
      <trkpt lat="44.70306" lon="6.88915">
        <ele>2571.4</ele>
        <time>2011-06-04T11:55:09Z</time>
      </trkpt>
      <trkpt lat="44.70303" lon="6.88915">
        <ele>2569.6</ele>
        <time>2011-06-04T11:55:12Z</time>
      </trkpt>
      <trkpt lat="44.70301" lon="6.88915">
        <ele>2569.2</ele>
        <time>2011-06-04T11:55:13Z</time>
      </trkpt>
      <trkpt lat="44.70289" lon="6.88917">
        <ele>2565.4</ele>
        <time>2011-06-04T11:55:20Z</time>
      </trkpt>
      <trkpt lat="44.70284" lon="6.88918">
        <ele>2564.4</ele>
        <time>2011-06-04T11:55:22Z</time>
      </trkpt>
      <trkpt lat="44.70278" lon="6.88916">
        <ele>2562.8</ele>
        <time>2011-06-04T11:55:25Z</time>
      </trkpt>
      <trkpt lat="44.70276" lon="6.88915">
        <ele>2562.2</ele>
        <time>2011-06-04T11:55:26Z</time>
      </trkpt>
      <trkpt lat="44.70274" lon="6.8891">
        <ele>2560.6</ele>
        <time>2011-06-04T11:55:29Z</time>
      </trkpt>
      <trkpt lat="44.70271" lon="6.88904">
        <ele>2558.8</ele>
        <time>2011-06-04T11:55:32Z</time>
      </trkpt>
      <trkpt lat="44.70271" lon="6.88901">
        <ele>2558.2</ele>
        <time>2011-06-04T11:55:33Z</time>
      </trkpt>
      <trkpt lat="44.70271" lon="6.88899">
        <ele>2557.6</ele>
        <time>2011-06-04T11:55:34Z</time>
      </trkpt>
      <trkpt lat="44.70269" lon="6.88884">
        <ele>2554.8</ele>
        <time>2011-06-04T11:55:39Z</time>
      </trkpt>
      <trkpt lat="44.70268" lon="6.88876">
        <ele>2553.2</ele>
        <time>2011-06-04T11:55:42Z</time>
      </trkpt>
      <trkpt lat="44.70267" lon="6.88868">
        <ele>2551.4</ele>
        <time>2011-06-04T11:55:45Z</time>
      </trkpt>
      <trkpt lat="44.70266" lon="6.88855">
        <ele>2547.8</ele>
        <time>2011-06-04T11:55:51Z</time>
      </trkpt>
      <trkpt lat="44.70266" lon="6.88849">
        <ele>2546</ele>
        <time>2011-06-04T11:55:54Z</time>
      </trkpt>
      <trkpt lat="44.70264" lon="6.88839">
        <ele>2543</ele>
        <time>2011-06-04T11:55:59Z</time>
      </trkpt>
      <trkpt lat="44.70263" lon="6.88825">
        <ele>2539.4</ele>
        <time>2011-06-04T11:56:05Z</time>
      </trkpt>
      <trkpt lat="44.70263" lon="6.88823">
        <ele>2538.6</ele>
        <time>2011-06-04T11:56:06Z</time>
      </trkpt>
      <trkpt lat="44.70261" lon="6.88803">
        <ele>2533.2</ele>
        <time>2011-06-04T11:56:15Z</time>
      </trkpt>
      <trkpt lat="44.7026" lon="6.88797">
        <ele>2531.2</ele>
        <time>2011-06-04T11:56:18Z</time>
      </trkpt>
      <trkpt lat="44.70259" lon="6.88787">
        <ele>2528.2</ele>
        <time>2011-06-04T11:56:23Z</time>
      </trkpt>
      <trkpt lat="44.70256" lon="6.88773">
        <ele>2524.4</ele>
        <time>2011-06-04T11:56:29Z</time>
      </trkpt>
      <trkpt lat="44.70255" lon="6.88771">
        <ele>2523.8</ele>
        <time>2011-06-04T11:56:30Z</time>
      </trkpt>
      <trkpt lat="44.70255" lon="6.8877">
        <ele>2523.2</ele>
        <time>2011-06-04T11:56:31Z</time>
      </trkpt>
      <trkpt lat="44.70252" lon="6.88765">
        <ele>2521.2</ele>
        <time>2011-06-04T11:56:34Z</time>
      </trkpt>
      <trkpt lat="44.70252" lon="6.88763">
        <ele>2520.6</ele>
        <time>2011-06-04T11:56:35Z</time>
      </trkpt>
      <trkpt lat="44.70252" lon="6.88748">
        <ele>2515.6</ele>
        <time>2011-06-04T11:56:43Z</time>
      </trkpt>
      <trkpt lat="44.70252" lon="6.88746">
        <ele>2515</ele>
        <time>2011-06-04T11:56:44Z</time>
      </trkpt>
      <trkpt lat="44.70252" lon="6.88742">
        <ele>2513.8</ele>
        <time>2011-06-04T11:56:46Z</time>
      </trkpt>
      <trkpt lat="44.70252" lon="6.88736">
        <ele>2511.2</ele>
        <time>2011-06-04T11:56:50Z</time>
      </trkpt>
      <trkpt lat="44.70252" lon="6.88734">
        <ele>2510.6</ele>
        <time>2011-06-04T11:56:51Z</time>
      </trkpt>
      <trkpt lat="44.70251" lon="6.88721">
        <ele>2506.2</ele>
        <time>2011-06-04T11:56:58Z</time>
      </trkpt>
      <trkpt lat="44.70251" lon="6.88719">
        <ele>2505.6</ele>
        <time>2011-06-04T11:56:59Z</time>
      </trkpt>
      <trkpt lat="44.70248" lon="6.88697">
        <ele>2499.8</ele>
        <time>2011-06-04T11:57:08Z</time>
      </trkpt>
      <trkpt lat="44.70247" lon="6.88694">
        <ele>2499.2</ele>
        <time>2011-06-04T11:57:09Z</time>
      </trkpt>
      <trkpt lat="44.70244" lon="6.8868">
        <ele>2496</ele>
        <time>2011-06-04T11:57:14Z</time>
      </trkpt>
      <trkpt lat="44.70243" lon="6.8867">
        <ele>2494.2</ele>
        <time>2011-06-04T11:57:17Z</time>
      </trkpt>
      <trkpt lat="44.70241" lon="6.88656">
        <ele>2491.6</ele>
        <time>2011-06-04T11:57:21Z</time>
      </trkpt>
      <trkpt lat="44.70239" lon="6.88643">
        <ele>2489.2</ele>
        <time>2011-06-04T11:57:25Z</time>
      </trkpt>
      <trkpt lat="44.70239" lon="6.8864">
        <ele>2488.6</ele>
        <time>2011-06-04T11:57:26Z</time>
      </trkpt>
      <trkpt lat="44.70237" lon="6.88619">
        <ele>2485</ele>
        <time>2011-06-04T11:57:32Z</time>
      </trkpt>
      <trkpt lat="44.70237" lon="6.88616">
        <ele>2484.6</ele>
        <time>2011-06-04T11:57:33Z</time>
      </trkpt>
      <trkpt lat="44.70239" lon="6.88597">
        <ele>2481.2</ele>
        <time>2011-06-04T11:57:39Z</time>
      </trkpt>
      <trkpt lat="44.70241" lon="6.88589">
        <ele>2479.4</ele>
        <time>2011-06-04T11:57:42Z</time>
      </trkpt>
      <trkpt lat="44.70242" lon="6.88585">
        <ele>2478.2</ele>
        <time>2011-06-04T11:57:44Z</time>
      </trkpt>
      <trkpt lat="44.70242" lon="6.8858">
        <ele>2475.8</ele>
        <time>2011-06-04T11:57:49Z</time>
      </trkpt>
      <trkpt lat="44.70242" lon="6.88577">
        <ele>2450.8</ele>
        <time>2011-06-04T11:59:00Z</time>
      </trkpt>
      <trkpt lat="44.70242" lon="6.88578">
        <ele>2449.4</ele>
        <time>2011-06-04T11:59:06Z</time>
      </trkpt>
      <trkpt lat="44.70243" lon="6.88573">
        <ele>2438.8</ele>
        <time>2011-06-04T11:59:58Z</time>
      </trkpt>
      <trkpt lat="44.70244" lon="6.8857">
        <ele>2438.6</ele>
        <time>2011-06-04T12:00:00Z</time>
      </trkpt>
      <trkpt lat="44.70246" lon="6.88565">
        <ele>2437.6</ele>
        <time>2011-06-04T12:00:06Z</time>
      </trkpt>
      <trkpt lat="44.7025" lon="6.88561">
        <ele>2436.8</ele>
        <time>2011-06-04T12:00:11Z</time>
      </trkpt>
      <trkpt lat="44.70255" lon="6.88554">
        <ele>2435.8</ele>
        <time>2011-06-04T12:00:19Z</time>
      </trkpt>
      <trkpt lat="44.70256" lon="6.88553">
        <ele>2435.6</ele>
        <time>2011-06-04T12:00:20Z</time>
      </trkpt>
      <trkpt lat="44.70261" lon="6.88544">
        <ele>2434.4</ele>
        <time>2011-06-04T12:00:30Z</time>
      </trkpt>
      <trkpt lat="44.70261" lon="6.88541">
        <ele>2434</ele>
        <time>2011-06-04T12:00:34Z</time>
      </trkpt>
      <trkpt lat="44.70257" lon="6.88537">
        <ele>2433</ele>
        <time>2011-06-04T12:00:43Z</time>
      </trkpt>
      <trkpt lat="44.70256" lon="6.88534">
        <ele>2432.8</ele>
        <time>2011-06-04T12:00:45Z</time>
      </trkpt>
      <trkpt lat="44.70256" lon="6.88532">
        <ele>2432.6</ele>
        <time>2011-06-04T12:00:46Z</time>
      </trkpt>
      <trkpt lat="44.70254" lon="6.8853">
        <ele>2432.4</ele>
        <time>2011-06-04T12:00:49Z</time>
      </trkpt>
      <trkpt lat="44.70258" lon="6.88527">
        <ele>2430</ele>
        <time>2011-06-04T12:01:21Z</time>
      </trkpt>
      <trkpt lat="44.70259" lon="6.88526">
        <ele>2430</ele>
        <time>2011-06-04T12:01:22Z</time>
      </trkpt>
      <trkpt lat="44.70262" lon="6.88522">
        <ele>2429.6</ele>
        <time>2011-06-04T12:01:26Z</time>
      </trkpt>
      <trkpt lat="44.70262" lon="6.88521">
        <ele>2429.4</ele>
        <time>2011-06-04T12:01:27Z</time>
      </trkpt>
      <trkpt lat="44.70263" lon="6.88518">
        <ele>2429.2</ele>
        <time>2011-06-04T12:01:29Z</time>
      </trkpt>
      <trkpt lat="44.70265" lon="6.88511">
        <ele>2428.4</ele>
        <time>2011-06-04T12:01:35Z</time>
      </trkpt>
      <trkpt lat="44.70266" lon="6.88498">
        <ele>2427.4</ele>
        <time>2011-06-04T12:01:43Z</time>
      </trkpt>
      <trkpt lat="44.70267" lon="6.88494">
        <ele>2427</ele>
        <time>2011-06-04T12:01:45Z</time>
      </trkpt>
      <trkpt lat="44.70267" lon="6.88493">
        <ele>2426.8</ele>
        <time>2011-06-04T12:01:46Z</time>
      </trkpt>
      <trkpt lat="44.70268" lon="6.88488">
        <ele>2426.4</ele>
        <time>2011-06-04T12:01:49Z</time>
      </trkpt>
      <trkpt lat="44.7027" lon="6.88481">
        <ele>2425.6</ele>
        <time>2011-06-04T12:01:54Z</time>
      </trkpt>
      <trkpt lat="44.70272" lon="6.88475">
        <ele>2425</ele>
        <time>2011-06-04T12:01:58Z</time>
      </trkpt>
      <trkpt lat="44.70274" lon="6.88469">
        <ele>2424.2</ele>
        <time>2011-06-04T12:02:03Z</time>
      </trkpt>
      <trkpt lat="44.70275" lon="6.88465">
        <ele>2423.6</ele>
        <time>2011-06-04T12:02:06Z</time>
      </trkpt>
      <trkpt lat="44.70276" lon="6.88452">
        <ele>2422.4</ele>
        <time>2011-06-04T12:02:14Z</time>
      </trkpt>
      <trkpt lat="44.70276" lon="6.88443">
        <ele>2421.6</ele>
        <time>2011-06-04T12:02:20Z</time>
      </trkpt>
      <trkpt lat="44.70276" lon="6.88438">
        <ele>2421</ele>
        <time>2011-06-04T12:02:23Z</time>
      </trkpt>
      <trkpt lat="44.70276" lon="6.88426">
        <ele>2419.4</ele>
        <time>2011-06-04T12:02:32Z</time>
      </trkpt>
      <trkpt lat="44.70274" lon="6.88418">
        <ele>2418.6</ele>
        <time>2011-06-04T12:02:37Z</time>
      </trkpt>
      <trkpt lat="44.70273" lon="6.88413">
        <ele>2418.2</ele>
        <time>2011-06-04T12:02:40Z</time>
      </trkpt>
      <trkpt lat="44.70271" lon="6.88401">
        <ele>2417</ele>
        <time>2011-06-04T12:02:48Z</time>
      </trkpt>
      <trkpt lat="44.7027" lon="6.88393">
        <ele>2416.2</ele>
        <time>2011-06-04T12:02:53Z</time>
      </trkpt>
      <trkpt lat="44.70269" lon="6.88385">
        <ele>2415.4</ele>
        <time>2011-06-04T12:02:58Z</time>
      </trkpt>
      <trkpt lat="44.70269" lon="6.88375">
        <ele>2414.4</ele>
        <time>2011-06-04T12:03:05Z</time>
      </trkpt>
      <trkpt lat="44.70268" lon="6.88367">
        <ele>2413.8</ele>
        <time>2011-06-04T12:03:10Z</time>
      </trkpt>
      <trkpt lat="44.70267" lon="6.88363">
        <ele>2413.4</ele>
        <time>2011-06-04T12:03:13Z</time>
      </trkpt>
      <trkpt lat="44.70269" lon="6.88348">
        <ele>2412</ele>
        <time>2011-06-04T12:03:22Z</time>
      </trkpt>
      <trkpt lat="44.7027" lon="6.88345">
        <ele>2411.8</ele>
        <time>2011-06-04T12:03:24Z</time>
      </trkpt>
      <trkpt lat="44.70271" lon="6.88342">
        <ele>2411.6</ele>
        <time>2011-06-04T12:03:26Z</time>
      </trkpt>
      <trkpt lat="44.70272" lon="6.88337">
        <ele>2411</ele>
        <time>2011-06-04T12:03:30Z</time>
      </trkpt>
      <trkpt lat="44.70275" lon="6.88331">
        <ele>2409.8</ele>
        <time>2011-06-04T12:03:38Z</time>
      </trkpt>
      <trkpt lat="44.70279" lon="6.88324">
        <ele>2409</ele>
        <time>2011-06-04T12:03:44Z</time>
      </trkpt>
      <trkpt lat="44.70282" lon="6.88321">
        <ele>2408.6</ele>
        <time>2011-06-04T12:03:47Z</time>
      </trkpt>
      <trkpt lat="44.70283" lon="6.88317">
        <ele>2408.2</ele>
        <time>2011-06-04T12:03:50Z</time>
      </trkpt>
      <trkpt lat="44.70284" lon="6.88315">
        <ele>2408.2</ele>
        <time>2011-06-04T12:03:51Z</time>
      </trkpt>
      <trkpt lat="44.70283" lon="6.88309">
        <ele>2407.6</ele>
        <time>2011-06-04T12:03:54Z</time>
      </trkpt>
      <trkpt lat="44.70276" lon="6.883">
        <ele>2407</ele>
        <time>2011-06-04T12:03:58Z</time>
      </trkpt>
      <trkpt lat="44.70274" lon="6.88299">
        <ele>2406.4</ele>
        <time>2011-06-04T12:04:02Z</time>
      </trkpt>
      <trkpt lat="44.70271" lon="6.88301">
        <ele>2405.6</ele>
        <time>2011-06-04T12:04:08Z</time>
      </trkpt>
      <trkpt lat="44.7027" lon="6.88301">
        <ele>2405.2</ele>
        <time>2011-06-04T12:04:12Z</time>
      </trkpt>
      <trkpt lat="44.70266" lon="6.88302">
        <ele>2404.6</ele>
        <time>2011-06-04T12:04:16Z</time>
      </trkpt>
      <trkpt lat="44.70265" lon="6.88303">
        <ele>2404.6</ele>
        <time>2011-06-04T12:04:17Z</time>
      </trkpt>
      <trkpt lat="44.70259" lon="6.88305">
        <ele>2403.8</ele>
        <time>2011-06-04T12:04:24Z</time>
      </trkpt>
      <trkpt lat="44.70253" lon="6.88305">
        <ele>2403.2</ele>
        <time>2011-06-04T12:04:29Z</time>
      </trkpt>
      <trkpt lat="44.70252" lon="6.88305">
        <ele>2402.6</ele>
        <time>2011-06-04T12:04:34Z</time>
      </trkpt>
      <trkpt lat="44.70251" lon="6.88306">
        <ele>2399.8</ele>
        <time>2011-06-04T12:05:00Z</time>
      </trkpt>
      <trkpt lat="44.70248" lon="6.88309">
        <ele>2399.2</ele>
        <time>2011-06-04T12:05:05Z</time>
      </trkpt>
      <trkpt lat="44.70248" lon="6.88305">
        <ele>2396.6</ele>
        <time>2011-06-04T12:05:33Z</time>
      </trkpt>
      <trkpt lat="44.7025" lon="6.88298">
        <ele>2396</ele>
        <time>2011-06-04T12:05:38Z</time>
      </trkpt>
      <trkpt lat="44.70251" lon="6.88295">
        <ele>2395.6</ele>
        <time>2011-06-04T12:05:41Z</time>
      </trkpt>
      <trkpt lat="44.7025" lon="6.88292">
        <ele>2395.2</ele>
        <time>2011-06-04T12:05:45Z</time>
      </trkpt>
      <trkpt lat="44.70251" lon="6.88288">
        <ele>2394.8</ele>
        <time>2011-06-04T12:05:49Z</time>
      </trkpt>
      <trkpt lat="44.70251" lon="6.8828">
        <ele>2394</ele>
        <time>2011-06-04T12:05:55Z</time>
      </trkpt>
      <trkpt lat="44.70251" lon="6.88279">
        <ele>2393.8</ele>
        <time>2011-06-04T12:05:56Z</time>
      </trkpt>
      <trkpt lat="44.70251" lon="6.88272">
        <ele>2393</ele>
        <time>2011-06-04T12:06:02Z</time>
      </trkpt>
      <trkpt lat="44.70252" lon="6.8827">
        <ele>2392.6</ele>
        <time>2011-06-04T12:06:04Z</time>
      </trkpt>
      <trkpt lat="44.70252" lon="6.88261">
        <ele>2391.4</ele>
        <time>2011-06-04T12:06:12Z</time>
      </trkpt>
      <trkpt lat="44.70252" lon="6.88255">
        <ele>2390.6</ele>
        <time>2011-06-04T12:06:17Z</time>
      </trkpt>
      <trkpt lat="44.70251" lon="6.88251">
        <ele>2390.2</ele>
        <time>2011-06-04T12:06:20Z</time>
      </trkpt>
      <trkpt lat="44.7025" lon="6.88241">
        <ele>2389</ele>
        <time>2011-06-04T12:06:28Z</time>
      </trkpt>
      <trkpt lat="44.7025" lon="6.88232">
        <ele>2387.8</ele>
        <time>2011-06-04T12:06:35Z</time>
      </trkpt>
      <trkpt lat="44.70249" lon="6.88229">
        <ele>2387.4</ele>
        <time>2011-06-04T12:06:37Z</time>
      </trkpt>
      <trkpt lat="44.7025" lon="6.88224">
        <ele>2386.8</ele>
        <time>2011-06-04T12:06:41Z</time>
      </trkpt>
      <trkpt lat="44.70251" lon="6.88216">
        <ele>2385.4</ele>
        <time>2011-06-04T12:06:49Z</time>
      </trkpt>
      <trkpt lat="44.70252" lon="6.88211">
        <ele>2384.2</ele>
        <time>2011-06-04T12:06:55Z</time>
      </trkpt>
      <trkpt lat="44.70252" lon="6.88204">
        <ele>2383.2</ele>
        <time>2011-06-04T12:07:01Z</time>
      </trkpt>
      <trkpt lat="44.70252" lon="6.88201">
        <ele>2382.6</ele>
        <time>2011-06-04T12:07:04Z</time>
      </trkpt>
      <trkpt lat="44.70252" lon="6.88195">
        <ele>2381.8</ele>
        <time>2011-06-04T12:07:09Z</time>
      </trkpt>
      <trkpt lat="44.70252" lon="6.88192">
        <ele>2381.2</ele>
        <time>2011-06-04T12:07:12Z</time>
      </trkpt>
      <trkpt lat="44.70251" lon="6.8819">
        <ele>2380.4</ele>
        <time>2011-06-04T12:07:17Z</time>
      </trkpt>
      <trkpt lat="44.70249" lon="6.88187">
        <ele>2379.6</ele>
        <time>2011-06-04T12:07:21Z</time>
      </trkpt>
      <trkpt lat="44.70249" lon="6.8818">
        <ele>2378.8</ele>
        <time>2011-06-04T12:07:25Z</time>
      </trkpt>
      <trkpt lat="44.70248" lon="6.88177">
        <ele>2378.4</ele>
        <time>2011-06-04T12:07:27Z</time>
      </trkpt>
      <trkpt lat="44.70248" lon="6.88175">
        <ele>2378.2</ele>
        <time>2011-06-04T12:07:28Z</time>
      </trkpt>
      <trkpt lat="44.70246" lon="6.88166">
        <ele>2376.8</ele>
        <time>2011-06-04T12:07:35Z</time>
      </trkpt>
      <trkpt lat="44.70242" lon="6.88161">
        <ele>2375.8</ele>
        <time>2011-06-04T12:07:40Z</time>
      </trkpt>
      <trkpt lat="44.70241" lon="6.88159">
        <ele>2375.6</ele>
        <time>2011-06-04T12:07:42Z</time>
      </trkpt>
      <trkpt lat="44.70237" lon="6.88159">
        <ele>2374.8</ele>
        <time>2011-06-04T12:07:46Z</time>
      </trkpt>
      <trkpt lat="44.70234" lon="6.8816">
        <ele>2374.2</ele>
        <time>2011-06-04T12:07:49Z</time>
      </trkpt>
      <trkpt lat="44.70227" lon="6.88163">
        <ele>2372.8</ele>
        <time>2011-06-04T12:07:56Z</time>
      </trkpt>
      <trkpt lat="44.70226" lon="6.88164">
        <ele>2372.6</ele>
        <time>2011-06-04T12:07:57Z</time>
      </trkpt>
      <trkpt lat="44.70224" lon="6.88165">
        <ele>2372.2</ele>
        <time>2011-06-04T12:07:59Z</time>
      </trkpt>
      <trkpt lat="44.70218" lon="6.88167">
        <ele>2371</ele>
        <time>2011-06-04T12:08:05Z</time>
      </trkpt>
      <trkpt lat="44.70217" lon="6.88168">
        <ele>2370.6</ele>
        <time>2011-06-04T12:08:07Z</time>
      </trkpt>
      <trkpt lat="44.70209" lon="6.88173">
        <ele>2369</ele>
        <time>2011-06-04T12:08:15Z</time>
      </trkpt>
      <trkpt lat="44.70209" lon="6.88174">
        <ele>2367.8</ele>
        <time>2011-06-04T12:08:21Z</time>
      </trkpt>
      <trkpt lat="44.70208" lon="6.88175">
        <ele>2366.2</ele>
        <time>2011-06-04T12:08:31Z</time>
      </trkpt>
      <trkpt lat="44.70206" lon="6.88176">
        <ele>2365.8</ele>
        <time>2011-06-04T12:08:33Z</time>
      </trkpt>
      <trkpt lat="44.70199" lon="6.88178">
        <ele>2364.6</ele>
        <time>2011-06-04T12:08:39Z</time>
      </trkpt>
      <trkpt lat="44.70197" lon="6.88178">
        <ele>2363.6</ele>
        <time>2011-06-04T12:08:45Z</time>
      </trkpt>
      <trkpt lat="44.70196" lon="6.88179">
        <ele>2360.4</ele>
        <time>2011-06-04T12:09:05Z</time>
      </trkpt>
      <trkpt lat="44.70194" lon="6.88179">
        <ele>2359.2</ele>
        <time>2011-06-04T12:09:14Z</time>
      </trkpt>
      <trkpt lat="44.70195" lon="6.88178">
        <ele>2357</ele>
        <time>2011-06-04T12:09:32Z</time>
      </trkpt>
      <trkpt lat="44.70195" lon="6.88181">
        <ele>2356.2</ele>
        <time>2011-06-04T12:09:40Z</time>
      </trkpt>
      <trkpt lat="44.70195" lon="6.88181">
        <ele>2356</ele>
        <time>2011-06-04T12:09:42Z</time>
      </trkpt>
      <trkpt lat="44.70194" lon="6.88177">
        <ele>2354.4</ele>
        <time>2011-06-04T12:09:59Z</time>
      </trkpt>
      <trkpt lat="44.70196" lon="6.88176">
        <ele>2353.8</ele>
        <time>2011-06-04T12:10:07Z</time>
      </trkpt>
      <trkpt lat="44.70196" lon="6.88169">
        <ele>2353.2</ele>
        <time>2011-06-04T12:10:16Z</time>
      </trkpt>
      <trkpt lat="44.70198" lon="6.88161">
        <ele>2352.6</ele>
        <time>2011-06-04T12:10:23Z</time>
      </trkpt>
      <trkpt lat="44.70198" lon="6.88159">
        <ele>2352.4</ele>
        <time>2011-06-04T12:10:25Z</time>
      </trkpt>
      <trkpt lat="44.70198" lon="6.88158">
        <ele>2352.2</ele>
        <time>2011-06-04T12:10:26Z</time>
      </trkpt>
      <trkpt lat="44.702" lon="6.88148">
        <ele>2351.4</ele>
        <time>2011-06-04T12:10:34Z</time>
      </trkpt>
      <trkpt lat="44.702" lon="6.88142">
        <ele>2351</ele>
        <time>2011-06-04T12:10:38Z</time>
      </trkpt>
      <trkpt lat="44.702" lon="6.88141">
        <ele>2350.8</ele>
        <time>2011-06-04T12:10:39Z</time>
      </trkpt>
      <trkpt lat="44.702" lon="6.88132">
        <ele>2349.8</ele>
        <time>2011-06-04T12:10:47Z</time>
      </trkpt>
      <trkpt lat="44.70201" lon="6.88129">
        <ele>2349.6</ele>
        <time>2011-06-04T12:10:49Z</time>
      </trkpt>
      <trkpt lat="44.70201" lon="6.88117">
        <ele>2348.2</ele>
        <time>2011-06-04T12:10:59Z</time>
      </trkpt>
      <trkpt lat="44.70201" lon="6.88107">
        <ele>2346.8</ele>
        <time>2011-06-04T12:11:08Z</time>
      </trkpt>
      <trkpt lat="44.70201" lon="6.88105">
        <ele>2346.6</ele>
        <time>2011-06-04T12:11:09Z</time>
      </trkpt>
      <trkpt lat="44.70202" lon="6.881">
        <ele>2345.2</ele>
        <time>2011-06-04T12:11:17Z</time>
      </trkpt>
      <trkpt lat="44.70201" lon="6.88096">
        <ele>2344</ele>
        <time>2011-06-04T12:11:25Z</time>
      </trkpt>
      <trkpt lat="44.70202" lon="6.88087">
        <ele>2342.8</ele>
        <time>2011-06-04T12:11:33Z</time>
      </trkpt>
      <trkpt lat="44.70202" lon="6.88082">
        <ele>2342</ele>
        <time>2011-06-04T12:11:37Z</time>
      </trkpt>
      <trkpt lat="44.70203" lon="6.88073">
        <ele>2340.8</ele>
        <time>2011-06-04T12:11:44Z</time>
      </trkpt>
      <trkpt lat="44.70203" lon="6.8806">
        <ele>2339.6</ele>
        <time>2011-06-04T12:11:50Z</time>
      </trkpt>
      <trkpt lat="44.70203" lon="6.88057">
        <ele>2339.2</ele>
        <time>2011-06-04T12:11:51Z</time>
      </trkpt>
      <trkpt lat="44.70202" lon="6.88047">
        <ele>2338.4</ele>
        <time>2011-06-04T12:11:55Z</time>
      </trkpt>
      <trkpt lat="44.70202" lon="6.88045">
        <ele>2338.2</ele>
        <time>2011-06-04T12:11:56Z</time>
      </trkpt>
      <trkpt lat="44.70202" lon="6.88039">
        <ele>2337</ele>
        <time>2011-06-04T12:12:01Z</time>
      </trkpt>
      <trkpt lat="44.70199" lon="6.8803">
        <ele>2335.2</ele>
        <time>2011-06-04T12:12:09Z</time>
      </trkpt>
      <trkpt lat="44.70198" lon="6.8803">
        <ele>2334.8</ele>
        <time>2011-06-04T12:12:10Z</time>
      </trkpt>
      <trkpt lat="44.70194" lon="6.88027">
        <ele>2334.2</ele>
        <time>2011-06-04T12:12:13Z</time>
      </trkpt>
      <trkpt lat="44.70191" lon="6.88025">
        <ele>2333.2</ele>
        <time>2011-06-04T12:12:17Z</time>
      </trkpt>
      <trkpt lat="44.70187" lon="6.88022">
        <ele>2330.4</ele>
        <time>2011-06-04T12:12:29Z</time>
      </trkpt>
      <trkpt lat="44.70186" lon="6.88023">
        <ele>2330.2</ele>
        <time>2011-06-04T12:12:30Z</time>
      </trkpt>
      <trkpt lat="44.70182" lon="6.88023">
        <ele>2329.4</ele>
        <time>2011-06-04T12:12:34Z</time>
      </trkpt>
      <trkpt lat="44.70181" lon="6.88022">
        <ele>2328.2</ele>
        <time>2011-06-04T12:12:40Z</time>
      </trkpt>
      <trkpt lat="44.7018" lon="6.88029">
        <ele>2322</ele>
        <time>2011-06-04T12:13:24Z</time>
      </trkpt>
      <trkpt lat="44.70173" lon="6.88042">
        <ele>2321</ele>
        <time>2011-06-04T12:13:32Z</time>
      </trkpt>
      <trkpt lat="44.70171" lon="6.88046">
        <ele>2320.8</ele>
        <time>2011-06-04T12:13:34Z</time>
      </trkpt>
      <trkpt lat="44.70161" lon="6.88055">
        <ele>2319.8</ele>
        <time>2011-06-04T12:13:42Z</time>
      </trkpt>
      <trkpt lat="44.70157" lon="6.88058">
        <ele>2319.4</ele>
        <time>2011-06-04T12:13:44Z</time>
      </trkpt>
      <trkpt lat="44.70153" lon="6.8806">
        <ele>2319</ele>
        <time>2011-06-04T12:13:47Z</time>
      </trkpt>
      <trkpt lat="44.70144" lon="6.88064">
        <ele>2317.8</ele>
        <time>2011-06-04T12:13:54Z</time>
      </trkpt>
      <trkpt lat="44.70144" lon="6.88064">
        <ele>2317.6</ele>
        <time>2011-06-04T12:13:55Z</time>
      </trkpt>
      <trkpt lat="44.7014" lon="6.88064">
        <ele>2316.6</ele>
        <time>2011-06-04T12:14:00Z</time>
      </trkpt>
      <trkpt lat="44.70139" lon="6.88064">
        <ele>2316.4</ele>
        <time>2011-06-04T12:14:01Z</time>
      </trkpt>
      <trkpt lat="44.70135" lon="6.88063">
        <ele>2315.6</ele>
        <time>2011-06-04T12:14:05Z</time>
      </trkpt>
      <trkpt lat="44.70133" lon="6.88064">
        <ele>2315.4</ele>
        <time>2011-06-04T12:14:06Z</time>
      </trkpt>
      <trkpt lat="44.70125" lon="6.88066">
        <ele>2314.4</ele>
        <time>2011-06-04T12:14:11Z</time>
      </trkpt>
      <trkpt lat="44.70124" lon="6.88066">
        <ele>2314.2</ele>
        <time>2011-06-04T12:14:12Z</time>
      </trkpt>
      <trkpt lat="44.70121" lon="6.88066">
        <ele>2313.4</ele>
        <time>2011-06-04T12:14:15Z</time>
      </trkpt>
      <trkpt lat="44.70119" lon="6.88067">
        <ele>2313</ele>
        <time>2011-06-04T12:14:17Z</time>
      </trkpt>
      <trkpt lat="44.70117" lon="6.88065">
        <ele>2311.8</ele>
        <time>2011-06-04T12:14:22Z</time>
      </trkpt>
      <trkpt lat="44.70114" lon="6.8806">
        <ele>2311</ele>
        <time>2011-06-04T12:14:26Z</time>
      </trkpt>
      <trkpt lat="44.70112" lon="6.88059">
        <ele>2310.6</ele>
        <time>2011-06-04T12:14:27Z</time>
      </trkpt>
      <trkpt lat="44.70108" lon="6.88061">
        <ele>2309.6</ele>
        <time>2011-06-04T12:14:31Z</time>
      </trkpt>
      <trkpt lat="44.70107" lon="6.88062">
        <ele>2309.4</ele>
        <time>2011-06-04T12:14:32Z</time>
      </trkpt>
      <trkpt lat="44.70107" lon="6.88063">
        <ele>2309.2</ele>
        <time>2011-06-04T12:14:33Z</time>
      </trkpt>
      <trkpt lat="44.70103" lon="6.8807">
        <ele>2308</ele>
        <time>2011-06-04T12:14:37Z</time>
      </trkpt>
      <trkpt lat="44.70099" lon="6.88078">
        <ele>2306.8</ele>
        <time>2011-06-04T12:14:42Z</time>
      </trkpt>
      <trkpt lat="44.70098" lon="6.88084">
        <ele>2305.8</ele>
        <time>2011-06-04T12:14:46Z</time>
      </trkpt>
      <trkpt lat="44.70097" lon="6.88086">
        <ele>2305.2</ele>
        <time>2011-06-04T12:14:48Z</time>
      </trkpt>
      <trkpt lat="44.70094" lon="6.88094">
        <ele>2303.6</ele>
        <time>2011-06-04T12:14:54Z</time>
      </trkpt>
      <trkpt lat="44.70093" lon="6.88096">
        <ele>2301.8</ele>
        <time>2011-06-04T12:15:01Z</time>
      </trkpt>
      <trkpt lat="44.7009" lon="6.88104">
        <ele>2300.2</ele>
        <time>2011-06-04T12:15:07Z</time>
      </trkpt>
      <trkpt lat="44.70089" lon="6.88107">
        <ele>2299.8</ele>
        <time>2011-06-04T12:15:09Z</time>
      </trkpt>
      <trkpt lat="44.70085" lon="6.88115">
        <ele>2298.4</ele>
        <time>2011-06-04T12:15:14Z</time>
      </trkpt>
      <trkpt lat="44.70083" lon="6.88128">
        <ele>2296.6</ele>
        <time>2011-06-04T12:15:21Z</time>
      </trkpt>
      <trkpt lat="44.70083" lon="6.8813">
        <ele>2296.4</ele>
        <time>2011-06-04T12:15:22Z</time>
      </trkpt>
      <trkpt lat="44.70081" lon="6.88139">
        <ele>2295.2</ele>
        <time>2011-06-04T12:15:27Z</time>
      </trkpt>
      <trkpt lat="44.70081" lon="6.88141">
        <ele>2294.8</ele>
        <time>2011-06-04T12:15:28Z</time>
      </trkpt>
      <trkpt lat="44.7008" lon="6.88146">
        <ele>2293.8</ele>
        <time>2011-06-04T12:15:32Z</time>
      </trkpt>
      <trkpt lat="44.70078" lon="6.8815">
        <ele>2293</ele>
        <time>2011-06-04T12:15:35Z</time>
      </trkpt>
      <trkpt lat="44.70076" lon="6.88154">
        <ele>2292.4</ele>
        <time>2011-06-04T12:15:38Z</time>
      </trkpt>
      <trkpt lat="44.70073" lon="6.88158">
        <ele>2291.6</ele>
        <time>2011-06-04T12:15:41Z</time>
      </trkpt>
      <trkpt lat="44.70073" lon="6.8816">
        <ele>2291</ele>
        <time>2011-06-04T12:15:43Z</time>
      </trkpt>
      <trkpt lat="44.70072" lon="6.88161">
        <ele>2290.8</ele>
        <time>2011-06-04T12:15:44Z</time>
      </trkpt>
      <trkpt lat="44.7007" lon="6.88163">
        <ele>2289.8</ele>
        <time>2011-06-04T12:15:48Z</time>
      </trkpt>
      <trkpt lat="44.70066" lon="6.88174">
        <ele>2288.2</ele>
        <time>2011-06-04T12:15:54Z</time>
      </trkpt>
      <trkpt lat="44.70066" lon="6.88175">
        <ele>2288</ele>
        <time>2011-06-04T12:15:55Z</time>
      </trkpt>
      <trkpt lat="44.70061" lon="6.88188">
        <ele>2285.8</ele>
        <time>2011-06-04T12:16:03Z</time>
      </trkpt>
      <trkpt lat="44.70057" lon="6.88197">
        <ele>2285</ele>
        <time>2011-06-04T12:16:06Z</time>
      </trkpt>
      <trkpt lat="44.70056" lon="6.88201">
        <ele>2284.6</ele>
        <time>2011-06-04T12:16:08Z</time>
      </trkpt>
      <trkpt lat="44.70056" lon="6.88207">
        <ele>2283.2</ele>
        <time>2011-06-04T12:16:14Z</time>
      </trkpt>
      <trkpt lat="44.70056" lon="6.88209">
        <ele>2283</ele>
        <time>2011-06-04T12:16:15Z</time>
      </trkpt>
      <trkpt lat="44.70057" lon="6.88215">
        <ele>2282</ele>
        <time>2011-06-04T12:16:20Z</time>
      </trkpt>
      <trkpt lat="44.70057" lon="6.88224">
        <ele>2280.8</ele>
        <time>2011-06-04T12:16:26Z</time>
      </trkpt>
      <trkpt lat="44.70058" lon="6.88226">
        <ele>2280.6</ele>
        <time>2011-06-04T12:16:27Z</time>
      </trkpt>
      <trkpt lat="44.70058" lon="6.88231">
        <ele>2280</ele>
        <time>2011-06-04T12:16:31Z</time>
      </trkpt>
      <trkpt lat="44.70058" lon="6.88234">
        <ele>2279.4</ele>
        <time>2011-06-04T12:16:34Z</time>
      </trkpt>
      <trkpt lat="44.70058" lon="6.88236">
        <ele>2278.4</ele>
        <time>2011-06-04T12:16:41Z</time>
      </trkpt>
      <trkpt lat="44.70052" lon="6.88241">
        <ele>2275.2</ele>
        <time>2011-06-04T12:17:07Z</time>
      </trkpt>
      <trkpt lat="44.70049" lon="6.88246">
        <ele>2274.8</ele>
        <time>2011-06-04T12:17:11Z</time>
      </trkpt>
      <trkpt lat="44.70049" lon="6.88247">
        <ele>2274.6</ele>
        <time>2011-06-04T12:17:13Z</time>
      </trkpt>
      <trkpt lat="44.70045" lon="6.8825">
        <ele>2273.6</ele>
        <time>2011-06-04T12:17:24Z</time>
      </trkpt>
      <trkpt lat="44.70038" lon="6.88256">
        <ele>2272.8</ele>
        <time>2011-06-04T12:17:32Z</time>
      </trkpt>
      <trkpt lat="44.70038" lon="6.88262">
        <ele>2272.4</ele>
        <time>2011-06-04T12:17:37Z</time>
      </trkpt>
      <trkpt lat="44.70037" lon="6.88266">
        <ele>2272.2</ele>
        <time>2011-06-04T12:17:40Z</time>
      </trkpt>
      <trkpt lat="44.70035" lon="6.88274">
        <ele>2271.6</ele>
        <time>2011-06-04T12:17:47Z</time>
      </trkpt>
      <trkpt lat="44.70032" lon="6.8828">
        <ele>2271.2</ele>
        <time>2011-06-04T12:17:52Z</time>
      </trkpt>
      <trkpt lat="44.70031" lon="6.88282">
        <ele>2271</ele>
        <time>2011-06-04T12:17:54Z</time>
      </trkpt>
      <trkpt lat="44.7003" lon="6.88286">
        <ele>2270.8</ele>
        <time>2011-06-04T12:17:57Z</time>
      </trkpt>
      <trkpt lat="44.70028" lon="6.88291">
        <ele>2270.4</ele>
        <time>2011-06-04T12:18:01Z</time>
      </trkpt>
      <trkpt lat="44.70024" lon="6.88299">
        <ele>2269.8</ele>
        <time>2011-06-04T12:18:08Z</time>
      </trkpt>
      <trkpt lat="44.7002" lon="6.88307">
        <ele>2269.2</ele>
        <time>2011-06-04T12:18:15Z</time>
      </trkpt>
      <trkpt lat="44.70019" lon="6.88309">
        <ele>2269.2</ele>
        <time>2011-06-04T12:18:16Z</time>
      </trkpt>
      <trkpt lat="44.70017" lon="6.88317">
        <ele>2268.8</ele>
        <time>2011-06-04T12:18:22Z</time>
      </trkpt>
      <trkpt lat="44.70016" lon="6.88322">
        <ele>2268.4</ele>
        <time>2011-06-04T12:18:26Z</time>
      </trkpt>
      <trkpt lat="44.70015" lon="6.88324">
        <ele>2268.4</ele>
        <time>2011-06-04T12:18:28Z</time>
      </trkpt>
      <trkpt lat="44.70015" lon="6.88325">
        <ele>2268.4</ele>
        <time>2011-06-04T12:18:29Z</time>
      </trkpt>
      <trkpt lat="44.70015" lon="6.8833">
        <ele>2268.2</ele>
        <time>2011-06-04T12:18:33Z</time>
      </trkpt>
      <trkpt lat="44.70015" lon="6.88332">
        <ele>2268</ele>
        <time>2011-06-04T12:18:35Z</time>
      </trkpt>
      <trkpt lat="44.70014" lon="6.88334">
        <ele>2268</ele>
        <time>2011-06-04T12:18:37Z</time>
      </trkpt>
      <trkpt lat="44.70013" lon="6.88335">
        <ele>2268</ele>
        <time>2011-06-04T12:18:38Z</time>
      </trkpt>
      <trkpt lat="44.70012" lon="6.88342">
        <ele>2267.8</ele>
        <time>2011-06-04T12:18:43Z</time>
      </trkpt>
      <trkpt lat="44.70013" lon="6.88346">
        <ele>2267.6</ele>
        <time>2011-06-04T12:18:46Z</time>
      </trkpt>
      <trkpt lat="44.70012" lon="6.88347">
        <ele>2267.6</ele>
        <time>2011-06-04T12:18:47Z</time>
      </trkpt>
      <trkpt lat="44.70012" lon="6.88348">
        <ele>2267.6</ele>
        <time>2011-06-04T12:18:48Z</time>
      </trkpt>
      <trkpt lat="44.70013" lon="6.8835">
        <ele>2267.4</ele>
        <time>2011-06-04T12:18:50Z</time>
      </trkpt>
      <trkpt lat="44.70013" lon="6.88351">
        <ele>2267.4</ele>
        <time>2011-06-04T12:18:51Z</time>
      </trkpt>
      <trkpt lat="44.70015" lon="6.88357">
        <ele>2267.4</ele>
        <time>2011-06-04T12:18:57Z</time>
      </trkpt>
      <trkpt lat="44.70015" lon="6.88358">
        <ele>2267.4</ele>
        <time>2011-06-04T12:18:58Z</time>
      </trkpt>
      <trkpt lat="44.70016" lon="6.88363">
        <ele>2267.2</ele>
        <time>2011-06-04T12:19:02Z</time>
      </trkpt>
      <trkpt lat="44.70016" lon="6.88366">
        <ele>2267.2</ele>
        <time>2011-06-04T12:19:05Z</time>
      </trkpt>
      <trkpt lat="44.70016" lon="6.8837">
        <ele>2267.2</ele>
        <time>2011-06-04T12:19:08Z</time>
      </trkpt>
      <trkpt lat="44.70016" lon="6.88372">
        <ele>2267.2</ele>
        <time>2011-06-04T12:19:10Z</time>
      </trkpt>
      <trkpt lat="44.70016" lon="6.88378">
        <ele>2267.4</ele>
        <time>2011-06-04T12:19:15Z</time>
      </trkpt>
      <trkpt lat="44.70016" lon="6.88379">
        <ele>2267.4</ele>
        <time>2011-06-04T12:19:16Z</time>
      </trkpt>
      <trkpt lat="44.70016" lon="6.88382">
        <ele>2267.6</ele>
        <time>2011-06-04T12:19:19Z</time>
      </trkpt>
      <trkpt lat="44.70014" lon="6.88385">
        <ele>2267.8</ele>
        <time>2011-06-04T12:19:23Z</time>
      </trkpt>
      <trkpt lat="44.70013" lon="6.88388">
        <ele>2268</ele>
        <time>2011-06-04T12:19:27Z</time>
      </trkpt>
      <trkpt lat="44.70012" lon="6.88392">
        <ele>2268.6</ele>
        <time>2011-06-04T12:19:32Z</time>
      </trkpt>
      <trkpt lat="44.70012" lon="6.88396">
        <ele>2269</ele>
        <time>2011-06-04T12:19:36Z</time>
      </trkpt>
      <trkpt lat="44.70008" lon="6.88401">
        <ele>2269.8</ele>
        <time>2011-06-04T12:19:42Z</time>
      </trkpt>
      <trkpt lat="44.70007" lon="6.88403">
        <ele>2270.2</ele>
        <time>2011-06-04T12:19:45Z</time>
      </trkpt>
      <trkpt lat="44.70005" lon="6.88404">
        <ele>2270.6</ele>
        <time>2011-06-04T12:19:48Z</time>
      </trkpt>
      <trkpt lat="44.70004" lon="6.88405">
        <ele>2271.4</ele>
        <time>2011-06-04T12:19:52Z</time>
      </trkpt>
      <trkpt lat="44.70002" lon="6.88407">
        <ele>2272.6</ele>
        <time>2011-06-04T12:20:01Z</time>
      </trkpt>
      <trkpt lat="44.70001" lon="6.88407">
        <ele>2272.8</ele>
        <time>2011-06-04T12:20:02Z</time>
      </trkpt>
      <trkpt lat="44.69997" lon="6.88408">
        <ele>2274</ele>
        <time>2011-06-04T12:20:08Z</time>
      </trkpt>
      <trkpt lat="44.69994" lon="6.8841">
        <ele>2274.6</ele>
        <time>2011-06-04T12:20:12Z</time>
      </trkpt>
      <trkpt lat="44.69991" lon="6.88413">
        <ele>2275.6</ele>
        <time>2011-06-04T12:20:17Z</time>
      </trkpt>
      <trkpt lat="44.69989" lon="6.88416">
        <ele>2276.4</ele>
        <time>2011-06-04T12:20:21Z</time>
      </trkpt>
      <trkpt lat="44.69986" lon="6.88418">
        <ele>2277</ele>
        <time>2011-06-04T12:20:25Z</time>
      </trkpt>
      <trkpt lat="44.69985" lon="6.8842">
        <ele>2278</ele>
        <time>2011-06-04T12:20:30Z</time>
      </trkpt>
      <trkpt lat="44.69983" lon="6.88421">
        <ele>2280</ele>
        <time>2011-06-04T12:20:44Z</time>
      </trkpt>
      <trkpt lat="44.69983" lon="6.88424">
        <ele>2281.8</ele>
        <time>2011-06-04T12:21:01Z</time>
      </trkpt>
      <trkpt lat="44.6998" lon="6.88429">
        <ele>2282.2</ele>
        <time>2011-06-04T12:21:08Z</time>
      </trkpt>
      <trkpt lat="44.69979" lon="6.88431">
        <ele>2282.4</ele>
        <time>2011-06-04T12:21:10Z</time>
      </trkpt>
      <trkpt lat="44.69976" lon="6.88435">
        <ele>2282.6</ele>
        <time>2011-06-04T12:21:14Z</time>
      </trkpt>
      <trkpt lat="44.69971" lon="6.88441">
        <ele>2283</ele>
        <time>2011-06-04T12:21:20Z</time>
      </trkpt>
      <trkpt lat="44.69966" lon="6.88445">
        <ele>2283</ele>
        <time>2011-06-04T12:21:25Z</time>
      </trkpt>
      <trkpt lat="44.69964" lon="6.88446">
        <ele>2283.2</ele>
        <time>2011-06-04T12:21:27Z</time>
      </trkpt>
      <trkpt lat="44.6996" lon="6.88449">
        <ele>2283.4</ele>
        <time>2011-06-04T12:21:31Z</time>
      </trkpt>
      <trkpt lat="44.69952" lon="6.88454">
        <ele>2283.6</ele>
        <time>2011-06-04T12:21:38Z</time>
      </trkpt>
      <trkpt lat="44.69948" lon="6.88456">
        <ele>2283.8</ele>
        <time>2011-06-04T12:21:42Z</time>
      </trkpt>
      <trkpt lat="44.69945" lon="6.88456">
        <ele>2283.8</ele>
        <time>2011-06-04T12:21:44Z</time>
      </trkpt>
      <trkpt lat="44.69939" lon="6.8846">
        <ele>2284</ele>
        <time>2011-06-04T12:21:50Z</time>
      </trkpt>
      <trkpt lat="44.69933" lon="6.88465">
        <ele>2284.2</ele>
        <time>2011-06-04T12:21:56Z</time>
      </trkpt>
      <trkpt lat="44.69931" lon="6.88467">
        <ele>2284.4</ele>
        <time>2011-06-04T12:21:59Z</time>
      </trkpt>
      <trkpt lat="44.69927" lon="6.88471">
        <ele>2284.6</ele>
        <time>2011-06-04T12:22:03Z</time>
      </trkpt>
      <trkpt lat="44.6992" lon="6.88476">
        <ele>2284.8</ele>
        <time>2011-06-04T12:22:09Z</time>
      </trkpt>
      <trkpt lat="44.69915" lon="6.88479">
        <ele>2284.8</ele>
        <time>2011-06-04T12:22:14Z</time>
      </trkpt>
      <trkpt lat="44.69906" lon="6.88479">
        <ele>2285</ele>
        <time>2011-06-04T12:22:21Z</time>
      </trkpt>
      <trkpt lat="44.69898" lon="6.88478">
        <ele>2285.2</ele>
        <time>2011-06-04T12:22:28Z</time>
      </trkpt>
      <trkpt lat="44.69897" lon="6.88479">
        <ele>2285.2</ele>
        <time>2011-06-04T12:22:29Z</time>
      </trkpt>
      <trkpt lat="44.69896" lon="6.88479">
        <ele>2285.2</ele>
        <time>2011-06-04T12:22:30Z</time>
      </trkpt>
      <trkpt lat="44.6989" lon="6.88478">
        <ele>2285</ele>
        <time>2011-06-04T12:22:35Z</time>
      </trkpt>
      <trkpt lat="44.69882" lon="6.88476">
        <ele>2285</ele>
        <time>2011-06-04T12:22:43Z</time>
      </trkpt>
      <trkpt lat="44.69878" lon="6.88475">
        <ele>2285</ele>
        <time>2011-06-04T12:22:47Z</time>
      </trkpt>
      <trkpt lat="44.6987" lon="6.88475">
        <ele>2285</ele>
        <time>2011-06-04T12:22:53Z</time>
      </trkpt>
      <trkpt lat="44.69863" lon="6.88475">
        <ele>2285</ele>
        <time>2011-06-04T12:23:00Z</time>
      </trkpt>
      <trkpt lat="44.69861" lon="6.88475">
        <ele>2285</ele>
        <time>2011-06-04T12:23:02Z</time>
      </trkpt>
      <trkpt lat="44.69859" lon="6.88475">
        <ele>2285</ele>
        <time>2011-06-04T12:23:04Z</time>
      </trkpt>
      <trkpt lat="44.69851" lon="6.88476">
        <ele>2284.8</ele>
        <time>2011-06-04T12:23:11Z</time>
      </trkpt>
      <trkpt lat="44.69842" lon="6.88479">
        <ele>2284.6</ele>
        <time>2011-06-04T12:23:19Z</time>
      </trkpt>
      <trkpt lat="44.6984" lon="6.8848">
        <ele>2284.6</ele>
        <time>2011-06-04T12:23:20Z</time>
      </trkpt>
      <trkpt lat="44.69833" lon="6.88481">
        <ele>2285</ele>
        <time>2011-06-04T12:23:26Z</time>
      </trkpt>
      <trkpt lat="44.69833" lon="6.88484">
        <ele>2284.8</ele>
        <time>2011-06-04T12:23:33Z</time>
      </trkpt>
      <trkpt lat="44.6983" lon="6.88485">
        <ele>2284.6</ele>
        <time>2011-06-04T12:23:46Z</time>
      </trkpt>
      <trkpt lat="44.69827" lon="6.88487">
        <ele>2284.6</ele>
        <time>2011-06-04T12:23:50Z</time>
      </trkpt>
      <trkpt lat="44.69825" lon="6.88488">
        <ele>2284.6</ele>
        <time>2011-06-04T12:23:52Z</time>
      </trkpt>
      <trkpt lat="44.69824" lon="6.88488">
        <ele>2284.6</ele>
        <time>2011-06-04T12:23:53Z</time>
      </trkpt>
      <trkpt lat="44.6982" lon="6.88488">
        <ele>2284.6</ele>
        <time>2011-06-04T12:23:57Z</time>
      </trkpt>
      <trkpt lat="44.6982" lon="6.88489">
        <ele>2284.6</ele>
        <time>2011-06-04T12:23:58Z</time>
      </trkpt>
      <trkpt lat="44.69815" lon="6.88488">
        <ele>2294</ele>
        <time>2011-06-04T12:26:23Z</time>
      </trkpt>
      <trkpt lat="44.69816" lon="6.88489">
        <ele>2293.8</ele>
        <time>2011-06-04T12:26:33Z</time>
      </trkpt>
      <trkpt lat="44.69812" lon="6.88487">
        <ele>2293.2</ele>
        <time>2011-06-04T12:27:19Z</time>
      </trkpt>
      <trkpt lat="44.69807" lon="6.88488">
        <ele>2293</ele>
        <time>2011-06-04T12:27:25Z</time>
      </trkpt>
      <trkpt lat="44.698" lon="6.88487">
        <ele>2292.6</ele>
        <time>2011-06-04T12:27:32Z</time>
      </trkpt>
      <trkpt lat="44.69799" lon="6.88487">
        <ele>2292.6</ele>
        <time>2011-06-04T12:27:33Z</time>
      </trkpt>
      <trkpt lat="44.69793" lon="6.88488">
        <ele>2292.2</ele>
        <time>2011-06-04T12:27:39Z</time>
      </trkpt>
      <trkpt lat="44.69787" lon="6.88487">
        <ele>2292</ele>
        <time>2011-06-04T12:27:44Z</time>
      </trkpt>
      <trkpt lat="44.69785" lon="6.88487">
        <ele>2291.8</ele>
        <time>2011-06-04T12:27:45Z</time>
      </trkpt>
      <trkpt lat="44.6978" lon="6.88488">
        <ele>2291.8</ele>
        <time>2011-06-04T12:27:49Z</time>
      </trkpt>
      <trkpt lat="44.69779" lon="6.88489">
        <ele>2291.8</ele>
        <time>2011-06-04T12:27:51Z</time>
      </trkpt>
      <trkpt lat="44.69778" lon="6.88489">
        <ele>2291.8</ele>
        <time>2011-06-04T12:27:52Z</time>
      </trkpt>
      <trkpt lat="44.69773" lon="6.88489">
        <ele>2291.6</ele>
        <time>2011-06-04T12:27:57Z</time>
      </trkpt>
      <trkpt lat="44.69763" lon="6.8849">
        <ele>2291.4</ele>
        <time>2011-06-04T12:28:05Z</time>
      </trkpt>
      <trkpt lat="44.69756" lon="6.88492">
        <ele>2291.4</ele>
        <time>2011-06-04T12:28:11Z</time>
      </trkpt>
      <trkpt lat="44.6975" lon="6.88493">
        <ele>2291.2</ele>
        <time>2011-06-04T12:28:16Z</time>
      </trkpt>
      <trkpt lat="44.69748" lon="6.88492">
        <ele>2291.2</ele>
        <time>2011-06-04T12:28:18Z</time>
      </trkpt>
      <trkpt lat="44.69745" lon="6.88492">
        <ele>2291</ele>
        <time>2011-06-04T12:28:21Z</time>
      </trkpt>
      <trkpt lat="44.69744" lon="6.88493">
        <ele>2290.8</ele>
        <time>2011-06-04T12:28:25Z</time>
      </trkpt>
      <trkpt lat="44.69739" lon="6.88492">
        <ele>2289.6</ele>
        <time>2011-06-04T12:29:01Z</time>
      </trkpt>
      <trkpt lat="44.69735" lon="6.88494">
        <ele>2289.6</ele>
        <time>2011-06-04T12:29:07Z</time>
      </trkpt>
      <trkpt lat="44.69729" lon="6.88495">
        <ele>2289.6</ele>
        <time>2011-06-04T12:29:14Z</time>
      </trkpt>
      <trkpt lat="44.69727" lon="6.88495">
        <ele>2289.6</ele>
        <time>2011-06-04T12:29:15Z</time>
      </trkpt>
      <trkpt lat="44.69726" lon="6.88495">
        <ele>2289.6</ele>
        <time>2011-06-04T12:29:17Z</time>
      </trkpt>
      <trkpt lat="44.69723" lon="6.88497">
        <ele>2289.6</ele>
        <time>2011-06-04T12:29:20Z</time>
      </trkpt>
      <trkpt lat="44.69719" lon="6.88502">
        <ele>2289.4</ele>
        <time>2011-06-04T12:29:25Z</time>
      </trkpt>
      <trkpt lat="44.69718" lon="6.88503">
        <ele>2289.4</ele>
        <time>2011-06-04T12:29:26Z</time>
      </trkpt>
      <trkpt lat="44.69716" lon="6.88504">
        <ele>2289.4</ele>
        <time>2011-06-04T12:29:28Z</time>
      </trkpt>
      <trkpt lat="44.69714" lon="6.88505">
        <ele>2289.4</ele>
        <time>2011-06-04T12:29:31Z</time>
      </trkpt>
      <trkpt lat="44.69712" lon="6.88506">
        <ele>2289.4</ele>
        <time>2011-06-04T12:29:33Z</time>
      </trkpt>
      <trkpt lat="44.69712" lon="6.88506">
        <ele>2289.4</ele>
        <time>2011-06-04T12:29:33Z</time>
      </trkpt>
      <trkpt lat="44.69705" lon="6.88509">
        <ele>2289.2</ele>
        <time>2011-06-04T12:29:39Z</time>
      </trkpt>
      <trkpt lat="44.69702" lon="6.8851">
        <ele>2289.2</ele>
        <time>2011-06-04T12:29:42Z</time>
      </trkpt>
      <trkpt lat="44.69701" lon="6.8851">
        <ele>2289.2</ele>
        <time>2011-06-04T12:29:45Z</time>
      </trkpt>
      <trkpt lat="44.69696" lon="6.8851">
        <ele>2289</ele>
        <time>2011-06-04T12:29:56Z</time>
      </trkpt>
      <trkpt lat="44.69695" lon="6.88512">
        <ele>2289</ele>
        <time>2011-06-04T12:29:58Z</time>
      </trkpt>
      <trkpt lat="44.69691" lon="6.88516">
        <ele>2289</ele>
        <time>2011-06-04T12:30:03Z</time>
      </trkpt>
      <trkpt lat="44.69687" lon="6.8852">
        <ele>2288.8</ele>
        <time>2011-06-04T12:30:07Z</time>
      </trkpt>
      <trkpt lat="44.69685" lon="6.88522">
        <ele>2288.8</ele>
        <time>2011-06-04T12:30:09Z</time>
      </trkpt>
      <trkpt lat="44.69681" lon="6.88529">
        <ele>2288.8</ele>
        <time>2011-06-04T12:30:15Z</time>
      </trkpt>
      <trkpt lat="44.6968" lon="6.88531">
        <ele>2288.8</ele>
        <time>2011-06-04T12:30:17Z</time>
      </trkpt>
      <trkpt lat="44.69678" lon="6.88535">
        <ele>2288.8</ele>
        <time>2011-06-04T12:30:20Z</time>
      </trkpt>
      <trkpt lat="44.69677" lon="6.88537">
        <ele>2288.8</ele>
        <time>2011-06-04T12:30:22Z</time>
      </trkpt>
      <trkpt lat="44.69676" lon="6.88538">
        <ele>2288.6</ele>
        <time>2011-06-04T12:30:23Z</time>
      </trkpt>
      <trkpt lat="44.69674" lon="6.88543">
        <ele>2288.6</ele>
        <time>2011-06-04T12:30:28Z</time>
      </trkpt>
      <trkpt lat="44.69673" lon="6.88544">
        <ele>2288.6</ele>
        <time>2011-06-04T12:30:29Z</time>
      </trkpt>
      <trkpt lat="44.6967" lon="6.88547">
        <ele>2288.6</ele>
        <time>2011-06-04T12:30:33Z</time>
      </trkpt>
      <trkpt lat="44.69666" lon="6.88552">
        <ele>2288.6</ele>
        <time>2011-06-04T12:30:37Z</time>
      </trkpt>
      <trkpt lat="44.69665" lon="6.88555">
        <ele>2288.6</ele>
        <time>2011-06-04T12:30:39Z</time>
      </trkpt>
      <trkpt lat="44.69663" lon="6.8856">
        <ele>2288.6</ele>
        <time>2011-06-04T12:30:43Z</time>
      </trkpt>
      <trkpt lat="44.69661" lon="6.88565">
        <ele>2288.8</ele>
        <time>2011-06-04T12:30:47Z</time>
      </trkpt>
      <trkpt lat="44.69659" lon="6.88567">
        <ele>2288.8</ele>
        <time>2011-06-04T12:30:49Z</time>
      </trkpt>
      <trkpt lat="44.69658" lon="6.88568">
        <ele>2288.8</ele>
        <time>2011-06-04T12:30:50Z</time>
      </trkpt>
      <trkpt lat="44.69655" lon="6.88575">
        <ele>2288.8</ele>
        <time>2011-06-04T12:30:55Z</time>
      </trkpt>
      <trkpt lat="44.69651" lon="6.88584">
        <ele>2289</ele>
        <time>2011-06-04T12:31:01Z</time>
      </trkpt>
      <trkpt lat="44.6965" lon="6.88585">
        <ele>2289</ele>
        <time>2011-06-04T12:31:02Z</time>
      </trkpt>
      <trkpt lat="44.69647" lon="6.88587">
        <ele>2289.2</ele>
        <time>2011-06-04T12:31:05Z</time>
      </trkpt>
      <trkpt lat="44.69642" lon="6.8859">
        <ele>2289.2</ele>
        <time>2011-06-04T12:31:10Z</time>
      </trkpt>
      <trkpt lat="44.69642" lon="6.88589">
        <ele>2289.2</ele>
        <time>2011-06-04T12:31:14Z</time>
      </trkpt>
      <trkpt lat="44.69639" lon="6.88592">
        <ele>2289.2</ele>
        <time>2011-06-04T12:31:20Z</time>
      </trkpt>
      <trkpt lat="44.69633" lon="6.88596">
        <ele>2289.2</ele>
        <time>2011-06-04T12:31:26Z</time>
      </trkpt>
      <trkpt lat="44.69629" lon="6.88598">
        <ele>2289.2</ele>
        <time>2011-06-04T12:31:31Z</time>
      </trkpt>
      <trkpt lat="44.69623" lon="6.88601">
        <ele>2289.2</ele>
        <time>2011-06-04T12:31:37Z</time>
      </trkpt>
      <trkpt lat="44.6962" lon="6.88605">
        <ele>2289.2</ele>
        <time>2011-06-04T12:31:41Z</time>
      </trkpt>
      <trkpt lat="44.69619" lon="6.88606">
        <ele>2289.2</ele>
        <time>2011-06-04T12:31:42Z</time>
      </trkpt>
      <trkpt lat="44.69618" lon="6.88606">
        <ele>2289.2</ele>
        <time>2011-06-04T12:31:43Z</time>
      </trkpt>
      <trkpt lat="44.69615" lon="6.88608">
        <ele>2289.2</ele>
        <time>2011-06-04T12:31:46Z</time>
      </trkpt>
      <trkpt lat="44.69614" lon="6.8861">
        <ele>2289.2</ele>
        <time>2011-06-04T12:31:48Z</time>
      </trkpt>
      <trkpt lat="44.69613" lon="6.88612">
        <ele>2289.2</ele>
        <time>2011-06-04T12:31:54Z</time>
      </trkpt>
      <trkpt lat="44.6961" lon="6.88615">
        <ele>2289.2</ele>
        <time>2011-06-04T12:32:00Z</time>
      </trkpt>
      <trkpt lat="44.69605" lon="6.88619">
        <ele>2289.4</ele>
        <time>2011-06-04T12:32:06Z</time>
      </trkpt>
      <trkpt lat="44.69603" lon="6.88622">
        <ele>2289.2</ele>
        <time>2011-06-04T12:32:08Z</time>
      </trkpt>
      <trkpt lat="44.69601" lon="6.88623">
        <ele>2289.2</ele>
        <time>2011-06-04T12:32:10Z</time>
      </trkpt>
      <trkpt lat="44.69601" lon="6.88624">
        <ele>2289.2</ele>
        <time>2011-06-04T12:32:12Z</time>
      </trkpt>
      <trkpt lat="44.69596" lon="6.88627">
        <ele>2289.2</ele>
        <time>2011-06-04T12:32:18Z</time>
      </trkpt>
      <trkpt lat="44.69589" lon="6.88631">
        <ele>2289.2</ele>
        <time>2011-06-04T12:32:25Z</time>
      </trkpt>
      <trkpt lat="44.69587" lon="6.88632">
        <ele>2289.2</ele>
        <time>2011-06-04T12:32:27Z</time>
      </trkpt>
      <trkpt lat="44.69583" lon="6.88637">
        <ele>2289.2</ele>
        <time>2011-06-04T12:32:33Z</time>
      </trkpt>
      <trkpt lat="44.69576" lon="6.88643">
        <ele>2289.4</ele>
        <time>2011-06-04T12:32:40Z</time>
      </trkpt>
      <trkpt lat="44.69572" lon="6.88646">
        <ele>2289.4</ele>
        <time>2011-06-04T12:32:44Z</time>
      </trkpt>
      <trkpt lat="44.69569" lon="6.88649">
        <ele>2289.2</ele>
        <time>2011-06-04T12:32:47Z</time>
      </trkpt>
      <trkpt lat="44.69561" lon="6.88658">
        <ele>2289.2</ele>
        <time>2011-06-04T12:32:55Z</time>
      </trkpt>
      <trkpt lat="44.69557" lon="6.88661">
        <ele>2289.2</ele>
        <time>2011-06-04T12:32:59Z</time>
      </trkpt>
      <trkpt lat="44.69553" lon="6.88663">
        <ele>2289.2</ele>
        <time>2011-06-04T12:33:03Z</time>
      </trkpt>
      <trkpt lat="44.69546" lon="6.88667">
        <ele>2289</ele>
        <time>2011-06-04T12:33:09Z</time>
      </trkpt>
      <trkpt lat="44.6954" lon="6.8867">
        <ele>2289</ele>
        <time>2011-06-04T12:33:14Z</time>
      </trkpt>
      <trkpt lat="44.69536" lon="6.88672">
        <ele>2289</ele>
        <time>2011-06-04T12:33:17Z</time>
      </trkpt>
      <trkpt lat="44.69529" lon="6.8868">
        <ele>2288.8</ele>
        <time>2011-06-04T12:33:24Z</time>
      </trkpt>
      <trkpt lat="44.69526" lon="6.88684">
        <ele>2288.8</ele>
        <time>2011-06-04T12:33:28Z</time>
      </trkpt>
      <trkpt lat="44.69525" lon="6.88685">
        <ele>2288.8</ele>
        <time>2011-06-04T12:33:29Z</time>
      </trkpt>
      <trkpt lat="44.6952" lon="6.88692">
        <ele>2288.6</ele>
        <time>2011-06-04T12:33:34Z</time>
      </trkpt>
      <trkpt lat="44.69516" lon="6.88694">
        <ele>2288.6</ele>
        <time>2011-06-04T12:33:37Z</time>
      </trkpt>
      <trkpt lat="44.69515" lon="6.88695">
        <ele>2288.6</ele>
        <time>2011-06-04T12:33:38Z</time>
      </trkpt>
      <trkpt lat="44.6951" lon="6.88697">
        <ele>2288.6</ele>
        <time>2011-06-04T12:33:42Z</time>
      </trkpt>
      <trkpt lat="44.69504" lon="6.88703">
        <ele>2288.4</ele>
        <time>2011-06-04T12:33:47Z</time>
      </trkpt>
      <trkpt lat="44.69495" lon="6.88712">
        <ele>2288.4</ele>
        <time>2011-06-04T12:33:55Z</time>
      </trkpt>
      <trkpt lat="44.6949" lon="6.88715">
        <ele>2288.4</ele>
        <time>2011-06-04T12:34:01Z</time>
      </trkpt>
      <trkpt lat="44.69491" lon="6.88718">
        <ele>2288.6</ele>
        <time>2011-06-04T12:34:19Z</time>
      </trkpt>
      <trkpt lat="44.6949" lon="6.88718">
        <ele>2288.8</ele>
        <time>2011-06-04T12:34:30Z</time>
      </trkpt>
      <trkpt lat="44.6949" lon="6.88718">
        <ele>2289.2</ele>
        <time>2011-06-04T12:34:37Z</time>
      </trkpt>
      <trkpt lat="44.6949" lon="6.88718">
        <ele>2289.6</ele>
        <time>2011-06-04T12:34:45Z</time>
      </trkpt>
      <trkpt lat="44.69487" lon="6.88716">
        <ele>2290.2</ele>
        <time>2011-06-04T12:34:54Z</time>
      </trkpt>
      <trkpt lat="44.6949" lon="6.88719">
        <ele>2290.6</ele>
        <time>2011-06-04T12:35:04Z</time>
      </trkpt>
      <trkpt lat="44.69487" lon="6.88722">
        <ele>2291.2</ele>
        <time>2011-06-04T12:35:16Z</time>
      </trkpt>
      <trkpt lat="44.69486" lon="6.88722">
        <ele>2291.2</ele>
        <time>2011-06-04T12:35:17Z</time>
      </trkpt>
      <trkpt lat="44.69486" lon="6.88722">
        <ele>2291.2</ele>
        <time>2011-06-04T12:35:18Z</time>
      </trkpt>
      <trkpt lat="44.69482" lon="6.88723">
        <ele>2291.6</ele>
        <time>2011-06-04T12:35:24Z</time>
      </trkpt>
      <trkpt lat="44.69474" lon="6.88726">
        <ele>2291.8</ele>
        <time>2011-06-04T12:35:32Z</time>
      </trkpt>
      <trkpt lat="44.6947" lon="6.88728">
        <ele>2292</ele>
        <time>2011-06-04T12:35:36Z</time>
      </trkpt>
      <trkpt lat="44.69467" lon="6.88729">
        <ele>2292.2</ele>
        <time>2011-06-04T12:35:39Z</time>
      </trkpt>
      <trkpt lat="44.69466" lon="6.8873">
        <ele>2292.2</ele>
        <time>2011-06-04T12:35:40Z</time>
      </trkpt>
      <trkpt lat="44.69461" lon="6.88734">
        <ele>2292.4</ele>
        <time>2011-06-04T12:35:45Z</time>
      </trkpt>
      <trkpt lat="44.6946" lon="6.88734">
        <ele>2292.4</ele>
        <time>2011-06-04T12:35:46Z</time>
      </trkpt>
      <trkpt lat="44.69452" lon="6.88736">
        <ele>2292.8</ele>
        <time>2011-06-04T12:35:53Z</time>
      </trkpt>
      <trkpt lat="44.6945" lon="6.88737">
        <ele>2292.8</ele>
        <time>2011-06-04T12:35:55Z</time>
      </trkpt>
      <trkpt lat="44.69442" lon="6.88739">
        <ele>2293.2</ele>
        <time>2011-06-04T12:36:02Z</time>
      </trkpt>
      <trkpt lat="44.69437" lon="6.88744">
        <ele>2293.4</ele>
        <time>2011-06-04T12:36:08Z</time>
      </trkpt>
      <trkpt lat="44.69436" lon="6.88746">
        <ele>2293.4</ele>
        <time>2011-06-04T12:36:09Z</time>
      </trkpt>
      <trkpt lat="44.69427" lon="6.88759">
        <ele>2294</ele>
        <time>2011-06-04T12:36:19Z</time>
      </trkpt>
      <trkpt lat="44.69423" lon="6.88764">
        <ele>2294.2</ele>
        <time>2011-06-04T12:36:24Z</time>
      </trkpt>
      <trkpt lat="44.69422" lon="6.88765">
        <ele>2294.2</ele>
        <time>2011-06-04T12:36:25Z</time>
      </trkpt>
      <trkpt lat="44.69414" lon="6.88773">
        <ele>2294.2</ele>
        <time>2011-06-04T12:36:32Z</time>
      </trkpt>
      <trkpt lat="44.69407" lon="6.88778">
        <ele>2294.4</ele>
        <time>2011-06-04T12:36:38Z</time>
      </trkpt>
      <trkpt lat="44.69405" lon="6.8878">
        <ele>2294.6</ele>
        <time>2011-06-04T12:36:41Z</time>
      </trkpt>
      <trkpt lat="44.69401" lon="6.88787">
        <ele>2294.8</ele>
        <time>2011-06-04T12:36:45Z</time>
      </trkpt>
      <trkpt lat="44.69399" lon="6.88789">
        <ele>2295</ele>
        <time>2011-06-04T12:36:47Z</time>
      </trkpt>
      <trkpt lat="44.69396" lon="6.88793">
        <ele>2295.2</ele>
        <time>2011-06-04T12:36:51Z</time>
      </trkpt>
      <trkpt lat="44.69395" lon="6.88795">
        <ele>2295.4</ele>
        <time>2011-06-04T12:36:52Z</time>
      </trkpt>
      <trkpt lat="44.69394" lon="6.88796">
        <ele>2295.4</ele>
        <time>2011-06-04T12:36:53Z</time>
      </trkpt>
      <trkpt lat="44.69389" lon="6.88803">
        <ele>2295.8</ele>
        <time>2011-06-04T12:36:59Z</time>
      </trkpt>
      <trkpt lat="44.69383" lon="6.88807">
        <ele>2296.4</ele>
        <time>2011-06-04T12:37:05Z</time>
      </trkpt>
      <trkpt lat="44.69381" lon="6.88808">
        <ele>2296.8</ele>
        <time>2011-06-04T12:37:07Z</time>
      </trkpt>
      <trkpt lat="44.69379" lon="6.8881">
        <ele>2297</ele>
        <time>2011-06-04T12:37:10Z</time>
      </trkpt>
      <trkpt lat="44.69378" lon="6.88811">
        <ele>2297</ele>
        <time>2011-06-04T12:37:11Z</time>
      </trkpt>
      <trkpt lat="44.69374" lon="6.88814">
        <ele>2297.4</ele>
        <time>2011-06-04T12:37:14Z</time>
      </trkpt>
      <trkpt lat="44.69373" lon="6.88814">
        <ele>2297.4</ele>
        <time>2011-06-04T12:37:15Z</time>
      </trkpt>
      <trkpt lat="44.69366" lon="6.88814">
        <ele>2297.6</ele>
        <time>2011-06-04T12:37:20Z</time>
      </trkpt>
      <trkpt lat="44.69365" lon="6.88814">
        <ele>2297.6</ele>
        <time>2011-06-04T12:37:21Z</time>
      </trkpt>
      <trkpt lat="44.69362" lon="6.88816">
        <ele>2297.6</ele>
        <time>2011-06-04T12:37:23Z</time>
      </trkpt>
      <trkpt lat="44.69357" lon="6.8882">
        <ele>2297.6</ele>
        <time>2011-06-04T12:37:27Z</time>
      </trkpt>
      <trkpt lat="44.69352" lon="6.88825">
        <ele>2297.8</ele>
        <time>2011-06-04T12:37:32Z</time>
      </trkpt>
      <trkpt lat="44.69347" lon="6.88831">
        <ele>2297.8</ele>
        <time>2011-06-04T12:37:37Z</time>
      </trkpt>
      <trkpt lat="44.69343" lon="6.88837">
        <ele>2298</ele>
        <time>2011-06-04T12:37:41Z</time>
      </trkpt>
      <trkpt lat="44.69342" lon="6.88839">
        <ele>2298</ele>
        <time>2011-06-04T12:37:42Z</time>
      </trkpt>
      <trkpt lat="44.69335" lon="6.88847">
        <ele>2298.2</ele>
        <time>2011-06-04T12:37:48Z</time>
      </trkpt>
      <trkpt lat="44.69333" lon="6.88848">
        <ele>2298</ele>
        <time>2011-06-04T12:37:49Z</time>
      </trkpt>
      <trkpt lat="44.69323" lon="6.88854">
        <ele>2298.2</ele>
        <time>2011-06-04T12:37:56Z</time>
      </trkpt>
      <trkpt lat="44.69316" lon="6.88857">
        <ele>2298.2</ele>
        <time>2011-06-04T12:38:01Z</time>
      </trkpt>
      <trkpt lat="44.6931" lon="6.8886">
        <ele>2298.4</ele>
        <time>2011-06-04T12:38:05Z</time>
      </trkpt>
      <trkpt lat="44.69304" lon="6.88865">
        <ele>2298.6</ele>
        <time>2011-06-04T12:38:10Z</time>
      </trkpt>
      <trkpt lat="44.69299" lon="6.88868">
        <ele>2298.6</ele>
        <time>2011-06-04T12:38:13Z</time>
      </trkpt>
      <trkpt lat="44.69297" lon="6.88869">
        <ele>2298.6</ele>
        <time>2011-06-04T12:38:15Z</time>
      </trkpt>
      <trkpt lat="44.69291" lon="6.88877">
        <ele>2299</ele>
        <time>2011-06-04T12:38:20Z</time>
      </trkpt>
      <trkpt lat="44.69286" lon="6.88884">
        <ele>2299.2</ele>
        <time>2011-06-04T12:38:25Z</time>
      </trkpt>
      <trkpt lat="44.69285" lon="6.88885">
        <ele>2299.2</ele>
        <time>2011-06-04T12:38:26Z</time>
      </trkpt>
      <trkpt lat="44.69278" lon="6.88894">
        <ele>2299.6</ele>
        <time>2011-06-04T12:38:32Z</time>
      </trkpt>
      <trkpt lat="44.69272" lon="6.88899">
        <ele>2300</ele>
        <time>2011-06-04T12:38:37Z</time>
      </trkpt>
      <trkpt lat="44.6927" lon="6.889">
        <ele>2300</ele>
        <time>2011-06-04T12:38:38Z</time>
      </trkpt>
      <trkpt lat="44.69261" lon="6.88899">
        <ele>2300.4</ele>
        <time>2011-06-04T12:38:44Z</time>
      </trkpt>
      <trkpt lat="44.69253" lon="6.88901">
        <ele>2300.6</ele>
        <time>2011-06-04T12:38:49Z</time>
      </trkpt>
      <trkpt lat="44.6925" lon="6.88902">
        <ele>2300.8</ele>
        <time>2011-06-04T12:38:51Z</time>
      </trkpt>
      <trkpt lat="44.69242" lon="6.88901">
        <ele>2301.2</ele>
        <time>2011-06-04T12:38:57Z</time>
      </trkpt>
      <trkpt lat="44.69235" lon="6.889">
        <ele>2301.4</ele>
        <time>2011-06-04T12:39:02Z</time>
      </trkpt>
      <trkpt lat="44.69231" lon="6.88898">
        <ele>2301.6</ele>
        <time>2011-06-04T12:39:07Z</time>
      </trkpt>
      <trkpt lat="44.69225" lon="6.88894">
        <ele>2305</ele>
        <time>2011-06-04T12:40:24Z</time>
      </trkpt>
      <trkpt lat="44.69227" lon="6.88895">
        <ele>2305.4</ele>
        <time>2011-06-04T12:40:49Z</time>
      </trkpt>
      <trkpt lat="44.69227" lon="6.88897">
        <ele>2305.6</ele>
        <time>2011-06-04T12:41:44Z</time>
      </trkpt>
      <trkpt lat="44.69222" lon="6.88893">
        <ele>2305.6</ele>
        <time>2011-06-04T12:41:49Z</time>
      </trkpt>
      <trkpt lat="44.6922" lon="6.88893">
        <ele>2305.6</ele>
        <time>2011-06-04T12:41:52Z</time>
      </trkpt>
      <trkpt lat="44.69212" lon="6.88894">
        <ele>2305.6</ele>
        <time>2011-06-04T12:42:00Z</time>
      </trkpt>
      <trkpt lat="44.69205" lon="6.889">
        <ele>2305.6</ele>
        <time>2011-06-04T12:42:07Z</time>
      </trkpt>
      <trkpt lat="44.69202" lon="6.88902">
        <ele>2305.6</ele>
        <time>2011-06-04T12:42:12Z</time>
      </trkpt>
      <trkpt lat="44.692" lon="6.88903">
        <ele>2305.6</ele>
        <time>2011-06-04T12:42:14Z</time>
      </trkpt>
      <trkpt lat="44.69193" lon="6.88905">
        <ele>2305.6</ele>
        <time>2011-06-04T12:42:21Z</time>
      </trkpt>
      <trkpt lat="44.69188" lon="6.88904">
        <ele>2306.2</ele>
        <time>2011-06-04T12:42:27Z</time>
      </trkpt>
      <trkpt lat="44.69186" lon="6.88904">
        <ele>2306.2</ele>
        <time>2011-06-04T12:42:29Z</time>
      </trkpt>
      <trkpt lat="44.69184" lon="6.88904">
        <ele>2306</ele>
        <time>2011-06-04T12:42:31Z</time>
      </trkpt>
      <trkpt lat="44.6918" lon="6.88907">
        <ele>2306</ele>
        <time>2011-06-04T12:42:35Z</time>
      </trkpt>
      <trkpt lat="44.69174" lon="6.88907">
        <ele>2305.8</ele>
        <time>2011-06-04T12:42:41Z</time>
      </trkpt>
      <trkpt lat="44.6917" lon="6.88908">
        <ele>2305.8</ele>
        <time>2011-06-04T12:42:45Z</time>
      </trkpt>
      <trkpt lat="44.69165" lon="6.88908">
        <ele>2305.6</ele>
        <time>2011-06-04T12:42:49Z</time>
      </trkpt>
      <trkpt lat="44.69161" lon="6.8891">
        <ele>2305.6</ele>
        <time>2011-06-04T12:42:53Z</time>
      </trkpt>
      <trkpt lat="44.69159" lon="6.88911">
        <ele>2305.6</ele>
        <time>2011-06-04T12:42:55Z</time>
      </trkpt>
      <trkpt lat="44.69158" lon="6.88911">
        <ele>2305.4</ele>
        <time>2011-06-04T12:42:56Z</time>
      </trkpt>
      <trkpt lat="44.69153" lon="6.88915">
        <ele>2305.4</ele>
        <time>2011-06-04T12:43:00Z</time>
      </trkpt>
      <trkpt lat="44.69151" lon="6.88916">
        <ele>2305.4</ele>
        <time>2011-06-04T12:43:01Z</time>
      </trkpt>
      <trkpt lat="44.69148" lon="6.88916">
        <ele>2305.2</ele>
        <time>2011-06-04T12:43:04Z</time>
      </trkpt>
      <trkpt lat="44.69147" lon="6.88917">
        <ele>2305.2</ele>
        <time>2011-06-04T12:43:05Z</time>
      </trkpt>
      <trkpt lat="44.69144" lon="6.88919">
        <ele>2305.2</ele>
        <time>2011-06-04T12:43:08Z</time>
      </trkpt>
      <trkpt lat="44.69142" lon="6.88919">
        <ele>2305</ele>
        <time>2011-06-04T12:43:10Z</time>
      </trkpt>
      <trkpt lat="44.69137" lon="6.88924">
        <ele>2304.8</ele>
        <time>2011-06-04T12:43:15Z</time>
      </trkpt>
      <trkpt lat="44.69136" lon="6.88925">
        <ele>2304.8</ele>
        <time>2011-06-04T12:43:16Z</time>
      </trkpt>
      <trkpt lat="44.69132" lon="6.88929">
        <ele>2304.6</ele>
        <time>2011-06-04T12:43:22Z</time>
      </trkpt>
      <trkpt lat="44.69131" lon="6.8893">
        <ele>2304.6</ele>
        <time>2011-06-04T12:43:24Z</time>
      </trkpt>
      <trkpt lat="44.6913" lon="6.88931">
        <ele>2304.6</ele>
        <time>2011-06-04T12:43:27Z</time>
      </trkpt>
      <trkpt lat="44.69126" lon="6.88932">
        <ele>2304.4</ele>
        <time>2011-06-04T12:43:33Z</time>
      </trkpt>
      <trkpt lat="44.69119" lon="6.88935">
        <ele>2304.4</ele>
        <time>2011-06-04T12:43:40Z</time>
      </trkpt>
      <trkpt lat="44.69118" lon="6.88936">
        <ele>2304.2</ele>
        <time>2011-06-04T12:43:41Z</time>
      </trkpt>
      <trkpt lat="44.69112" lon="6.8894">
        <ele>2304</ele>
        <time>2011-06-04T12:43:47Z</time>
      </trkpt>
      <trkpt lat="44.69106" lon="6.88944">
        <ele>2303.8</ele>
        <time>2011-06-04T12:43:54Z</time>
      </trkpt>
      <trkpt lat="44.69102" lon="6.88948">
        <ele>2303.6</ele>
        <time>2011-06-04T12:43:59Z</time>
      </trkpt>
      <trkpt lat="44.69099" lon="6.8895">
        <ele>2303.6</ele>
        <time>2011-06-04T12:44:02Z</time>
      </trkpt>
      <trkpt lat="44.69091" lon="6.88955">
        <ele>2303.4</ele>
        <time>2011-06-04T12:44:10Z</time>
      </trkpt>
      <trkpt lat="44.6909" lon="6.88955">
        <ele>2303.4</ele>
        <time>2011-06-04T12:44:11Z</time>
      </trkpt>
      <trkpt lat="44.69085" lon="6.88956">
        <ele>2303.4</ele>
        <time>2011-06-04T12:44:16Z</time>
      </trkpt>
      <trkpt lat="44.69083" lon="6.88956">
        <ele>2303.4</ele>
        <time>2011-06-04T12:44:18Z</time>
      </trkpt>
      <trkpt lat="44.6908" lon="6.88957">
        <ele>2303.4</ele>
        <time>2011-06-04T12:44:25Z</time>
      </trkpt>
      <trkpt lat="44.69076" lon="6.88962">
        <ele>2303.4</ele>
        <time>2011-06-04T12:44:32Z</time>
      </trkpt>
      <trkpt lat="44.69071" lon="6.88971">
        <ele>2303.4</ele>
        <time>2011-06-04T12:44:40Z</time>
      </trkpt>
      <trkpt lat="44.6907" lon="6.88974">
        <ele>2303.4</ele>
        <time>2011-06-04T12:44:42Z</time>
      </trkpt>
      <trkpt lat="44.69064" lon="6.88981">
        <ele>2303.4</ele>
        <time>2011-06-04T12:44:49Z</time>
      </trkpt>
      <trkpt lat="44.69059" lon="6.88989">
        <ele>2303.4</ele>
        <time>2011-06-04T12:44:57Z</time>
      </trkpt>
      <trkpt lat="44.69058" lon="6.8899">
        <ele>2303.4</ele>
        <time>2011-06-04T12:44:58Z</time>
      </trkpt>
      <trkpt lat="44.69054" lon="6.89002">
        <ele>2303.6</ele>
        <time>2011-06-04T12:45:07Z</time>
      </trkpt>
      <trkpt lat="44.69054" lon="6.8901">
        <ele>2303.8</ele>
        <time>2011-06-04T12:45:11Z</time>
      </trkpt>
      <trkpt lat="44.69053" lon="6.89013">
        <ele>2303.8</ele>
        <time>2011-06-04T12:45:13Z</time>
      </trkpt>
      <trkpt lat="44.69053" lon="6.89015">
        <ele>2304</ele>
        <time>2011-06-04T12:45:14Z</time>
      </trkpt>
      <trkpt lat="44.69047" lon="6.89018">
        <ele>2304.2</ele>
        <time>2011-06-04T12:45:19Z</time>
      </trkpt>
      <trkpt lat="44.69038" lon="6.89014">
        <ele>2304.6</ele>
        <time>2011-06-04T12:45:27Z</time>
      </trkpt>
      <trkpt lat="44.69037" lon="6.89014">
        <ele>2304.8</ele>
        <time>2011-06-04T12:45:28Z</time>
      </trkpt>
      <trkpt lat="44.69029" lon="6.89017">
        <ele>2304.8</ele>
        <time>2011-06-04T12:45:36Z</time>
      </trkpt>
      <trkpt lat="44.69019" lon="6.89022">
        <ele>2305.2</ele>
        <time>2011-06-04T12:45:45Z</time>
      </trkpt>
      <trkpt lat="44.69014" lon="6.89024">
        <ele>2305.4</ele>
        <time>2011-06-04T12:45:50Z</time>
      </trkpt>
      <trkpt lat="44.6901" lon="6.8903">
        <ele>2305.8</ele>
        <time>2011-06-04T12:45:55Z</time>
      </trkpt>
      <trkpt lat="44.6901" lon="6.89034">
        <ele>2305.8</ele>
        <time>2011-06-04T12:45:57Z</time>
      </trkpt>
      <trkpt lat="44.69008" lon="6.89036">
        <ele>2305.8</ele>
        <time>2011-06-04T12:45:59Z</time>
      </trkpt>
      <trkpt lat="44.69007" lon="6.89038">
        <ele>2306.2</ele>
        <time>2011-06-04T12:46:03Z</time>
      </trkpt>
      <trkpt lat="44.69006" lon="6.89039">
        <ele>2306.2</ele>
        <time>2011-06-04T12:46:04Z</time>
      </trkpt>
      <trkpt lat="44.69005" lon="6.89042">
        <ele>2306.4</ele>
        <time>2011-06-04T12:46:06Z</time>
      </trkpt>
      <trkpt lat="44.69005" lon="6.89044">
        <ele>2306.4</ele>
        <time>2011-06-04T12:46:08Z</time>
      </trkpt>
      <trkpt lat="44.69004" lon="6.89046">
        <ele>2306.6</ele>
        <time>2011-06-04T12:46:10Z</time>
      </trkpt>
      <trkpt lat="44.69004" lon="6.89047">
        <ele>2307</ele>
        <time>2011-06-04T12:46:15Z</time>
      </trkpt>
      <trkpt lat="44.69003" lon="6.89052">
        <ele>2307.8</ele>
        <time>2011-06-04T12:46:27Z</time>
      </trkpt>
      <trkpt lat="44.68999" lon="6.89058">
        <ele>2308</ele>
        <time>2011-06-04T12:46:32Z</time>
      </trkpt>
      <trkpt lat="44.68998" lon="6.89059">
        <ele>2308.2</ele>
        <time>2011-06-04T12:46:33Z</time>
      </trkpt>
      <trkpt lat="44.68997" lon="6.89059">
        <ele>2308.2</ele>
        <time>2011-06-04T12:46:34Z</time>
      </trkpt>
      <trkpt lat="44.68995" lon="6.89059">
        <ele>2308.2</ele>
        <time>2011-06-04T12:46:36Z</time>
      </trkpt>
      <trkpt lat="44.68991" lon="6.8906">
        <ele>2308.6</ele>
        <time>2011-06-04T12:46:39Z</time>
      </trkpt>
      <trkpt lat="44.68987" lon="6.89061">
        <ele>2308.8</ele>
        <time>2011-06-04T12:46:43Z</time>
      </trkpt>
      <trkpt lat="44.68979" lon="6.89063">
        <ele>2309</ele>
        <time>2011-06-04T12:46:50Z</time>
      </trkpt>
      <trkpt lat="44.68979" lon="6.89064">
        <ele>2309.2</ele>
        <time>2011-06-04T12:46:51Z</time>
      </trkpt>
      <trkpt lat="44.68973" lon="6.89067">
        <ele>2309.4</ele>
        <time>2011-06-04T12:46:56Z</time>
      </trkpt>
      <trkpt lat="44.68963" lon="6.89068">
        <ele>2309.8</ele>
        <time>2011-06-04T12:47:04Z</time>
      </trkpt>
      <trkpt lat="44.68961" lon="6.89068">
        <ele>2309.8</ele>
        <time>2011-06-04T12:47:06Z</time>
      </trkpt>
      <trkpt lat="44.68954" lon="6.89067">
        <ele>2309.8</ele>
        <time>2011-06-04T12:47:12Z</time>
      </trkpt>
      <trkpt lat="44.68946" lon="6.89069">
        <ele>2310</ele>
        <time>2011-06-04T12:47:20Z</time>
      </trkpt>
      <trkpt lat="44.68943" lon="6.8907">
        <ele>2310</ele>
        <time>2011-06-04T12:47:23Z</time>
      </trkpt>
      <trkpt lat="44.68937" lon="6.89073">
        <ele>2310</ele>
        <time>2011-06-04T12:47:29Z</time>
      </trkpt>
      <trkpt lat="44.68928" lon="6.89074">
        <ele>2310</ele>
        <time>2011-06-04T12:47:35Z</time>
      </trkpt>
      <trkpt lat="44.68924" lon="6.89075">
        <ele>2310</ele>
        <time>2011-06-04T12:47:39Z</time>
      </trkpt>
      <trkpt lat="44.68922" lon="6.89077">
        <ele>2310</ele>
        <time>2011-06-04T12:47:42Z</time>
      </trkpt>
      <trkpt lat="44.68912" lon="6.89082">
        <ele>2310</ele>
        <time>2011-06-04T12:47:51Z</time>
      </trkpt>
      <trkpt lat="44.68907" lon="6.89084">
        <ele>2310.4</ele>
        <time>2011-06-04T12:47:57Z</time>
      </trkpt>
      <trkpt lat="44.68898" lon="6.89091">
        <ele>2310.6</ele>
        <time>2011-06-04T12:48:06Z</time>
      </trkpt>
      <trkpt lat="44.68891" lon="6.89095">
        <ele>2310.8</ele>
        <time>2011-06-04T12:48:13Z</time>
      </trkpt>
      <trkpt lat="44.6889" lon="6.89095">
        <ele>2310.8</ele>
        <time>2011-06-04T12:48:14Z</time>
      </trkpt>
      <trkpt lat="44.68881" lon="6.89096">
        <ele>2310.8</ele>
        <time>2011-06-04T12:48:21Z</time>
      </trkpt>
      <trkpt lat="44.68871" lon="6.89097">
        <ele>2310.6</ele>
        <time>2011-06-04T12:48:29Z</time>
      </trkpt>
      <trkpt lat="44.68863" lon="6.89099">
        <ele>2310.8</ele>
        <time>2011-06-04T12:48:36Z</time>
      </trkpt>
      <trkpt lat="44.68853" lon="6.89097">
        <ele>2310.8</ele>
        <time>2011-06-04T12:48:44Z</time>
      </trkpt>
      <trkpt lat="44.68845" lon="6.89098">
        <ele>2311</ele>
        <time>2011-06-04T12:48:51Z</time>
      </trkpt>
      <trkpt lat="44.6884" lon="6.89098">
        <ele>2311</ele>
        <time>2011-06-04T12:48:55Z</time>
      </trkpt>
      <trkpt lat="44.68835" lon="6.89099">
        <ele>2311</ele>
        <time>2011-06-04T12:48:59Z</time>
      </trkpt>
      <trkpt lat="44.6883" lon="6.891">
        <ele>2311</ele>
        <time>2011-06-04T12:49:03Z</time>
      </trkpt>
      <trkpt lat="44.68824" lon="6.89102">
        <ele>2311</ele>
        <time>2011-06-04T12:49:08Z</time>
      </trkpt>
      <trkpt lat="44.68822" lon="6.89103">
        <ele>2311</ele>
        <time>2011-06-04T12:49:10Z</time>
      </trkpt>
      <trkpt lat="44.68817" lon="6.89107">
        <ele>2311</ele>
        <time>2011-06-04T12:49:15Z</time>
      </trkpt>
      <trkpt lat="44.68812" lon="6.8911">
        <ele>2311</ele>
        <time>2011-06-04T12:49:20Z</time>
      </trkpt>
      <trkpt lat="44.68806" lon="6.89113">
        <ele>2310.8</ele>
        <time>2011-06-04T12:49:26Z</time>
      </trkpt>
      <trkpt lat="44.68801" lon="6.89116">
        <ele>2311</ele>
        <time>2011-06-04T12:49:30Z</time>
      </trkpt>
      <trkpt lat="44.68796" lon="6.89121">
        <ele>2311</ele>
        <time>2011-06-04T12:49:36Z</time>
      </trkpt>
      <trkpt lat="44.68789" lon="6.89127">
        <ele>2311</ele>
        <time>2011-06-04T12:49:44Z</time>
      </trkpt>
      <trkpt lat="44.68786" lon="6.8913">
        <ele>2311.2</ele>
        <time>2011-06-04T12:49:48Z</time>
      </trkpt>
      <trkpt lat="44.68783" lon="6.89133">
        <ele>2311.4</ele>
        <time>2011-06-04T12:49:51Z</time>
      </trkpt>
      <trkpt lat="44.68777" lon="6.89139">
        <ele>2311.4</ele>
        <time>2011-06-04T12:49:58Z</time>
      </trkpt>
      <trkpt lat="44.68772" lon="6.89146">
        <ele>2311.8</ele>
        <time>2011-06-04T12:50:05Z</time>
      </trkpt>
      <trkpt lat="44.68771" lon="6.89147">
        <ele>2311.6</ele>
        <time>2011-06-04T12:50:06Z</time>
      </trkpt>
      <trkpt lat="44.68763" lon="6.89157">
        <ele>2312</ele>
        <time>2011-06-04T12:50:15Z</time>
      </trkpt>
      <trkpt lat="44.68761" lon="6.8916">
        <ele>2312.4</ele>
        <time>2011-06-04T12:50:22Z</time>
      </trkpt>
      <trkpt lat="44.68758" lon="6.89162">
        <ele>2312.6</ele>
        <time>2011-06-04T12:50:30Z</time>
      </trkpt>
      <trkpt lat="44.68758" lon="6.89163">
        <ele>2312.6</ele>
        <time>2011-06-04T12:50:31Z</time>
      </trkpt>
      <trkpt lat="44.68755" lon="6.8917">
        <ele>2312.6</ele>
        <time>2011-06-04T12:50:38Z</time>
      </trkpt>
      <trkpt lat="44.6875" lon="6.89177">
        <ele>2312.8</ele>
        <time>2011-06-04T12:50:44Z</time>
      </trkpt>
      <trkpt lat="44.68747" lon="6.89179">
        <ele>2312.8</ele>
        <time>2011-06-04T12:50:48Z</time>
      </trkpt>
      <trkpt lat="44.68745" lon="6.8918">
        <ele>2312.8</ele>
        <time>2011-06-04T12:50:50Z</time>
      </trkpt>
      <trkpt lat="44.68745" lon="6.8918">
        <ele>2312.8</ele>
        <time>2011-06-04T12:50:51Z</time>
      </trkpt>
      <trkpt lat="44.68742" lon="6.89187">
        <ele>2313</ele>
        <time>2011-06-04T12:50:56Z</time>
      </trkpt>
      <trkpt lat="44.68739" lon="6.89192">
        <ele>2313.4</ele>
        <time>2011-06-04T12:51:01Z</time>
      </trkpt>
      <trkpt lat="44.68737" lon="6.89197">
        <ele>2314</ele>
        <time>2011-06-04T12:51:05Z</time>
      </trkpt>
      <trkpt lat="44.68736" lon="6.89201">
        <ele>2314.2</ele>
        <time>2011-06-04T12:51:08Z</time>
      </trkpt>
      <trkpt lat="44.6873" lon="6.89205">
        <ele>2314.6</ele>
        <time>2011-06-04T12:51:14Z</time>
      </trkpt>
      <trkpt lat="44.68729" lon="6.89205">
        <ele>2314.6</ele>
        <time>2011-06-04T12:51:15Z</time>
      </trkpt>
      <trkpt lat="44.68723" lon="6.89215">
        <ele>2315.2</ele>
        <time>2011-06-04T12:51:23Z</time>
      </trkpt>
      <trkpt lat="44.68721" lon="6.89217">
        <ele>2315.2</ele>
        <time>2011-06-04T12:51:25Z</time>
      </trkpt>
      <trkpt lat="44.68717" lon="6.89222">
        <ele>2315.2</ele>
        <time>2011-06-04T12:51:29Z</time>
      </trkpt>
      <trkpt lat="44.68714" lon="6.89232">
        <ele>2315.4</ele>
        <time>2011-06-04T12:51:37Z</time>
      </trkpt>
      <trkpt lat="44.68713" lon="6.89235">
        <ele>2315.4</ele>
        <time>2011-06-04T12:51:39Z</time>
      </trkpt>
      <trkpt lat="44.68711" lon="6.89237">
        <ele>2315.6</ele>
        <time>2011-06-04T12:51:41Z</time>
      </trkpt>
      <trkpt lat="44.68711" lon="6.89238">
        <ele>2315.6</ele>
        <time>2011-06-04T12:51:42Z</time>
      </trkpt>
      <trkpt lat="44.68705" lon="6.89245">
        <ele>2315.8</ele>
        <time>2011-06-04T12:51:48Z</time>
      </trkpt>
      <trkpt lat="44.68701" lon="6.89255">
        <ele>2316</ele>
        <time>2011-06-04T12:51:55Z</time>
      </trkpt>
      <trkpt lat="44.68699" lon="6.89259">
        <ele>2316</ele>
        <time>2011-06-04T12:51:58Z</time>
      </trkpt>
      <trkpt lat="44.68695" lon="6.89262">
        <ele>2316.2</ele>
        <time>2011-06-04T12:52:02Z</time>
      </trkpt>
      <trkpt lat="44.6869" lon="6.89262">
        <ele>2316.2</ele>
        <time>2011-06-04T12:52:08Z</time>
      </trkpt>
      <trkpt lat="44.68692" lon="6.89261">
        <ele>2317.8</ele>
        <time>2011-06-04T12:54:31Z</time>
      </trkpt>
      <trkpt lat="44.68692" lon="6.8926">
        <ele>2317.8</ele>
        <time>2011-06-04T12:54:33Z</time>
      </trkpt>
      <trkpt lat="44.68692" lon="6.89269">
        <ele>2320.4</ele>
        <time>2011-06-04T12:56:09Z</time>
      </trkpt>
      <trkpt lat="44.68691" lon="6.89272">
        <ele>2320.4</ele>
        <time>2011-06-04T12:56:14Z</time>
      </trkpt>
      <trkpt lat="44.68689" lon="6.89275">
        <ele>2320.2</ele>
        <time>2011-06-04T12:56:18Z</time>
      </trkpt>
      <trkpt lat="44.68688" lon="6.89281">
        <ele>2320.2</ele>
        <time>2011-06-04T12:56:21Z</time>
      </trkpt>
      <trkpt lat="44.68687" lon="6.89284">
        <ele>2320.2</ele>
        <time>2011-06-04T12:56:23Z</time>
      </trkpt>
      <trkpt lat="44.68686" lon="6.89285">
        <ele>2320.2</ele>
        <time>2011-06-04T12:56:24Z</time>
      </trkpt>
      <trkpt lat="44.68685" lon="6.89285">
        <ele>2320</ele>
        <time>2011-06-04T12:56:29Z</time>
      </trkpt>
      <trkpt lat="44.6868" lon="6.89292">
        <ele>2319.8</ele>
        <time>2011-06-04T12:56:38Z</time>
      </trkpt>
      <trkpt lat="44.68676" lon="6.89297">
        <ele>2319.8</ele>
        <time>2011-06-04T12:56:40Z</time>
      </trkpt>
      <trkpt lat="44.68674" lon="6.893">
        <ele>2319.6</ele>
        <time>2011-06-04T12:56:42Z</time>
      </trkpt>
      <trkpt lat="44.68671" lon="6.89303">
        <ele>2319.6</ele>
        <time>2011-06-04T12:56:46Z</time>
      </trkpt>
      <trkpt lat="44.68669" lon="6.89304">
        <ele>2319.4</ele>
        <time>2011-06-04T12:56:47Z</time>
      </trkpt>
      <trkpt lat="44.68662" lon="6.89307">
        <ele>2319.2</ele>
        <time>2011-06-04T12:56:51Z</time>
      </trkpt>
      <trkpt lat="44.6866" lon="6.89308">
        <ele>2319.2</ele>
        <time>2011-06-04T12:56:52Z</time>
      </trkpt>
      <trkpt lat="44.6865" lon="6.89315">
        <ele>2319</ele>
        <time>2011-06-04T12:56:56Z</time>
      </trkpt>
      <trkpt lat="44.68646" lon="6.89318">
        <ele>2318.8</ele>
        <time>2011-06-04T12:56:58Z</time>
      </trkpt>
      <trkpt lat="44.68644" lon="6.8932">
        <ele>2318.8</ele>
        <time>2011-06-04T12:56:59Z</time>
      </trkpt>
      <trkpt lat="44.68639" lon="6.89323">
        <ele>2318.8</ele>
        <time>2011-06-04T12:57:01Z</time>
      </trkpt>
      <trkpt lat="44.68625" lon="6.89328">
        <ele>2318.8</ele>
        <time>2011-06-04T12:57:08Z</time>
      </trkpt>
      <trkpt lat="44.68614" lon="6.89331">
        <ele>2318.6</ele>
        <time>2011-06-04T12:57:14Z</time>
      </trkpt>
      <trkpt lat="44.68607" lon="6.89333">
        <ele>2318.8</ele>
        <time>2011-06-04T12:57:19Z</time>
      </trkpt>
      <trkpt lat="44.68606" lon="6.89334">
        <ele>2319</ele>
        <time>2011-06-04T12:57:20Z</time>
      </trkpt>
      <trkpt lat="44.68603" lon="6.89335">
        <ele>2319.2</ele>
        <time>2011-06-04T12:57:24Z</time>
      </trkpt>
      <trkpt lat="44.68602" lon="6.89335">
        <ele>2319.4</ele>
        <time>2011-06-04T12:57:25Z</time>
      </trkpt>
      <trkpt lat="44.68601" lon="6.89335">
        <ele>2319.6</ele>
        <time>2011-06-04T12:57:27Z</time>
      </trkpt>
      <trkpt lat="44.686" lon="6.89334">
        <ele>2319.6</ele>
        <time>2011-06-04T12:57:28Z</time>
      </trkpt>
      <trkpt lat="44.68596" lon="6.89333">
        <ele>2320</ele>
        <time>2011-06-04T12:57:32Z</time>
      </trkpt>
      <trkpt lat="44.68595" lon="6.89333">
        <ele>2320.2</ele>
        <time>2011-06-04T12:57:34Z</time>
      </trkpt>
      <trkpt lat="44.68592" lon="6.89333">
        <ele>2321.4</ele>
        <time>2011-06-04T12:57:46Z</time>
      </trkpt>
      <trkpt lat="44.68591" lon="6.89334">
        <ele>2321.4</ele>
        <time>2011-06-04T12:57:48Z</time>
      </trkpt>
      <trkpt lat="44.68586" lon="6.89335">
        <ele>2321.8</ele>
        <time>2011-06-04T12:57:54Z</time>
      </trkpt>
      <trkpt lat="44.68585" lon="6.89335">
        <ele>2321.8</ele>
        <time>2011-06-04T12:57:56Z</time>
      </trkpt>
      <trkpt lat="44.68582" lon="6.89335">
        <ele>2322</ele>
        <time>2011-06-04T12:58:00Z</time>
      </trkpt>
      <trkpt lat="44.68576" lon="6.89335">
        <ele>2322.4</ele>
        <time>2011-06-04T12:58:07Z</time>
      </trkpt>
      <trkpt lat="44.68573" lon="6.89336">
        <ele>2322.4</ele>
        <time>2011-06-04T12:58:11Z</time>
      </trkpt>
      <trkpt lat="44.68569" lon="6.89338">
        <ele>2322.4</ele>
        <time>2011-06-04T12:58:15Z</time>
      </trkpt>
      <trkpt lat="44.68567" lon="6.89338">
        <ele>2322.4</ele>
        <time>2011-06-04T12:58:22Z</time>
      </trkpt>
      <trkpt lat="44.68564" lon="6.89341">
        <ele>2322.4</ele>
        <time>2011-06-04T12:58:39Z</time>
      </trkpt>
      <trkpt lat="44.68557" lon="6.89346">
        <ele>2322.2</ele>
        <time>2011-06-04T12:58:47Z</time>
      </trkpt>
      <trkpt lat="44.68556" lon="6.89346">
        <ele>2322.2</ele>
        <time>2011-06-04T12:58:48Z</time>
      </trkpt>
      <trkpt lat="44.68552" lon="6.89351">
        <ele>2322.2</ele>
        <time>2011-06-04T12:58:54Z</time>
      </trkpt>
      <trkpt lat="44.68545" lon="6.89356">
        <ele>2322.2</ele>
        <time>2011-06-04T12:59:01Z</time>
      </trkpt>
      <trkpt lat="44.68541" lon="6.89359">
        <ele>2322.2</ele>
        <time>2011-06-04T12:59:05Z</time>
      </trkpt>
      <trkpt lat="44.68538" lon="6.89362">
        <ele>2322.2</ele>
        <time>2011-06-04T12:59:08Z</time>
      </trkpt>
      <trkpt lat="44.68534" lon="6.89368">
        <ele>2322</ele>
        <time>2011-06-04T12:59:14Z</time>
      </trkpt>
      <trkpt lat="44.68532" lon="6.89371">
        <ele>2322</ele>
        <time>2011-06-04T12:59:17Z</time>
      </trkpt>
      <trkpt lat="44.6853" lon="6.89374">
        <ele>2322</ele>
        <time>2011-06-04T12:59:20Z</time>
      </trkpt>
      <trkpt lat="44.68528" lon="6.89376">
        <ele>2322</ele>
        <time>2011-06-04T12:59:22Z</time>
      </trkpt>
      <trkpt lat="44.68525" lon="6.89381">
        <ele>2322</ele>
        <time>2011-06-04T12:59:27Z</time>
      </trkpt>
      <trkpt lat="44.68523" lon="6.89384">
        <ele>2322</ele>
        <time>2011-06-04T12:59:32Z</time>
      </trkpt>
      <trkpt lat="44.68518" lon="6.8939">
        <ele>2322</ele>
        <time>2011-06-04T12:59:39Z</time>
      </trkpt>
      <trkpt lat="44.68514" lon="6.89393">
        <ele>2322</ele>
        <time>2011-06-04T12:59:44Z</time>
      </trkpt>
      <trkpt lat="44.68514" lon="6.89393">
        <ele>2322</ele>
        <time>2011-06-04T12:59:45Z</time>
      </trkpt>
      <trkpt lat="44.68513" lon="6.89394">
        <ele>2322.4</ele>
        <time>2011-06-04T12:59:52Z</time>
      </trkpt>
      <trkpt lat="44.68507" lon="6.89397">
        <ele>2322.6</ele>
        <time>2011-06-04T12:59:59Z</time>
      </trkpt>
      <trkpt lat="44.68504" lon="6.89398">
        <ele>2322.6</ele>
        <time>2011-06-04T13:00:02Z</time>
      </trkpt>
      <trkpt lat="44.68501" lon="6.894">
        <ele>2322.8</ele>
        <time>2011-06-04T13:00:05Z</time>
      </trkpt>
      <trkpt lat="44.68498" lon="6.89401">
        <ele>2323</ele>
        <time>2011-06-04T13:00:08Z</time>
      </trkpt>
      <trkpt lat="44.68496" lon="6.89401">
        <ele>2323</ele>
        <time>2011-06-04T13:00:09Z</time>
      </trkpt>
      <trkpt lat="44.68493" lon="6.89402">
        <ele>2323</ele>
        <time>2011-06-04T13:00:12Z</time>
      </trkpt>
      <trkpt lat="44.68487" lon="6.89404">
        <ele>2323.4</ele>
        <time>2011-06-04T13:00:18Z</time>
      </trkpt>
      <trkpt lat="44.6848" lon="6.89408">
        <ele>2323.6</ele>
        <time>2011-06-04T13:00:25Z</time>
      </trkpt>
      <trkpt lat="44.68472" lon="6.89413">
        <ele>2324</ele>
        <time>2011-06-04T13:00:33Z</time>
      </trkpt>
      <trkpt lat="44.68467" lon="6.89416">
        <ele>2324.2</ele>
        <time>2011-06-04T13:00:38Z</time>
      </trkpt>
      <trkpt lat="44.68463" lon="6.89418">
        <ele>2324.2</ele>
        <time>2011-06-04T13:00:42Z</time>
      </trkpt>
      <trkpt lat="44.68461" lon="6.89419">
        <ele>2324.4</ele>
        <time>2011-06-04T13:00:44Z</time>
      </trkpt>
      <trkpt lat="44.68453" lon="6.89424">
        <ele>2324.6</ele>
        <time>2011-06-04T13:00:51Z</time>
      </trkpt>
      <trkpt lat="44.68446" lon="6.89428">
        <ele>2324.8</ele>
        <time>2011-06-04T13:00:56Z</time>
      </trkpt>
      <trkpt lat="44.68445" lon="6.89428">
        <ele>2324.8</ele>
        <time>2011-06-04T13:00:57Z</time>
      </trkpt>
      <trkpt lat="44.68434" lon="6.89428">
        <ele>2325.2</ele>
        <time>2011-06-04T13:01:05Z</time>
      </trkpt>
      <trkpt lat="44.68427" lon="6.89428">
        <ele>2325.4</ele>
        <time>2011-06-04T13:01:10Z</time>
      </trkpt>
      <trkpt lat="44.68423" lon="6.8943">
        <ele>2325.6</ele>
        <time>2011-06-04T13:01:14Z</time>
      </trkpt>
      <trkpt lat="44.68413" lon="6.89435">
        <ele>2325.8</ele>
        <time>2011-06-04T13:01:22Z</time>
      </trkpt>
      <trkpt lat="44.6841" lon="6.89437">
        <ele>2326</ele>
        <time>2011-06-04T13:01:25Z</time>
      </trkpt>
      <trkpt lat="44.68407" lon="6.89438">
        <ele>2326</ele>
        <time>2011-06-04T13:01:27Z</time>
      </trkpt>
      <trkpt lat="44.68398" lon="6.89439">
        <ele>2326.2</ele>
        <time>2011-06-04T13:01:34Z</time>
      </trkpt>
      <trkpt lat="44.68391" lon="6.8944">
        <ele>2326.4</ele>
        <time>2011-06-04T13:01:40Z</time>
      </trkpt>
      <trkpt lat="44.6838" lon="6.89444">
        <ele>2326.4</ele>
        <time>2011-06-04T13:01:50Z</time>
      </trkpt>
      <trkpt lat="44.6838" lon="6.89443">
        <ele>2326.4</ele>
        <time>2011-06-04T13:01:55Z</time>
      </trkpt>
      <trkpt lat="44.68379" lon="6.89445">
        <ele>2326.6</ele>
        <time>2011-06-04T13:03:10Z</time>
      </trkpt>
      <trkpt lat="44.68376" lon="6.89446">
        <ele>2326.8</ele>
        <time>2011-06-04T13:03:13Z</time>
      </trkpt>
      <trkpt lat="44.68373" lon="6.89446">
        <ele>2326.8</ele>
        <time>2011-06-04T13:03:16Z</time>
      </trkpt>
      <trkpt lat="44.6837" lon="6.89446">
        <ele>2327</ele>
        <time>2011-06-04T13:03:19Z</time>
      </trkpt>
      <trkpt lat="44.68362" lon="6.89446">
        <ele>2327</ele>
        <time>2011-06-04T13:03:26Z</time>
      </trkpt>
      <trkpt lat="44.68361" lon="6.89445">
        <ele>2327</ele>
        <time>2011-06-04T13:03:27Z</time>
      </trkpt>
      <trkpt lat="44.68357" lon="6.89442">
        <ele>2327.2</ele>
        <time>2011-06-04T13:03:33Z</time>
      </trkpt>
      <trkpt lat="44.68357" lon="6.89442">
        <ele>2327.2</ele>
        <time>2011-06-04T13:03:34Z</time>
      </trkpt>
      <trkpt lat="44.68353" lon="6.8944">
        <ele>2327.4</ele>
        <time>2011-06-04T13:03:41Z</time>
      </trkpt>
      <trkpt lat="44.68346" lon="6.89437">
        <ele>2328</ele>
        <time>2011-06-04T13:03:48Z</time>
      </trkpt>
      <trkpt lat="44.68344" lon="6.89437">
        <ele>2328.2</ele>
        <time>2011-06-04T13:03:50Z</time>
      </trkpt>
      <trkpt lat="44.6834" lon="6.89435">
        <ele>2328.4</ele>
        <time>2011-06-04T13:03:54Z</time>
      </trkpt>
      <trkpt lat="44.68336" lon="6.89431">
        <ele>2328.8</ele>
        <time>2011-06-04T13:03:59Z</time>
      </trkpt>
      <trkpt lat="44.68332" lon="6.89431">
        <ele>2329.2</ele>
        <time>2011-06-04T13:04:03Z</time>
      </trkpt>
      <trkpt lat="44.6833" lon="6.89431">
        <ele>2329.2</ele>
        <time>2011-06-04T13:04:05Z</time>
      </trkpt>
      <trkpt lat="44.68327" lon="6.89431">
        <ele>2329.4</ele>
        <time>2011-06-04T13:04:08Z</time>
      </trkpt>
      <trkpt lat="44.68325" lon="6.8943">
        <ele>2329.6</ele>
        <time>2011-06-04T13:04:11Z</time>
      </trkpt>
      <trkpt lat="44.68323" lon="6.8943">
        <ele>2329.6</ele>
        <time>2011-06-04T13:04:13Z</time>
      </trkpt>
      <trkpt lat="44.68318" lon="6.8943">
        <ele>2329.8</ele>
        <time>2011-06-04T13:04:17Z</time>
      </trkpt>
      <trkpt lat="44.68312" lon="6.8943">
        <ele>2330</ele>
        <time>2011-06-04T13:04:22Z</time>
      </trkpt>
      <trkpt lat="44.6831" lon="6.8943">
        <ele>2330</ele>
        <time>2011-06-04T13:04:24Z</time>
      </trkpt>
      <trkpt lat="44.68303" lon="6.89432">
        <ele>2330.2</ele>
        <time>2011-06-04T13:04:30Z</time>
      </trkpt>
      <trkpt lat="44.68302" lon="6.89432">
        <ele>2330.2</ele>
        <time>2011-06-04T13:04:31Z</time>
      </trkpt>
      <trkpt lat="44.68295" lon="6.89433">
        <ele>2330.2</ele>
        <time>2011-06-04T13:04:37Z</time>
      </trkpt>
      <trkpt lat="44.68293" lon="6.89433">
        <ele>2330.4</ele>
        <time>2011-06-04T13:04:39Z</time>
      </trkpt>
      <trkpt lat="44.68292" lon="6.89433">
        <ele>2330.2</ele>
        <time>2011-06-04T13:04:40Z</time>
      </trkpt>
      <trkpt lat="44.6829" lon="6.89433">
        <ele>2330.2</ele>
        <time>2011-06-04T13:04:42Z</time>
      </trkpt>
      <trkpt lat="44.68289" lon="6.89432">
        <ele>2330.2</ele>
        <time>2011-06-04T13:04:45Z</time>
      </trkpt>
      <trkpt lat="44.68282" lon="6.89431">
        <ele>2330.2</ele>
        <time>2011-06-04T13:04:51Z</time>
      </trkpt>
      <trkpt lat="44.68278" lon="6.89433">
        <ele>2330.2</ele>
        <time>2011-06-04T13:04:55Z</time>
      </trkpt>
      <trkpt lat="44.68277" lon="6.89433">
        <ele>2330.2</ele>
        <time>2011-06-04T13:04:57Z</time>
      </trkpt>
      <trkpt lat="44.68276" lon="6.89435">
        <ele>2330</ele>
        <time>2011-06-04T13:05:03Z</time>
      </trkpt>
      <trkpt lat="44.68275" lon="6.89435">
        <ele>2330</ele>
        <time>2011-06-04T13:05:04Z</time>
      </trkpt>
      <trkpt lat="44.68269" lon="6.89437">
        <ele>2330</ele>
        <time>2011-06-04T13:05:10Z</time>
      </trkpt>
      <trkpt lat="44.68261" lon="6.89441">
        <ele>2329.8</ele>
        <time>2011-06-04T13:05:18Z</time>
      </trkpt>
      <trkpt lat="44.68258" lon="6.89444">
        <ele>2329.8</ele>
        <time>2011-06-04T13:05:21Z</time>
      </trkpt>
      <trkpt lat="44.68251" lon="6.89447">
        <ele>2329.8</ele>
        <time>2011-06-04T13:05:26Z</time>
      </trkpt>
      <trkpt lat="44.68243" lon="6.89451">
        <ele>2330</ele>
        <time>2011-06-04T13:05:34Z</time>
      </trkpt>
      <trkpt lat="44.68243" lon="6.89451">
        <ele>2330</ele>
        <time>2011-06-04T13:05:34Z</time>
      </trkpt>
      <trkpt lat="44.6824" lon="6.89453">
        <ele>2330</ele>
        <time>2011-06-04T13:05:38Z</time>
      </trkpt>
      <trkpt lat="44.6824" lon="6.89453">
        <ele>2330.2</ele>
        <time>2011-06-04T13:05:42Z</time>
      </trkpt>
      <trkpt lat="44.68235" lon="6.89455">
        <ele>2330.4</ele>
        <time>2011-06-04T13:05:47Z</time>
      </trkpt>
      <trkpt lat="44.68224" lon="6.89459">
        <ele>2330.8</ele>
        <time>2011-06-04T13:05:57Z</time>
      </trkpt>
      <trkpt lat="44.68223" lon="6.8946">
        <ele>2330.8</ele>
        <time>2011-06-04T13:05:58Z</time>
      </trkpt>
      <trkpt lat="44.6822" lon="6.89463">
        <ele>2331</ele>
        <time>2011-06-04T13:06:04Z</time>
      </trkpt>
      <trkpt lat="44.68216" lon="6.89466">
        <ele>2331.2</ele>
        <time>2011-06-04T13:06:10Z</time>
      </trkpt>
      <trkpt lat="44.68208" lon="6.8947">
        <ele>2331.6</ele>
        <time>2011-06-04T13:06:18Z</time>
      </trkpt>
      <trkpt lat="44.68207" lon="6.8947">
        <ele>2331.6</ele>
        <time>2011-06-04T13:06:19Z</time>
      </trkpt>
      <trkpt lat="44.68204" lon="6.89472">
        <ele>2332</ele>
        <time>2011-06-04T13:06:25Z</time>
      </trkpt>
      <trkpt lat="44.68198" lon="6.89477">
        <ele>2332.4</ele>
        <time>2011-06-04T13:06:32Z</time>
      </trkpt>
      <trkpt lat="44.68194" lon="6.89486">
        <ele>2332.6</ele>
        <time>2011-06-04T13:06:39Z</time>
      </trkpt>
      <trkpt lat="44.68193" lon="6.89487">
        <ele>2332.8</ele>
        <time>2011-06-04T13:06:40Z</time>
      </trkpt>
      <trkpt lat="44.68187" lon="6.89497">
        <ele>2333</ele>
        <time>2011-06-04T13:06:47Z</time>
      </trkpt>
      <trkpt lat="44.6818" lon="6.89501">
        <ele>2333.4</ele>
        <time>2011-06-04T13:06:54Z</time>
      </trkpt>
      <trkpt lat="44.68179" lon="6.89502">
        <ele>2333.4</ele>
        <time>2011-06-04T13:06:55Z</time>
      </trkpt>
      <trkpt lat="44.6817" lon="6.89506">
        <ele>2333.6</ele>
        <time>2011-06-04T13:07:02Z</time>
      </trkpt>
      <trkpt lat="44.68165" lon="6.89514">
        <ele>2333.4</ele>
        <time>2011-06-04T13:07:09Z</time>
      </trkpt>
      <trkpt lat="44.68164" lon="6.89515">
        <ele>2333.4</ele>
        <time>2011-06-04T13:07:10Z</time>
      </trkpt>
      <trkpt lat="44.68157" lon="6.89523">
        <ele>2333.4</ele>
        <time>2011-06-04T13:07:18Z</time>
      </trkpt>
      <trkpt lat="44.6815" lon="6.89532">
        <ele>2333.4</ele>
        <time>2011-06-04T13:07:26Z</time>
      </trkpt>
      <trkpt lat="44.6815" lon="6.89533">
        <ele>2333.4</ele>
        <time>2011-06-04T13:07:27Z</time>
      </trkpt>
      <trkpt lat="44.68149" lon="6.89536">
        <ele>2333.4</ele>
        <time>2011-06-04T13:07:30Z</time>
      </trkpt>
      <trkpt lat="44.68149" lon="6.89536">
        <ele>2333.2</ele>
        <time>2011-06-04T13:07:31Z</time>
      </trkpt>
      <trkpt lat="44.68148" lon="6.89536">
        <ele>2333.2</ele>
        <time>2011-06-04T13:07:34Z</time>
      </trkpt>
      <trkpt lat="44.68148" lon="6.89538">
        <ele>2333</ele>
        <time>2011-06-04T13:07:43Z</time>
      </trkpt>
      <trkpt lat="44.68145" lon="6.89541">
        <ele>2333</ele>
        <time>2011-06-04T13:07:48Z</time>
      </trkpt>
      <trkpt lat="44.68139" lon="6.89547">
        <ele>2333</ele>
        <time>2011-06-04T13:07:54Z</time>
      </trkpt>
      <trkpt lat="44.68137" lon="6.89551">
        <ele>2333</ele>
        <time>2011-06-04T13:07:57Z</time>
      </trkpt>
      <trkpt lat="44.68132" lon="6.89557">
        <ele>2333</ele>
        <time>2011-06-04T13:08:03Z</time>
      </trkpt>
      <trkpt lat="44.68125" lon="6.89563">
        <ele>2333</ele>
        <time>2011-06-04T13:08:10Z</time>
      </trkpt>
      <trkpt lat="44.68125" lon="6.89564">
        <ele>2333</ele>
        <time>2011-06-04T13:08:11Z</time>
      </trkpt>
      <trkpt lat="44.68119" lon="6.89573">
        <ele>2333</ele>
        <time>2011-06-04T13:08:18Z</time>
      </trkpt>
      <trkpt lat="44.68113" lon="6.89582">
        <ele>2333</ele>
        <time>2011-06-04T13:08:25Z</time>
      </trkpt>
      <trkpt lat="44.68112" lon="6.89583">
        <ele>2333</ele>
        <time>2011-06-04T13:08:26Z</time>
      </trkpt>
      <trkpt lat="44.68102" lon="6.89587">
        <ele>2333.2</ele>
        <time>2011-06-04T13:08:34Z</time>
      </trkpt>
      <trkpt lat="44.68096" lon="6.89593">
        <ele>2333.4</ele>
        <time>2011-06-04T13:08:40Z</time>
      </trkpt>
      <trkpt lat="44.68093" lon="6.89596">
        <ele>2333.4</ele>
        <time>2011-06-04T13:08:43Z</time>
      </trkpt>
      <trkpt lat="44.68085" lon="6.89604">
        <ele>2333.8</ele>
        <time>2011-06-04T13:08:51Z</time>
      </trkpt>
      <trkpt lat="44.68081" lon="6.89605">
        <ele>2334</ele>
        <time>2011-06-04T13:08:54Z</time>
      </trkpt>
      <trkpt lat="44.68077" lon="6.89607">
        <ele>2334</ele>
        <time>2011-06-04T13:08:57Z</time>
      </trkpt>
      <trkpt lat="44.68066" lon="6.8961">
        <ele>2334.6</ele>
        <time>2011-06-04T13:09:06Z</time>
      </trkpt>
      <trkpt lat="44.68062" lon="6.89612">
        <ele>2334.8</ele>
        <time>2011-06-04T13:09:09Z</time>
      </trkpt>
      <trkpt lat="44.68059" lon="6.89618">
        <ele>2335</ele>
        <time>2011-06-04T13:09:13Z</time>
      </trkpt>
      <trkpt lat="44.68054" lon="6.89631">
        <ele>2335.2</ele>
        <time>2011-06-04T13:09:21Z</time>
      </trkpt>
      <trkpt lat="44.68053" lon="6.89634">
        <ele>2335.2</ele>
        <time>2011-06-04T13:09:23Z</time>
      </trkpt>
      <trkpt lat="44.68047" lon="6.89644">
        <ele>2335</ele>
        <time>2011-06-04T13:09:30Z</time>
      </trkpt>
      <trkpt lat="44.68041" lon="6.89653">
        <ele>2335</ele>
        <time>2011-06-04T13:09:37Z</time>
      </trkpt>
      <trkpt lat="44.6804" lon="6.89655">
        <ele>2335</ele>
        <time>2011-06-04T13:09:38Z</time>
      </trkpt>
      <trkpt lat="44.68032" lon="6.89669">
        <ele>2335</ele>
        <time>2011-06-04T13:09:48Z</time>
      </trkpt>
      <trkpt lat="44.68029" lon="6.89674">
        <ele>2335</ele>
        <time>2011-06-04T13:09:51Z</time>
      </trkpt>
      <trkpt lat="44.68024" lon="6.89686">
        <ele>2335</ele>
        <time>2011-06-04T13:09:58Z</time>
      </trkpt>
      <trkpt lat="44.6802" lon="6.89696">
        <ele>2335.2</ele>
        <time>2011-06-04T13:10:04Z</time>
      </trkpt>
      <trkpt lat="44.68018" lon="6.897">
        <ele>2335.2</ele>
        <time>2011-06-04T13:10:06Z</time>
      </trkpt>
      <trkpt lat="44.68011" lon="6.89715">
        <ele>2335.2</ele>
        <time>2011-06-04T13:10:15Z</time>
      </trkpt>
      <trkpt lat="44.68009" lon="6.89719">
        <ele>2335.2</ele>
        <time>2011-06-04T13:10:17Z</time>
      </trkpt>
      <trkpt lat="44.68005" lon="6.89731">
        <ele>2335.2</ele>
        <time>2011-06-04T13:10:24Z</time>
      </trkpt>
      <trkpt lat="44.68003" lon="6.89744">
        <ele>2335.4</ele>
        <time>2011-06-04T13:10:32Z</time>
      </trkpt>
      <trkpt lat="44.68004" lon="6.89745">
        <ele>2335.4</ele>
        <time>2011-06-04T13:10:33Z</time>
      </trkpt>
      <trkpt lat="44.68005" lon="6.89758">
        <ele>2335.4</ele>
        <time>2011-06-04T13:10:40Z</time>
      </trkpt>
      <trkpt lat="44.68005" lon="6.8977">
        <ele>2335.4</ele>
        <time>2011-06-04T13:10:46Z</time>
      </trkpt>
      <trkpt lat="44.68005" lon="6.89772">
        <ele>2335.4</ele>
        <time>2011-06-04T13:10:47Z</time>
      </trkpt>
      <trkpt lat="44.68003" lon="6.89783">
        <ele>2335.4</ele>
        <time>2011-06-04T13:10:53Z</time>
      </trkpt>
      <trkpt lat="44.68002" lon="6.89796">
        <ele>2335.2</ele>
        <time>2011-06-04T13:11:01Z</time>
      </trkpt>
      <trkpt lat="44.68" lon="6.89804">
        <ele>2335</ele>
        <time>2011-06-04T13:11:07Z</time>
      </trkpt>
      <trkpt lat="44.68" lon="6.89806">
        <ele>2335</ele>
        <time>2011-06-04T13:11:09Z</time>
      </trkpt>
      <trkpt lat="44.67999" lon="6.89817">
        <ele>2334.8</ele>
        <time>2011-06-04T13:11:15Z</time>
      </trkpt>
      <trkpt lat="44.68" lon="6.8982">
        <ele>2334.8</ele>
        <time>2011-06-04T13:11:17Z</time>
      </trkpt>
      <trkpt lat="44.68" lon="6.89821">
        <ele>2334.8</ele>
        <time>2011-06-04T13:11:18Z</time>
      </trkpt>
      <trkpt lat="44.68001" lon="6.89826">
        <ele>2334.6</ele>
        <time>2011-06-04T13:11:21Z</time>
      </trkpt>
      <trkpt lat="44.68001" lon="6.89835">
        <ele>2334.6</ele>
        <time>2011-06-04T13:11:27Z</time>
      </trkpt>
      <trkpt lat="44.68001" lon="6.89845">
        <ele>2334.4</ele>
        <time>2011-06-04T13:11:31Z</time>
      </trkpt>
      <trkpt lat="44.68001" lon="6.89847">
        <ele>2334.4</ele>
        <time>2011-06-04T13:11:32Z</time>
      </trkpt>
      <trkpt lat="44.67998" lon="6.8986">
        <ele>2334</ele>
        <time>2011-06-04T13:11:37Z</time>
      </trkpt>
      <trkpt lat="44.67992" lon="6.89864">
        <ele>2333.6</ele>
        <time>2011-06-04T13:11:42Z</time>
      </trkpt>
      <trkpt lat="44.67987" lon="6.89868">
        <ele>2332.8</ele>
        <time>2011-06-04T13:11:47Z</time>
      </trkpt>
      <trkpt lat="44.67984" lon="6.89868">
        <ele>2332.4</ele>
        <time>2011-06-04T13:11:50Z</time>
      </trkpt>
      <trkpt lat="44.67983" lon="6.89869">
        <ele>2332.2</ele>
        <time>2011-06-04T13:11:51Z</time>
      </trkpt>
      <trkpt lat="44.6798" lon="6.89875">
        <ele>2331.6</ele>
        <time>2011-06-04T13:11:55Z</time>
      </trkpt>
      <trkpt lat="44.67979" lon="6.89876">
        <ele>2331.4</ele>
        <time>2011-06-04T13:11:56Z</time>
      </trkpt>
      <trkpt lat="44.67978" lon="6.89877">
        <ele>2331.2</ele>
        <time>2011-06-04T13:11:57Z</time>
      </trkpt>
      <trkpt lat="44.67976" lon="6.8988">
        <ele>2330.8</ele>
        <time>2011-06-04T13:11:59Z</time>
      </trkpt>
      <trkpt lat="44.67974" lon="6.89884">
        <ele>2330.4</ele>
        <time>2011-06-04T13:12:01Z</time>
      </trkpt>
      <trkpt lat="44.6797" lon="6.8989">
        <ele>2329.6</ele>
        <time>2011-06-04T13:12:05Z</time>
      </trkpt>
      <trkpt lat="44.67969" lon="6.89894">
        <ele>2329.2</ele>
        <time>2011-06-04T13:12:07Z</time>
      </trkpt>
      <trkpt lat="44.67968" lon="6.89898">
        <ele>2328.8</ele>
        <time>2011-06-04T13:12:09Z</time>
      </trkpt>
      <trkpt lat="44.67965" lon="6.89905">
        <ele>2328</ele>
        <time>2011-06-04T13:12:12Z</time>
      </trkpt>
      <trkpt lat="44.67962" lon="6.89917">
        <ele>2326.8</ele>
        <time>2011-06-04T13:12:17Z</time>
      </trkpt>
      <trkpt lat="44.67959" lon="6.89919">
        <ele>2326.2</ele>
        <time>2011-06-04T13:12:20Z</time>
      </trkpt>
      <trkpt lat="44.67955" lon="6.89921">
        <ele>2325.4</ele>
        <time>2011-06-04T13:12:23Z</time>
      </trkpt>
      <trkpt lat="44.67954" lon="6.89921">
        <ele>2325</ele>
        <time>2011-06-04T13:12:24Z</time>
      </trkpt>
      <trkpt lat="44.67947" lon="6.8992">
        <ele>2323.8</ele>
        <time>2011-06-04T13:12:29Z</time>
      </trkpt>
      <trkpt lat="44.67941" lon="6.89921">
        <ele>2322.6</ele>
        <time>2011-06-04T13:12:33Z</time>
      </trkpt>
      <trkpt lat="44.6794" lon="6.89922">
        <ele>2322.2</ele>
        <time>2011-06-04T13:12:34Z</time>
      </trkpt>
      <trkpt lat="44.67934" lon="6.89932">
        <ele>2320.6</ele>
        <time>2011-06-04T13:12:39Z</time>
      </trkpt>
      <trkpt lat="44.6793" lon="6.89934">
        <ele>2319.8</ele>
        <time>2011-06-04T13:12:41Z</time>
      </trkpt>
      <trkpt lat="44.67927" lon="6.89931">
        <ele>2319.2</ele>
        <time>2011-06-04T13:12:43Z</time>
      </trkpt>
      <trkpt lat="44.67922" lon="6.89924">
        <ele>2317.8</ele>
        <time>2011-06-04T13:12:47Z</time>
      </trkpt>
      <trkpt lat="44.67922" lon="6.89922">
        <ele>2317.4</ele>
        <time>2011-06-04T13:12:48Z</time>
      </trkpt>
      <trkpt lat="44.67921" lon="6.89916">
        <ele>2316.2</ele>
        <time>2011-06-04T13:12:51Z</time>
      </trkpt>
      <trkpt lat="44.67921" lon="6.89915">
        <ele>2316</ele>
        <time>2011-06-04T13:12:52Z</time>
      </trkpt>
      <trkpt lat="44.67919" lon="6.89914">
        <ele>2315.6</ele>
        <time>2011-06-04T13:12:53Z</time>
      </trkpt>
      <trkpt lat="44.67918" lon="6.89913">
        <ele>2315.2</ele>
        <time>2011-06-04T13:12:54Z</time>
      </trkpt>
      <trkpt lat="44.67912" lon="6.89904">
        <ele>2313.8</ele>
        <time>2011-06-04T13:12:58Z</time>
      </trkpt>
      <trkpt lat="44.67909" lon="6.89901">
        <ele>2313.4</ele>
        <time>2011-06-04T13:12:59Z</time>
      </trkpt>
      <trkpt lat="44.67904" lon="6.89894">
        <ele>2312</ele>
        <time>2011-06-04T13:13:03Z</time>
      </trkpt>
      <trkpt lat="44.67898" lon="6.89885">
        <ele>2310.2</ele>
        <time>2011-06-04T13:13:08Z</time>
      </trkpt>
      <trkpt lat="44.67896" lon="6.89881">
        <ele>2309.4</ele>
        <time>2011-06-04T13:13:10Z</time>
      </trkpt>
      <trkpt lat="44.67893" lon="6.89879">
        <ele>2308.8</ele>
        <time>2011-06-04T13:13:12Z</time>
      </trkpt>
      <trkpt lat="44.6789" lon="6.89878">
        <ele>2308</ele>
        <time>2011-06-04T13:13:14Z</time>
      </trkpt>
      <trkpt lat="44.6789" lon="6.89872">
        <ele>2306.8</ele>
        <time>2011-06-04T13:13:17Z</time>
      </trkpt>
      <trkpt lat="44.67888" lon="6.89866">
        <ele>2305.6</ele>
        <time>2011-06-04T13:13:20Z</time>
      </trkpt>
      <trkpt lat="44.67886" lon="6.89864">
        <ele>2305.2</ele>
        <time>2011-06-04T13:13:21Z</time>
      </trkpt>
      <trkpt lat="44.67882" lon="6.89858">
        <ele>2303.8</ele>
        <time>2011-06-04T13:13:25Z</time>
      </trkpt>
      <trkpt lat="44.67881" lon="6.89856">
        <ele>2303.4</ele>
        <time>2011-06-04T13:13:26Z</time>
      </trkpt>
      <trkpt lat="44.67878" lon="6.8985">
        <ele>2301.8</ele>
        <time>2011-06-04T13:13:30Z</time>
      </trkpt>
      <trkpt lat="44.67878" lon="6.89846">
        <ele>2301</ele>
        <time>2011-06-04T13:13:32Z</time>
      </trkpt>
      <trkpt lat="44.67877" lon="6.89843">
        <ele>2300</ele>
        <time>2011-06-04T13:13:34Z</time>
      </trkpt>
      <trkpt lat="44.67877" lon="6.8984">
        <ele>2299.6</ele>
        <time>2011-06-04T13:13:35Z</time>
      </trkpt>
      <trkpt lat="44.67877" lon="6.89837">
        <ele>2299.2</ele>
        <time>2011-06-04T13:13:36Z</time>
      </trkpt>
      <trkpt lat="44.67878" lon="6.89834">
        <ele>2298.8</ele>
        <time>2011-06-04T13:13:37Z</time>
      </trkpt>
      <trkpt lat="44.67881" lon="6.89817">
        <ele>2296.8</ele>
        <time>2011-06-04T13:13:42Z</time>
      </trkpt>
      <trkpt lat="44.67881" lon="6.89811">
        <ele>2296</ele>
        <time>2011-06-04T13:13:44Z</time>
      </trkpt>
      <trkpt lat="44.67883" lon="6.89796">
        <ele>2294</ele>
        <time>2011-06-04T13:13:49Z</time>
      </trkpt>
      <trkpt lat="44.67881" lon="6.89784">
        <ele>2292.4</ele>
        <time>2011-06-04T13:13:53Z</time>
      </trkpt>
      <trkpt lat="44.6788" lon="6.89783">
        <ele>2292</ele>
        <time>2011-06-04T13:13:54Z</time>
      </trkpt>
      <trkpt lat="44.67872" lon="6.89777">
        <ele>2290.6</ele>
        <time>2011-06-04T13:13:57Z</time>
      </trkpt>
      <trkpt lat="44.67868" lon="6.89768">
        <ele>2289.8</ele>
        <time>2011-06-04T13:13:59Z</time>
      </trkpt>
      <trkpt lat="44.67868" lon="6.89764">
        <ele>2289.4</ele>
        <time>2011-06-04T13:14:00Z</time>
      </trkpt>
      <trkpt lat="44.67865" lon="6.89749">
        <ele>2287.6</ele>
        <time>2011-06-04T13:14:05Z</time>
      </trkpt>
      <trkpt lat="44.67864" lon="6.8974">
        <ele>2286</ele>
        <time>2011-06-04T13:14:09Z</time>
      </trkpt>
      <trkpt lat="44.67864" lon="6.89738">
        <ele>2285.6</ele>
        <time>2011-06-04T13:14:10Z</time>
      </trkpt>
    </trkseg>
  </trk>
</gpx>